<?xml version="1.0" encoding="UTF-8" standalone="no" ?>
<gpx xmlns="http://www.topografix.com/GPX/1/1" creator="MapSource 6.16.3" version="1.1" xmlns:xsi="http://www.w3.org/2001/XMLSchema-instance" xsi:schemaLocation="http://www.topografix.com/GPX/1/1 http://www.topografix.com/GPX/1/1/gpx.xsd">

  <metadata>
    <link href="http://www.garmin.com">
      <text>Garmin International</text>
    </link>
    <time>2016-09-17T07:42:41Z</time>
    <bounds maxlat="43.770940667018294" maxlon="10.569209083914757" minlat="43.736555501818657" minlon="10.48432370647788"/>
  </metadata>

  <wpt lat="43.768341690301895" lon="10.49173079431057">
    <ele>564</ele>
    <name>ABBEVERATOIO</name>
    <cmt>30-AGO-03 12:13</cmt>
    <desc>30-AGO-03 12:13</desc>
    <sym>Waypoint</sym>
    <extensions>
      <gpxx:WaypointExtension xmlns:gpxx="http://www.garmin.com/xmlschemas/GpxExtensions/v3">
        <gpxx:DisplayMode>SymbolAndName</gpxx:DisplayMode>
      </gpxx:WaypointExtension>
    </extensions>
  </wpt>

  <wpt lat="43.755515953525901" lon="10.506492247804999">
    <ele>611</ele>
    <name>CAMPO DI CROCE</name>
    <cmt>30-AGO-03 12:59</cmt>
    <desc>30-AGO-03 12:59</desc>
    <sym>Waypoint</sym>
    <extensions>
      <gpxx:WaypointExtension xmlns:gpxx="http://www.garmin.com/xmlschemas/GpxExtensions/v3">
        <gpxx:DisplayMode>SymbolAndName</gpxx:DisplayMode>
      </gpxx:WaypointExtension>
    </extensions>
  </wpt>

  <wpt lat="43.754261014983058" lon="10.548396483063698">
    <ele>789</ele>
    <name>COLLE PRATO DI CALCI</name>
    <cmt>30-AGO-03 13:47</cmt>
    <desc>30-AGO-03 13:47</desc>
    <sym>Waypoint</sym>
    <extensions>
      <gpxx:WaypointExtension xmlns:gpxx="http://www.garmin.com/xmlschemas/GpxExtensions/v3">
        <gpxx:DisplayMode>SymbolAndName</gpxx:DisplayMode>
      </gpxx:WaypointExtension>
    </extensions>
  </wpt>

  <wpt lat="43.75806120224297" lon="10.534805059432983">
    <ele>723</ele>
    <name>LA BISANTOLA</name>
    <cmt>30-AGO-03 10:21</cmt>
    <desc>30-AGO-03 10:21</desc>
    <sym>Waypoint</sym>
    <extensions>
      <gpxx:WaypointExtension xmlns:gpxx="http://www.garmin.com/xmlschemas/GpxExtensions/v3">
        <gpxx:DisplayMode>SymbolAndName</gpxx:DisplayMode>
      </gpxx:WaypointExtension>
    </extensions>
  </wpt>

  <wpt lat="43.740526512265205" lon="10.565554490312934">
    <ele>569</ele>
    <name>PARTENZA</name>
    <cmt>30-AGO-03 09:22</cmt>
    <desc>30-AGO-03 09:22</desc>
    <sym>Trail Head</sym>
    <extensions>
      <gpxx:WaypointExtension xmlns:gpxx="http://www.garmin.com/xmlschemas/GpxExtensions/v3">
        <gpxx:DisplayMode>SymbolAndName</gpxx:DisplayMode>
      </gpxx:WaypointExtension>
    </extensions>
  </wpt>

  <wpt lat="43.736691037192941" lon="10.549122858792543">
    <ele>637</ele>
    <name>PASSO PRATO CERAGIOLA</name>
    <cmt>30-AGO-03 13:54</cmt>
    <desc>30-AGO-03 13:54</desc>
    <sym>Waypoint</sym>
    <extensions>
      <gpxx:WaypointExtension xmlns:gpxx="http://www.garmin.com/xmlschemas/GpxExtensions/v3">
        <gpxx:DisplayMode>SymbolAndName</gpxx:DisplayMode>
      </gpxx:WaypointExtension>
    </extensions>
  </wpt>

  <wpt lat="43.765787472948432" lon="10.523932641372085">
    <ele>717</ele>
    <name>SANT' ALLAGO</name>
    <cmt>30-AGO-03 11:03</cmt>
    <desc>30-AGO-03 11:03</desc>
    <sym>Waypoint</sym>
    <extensions>
      <gpxx:WaypointExtension xmlns:gpxx="http://www.garmin.com/xmlschemas/GpxExtensions/v3">
        <gpxx:DisplayMode>SymbolAndName</gpxx:DisplayMode>
      </gpxx:WaypointExtension>
    </extensions>
  </wpt>

  <trk>
    <name>ACTIVE LOG</name>
    <trkseg>
      <trkpt lat="43.740514861419797" lon="10.565542252734303">
        <ele>567.315185546875</ele>
        <time>2003-08-30T07:21:14Z</time>
      </trkpt>
      <trkpt lat="43.740639835596085" lon="10.565566811710596">
        <ele>570.198974609375</ele>
        <time>2003-08-30T07:24:25Z</time>
      </trkpt>
      <trkpt lat="43.740733293816447" lon="10.565599920228124">
        <ele>572.121826171875</ele>
        <time>2003-08-30T07:24:30Z</time>
      </trkpt>
      <trkpt lat="43.740824656561017" lon="10.565586425364017">
        <ele>573.083251953125</ele>
        <time>2003-08-30T07:24:34Z</time>
      </trkpt>
      <trkpt lat="43.740914426743984" lon="10.565594807267189">
        <ele>574.04443359375</ele>
        <time>2003-08-30T07:24:39Z</time>
      </trkpt>
      <trkpt lat="43.741010231897235" lon="10.565590867772698">
        <ele>575.005859375</ele>
        <time>2003-08-30T07:24:44Z</time>
      </trkpt>
      <trkpt lat="43.741103271022439" lon="10.565567314624786">
        <ele>574.525146484375</ele>
        <time>2003-08-30T07:24:49Z</time>
      </trkpt>
      <trkpt lat="43.741205278784037" lon="10.565543174743652">
        <ele>573.56396484375</ele>
        <time>2003-08-30T07:24:55Z</time>
      </trkpt>
      <trkpt lat="43.741301503032446" lon="10.565547784790397">
        <ele>574.04443359375</ele>
        <time>2003-08-30T07:25:01Z</time>
      </trkpt>
      <trkpt lat="43.741410048678517" lon="10.565572511404753">
        <ele>575.486328125</ele>
        <time>2003-08-30T07:25:07Z</time>
      </trkpt>
      <trkpt lat="43.741503925994039" lon="10.565612744539976">
        <ele>578.370361328125</ele>
        <time>2003-08-30T07:25:13Z</time>
      </trkpt>
      <trkpt lat="43.74161004088819" lon="10.565600423142314">
        <ele>580.29296875</ele>
        <time>2003-08-30T07:25:19Z</time>
      </trkpt>
      <trkpt lat="43.741683131083846" lon="10.565532529726624">
        <ele>581.73486328125</ele>
        <time>2003-08-30T07:25:27Z</time>
      </trkpt>
      <trkpt lat="43.741737781092525" lon="10.56542381644249">
        <ele>582.6962890625</ele>
        <time>2003-08-30T07:25:35Z</time>
      </trkpt>
      <trkpt lat="43.741693776100874" lon="10.565299848094583">
        <ele>584.13818359375</ele>
        <time>2003-08-30T07:25:44Z</time>
      </trkpt>
      <trkpt lat="43.741650274023414" lon="10.565171856433153">
        <ele>585.580078125</ele>
        <time>2003-08-30T07:25:52Z</time>
      </trkpt>
      <trkpt lat="43.741651112213731" lon="10.56509105488658">
        <ele>587.02197265625</ele>
        <time>2003-08-30T07:26:00Z</time>
      </trkpt>
      <trkpt lat="43.741734931245446" lon="10.5650744587183">
        <ele>589.90625</ele>
        <time>2003-08-30T07:26:09Z</time>
      </trkpt>
      <trkpt lat="43.741805171594024" lon="10.565112261101604">
        <ele>589.90625</ele>
        <time>2003-08-30T07:26:18Z</time>
      </trkpt>
      <trkpt lat="43.741879016160965" lon="10.565220303833485">
        <ele>589.90625</ele>
        <time>2003-08-30T07:26:27Z</time>
      </trkpt>
      <trkpt lat="43.741957386955619" lon="10.565296662971377">
        <ele>591.828857421875</ele>
        <time>2003-08-30T07:26:36Z</time>
      </trkpt>
      <trkpt lat="43.742028214037418" lon="10.565395401790738">
        <ele>592.790283203125</ele>
        <time>2003-08-30T07:26:44Z</time>
      </trkpt>
      <trkpt lat="43.742111111059785" lon="10.565526578575373">
        <ele>592.790283203125</ele>
        <time>2003-08-30T07:26:52Z</time>
      </trkpt>
      <trkpt lat="43.742119912058115" lon="10.565684828907251">
        <ele>594.232177734375</ele>
        <time>2003-08-30T07:26:59Z</time>
      </trkpt>
      <trkpt lat="43.742169868201017" lon="10.565829668194056">
        <ele>595.193359375</ele>
        <time>2003-08-30T07:27:07Z</time>
      </trkpt>
      <trkpt lat="43.742232732474804" lon="10.565934777259827">
        <ele>598.077392578125</ele>
        <time>2003-08-30T07:27:16Z</time>
      </trkpt>
      <trkpt lat="43.742340356111526" lon="10.566013148054481">
        <ele>598.077392578125</ele>
        <time>2003-08-30T07:27:25Z</time>
      </trkpt>
      <trkpt lat="43.742485698312521" lon="10.566054554656148">
        <ele>599.03857421875</ele>
        <time>2003-08-30T07:27:34Z</time>
      </trkpt>
      <trkpt lat="43.742734557017684" lon="10.56604734621942">
        <ele>600.480712890625</ele>
        <time>2003-08-30T07:28:03Z</time>
      </trkpt>
      <trkpt lat="43.742835139855742" lon="10.56613183580339">
        <ele>601.44189453125</ele>
        <time>2003-08-30T07:28:10Z</time>
      </trkpt>
      <trkpt lat="43.742952989414334" lon="10.566199813038111">
        <ele>602.8837890625</ele>
        <time>2003-08-30T07:28:20Z</time>
      </trkpt>
      <trkpt lat="43.743079891428351" lon="10.566238285973668">
        <ele>603.84521484375</ele>
        <time>2003-08-30T07:28:28Z</time>
      </trkpt>
      <trkpt lat="43.743180306628346" lon="10.566284637898207">
        <ele>604.326171875</ele>
        <time>2003-08-30T07:28:35Z</time>
      </trkpt>
      <trkpt lat="43.743284661322832" lon="10.566327134147286">
        <ele>605.76806640625</ele>
        <time>2003-08-30T07:28:42Z</time>
      </trkpt>
      <trkpt lat="43.743386082351208" lon="10.566385388374329">
        <ele>608.65185546875</ele>
        <time>2003-08-30T07:28:49Z</time>
      </trkpt>
      <trkpt lat="43.743488593026996" lon="10.566444816067815">
        <ele>608.17138671875</ele>
        <time>2003-08-30T07:28:55Z</time>
      </trkpt>
      <trkpt lat="43.743585823103786" lon="10.566489910706878">
        <ele>608.17138671875</ele>
        <time>2003-08-30T07:29:01Z</time>
      </trkpt>
      <trkpt lat="43.743685819208622" lon="10.566558642312884">
        <ele>608.65185546875</ele>
        <time>2003-08-30T07:29:07Z</time>
      </trkpt>
      <trkpt lat="43.743778690695763" lon="10.566637767478824">
        <ele>609.61328125</ele>
        <time>2003-08-30T07:29:13Z</time>
      </trkpt>
      <trkpt lat="43.743858318775892" lon="10.566720915958285">
        <ele>610.574462890625</ele>
        <time>2003-08-30T07:29:19Z</time>
      </trkpt>
      <trkpt lat="43.743945155292749" lon="10.566797526553273">
        <ele>613.93896484375</ele>
        <time>2003-08-30T07:29:26Z</time>
      </trkpt>
      <trkpt lat="43.744054455310106" lon="10.566841866821051">
        <ele>614.419677734375</ele>
        <time>2003-08-30T07:29:35Z</time>
      </trkpt>
      <trkpt lat="43.744155624881387" lon="10.566879333928227">
        <ele>613.45849609375</ele>
        <time>2003-08-30T07:29:44Z</time>
      </trkpt>
      <trkpt lat="43.744257297366858" lon="10.566908419132233">
        <ele>614.900390625</ele>
        <time>2003-08-30T07:29:51Z</time>
      </trkpt>
      <trkpt lat="43.744348995387554" lon="10.566996093839407">
        <ele>616.34228515625</ele>
        <time>2003-08-30T07:29:57Z</time>
      </trkpt>
      <trkpt lat="43.744436837732792" lon="10.567083433270454">
        <ele>616.34228515625</ele>
        <time>2003-08-30T07:30:03Z</time>
      </trkpt>
      <trkpt lat="43.744524512439966" lon="10.567160211503506">
        <ele>615.86181640625</ele>
        <time>2003-08-30T07:30:09Z</time>
      </trkpt>
      <trkpt lat="43.744622748345137" lon="10.567233134061098">
        <ele>616.822998046875</ele>
        <time>2003-08-30T07:30:15Z</time>
      </trkpt>
      <trkpt lat="43.744719475507736" lon="10.567296333611012">
        <ele>616.822998046875</ele>
        <time>2003-08-30T07:30:21Z</time>
      </trkpt>
      <trkpt lat="43.744805809110403" lon="10.567364478483796">
        <ele>617.7841796875</ele>
        <time>2003-08-30T07:30:27Z</time>
      </trkpt>
      <trkpt lat="43.744893819093704" lon="10.567426336929202">
        <ele>617.3037109375</ele>
        <time>2003-08-30T07:30:33Z</time>
      </trkpt>
      <trkpt lat="43.744988115504384" lon="10.567498169839382">
        <ele>618.264892578125</ele>
        <time>2003-08-30T07:30:40Z</time>
      </trkpt>
      <trkpt lat="43.745096577331424" lon="10.567559022456408">
        <ele>618.264892578125</ele>
        <time>2003-08-30T07:30:48Z</time>
      </trkpt>
      <trkpt lat="43.745162291452289" lon="10.567655246704817">
        <ele>619.70703125</ele>
        <time>2003-08-30T07:30:56Z</time>
      </trkpt>
      <trkpt lat="43.745254660025239" lon="10.567705538123846">
        <ele>620.66845703125</ele>
        <time>2003-08-30T07:31:03Z</time>
      </trkpt>
      <trkpt lat="43.745354320853949" lon="10.567765552550554">
        <ele>621.149169921875</ele>
        <time>2003-08-30T07:31:10Z</time>
      </trkpt>
      <trkpt lat="43.745437804609537" lon="10.567873511463404">
        <ele>621.629638671875</ele>
        <time>2003-08-30T07:31:17Z</time>
      </trkpt>
      <trkpt lat="43.74552539549768" lon="10.56797300465405">
        <ele>621.149169921875</ele>
        <time>2003-08-30T07:31:23Z</time>
      </trkpt>
      <trkpt lat="43.745616171509027" lon="10.568049447610974">
        <ele>620.66845703125</ele>
        <time>2003-08-30T07:31:29Z</time>
      </trkpt>
      <trkpt lat="43.745726896449924" lon="10.568128991872072">
        <ele>620.66845703125</ele>
        <time>2003-08-30T07:31:36Z</time>
      </trkpt>
      <trkpt lat="43.745811637490988" lon="10.568254385143518">
        <ele>621.629638671875</ele>
        <time>2003-08-30T07:31:42Z</time>
      </trkpt>
      <trkpt lat="43.74588405713439" lon="10.568379778414965">
        <ele>622.1103515625</ele>
        <time>2003-08-30T07:31:48Z</time>
      </trkpt>
      <trkpt lat="43.745960919186473" lon="10.568514559417963">
        <ele>622.591064453125</ele>
        <time>2003-08-30T07:31:54Z</time>
      </trkpt>
      <trkpt lat="43.746032416820526" lon="10.568639952689409">
        <ele>623.07177734375</ele>
        <time>2003-08-30T07:32:00Z</time>
      </trkpt>
      <trkpt lat="43.746091341599822" lon="10.568765932694077">
        <ele>624.032958984375</ele>
        <time>2003-08-30T07:32:06Z</time>
      </trkpt>
      <trkpt lat="43.746176334097981" lon="10.568873807787895">
        <ele>624.994384765625</ele>
        <time>2003-08-30T07:32:12Z</time>
      </trkpt>
      <trkpt lat="43.746263505890965" lon="10.568959722295403">
        <ele>626.436279296875</ele>
        <time>2003-08-30T07:32:19Z</time>
      </trkpt>
      <trkpt lat="43.746345732361078" lon="10.569046139717102">
        <ele>626.436279296875</ele>
        <time>2003-08-30T07:32:26Z</time>
      </trkpt>
      <trkpt lat="43.746428042650223" lon="10.569132557138801">
        <ele>626.9169921875</ele>
        <time>2003-08-30T07:32:33Z</time>
      </trkpt>
      <trkpt lat="43.746513873338699" lon="10.569209083914757">
        <ele>627.397705078125</ele>
        <time>2003-08-30T07:32:40Z</time>
      </trkpt>
      <trkpt lat="43.746639350429177" lon="10.569187710061669">
        <ele>628.35888671875</ele>
        <time>2003-08-30T07:32:49Z</time>
      </trkpt>
      <trkpt lat="43.746749153360724" lon="10.569102633744478">
        <ele>629.320068359375</ele>
        <time>2003-08-30T07:32:57Z</time>
      </trkpt>
      <trkpt lat="43.746856190264225" lon="10.569011606276035">
        <ele>630.281494140625</ele>
        <time>2003-08-30T07:33:04Z</time>
      </trkpt>
      <trkpt lat="43.746969513595104" lon="10.568886967375875">
        <ele>630.281494140625</ele>
        <time>2003-08-30T07:33:11Z</time>
      </trkpt>
      <trkpt lat="43.747072443366051" lon="10.56876945309341">
        <ele>631.242919921875</ele>
        <time>2003-08-30T07:33:18Z</time>
      </trkpt>
      <trkpt lat="43.747176211327314" lon="10.568648586049676">
        <ele>631.242919921875</ele>
        <time>2003-08-30T07:33:25Z</time>
      </trkpt>
      <trkpt lat="43.747264556586742" lon="10.568545572459698">
        <ele>632.2041015625</ele>
        <time>2003-08-30T07:33:31Z</time>
      </trkpt>
      <trkpt lat="43.74736656434834" lon="10.568439038470387">
        <ele>632.684814453125</ele>
        <time>2003-08-30T07:33:38Z</time>
      </trkpt>
      <trkpt lat="43.747451556846499" lon="10.568331917747855">
        <ele>634.126708984375</ele>
        <time>2003-08-30T07:33:44Z</time>
      </trkpt>
      <trkpt lat="43.747535711154342" lon="10.568200154229999">
        <ele>633.64599609375</ele>
        <time>2003-08-30T07:33:50Z</time>
      </trkpt>
      <trkpt lat="43.747601173818111" lon="10.568044502288103">
        <ele>633.165283203125</ele>
        <time>2003-08-30T07:33:54Z</time>
      </trkpt>
      <trkpt lat="43.74766512773931" lon="10.567926317453384">
        <ele>632.684814453125</ele>
        <time>2003-08-30T07:33:58Z</time>
      </trkpt>
      <trkpt lat="43.74773352406919" lon="10.56778977625072">
        <ele>632.2041015625</ele>
        <time>2003-08-30T07:34:02Z</time>
      </trkpt>
      <trkpt lat="43.747795382514596" lon="10.567635297775269">
        <ele>632.684814453125</ele>
        <time>2003-08-30T07:34:06Z</time>
      </trkpt>
      <trkpt lat="43.747878530994058" lon="10.567475035786629">
        <ele>633.64599609375</ele>
        <time>2003-08-30T07:34:11Z</time>
      </trkpt>
      <trkpt lat="43.747964948415756" lon="10.567334806546569">
        <ele>634.607421875</ele>
        <time>2003-08-30T07:34:16Z</time>
      </trkpt>
      <trkpt lat="43.748066704720259" lon="10.567219136282802">
        <ele>636.049560546875</ele>
        <time>2003-08-30T07:34:22Z</time>
      </trkpt>
      <trkpt lat="43.748167790472507" lon="10.567140681669116">
        <ele>637.0107421875</ele>
        <time>2003-08-30T07:34:27Z</time>
      </trkpt>
      <trkpt lat="43.748276000842452" lon="10.567023083567619">
        <ele>637.491455078125</ele>
        <time>2003-08-30T07:34:32Z</time>
      </trkpt>
      <trkpt lat="43.748363340273499" lon="10.566948316991329">
        <ele>639.4140625</ele>
        <time>2003-08-30T07:34:37Z</time>
      </trkpt>
      <trkpt lat="43.748460067436099" lon="10.566816218197346">
        <ele>640.37548828125</ele>
        <time>2003-08-30T07:34:43Z</time>
      </trkpt>
      <trkpt lat="43.748544892296195" lon="10.566672803834081">
        <ele>640.85595703125</ele>
        <time>2003-08-30T07:34:49Z</time>
      </trkpt>
      <trkpt lat="43.748607756569982" lon="10.566536262631416">
        <ele>641.8173828125</ele>
        <time>2003-08-30T07:34:54Z</time>
      </trkpt>
      <trkpt lat="43.748664921149611" lon="10.566404666751623">
        <ele>641.8173828125</ele>
        <time>2003-08-30T07:34:59Z</time>
      </trkpt>
      <trkpt lat="43.748733401298523" lon="10.566262928768992">
        <ele>642.298095703125</ele>
        <time>2003-08-30T07:35:04Z</time>
      </trkpt>
      <trkpt lat="43.748805988579988" lon="10.566125046461821">
        <ele>643.739990234375</ele>
        <time>2003-08-30T07:35:09Z</time>
      </trkpt>
      <trkpt lat="43.748904643580317" lon="10.566009124740958">
        <ele>643.739990234375</ele>
        <time>2003-08-30T07:35:14Z</time>
      </trkpt>
      <trkpt lat="43.748997766524553" lon="10.565898735076189">
        <ele>644.220703125</ele>
        <time>2003-08-30T07:35:19Z</time>
      </trkpt>
      <trkpt lat="43.749078148975968" lon="10.56581717915833">
        <ele>644.701171875</ele>
        <time>2003-08-30T07:35:23Z</time>
      </trkpt>
      <trkpt lat="43.749154424294829" lon="10.565726989880204">
        <ele>643.739990234375</ele>
        <time>2003-08-30T07:35:27Z</time>
      </trkpt>
      <trkpt lat="43.74921846203506" lon="10.565615259110928">
        <ele>643.739990234375</ele>
        <time>2003-08-30T07:35:31Z</time>
      </trkpt>
      <trkpt lat="43.749278644099832" lon="10.565491290763021">
        <ele>643.25927734375</ele>
        <time>2003-08-30T07:35:35Z</time>
      </trkpt>
      <trkpt lat="43.749326001852751" lon="10.565363969653845">
        <ele>643.25927734375</ele>
        <time>2003-08-30T07:35:39Z</time>
      </trkpt>
      <trkpt lat="43.749374030157924" lon="10.565226841717958">
        <ele>643.25927734375</ele>
        <time>2003-08-30T07:35:43Z</time>
      </trkpt>
      <trkpt lat="43.749443516135216" lon="10.565110500901937">
        <ele>643.739990234375</ele>
        <time>2003-08-30T07:35:47Z</time>
      </trkpt>
      <trkpt lat="43.749503279104829" lon="10.564983179792762">
        <ele>644.220703125</ele>
        <time>2003-08-30T07:35:51Z</time>
      </trkpt>
      <trkpt lat="43.749576034024358" lon="10.564860301092267">
        <ele>644.220703125</ele>
        <time>2003-08-30T07:35:55Z</time>
      </trkpt>
      <trkpt lat="43.749638563022017" lon="10.564719820395112">
        <ele>644.220703125</ele>
        <time>2003-08-30T07:35:59Z</time>
      </trkpt>
      <trkpt lat="43.749714754521847" lon="10.564628373831511">
        <ele>644.701171875</ele>
        <time>2003-08-30T07:36:03Z</time>
      </trkpt>
      <trkpt lat="43.749789604917169" lon="10.564503651112318">
        <ele>645.181884765625</ele>
        <time>2003-08-30T07:36:07Z</time>
      </trkpt>
      <trkpt lat="43.749849954620004" lon="10.564370630308986">
        <ele>644.701171875</ele>
        <time>2003-08-30T07:36:11Z</time>
      </trkpt>
      <trkpt lat="43.749891109764576" lon="10.564218414947391">
        <ele>645.66259765625</ele>
        <time>2003-08-30T07:36:15Z</time>
      </trkpt>
      <trkpt lat="43.74990108422935" lon="10.564063433557749">
        <ele>646.143310546875</ele>
        <time>2003-08-30T07:36:19Z</time>
      </trkpt>
      <trkpt lat="43.74990452080965" lon="10.563914068043232">
        <ele>646.6240234375</ele>
        <time>2003-08-30T07:36:23Z</time>
      </trkpt>
      <trkpt lat="43.74990644864738" lon="10.563737377524376">
        <ele>647.1044921875</ele>
        <time>2003-08-30T07:36:28Z</time>
      </trkpt>
      <trkpt lat="43.749917177483439" lon="10.563595052808523">
        <ele>647.585205078125</ele>
        <time>2003-08-30T07:36:33Z</time>
      </trkpt>
      <trkpt lat="43.749934528023005" lon="10.563463373109698">
        <ele>648.54638671875</ele>
        <time>2003-08-30T07:36:38Z</time>
      </trkpt>
      <trkpt lat="43.749970318749547" lon="10.563316941261292">
        <ele>650.46923828125</ele>
        <time>2003-08-30T07:36:44Z</time>
      </trkpt>
      <trkpt lat="43.750013904646039" lon="10.563182076439261">
        <ele>651.430419921875</ele>
        <time>2003-08-30T07:36:51Z</time>
      </trkpt>
      <trkpt lat="43.750088671222329" lon="10.563084678724408">
        <ele>652.391845703125</ele>
        <time>2003-08-30T07:36:57Z</time>
      </trkpt>
      <trkpt lat="43.750169640406966" lon="10.563004547730088">
        <ele>653.353271484375</ele>
        <time>2003-08-30T07:37:03Z</time>
      </trkpt>
      <trkpt lat="43.750246502459049" lon="10.562921315431595">
        <ele>654.795166015625</ele>
        <time>2003-08-30T07:37:09Z</time>
      </trkpt>
      <trkpt lat="43.750337027013302" lon="10.562854511663318">
        <ele>655.756591796875</ele>
        <time>2003-08-30T07:37:15Z</time>
      </trkpt>
      <trkpt lat="43.750449595972896" lon="10.562780080363154">
        <ele>656.7177734375</ele>
        <time>2003-08-30T07:37:22Z</time>
      </trkpt>
      <trkpt lat="43.750536348670721" lon="10.562712857499719">
        <ele>657.67919921875</ele>
        <time>2003-08-30T07:37:29Z</time>
      </trkpt>
      <trkpt lat="43.750632237643003" lon="10.562645886093378">
        <ele>658.159912109375</ele>
        <time>2003-08-30T07:37:36Z</time>
      </trkpt>
      <trkpt lat="43.750726114958525" lon="10.562586542218924">
        <ele>659.12109375</ele>
        <time>2003-08-30T07:37:42Z</time>
      </trkpt>
      <trkpt lat="43.750838181003928" lon="10.562514625489712">
        <ele>660.082275390625</ele>
        <time>2003-08-30T07:37:49Z</time>
      </trkpt>
      <trkpt lat="43.750940272584558" lon="10.562437931075692">
        <ele>660.56298828125</ele>
        <time>2003-08-30T07:37:56Z</time>
      </trkpt>
      <trkpt lat="43.751048315316439" lon="10.562371714040637">
        <ele>661.5244140625</ele>
        <time>2003-08-30T07:38:02Z</time>
      </trkpt>
      <trkpt lat="43.751155184581876" lon="10.562287643551826">
        <ele>663.447021484375</ele>
        <time>2003-08-30T07:38:09Z</time>
      </trkpt>
      <trkpt lat="43.751243278384209" lon="10.562222097069025">
        <ele>664.888916015625</ele>
        <time>2003-08-30T07:38:16Z</time>
      </trkpt>
      <trkpt lat="43.751331120729446" lon="10.562252942472696">
        <ele>665.850341796875</ele>
        <time>2003-08-30T07:38:25Z</time>
      </trkpt>
      <trkpt lat="43.751407312229276" lon="10.562384035438299">
        <ele>667.292236328125</ele>
        <time>2003-08-30T07:38:34Z</time>
      </trkpt>
      <trkpt lat="43.751479899510741" lon="10.562573298811913">
        <ele>667.292236328125</ele>
        <time>2003-08-30T07:38:42Z</time>
      </trkpt>
      <trkpt lat="43.751580063253641" lon="10.562677904963493">
        <ele>668.253662109375</ele>
        <time>2003-08-30T07:38:52Z</time>
      </trkpt>
      <trkpt lat="43.751689279451966" lon="10.562708750367165">
        <ele>668.253662109375</ele>
        <time>2003-08-30T07:39:00Z</time>
      </trkpt>
      <trkpt lat="43.75179648399353" lon="10.562692154198885">
        <ele>667.772705078125</ele>
        <time>2003-08-30T07:39:09Z</time>
      </trkpt>
      <trkpt lat="43.751886589452624" lon="10.562655609101057">
        <ele>667.772705078125</ele>
        <time>2003-08-30T07:39:15Z</time>
      </trkpt>
      <trkpt lat="43.752000080421567" lon="10.562598276883364">
        <ele>668.253662109375</ele>
        <time>2003-08-30T07:39:21Z</time>
      </trkpt>
      <trkpt lat="43.75208767130971" lon="10.562519989907742">
        <ele>668.734375</ele>
        <time>2003-08-30T07:39:27Z</time>
      </trkpt>
      <trkpt lat="43.752166042104363" lon="10.562445307150483">
        <ele>669.215087890625</ele>
        <time>2003-08-30T07:39:33Z</time>
      </trkpt>
      <trkpt lat="43.752281544730067" lon="10.562460143119097">
        <ele>668.253662109375</ele>
        <time>2003-08-30T07:39:37Z</time>
      </trkpt>
      <trkpt lat="43.752390509471297" lon="10.562480092048645">
        <ele>668.253662109375</ele>
        <time>2003-08-30T07:39:42Z</time>
      </trkpt>
      <trkpt lat="43.752491259947419" lon="10.562461819499731">
        <ele>669.215087890625</ele>
        <time>2003-08-30T07:39:51Z</time>
      </trkpt>
      <trkpt lat="43.752607265487313" lon="10.562400715425611">
        <ele>670.656982421875</ele>
        <time>2003-08-30T07:40:02Z</time>
      </trkpt>
      <trkpt lat="43.752651354297996" lon="10.562276914715767">
        <ele>672.098876953125</ele>
        <time>2003-08-30T07:40:13Z</time>
      </trkpt>
      <trkpt lat="43.752700053155422" lon="10.562113551422954">
        <ele>674.021484375</ele>
        <time>2003-08-30T07:40:23Z</time>
      </trkpt>
      <trkpt lat="43.752736262977123" lon="10.561979189515114">
        <ele>675.46337890625</ele>
        <time>2003-08-30T07:40:32Z</time>
      </trkpt>
      <trkpt lat="43.752790493890643" lon="10.561852203682065">
        <ele>676.4248046875</ele>
        <time>2003-08-30T07:40:40Z</time>
      </trkpt>
      <trkpt lat="43.75286609865725" lon="10.561738042160869">
        <ele>676.905517578125</ele>
        <time>2003-08-30T07:40:48Z</time>
      </trkpt>
      <trkpt lat="43.752964586019516" lon="10.561622958630323">
        <ele>676.905517578125</ele>
        <time>2003-08-30T07:40:55Z</time>
      </trkpt>
      <trkpt lat="43.753057206049562" lon="10.56152019649744">
        <ele>676.905517578125</ele>
        <time>2003-08-30T07:41:03Z</time>
      </trkpt>
      <trkpt lat="43.753083441406488" lon="10.561420703306794">
        <ele>679.30859375</ele>
        <time>2003-08-30T07:41:15Z</time>
      </trkpt>
      <trkpt lat="43.75305226072669" lon="10.561310900375247">
        <ele>681.7119140625</ele>
        <time>2003-08-30T07:41:31Z</time>
      </trkpt>
      <trkpt lat="43.752955617383122" lon="10.561243509873748">
        <ele>683.15380859375</ele>
        <time>2003-08-30T07:41:47Z</time>
      </trkpt>
      <trkpt lat="43.75283332541585" lon="10.561233954504132">
        <ele>683.634521484375</ele>
        <time>2003-08-30T07:41:59Z</time>
      </trkpt>
      <trkpt lat="43.752740789204836" lon="10.56121040135622">
        <ele>684.115478515625</ele>
        <time>2003-08-30T07:42:10Z</time>
      </trkpt>
      <trkpt lat="43.752610199153423" lon="10.561212161555886">
        <ele>684.59619140625</ele>
        <time>2003-08-30T07:42:20Z</time>
      </trkpt>
      <trkpt lat="43.752466617152095" lon="10.561223644763231">
        <ele>685.557373046875</ele>
        <time>2003-08-30T07:42:29Z</time>
      </trkpt>
      <trkpt lat="43.752330159768462" lon="10.5612528976053">
        <ele>686.518798828125</ele>
        <time>2003-08-30T07:42:37Z</time>
      </trkpt>
      <trkpt lat="43.752216082066298" lon="10.561253903433681">
        <ele>686.999267578125</ele>
        <time>2003-08-30T07:42:45Z</time>
      </trkpt>
      <trkpt lat="43.752085492014885" lon="10.561235379427671">
        <ele>687.960693359375</ele>
        <time>2003-08-30T07:42:52Z</time>
      </trkpt>
      <trkpt lat="43.751957919448614" lon="10.561207132413983">
        <ele>688.44140625</ele>
        <time>2003-08-30T07:42:59Z</time>
      </trkpt>
      <trkpt lat="43.751839231699705" lon="10.561161283403635">
        <ele>688.922119140625</ele>
        <time>2003-08-30T07:43:06Z</time>
      </trkpt>
      <trkpt lat="43.751697996631265" lon="10.561158433556557">
        <ele>690.844482421875</ele>
        <time>2003-08-30T07:43:15Z</time>
      </trkpt>
      <trkpt lat="43.751550642773509" lon="10.561081906780601">
        <ele>692.767333984375</ele>
        <time>2003-08-30T07:43:26Z</time>
      </trkpt>
      <trkpt lat="43.751579560339451" lon="10.561000350862741">
        <ele>694.689697265625</ele>
        <time>2003-08-30T07:43:40Z</time>
      </trkpt>
      <trkpt lat="43.751701433211565" lon="10.560986688360572">
        <ele>695.651123046875</ele>
        <time>2003-08-30T07:43:48Z</time>
      </trkpt>
      <trkpt lat="43.751829341053963" lon="10.560940336436033">
        <ele>696.612548828125</ele>
        <time>2003-08-30T07:43:56Z</time>
      </trkpt>
      <trkpt lat="43.751931432634592" lon="10.560897756367922">
        <ele>697.57373046875</ele>
        <time>2003-08-30T07:44:03Z</time>
      </trkpt>
      <trkpt lat="43.752018101513386" lon="10.560842519626021">
        <ele>698.534912109375</ele>
        <time>2003-08-30T07:44:10Z</time>
      </trkpt>
      <trkpt lat="43.752101836726069" lon="10.560779152438045">
        <ele>698.534912109375</ele>
        <time>2003-08-30T07:44:17Z</time>
      </trkpt>
      <trkpt lat="43.752201413735747" lon="10.560709247365594">
        <ele>699.496337890625</ele>
        <time>2003-08-30T07:44:24Z</time>
      </trkpt>
      <trkpt lat="43.752275928854942" lon="10.560605647042394">
        <ele>699.496337890625</ele>
        <time>2003-08-30T07:44:31Z</time>
      </trkpt>
      <trkpt lat="43.752349438145757" lon="10.560499280691147">
        <ele>700.4580078125</ele>
        <time>2003-08-30T07:44:38Z</time>
      </trkpt>
      <trkpt lat="43.752411548048258" lon="10.560391657054424">
        <ele>701.419189453125</ele>
        <time>2003-08-30T07:44:45Z</time>
      </trkpt>
      <trkpt lat="43.752465108409524" lon="10.560252852737904">
        <ele>702.861083984375</ele>
        <time>2003-08-30T07:44:54Z</time>
      </trkpt>
      <trkpt lat="43.752464354038239" lon="10.560104409232736">
        <ele>704.78369140625</ele>
        <time>2003-08-30T07:45:05Z</time>
      </trkpt>
      <trkpt lat="43.752413811162114" lon="10.559956971555948">
        <ele>706.706298828125</ele>
        <time>2003-08-30T07:45:15Z</time>
      </trkpt>
      <trkpt lat="43.752356311306357" lon="10.559823950752616">
        <ele>708.1484375</ele>
        <time>2003-08-30T07:45:23Z</time>
      </trkpt>
      <trkpt lat="43.752310629934072" lon="10.559686403721571">
        <ele>710.07080078125</ele>
        <time>2003-08-30T07:45:31Z</time>
      </trkpt>
      <trkpt lat="43.752259416505694" lon="10.559555646032095">
        <ele>710.07080078125</ele>
        <time>2003-08-30T07:45:39Z</time>
      </trkpt>
      <trkpt lat="43.75221373513341" lon="10.559406196698546">
        <ele>711.0322265625</ele>
        <time>2003-08-30T07:45:47Z</time>
      </trkpt>
      <trkpt lat="43.75217123888433" lon="10.559245431795716">
        <ele>710.551513671875</ele>
        <time>2003-08-30T07:45:55Z</time>
      </trkpt>
      <trkpt lat="43.752156905829906" lon="10.559067148715258">
        <ele>711.99365234375</ele>
        <time>2003-08-30T07:46:02Z</time>
      </trkpt>
      <trkpt lat="43.752143662422895" lon="10.558889033272862">
        <ele>711.512939453125</ele>
        <time>2003-08-30T07:46:08Z</time>
      </trkpt>
      <trkpt lat="43.752116756513715" lon="10.558734387159348">
        <ele>711.512939453125</ele>
        <time>2003-08-30T07:46:13Z</time>
      </trkpt>
      <trkpt lat="43.752061268314719" lon="10.558576136827469">
        <ele>711.99365234375</ele>
        <time>2003-08-30T07:46:19Z</time>
      </trkpt>
      <trkpt lat="43.752029836177826" lon="10.558413444086909">
        <ele>711.99365234375</ele>
        <time>2003-08-30T07:46:25Z</time>
      </trkpt>
      <trkpt lat="43.752039223909378" lon="10.558259719982743">
        <ele>711.99365234375</ele>
        <time>2003-08-30T07:46:31Z</time>
      </trkpt>
      <trkpt lat="43.752042576670647" lon="10.558118568733335">
        <ele>712.47412109375</ele>
        <time>2003-08-30T07:46:37Z</time>
      </trkpt>
      <trkpt lat="43.752067806199193" lon="10.557940034195781">
        <ele>712.954833984375</ele>
        <time>2003-08-30T07:46:43Z</time>
      </trkpt>
      <trkpt lat="43.752109045162797" lon="10.557806175202131">
        <ele>712.954833984375</ele>
        <time>2003-08-30T07:46:48Z</time>
      </trkpt>
      <trkpt lat="43.752189679071307" lon="10.557666113600135">
        <ele>712.954833984375</ele>
        <time>2003-08-30T07:46:54Z</time>
      </trkpt>
      <trkpt lat="43.752291183918715" lon="10.55755153298378">
        <ele>712.954833984375</ele>
        <time>2003-08-30T07:47:00Z</time>
      </trkpt>
      <trkpt lat="43.75234910286963" lon="10.557467211037874">
        <ele>712.954833984375</ele>
        <time>2003-08-30T07:47:05Z</time>
      </trkpt>
      <trkpt lat="43.752478351816535" lon="10.557500403374434">
        <ele>712.47412109375</ele>
        <time>2003-08-30T07:47:09Z</time>
      </trkpt>
      <trkpt lat="43.752609360963106" lon="10.55750953964889">
        <ele>712.47412109375</ele>
        <time>2003-08-30T07:47:13Z</time>
      </trkpt>
      <trkpt lat="43.752724276855588" lon="10.557529991492629">
        <ele>712.954833984375</ele>
        <time>2003-08-30T07:47:18Z</time>
      </trkpt>
      <trkpt lat="43.752900213003159" lon="10.55751096457243">
        <ele>713.435546875</ele>
        <time>2003-08-30T07:47:24Z</time>
      </trkpt>
      <trkpt lat="43.753030467778444" lon="10.557504175230861">
        <ele>713.435546875</ele>
        <time>2003-08-30T07:47:29Z</time>
      </trkpt>
      <trkpt lat="43.75317832455039" lon="10.557491518557072">
        <ele>713.916015625</ele>
        <time>2003-08-30T07:47:34Z</time>
      </trkpt>
      <trkpt lat="43.753327773883939" lon="10.557470396161079">
        <ele>714.396728515625</ele>
        <time>2003-08-30T07:47:39Z</time>
      </trkpt>
      <trkpt lat="43.753435062244534" lon="10.55743183940649">
        <ele>715.358154296875</ele>
        <time>2003-08-30T07:47:43Z</time>
      </trkpt>
      <trkpt lat="43.753565484657884" lon="10.557388421148062">
        <ele>714.87744140625</ele>
        <time>2003-08-30T07:47:47Z</time>
      </trkpt>
      <trkpt lat="43.75368450768292" lon="10.557341231033206">
        <ele>715.358154296875</ele>
        <time>2003-08-30T07:47:51Z</time>
      </trkpt>
      <trkpt lat="43.753819456323981" lon="10.557281384244561">
        <ele>714.396728515625</ele>
        <time>2003-08-30T07:47:55Z</time>
      </trkpt>
      <trkpt lat="43.753953315317631" lon="10.557174934074283">
        <ele>714.396728515625</ele>
        <time>2003-08-30T07:47:59Z</time>
      </trkpt>
      <trkpt lat="43.754043839871883" lon="10.557093294337392">
        <ele>714.396728515625</ele>
        <time>2003-08-30T07:48:02Z</time>
      </trkpt>
      <trkpt lat="43.754140986129642" lon="10.557000506669283">
        <ele>713.435546875</ele>
        <time>2003-08-30T07:48:05Z</time>
      </trkpt>
      <trkpt lat="43.754250956699252" lon="10.556884752586484">
        <ele>713.435546875</ele>
        <time>2003-08-30T07:48:09Z</time>
      </trkpt>
      <trkpt lat="43.754346678033471" lon="10.556774949654937">
        <ele>713.435546875</ele>
        <time>2003-08-30T07:48:13Z</time>
      </trkpt>
      <trkpt lat="43.754455810412765" lon="10.556660033762455">
        <ele>713.435546875</ele>
        <time>2003-08-30T07:48:18Z</time>
      </trkpt>
      <trkpt lat="43.754668375477195" lon="10.556366331875324">
        <ele>712.954833984375</ele>
        <time>2003-08-30T07:49:03Z</time>
      </trkpt>
      <trkpt lat="43.754848586395383" lon="10.556237166747451">
        <ele>714.87744140625</ele>
        <time>2003-08-30T07:53:14Z</time>
      </trkpt>
      <trkpt lat="43.754902062937617" lon="10.556132141500711">
        <ele>715.8388671875</ele>
        <time>2003-08-30T07:53:24Z</time>
      </trkpt>
      <trkpt lat="43.754957383498549" lon="10.556006329134107">
        <ele>717.281005859375</ele>
        <time>2003-08-30T07:53:33Z</time>
      </trkpt>
      <trkpt lat="43.755008177831769" lon="10.555873056873679">
        <ele>718.2421875</ele>
        <time>2003-08-30T07:53:42Z</time>
      </trkpt>
      <trkpt lat="43.755037011578679" lon="10.555738611146808">
        <ele>719.20361328125</ele>
        <time>2003-08-30T07:53:50Z</time>
      </trkpt>
      <trkpt lat="43.755092332139611" lon="10.555600477382541">
        <ele>721.606689453125</ele>
        <time>2003-08-30T07:53:59Z</time>
      </trkpt>
      <trkpt lat="43.755145305767655" lon="10.555485896766186">
        <ele>722.08740234375</ele>
        <time>2003-08-30T07:54:08Z</time>
      </trkpt>
      <trkpt lat="43.755202470347285" lon="10.555366789922118">
        <ele>723.048828125</ele>
        <time>2003-08-30T07:54:17Z</time>
      </trkpt>
      <trkpt lat="43.755265334621072" lon="10.555256819352508">
        <ele>725.9326171875</ele>
        <time>2003-08-30T07:54:25Z</time>
      </trkpt>
      <trkpt lat="43.755336413159966" lon="10.555145088583231">
        <ele>727.855224609375</ele>
        <time>2003-08-30T07:54:34Z</time>
      </trkpt>
      <trkpt lat="43.755405563861132" lon="10.555041404440999">
        <ele>730.258544921875</ele>
        <time>2003-08-30T07:54:43Z</time>
      </trkpt>
      <trkpt lat="43.755482845008373" lon="10.55494618602097">
        <ele>730.258544921875</ele>
        <time>2003-08-30T07:54:51Z</time>
      </trkpt>
      <trkpt lat="43.755545960739255" lon="10.554817104712129">
        <ele>732.181396484375</ele>
        <time>2003-08-30T07:54:59Z</time>
      </trkpt>
      <trkpt lat="43.755605053156614" lon="10.554697494953871">
        <ele>734.10400390625</ele>
        <time>2003-08-30T07:55:08Z</time>
      </trkpt>
      <trkpt lat="43.755655009299517" lon="10.554582327604294">
        <ele>734.584716796875</ele>
        <time>2003-08-30T07:55:16Z</time>
      </trkpt>
      <trkpt lat="43.755708988755941" lon="10.554472943767905">
        <ele>735.0654296875</ele>
        <time>2003-08-30T07:55:24Z</time>
      </trkpt>
      <trkpt lat="43.755715945735574" lon="10.554327350109816">
        <ele>735.0654296875</ele>
        <time>2003-08-30T07:55:32Z</time>
      </trkpt>
      <trkpt lat="43.755711335688829" lon="10.554176475852728">
        <ele>734.584716796875</ele>
        <time>2003-08-30T07:55:40Z</time>
      </trkpt>
      <trkpt lat="43.755689458921552" lon="10.554026188328862">
        <ele>733.623291015625</ele>
        <time>2003-08-30T07:55:49Z</time>
      </trkpt>
      <trkpt lat="43.755657942965627" lon="10.55387414060533">
        <ele>734.10400390625</ele>
        <time>2003-08-30T07:55:57Z</time>
      </trkpt>
      <trkpt lat="43.755618380382657" lon="10.553739946335554">
        <ele>736.50732421875</ele>
        <time>2003-08-30T07:56:05Z</time>
      </trkpt>
      <trkpt lat="43.755567837506533" lon="10.55360047146678">
        <ele>739.39111328125</ele>
        <time>2003-08-30T07:56:13Z</time>
      </trkpt>
      <trkpt lat="43.755505979061127" lon="10.553472312167287">
        <ele>742.275146484375</ele>
        <time>2003-08-30T07:56:21Z</time>
      </trkpt>
      <trkpt lat="43.755429787561297" lon="10.553361168131232">
        <ele>742.755859375</ele>
        <time>2003-08-30T07:56:28Z</time>
      </trkpt>
      <trkpt lat="43.755377568304539" lon="10.55323108099401">
        <ele>745.158935546875</ele>
        <time>2003-08-30T07:56:35Z</time>
      </trkpt>
      <trkpt lat="43.75530774705112" lon="10.55311675183475">
        <ele>747.08154296875</ele>
        <time>2003-08-30T07:56:42Z</time>
      </trkpt>
      <trkpt lat="43.755244128406048" lon="10.55299605242908">
        <ele>748.523681640625</ele>
        <time>2003-08-30T07:56:49Z</time>
      </trkpt>
      <trkpt lat="43.755181515589356" lon="10.552865378558636">
        <ele>750.927001953125</ele>
        <time>2003-08-30T07:56:56Z</time>
      </trkpt>
      <trkpt lat="43.755123093724251" lon="10.552739147096872">
        <ele>752.368896484375</ele>
        <time>2003-08-30T07:57:03Z</time>
      </trkpt>
      <trkpt lat="43.755062157288194" lon="10.552635211497545">
        <ele>753.81103515625</ele>
        <time>2003-08-30T07:57:10Z</time>
      </trkpt>
      <trkpt lat="43.754999544471502" lon="10.552537143230438">
        <ele>753.330322265625</ele>
        <time>2003-08-30T07:57:16Z</time>
      </trkpt>
      <trkpt lat="43.754935087636113" lon="10.552444104105234">
        <ele>752.849609375</ele>
        <time>2003-08-30T07:57:22Z</time>
      </trkpt>
      <trkpt lat="43.75485822558403" lon="10.552341006696224">
        <ele>751.40771484375</ele>
        <time>2003-08-30T07:57:29Z</time>
      </trkpt>
      <trkpt lat="43.754772646352649" lon="10.55226506665349">
        <ele>751.40771484375</ele>
        <time>2003-08-30T07:57:36Z</time>
      </trkpt>
      <trkpt lat="43.754692850634456" lon="10.552192311733961">
        <ele>752.368896484375</ele>
        <time>2003-08-30T07:57:42Z</time>
      </trkpt>
      <trkpt lat="43.754610624164343" lon="10.552098853513598">
        <ele>755.733642578125</ele>
        <time>2003-08-30T07:57:49Z</time>
      </trkpt>
      <trkpt lat="43.754530660808086" lon="10.552018051967025">
        <ele>757.175537109375</ele>
        <time>2003-08-30T07:57:56Z</time>
      </trkpt>
      <trkpt lat="43.75445069745183" lon="10.551926353946328">
        <ele>758.617431640625</ele>
        <time>2003-08-30T07:58:03Z</time>
      </trkpt>
      <trkpt lat="43.754394706338644" lon="10.551794674247503">
        <ele>758.136962890625</ele>
        <time>2003-08-30T07:58:10Z</time>
      </trkpt>
      <trkpt lat="43.754333266988397" lon="10.551670119166374">
        <ele>759.09814453125</ele>
        <time>2003-08-30T07:58:17Z</time>
      </trkpt>
      <trkpt lat="43.754268977791071" lon="10.551543300971389">
        <ele>761.50146484375</ele>
        <time>2003-08-30T07:58:24Z</time>
      </trkpt>
      <trkpt lat="43.75420929864049" lon="10.551410615444183">
        <ele>761.50146484375</ele>
        <time>2003-08-30T07:58:31Z</time>
      </trkpt>
      <trkpt lat="43.754149870947003" lon="10.55127214640379">
        <ele>761.50146484375</ele>
        <time>2003-08-30T07:58:38Z</time>
      </trkpt>
      <trkpt lat="43.754091449081898" lon="10.551148010417819">
        <ele>763.424072265625</ele>
        <time>2003-08-30T07:58:45Z</time>
      </trkpt>
      <trkpt lat="43.754062196239829" lon="10.551004596054554">
        <ele>766.30810546875</ele>
        <time>2003-08-30T07:58:53Z</time>
      </trkpt>
      <trkpt lat="43.754030093550682" lon="10.550876269116998">
        <ele>768.230712890625</ele>
        <time>2003-08-30T07:59:01Z</time>
      </trkpt>
      <trkpt lat="43.75401291064918" lon="10.550730675458908">
        <ele>769.192138671875</ele>
        <time>2003-08-30T07:59:09Z</time>
      </trkpt>
      <trkpt lat="43.754006624221802" lon="10.55055683478713">
        <ele>771.11474609375</ele>
        <time>2003-08-30T07:59:18Z</time>
      </trkpt>
      <trkpt lat="43.754043085500598" lon="10.550380311906338">
        <ele>771.11474609375</ele>
        <time>2003-08-30T07:59:27Z</time>
      </trkpt>
      <trkpt lat="43.754082648083568" lon="10.550215356051922">
        <ele>773.51806640625</ele>
        <time>2003-08-30T07:59:35Z</time>
      </trkpt>
      <trkpt lat="43.754116930067539" lon="10.55006573908031">
        <ele>774.9599609375</ele>
        <time>2003-08-30T07:59:42Z</time>
      </trkpt>
      <trkpt lat="43.75415313988924" lon="10.549923749640584">
        <ele>777.84375</ele>
        <time>2003-08-30T07:59:49Z</time>
      </trkpt>
      <trkpt lat="43.754202509298921" lon="10.549793494865298">
        <ele>777.84375</ele>
        <time>2003-08-30T07:59:56Z</time>
      </trkpt>
      <trkpt lat="43.754257075488567" lon="10.549655528739095">
        <ele>778.80517578125</ele>
        <time>2003-08-30T08:00:03Z</time>
      </trkpt>
      <trkpt lat="43.754318011924624" lon="10.549514545127749">
        <ele>780.72802734375</ele>
        <time>2003-08-30T08:00:10Z</time>
      </trkpt>
      <trkpt lat="43.75435346737504" lon="10.549351181834936">
        <ele>782.169921875</ele>
        <time>2003-08-30T08:00:18Z</time>
      </trkpt>
      <trkpt lat="43.754365369677544" lon="10.549190584570169">
        <ele>782.169921875</ele>
        <time>2003-08-30T08:00:25Z</time>
      </trkpt>
      <trkpt lat="43.754365034401417" lon="10.549050103873014">
        <ele>783.131103515625</ele>
        <time>2003-08-30T08:00:32Z</time>
      </trkpt>
      <trkpt lat="43.754364782944322" lon="10.548900486901402">
        <ele>783.61181640625</ele>
        <time>2003-08-30T08:00:39Z</time>
      </trkpt>
      <trkpt lat="43.754360256716609" lon="10.548735950142145">
        <ele>785.534423828125</ele>
        <time>2003-08-30T08:00:46Z</time>
      </trkpt>
      <trkpt lat="43.7543641962111" lon="10.548589937388897">
        <ele>786.01513671875</ele>
        <time>2003-08-30T08:00:53Z</time>
      </trkpt>
      <trkpt lat="43.754351288080215" lon="10.548458341509104">
        <ele>786.495849609375</ele>
        <time>2003-08-30T08:02:09Z</time>
      </trkpt>
      <trkpt lat="43.754395628347993" lon="10.548392543569207">
        <ele>788.41845703125</ele>
        <time>2003-08-30T08:04:33Z</time>
      </trkpt>
      <trkpt lat="43.754461091011763" lon="10.54829983972013">
        <ele>787.937744140625</ele>
        <time>2003-08-30T08:04:40Z</time>
      </trkpt>
      <trkpt lat="43.754543568938971" lon="10.54822507314384">
        <ele>788.899169921875</ele>
        <time>2003-08-30T08:04:46Z</time>
      </trkpt>
      <trkpt lat="43.754617245867848" lon="10.548154916614294">
        <ele>789.379638671875</ele>
        <time>2003-08-30T08:04:52Z</time>
      </trkpt>
      <trkpt lat="43.754696706309915" lon="10.548075707629323">
        <ele>790.341064453125</ele>
        <time>2003-08-30T08:04:59Z</time>
      </trkpt>
      <trkpt lat="43.754769880324602" lon="10.54799884557724">
        <ele>791.30224609375</ele>
        <time>2003-08-30T08:05:06Z</time>
      </trkpt>
      <trkpt lat="43.754853783175349" lon="10.547934053465724">
        <ele>793.224853515625</ele>
        <time>2003-08-30T08:05:14Z</time>
      </trkpt>
      <trkpt lat="43.754940116778016" lon="10.547850653529167">
        <ele>794.666748046875</ele>
        <time>2003-08-30T08:05:22Z</time>
      </trkpt>
      <trkpt lat="43.755027204751968" lon="10.547771779820323">
        <ele>796.109130859375</ele>
        <time>2003-08-30T08:05:30Z</time>
      </trkpt>
      <trkpt lat="43.755065007135272" lon="10.547753004357219">
        <ele>798.03173828125</ele>
        <time>2003-08-30T08:06:30Z</time>
      </trkpt>
      <trkpt lat="43.755152011290193" lon="10.547750741243362">
        <ele>795.628173828125</ele>
        <time>2003-08-30T08:07:16Z</time>
      </trkpt>
      <trkpt lat="43.755262400954962" lon="10.547735318541527">
        <ele>795.1474609375</ele>
        <time>2003-08-30T08:07:23Z</time>
      </trkpt>
      <trkpt lat="43.755368432030082" lon="10.547670610249043">
        <ele>793.70556640625</ele>
        <time>2003-08-30T08:07:29Z</time>
      </trkpt>
      <trkpt lat="43.755451245233417" lon="10.547574805095792">
        <ele>793.224853515625</ele>
        <time>2003-08-30T08:07:34Z</time>
      </trkpt>
      <trkpt lat="43.755535734817386" lon="10.547465085983276">
        <ele>793.70556640625</ele>
        <time>2003-08-30T08:07:39Z</time>
      </trkpt>
      <trkpt lat="43.755613183602691" lon="10.547350756824017">
        <ele>792.263671875</ele>
        <time>2003-08-30T08:07:44Z</time>
      </trkpt>
      <trkpt lat="43.755709826946259" lon="10.547228800132871">
        <ele>791.782958984375</ele>
        <time>2003-08-30T08:07:48Z</time>
      </trkpt>
      <trkpt lat="43.755798591300845" lon="10.547142131254077">
        <ele>790.821533203125</ele>
        <time>2003-08-30T08:07:51Z</time>
      </trkpt>
      <trkpt lat="43.755866400897503" lon="10.54707775823772">
        <ele>790.341064453125</ele>
        <time>2003-08-30T08:07:53Z</time>
      </trkpt>
      <trkpt lat="43.755972264334559" lon="10.546981198713183">
        <ele>790.341064453125</ele>
        <time>2003-08-30T08:07:55Z</time>
      </trkpt>
      <trkpt lat="43.756078965961933" lon="10.546878520399332">
        <ele>790.821533203125</ele>
        <time>2003-08-30T08:07:57Z</time>
      </trkpt>
      <trkpt lat="43.756178626790643" lon="10.546795958653092">
        <ele>790.821533203125</ele>
        <time>2003-08-30T08:08:00Z</time>
      </trkpt>
      <trkpt lat="43.756273845210671" lon="10.546774668619037">
        <ele>789.8603515625</ele>
        <time>2003-08-30T08:08:03Z</time>
      </trkpt>
      <trkpt lat="43.756397059187293" lon="10.546747762709856">
        <ele>788.899169921875</ele>
        <time>2003-08-30T08:08:06Z</time>
      </trkpt>
      <trkpt lat="43.756533265113831" lon="10.54672353900969">
        <ele>788.41845703125</ele>
        <time>2003-08-30T08:08:09Z</time>
      </trkpt>
      <trkpt lat="43.756671566516161" lon="10.546679701656103">
        <ele>788.41845703125</ele>
        <time>2003-08-30T08:08:12Z</time>
      </trkpt>
      <trkpt lat="43.756762174889445" lon="10.546617340296507">
        <ele>787.937744140625</ele>
        <time>2003-08-30T08:08:14Z</time>
      </trkpt>
      <trkpt lat="43.756853705272079" lon="10.54653980769217">
        <ele>787.45703125</ele>
        <time>2003-08-30T08:08:16Z</time>
      </trkpt>
      <trkpt lat="43.756929310038686" lon="10.546440649777651">
        <ele>786.976318359375</ele>
        <time>2003-08-30T08:08:18Z</time>
      </trkpt>
      <trkpt lat="43.756997874006629" lon="10.546344593167305">
        <ele>786.01513671875</ele>
        <time>2003-08-30T08:08:20Z</time>
      </trkpt>
      <trkpt lat="43.757065515965223" lon="10.546247279271483">
        <ele>784.5732421875</ele>
        <time>2003-08-30T08:08:22Z</time>
      </trkpt>
      <trkpt lat="43.757148161530495" lon="10.54610931314528">
        <ele>782.650634765625</ele>
        <time>2003-08-30T08:08:24Z</time>
      </trkpt>
      <trkpt lat="43.757232651114464" lon="10.545935640111566">
        <ele>781.689208984375</ele>
        <time>2003-08-30T08:08:26Z</time>
      </trkpt>
      <trkpt lat="43.75731211155653" lon="10.545756686478853">
        <ele>780.72802734375</ele>
        <time>2003-08-30T08:08:28Z</time>
      </trkpt>
      <trkpt lat="43.757388219237328" lon="10.545578403398395">
        <ele>779.766357421875</ele>
        <time>2003-08-30T08:08:30Z</time>
      </trkpt>
      <trkpt lat="43.757447898387909" lon="10.54539592936635">
        <ele>777.84375</ele>
        <time>2003-08-30T08:08:32Z</time>
      </trkpt>
      <trkpt lat="43.757496597245336" lon="10.545221669599414">
        <ele>776.882568359375</ele>
        <time>2003-08-30T08:08:34Z</time>
      </trkpt>
      <trkpt lat="43.757567591965199" lon="10.545042464509606">
        <ele>775.921142578125</ele>
        <time>2003-08-30T08:08:36Z</time>
      </trkpt>
      <trkpt lat="43.757638921961188" lon="10.544869378209114">
        <ele>774.9599609375</ele>
        <time>2003-08-30T08:08:38Z</time>
      </trkpt>
      <trkpt lat="43.757719472050667" lon="10.544726634398103">
        <ele>773.99853515625</ele>
        <time>2003-08-30T08:08:40Z</time>
      </trkpt>
      <trkpt lat="43.757805302739143" lon="10.544596714898944">
        <ele>773.037353515625</ele>
        <time>2003-08-30T08:08:42Z</time>
      </trkpt>
      <trkpt lat="43.757907310500741" lon="10.544511303305626">
        <ele>772.556640625</ele>
        <time>2003-08-30T08:08:44Z</time>
      </trkpt>
      <trkpt lat="43.758010575547814" lon="10.54442991502583">
        <ele>770.634033203125</ele>
        <time>2003-08-30T08:08:46Z</time>
      </trkpt>
      <trkpt lat="43.758127838373184" lon="10.544367721304297">
        <ele>769.6728515625</ele>
        <time>2003-08-30T08:08:48Z</time>
      </trkpt>
      <trkpt lat="43.758234120905399" lon="10.544321369379759">
        <ele>768.230712890625</ele>
        <time>2003-08-30T08:08:50Z</time>
      </trkpt>
      <trkpt lat="43.758327998220921" lon="10.544255319982767">
        <ele>768.230712890625</ele>
        <time>2003-08-30T08:08:52Z</time>
      </trkpt>
      <trkpt lat="43.758417349308729" lon="10.544180469587445">
        <ele>767.75</ele>
        <time>2003-08-30T08:08:54Z</time>
      </trkpt>
      <trkpt lat="43.758502760902047" lon="10.544094303622842">
        <ele>766.30810546875</ele>
        <time>2003-08-30T08:08:56Z</time>
      </trkpt>
      <trkpt lat="43.758586077019572" lon="10.544010819867253">
        <ele>765.346923828125</ele>
        <time>2003-08-30T08:08:58Z</time>
      </trkpt>
      <trkpt lat="43.758664950728416" lon="10.54391928948462">
        <ele>764.8662109375</ele>
        <time>2003-08-30T08:09:00Z</time>
      </trkpt>
      <trkpt lat="43.75874332152307" lon="10.543833207339048">
        <ele>764.385498046875</ele>
        <time>2003-08-30T08:09:02Z</time>
      </trkpt>
      <trkpt lat="43.758819680660963" lon="10.543742766603827">
        <ele>763.424072265625</ele>
        <time>2003-08-30T08:09:04Z</time>
      </trkpt>
      <trkpt lat="43.758892435580492" lon="10.543653918430209">
        <ele>762.943359375</ele>
        <time>2003-08-30T08:09:06Z</time>
      </trkpt>
      <trkpt lat="43.758963095024228" lon="10.543558867648244">
        <ele>761.50146484375</ele>
        <time>2003-08-30T08:09:08Z</time>
      </trkpt>
      <trkpt lat="43.759048590436578" lon="10.543424757197499">
        <ele>760.059326171875</ele>
        <time>2003-08-30T08:09:10Z</time>
      </trkpt>
      <trkpt lat="43.759126123040915" lon="10.543309170752764">
        <ele>758.136962890625</ele>
        <time>2003-08-30T08:09:12Z</time>
      </trkpt>
      <trkpt lat="43.759184377267957" lon="10.543203223496675">
        <ele>755.733642578125</ele>
        <time>2003-08-30T08:09:14Z</time>
      </trkpt>
      <trkpt lat="43.759250594303012" lon="10.543116135522723">
        <ele>753.81103515625</ele>
        <time>2003-08-30T08:09:16Z</time>
      </trkpt>
      <trkpt lat="43.759314715862274" lon="10.543022928759456">
        <ele>752.849609375</ele>
        <time>2003-08-30T08:09:18Z</time>
      </trkpt>
      <trkpt lat="43.759380932897329" lon="10.542918657884002">
        <ele>752.368896484375</ele>
        <time>2003-08-30T08:09:20Z</time>
      </trkpt>
      <trkpt lat="43.759449915960431" lon="10.542808687314391">
        <ele>750.927001953125</ele>
        <time>2003-08-30T08:09:22Z</time>
      </trkpt>
      <trkpt lat="43.759517222642899" lon="10.542683461681008">
        <ele>749.485107421875</ele>
        <time>2003-08-30T08:09:24Z</time>
      </trkpt>
      <trkpt lat="43.759582852944732" lon="10.542542645707726">
        <ele>746.60107421875</ele>
        <time>2003-08-30T08:09:26Z</time>
      </trkpt>
      <trkpt lat="43.759641945362091" lon="10.542395040392876">
        <ele>746.120361328125</ele>
        <time>2003-08-30T08:09:28Z</time>
      </trkpt>
      <trkpt lat="43.759694416075945" lon="10.542244082316756">
        <ele>744.19775390625</ele>
        <time>2003-08-30T08:09:30Z</time>
      </trkpt>
      <trkpt lat="43.759736660867929" lon="10.542099494487047">
        <ele>742.755859375</ele>
        <time>2003-08-30T08:09:32Z</time>
      </trkpt>
      <trkpt lat="43.759768009185791" lon="10.541958510875702">
        <ele>741.313720703125</ele>
        <time>2003-08-30T08:09:34Z</time>
      </trkpt>
      <trkpt lat="43.759785946458578" lon="10.541867734864354">
        <ele>740.3525390625</ele>
        <time>2003-08-30T08:09:37Z</time>
      </trkpt>
      <trkpt lat="43.759653260931373" lon="10.541993295773864">
        <ele>738.91064453125</ele>
        <time>2003-08-30T08:11:59Z</time>
      </trkpt>
      <trkpt lat="43.759637419134378" lon="10.542173339053988">
        <ele>731.700439453125</ele>
        <time>2003-08-30T08:12:10Z</time>
      </trkpt>
      <trkpt lat="43.75982022844255" lon="10.542954616248608">
        <ele>727.374755859375</ele>
        <time>2003-08-30T08:13:25Z</time>
      </trkpt>
      <trkpt lat="43.75989843159914" lon="10.542842885479331">
        <ele>724.010009765625</ele>
        <time>2003-08-30T08:13:30Z</time>
      </trkpt>
      <trkpt lat="43.759978227317333" lon="10.54272411391139">
        <ele>722.08740234375</ele>
        <time>2003-08-30T08:13:34Z</time>
      </trkpt>
      <trkpt lat="43.760022148489952" lon="10.542560666799545">
        <ele>721.126220703125</ele>
        <time>2003-08-30T08:13:36Z</time>
      </trkpt>
      <trkpt lat="43.760065985843539" lon="10.5423972196877">
        <ele>720.164794921875</ele>
        <time>2003-08-30T08:13:38Z</time>
      </trkpt>
      <trkpt lat="43.760054418817163" lon="10.542211979627609">
        <ele>720.164794921875</ele>
        <time>2003-08-30T08:13:40Z</time>
      </trkpt>
      <trkpt lat="43.759988453239202" lon="10.542024308815598">
        <ele>718.722900390625</ele>
        <time>2003-08-30T08:13:42Z</time>
      </trkpt>
      <trkpt lat="43.75994486734271" lon="10.541866309940815">
        <ele>717.761474609375</ele>
        <time>2003-08-30T08:13:44Z</time>
      </trkpt>
      <trkpt lat="43.759901281446218" lon="10.541708394885063">
        <ele>716.319580078125</ele>
        <time>2003-08-30T08:13:46Z</time>
      </trkpt>
      <trkpt lat="43.759857695549726" lon="10.541550479829311">
        <ele>713.435546875</ele>
        <time>2003-08-30T08:13:48Z</time>
      </trkpt>
      <trkpt lat="43.759814109653234" lon="10.541392480954528">
        <ele>710.551513671875</ele>
        <time>2003-08-30T08:13:50Z</time>
      </trkpt>
      <trkpt lat="43.75977186486125" lon="10.541214449331164">
        <ele>708.1484375</ele>
        <time>2003-08-30T08:13:52Z</time>
      </trkpt>
      <trkpt lat="43.759727273136377" lon="10.541015798225999">
        <ele>706.706298828125</ele>
        <time>2003-08-30T08:13:54Z</time>
      </trkpt>
      <trkpt lat="43.759682681411505" lon="10.540817063301802">
        <ele>705.264404296875</ele>
        <time>2003-08-30T08:13:56Z</time>
      </trkpt>
      <trkpt lat="43.759643035009503" lon="10.540580861270428">
        <ele>704.78369140625</ele>
        <time>2003-08-30T08:13:58Z</time>
      </trkpt>
      <trkpt lat="43.759605567902327" lon="10.540372403338552">
        <ele>705.264404296875</ele>
        <time>2003-08-30T08:14:00Z</time>
      </trkpt>
      <trkpt lat="43.759576734155416" lon="10.540184061974287">
        <ele>705.264404296875</ele>
        <time>2003-08-30T08:14:02Z</time>
      </trkpt>
      <trkpt lat="43.759549995884299" lon="10.540022542700171">
        <ele>705.7451171875</ele>
        <time>2003-08-30T08:14:04Z</time>
      </trkpt>
      <trkpt lat="43.759525017812848" lon="10.539885330945253">
        <ele>706.706298828125</ele>
        <time>2003-08-30T08:14:06Z</time>
      </trkpt>
      <trkpt lat="43.759501297026873" lon="10.539693385362625">
        <ele>707.667724609375</ele>
        <time>2003-08-30T08:14:09Z</time>
      </trkpt>
      <trkpt lat="43.759491071105003" lon="10.539508732035756">
        <ele>709.109619140625</ele>
        <time>2003-08-30T08:14:13Z</time>
      </trkpt>
      <trkpt lat="43.759497608989477" lon="10.539359785616398">
        <ele>710.07080078125</ele>
        <time>2003-08-30T08:14:17Z</time>
      </trkpt>
      <trkpt lat="43.759528370574117" lon="10.539195584133267">
        <ele>710.551513671875</ele>
        <time>2003-08-30T08:14:22Z</time>
      </trkpt>
      <trkpt lat="43.759596096351743" lon="10.539071867242455">
        <ele>711.512939453125</ele>
        <time>2003-08-30T08:14:27Z</time>
      </trkpt>
      <trkpt lat="43.759658541530371" lon="10.538937840610743">
        <ele>710.551513671875</ele>
        <time>2003-08-30T08:14:31Z</time>
      </trkpt>
      <trkpt lat="43.759695589542389" lon="10.538809010758996">
        <ele>710.551513671875</ele>
        <time>2003-08-30T08:14:36Z</time>
      </trkpt>
      <trkpt lat="43.759736325591803" lon="10.538639612495899">
        <ele>711.0322265625</ele>
        <time>2003-08-30T08:14:57Z</time>
      </trkpt>
      <trkpt lat="43.759748730808496" lon="10.538522517308593">
        <ele>711.512939453125</ele>
        <time>2003-08-30T08:18:21Z</time>
      </trkpt>
      <trkpt lat="43.759670946747065" lon="10.538392178714275">
        <ele>711.99365234375</ele>
        <time>2003-08-30T08:18:29Z</time>
      </trkpt>
      <trkpt lat="43.759595761075616" lon="10.538249937817454">
        <ele>712.954833984375</ele>
        <time>2003-08-30T08:18:35Z</time>
      </trkpt>
      <trkpt lat="43.759523006156087" lon="10.538094202056527">
        <ele>713.916015625</ele>
        <time>2003-08-30T08:18:42Z</time>
      </trkpt>
      <trkpt lat="43.759437846019864" lon="10.537938550114632">
        <ele>714.396728515625</ele>
        <time>2003-08-30T08:18:48Z</time>
      </trkpt>
      <trkpt lat="43.75935704447329" lon="10.537793207913637">
        <ele>716.319580078125</ele>
        <time>2003-08-30T08:18:54Z</time>
      </trkpt>
      <trkpt lat="43.759287055581808" lon="10.53764627315104">
        <ele>717.281005859375</ele>
        <time>2003-08-30T08:19:00Z</time>
      </trkpt>
      <trkpt lat="43.759202482178807" lon="10.537513503804803">
        <ele>717.281005859375</ele>
        <time>2003-08-30T08:19:07Z</time>
      </trkpt>
      <trkpt lat="43.759090667590499" lon="10.537368999794126">
        <ele>716.80029296875</ele>
        <time>2003-08-30T08:19:16Z</time>
      </trkpt>
      <trkpt lat="43.758960664272308" lon="10.537213180214167">
        <ele>718.2421875</ele>
        <time>2003-08-30T08:19:26Z</time>
      </trkpt>
      <trkpt lat="43.758849184960127" lon="10.537140592932701">
        <ele>717.761474609375</ele>
        <time>2003-08-30T08:19:35Z</time>
      </trkpt>
      <trkpt lat="43.758755140006542" lon="10.537014612928033">
        <ele>717.761474609375</ele>
        <time>2003-08-30T08:19:41Z</time>
      </trkpt>
      <trkpt lat="43.75867148861289" lon="10.53684102371335">
        <ele>716.80029296875</ele>
        <time>2003-08-30T08:19:46Z</time>
      </trkpt>
      <trkpt lat="43.758615665137768" lon="10.536692161113024">
        <ele>715.358154296875</ele>
        <time>2003-08-30T08:19:50Z</time>
      </trkpt>
      <trkpt lat="43.758565625175834" lon="10.536538604646921">
        <ele>713.916015625</ele>
        <time>2003-08-30T08:19:55Z</time>
      </trkpt>
      <trkpt lat="43.75852488912642" lon="10.536403404548764">
        <ele>713.916015625</ele>
        <time>2003-08-30T08:19:59Z</time>
      </trkpt>
      <trkpt lat="43.758459007367492" lon="10.536236772313714">
        <ele>713.916015625</ele>
        <time>2003-08-30T08:20:03Z</time>
      </trkpt>
      <trkpt lat="43.758409721776843" lon="10.536097967997193">
        <ele>714.396728515625</ele>
        <time>2003-08-30T08:20:07Z</time>
      </trkpt>
      <trkpt lat="43.758347611874342" lon="10.535953044891357">
        <ele>715.8388671875</ele>
        <time>2003-08-30T08:20:11Z</time>
      </trkpt>
      <trkpt lat="43.758283574134111" lon="10.535814994946122">
        <ele>717.281005859375</ele>
        <time>2003-08-30T08:20:16Z</time>
      </trkpt>
      <trkpt lat="43.758210651576519" lon="10.535685326904058">
        <ele>717.281005859375</ele>
        <time>2003-08-30T08:20:22Z</time>
      </trkpt>
      <trkpt lat="43.758162287995219" lon="10.535524394363165">
        <ele>717.281005859375</ele>
        <time>2003-08-30T08:20:29Z</time>
      </trkpt>
      <trkpt lat="43.758143344894052" lon="10.535359103232622">
        <ele>718.2421875</ele>
        <time>2003-08-30T08:20:36Z</time>
      </trkpt>
      <trkpt lat="43.758130101487041" lon="10.535204624757171">
        <ele>719.20361328125</ele>
        <time>2003-08-30T08:20:42Z</time>
      </trkpt>
      <trkpt lat="43.758111577481031" lon="10.53504578769207">
        <ele>718.722900390625</ele>
        <time>2003-08-30T08:20:49Z</time>
      </trkpt>
      <trkpt lat="43.758078636601567" lon="10.534885777160525">
        <ele>718.722900390625</ele>
        <time>2003-08-30T08:20:56Z</time>
      </trkpt>
      <trkpt lat="43.758041001856327" lon="10.534705901518464">
        <ele>718.722900390625</ele>
        <time>2003-08-30T08:24:28Z</time>
      </trkpt>
      <trkpt lat="43.758060028776526" lon="10.534559385851026">
        <ele>719.20361328125</ele>
        <time>2003-08-30T08:24:33Z</time>
      </trkpt>
      <trkpt lat="43.758069416508079" lon="10.534424856305122">
        <ele>719.20361328125</ele>
        <time>2003-08-30T08:24:37Z</time>
      </trkpt>
      <trkpt lat="43.758072350174189" lon="10.534287057816982">
        <ele>720.164794921875</ele>
        <time>2003-08-30T08:24:41Z</time>
      </trkpt>
      <trkpt lat="43.758080145344138" lon="10.5341393686831">
        <ele>719.684326171875</ele>
        <time>2003-08-30T08:24:45Z</time>
      </trkpt>
      <trkpt lat="43.758082743734121" lon="10.533980615437031">
        <ele>721.126220703125</ele>
        <time>2003-08-30T08:24:49Z</time>
      </trkpt>
      <trkpt lat="43.758093724027276" lon="10.533822197467089">
        <ele>721.126220703125</ele>
        <time>2003-08-30T08:24:53Z</time>
      </trkpt>
      <trkpt lat="43.758131442591548" lon="10.533696385100484">
        <ele>721.606689453125</ele>
        <time>2003-08-30T08:24:57Z</time>
      </trkpt>
      <trkpt lat="43.758180476725101" lon="10.533591443672776">
        <ele>721.126220703125</ele>
        <time>2003-08-30T08:25:01Z</time>
      </trkpt>
      <trkpt lat="43.758249208331108" lon="10.533496225252748">
        <ele>721.606689453125</ele>
        <time>2003-08-30T08:25:06Z</time>
      </trkpt>
      <trkpt lat="43.758330848067999" lon="10.533415675163269">
        <ele>722.568115234375</ele>
        <time>2003-08-30T08:25:11Z</time>
      </trkpt>
      <trkpt lat="43.758416846394539" lon="10.533344512805343">
        <ele>723.048828125</ele>
        <time>2003-08-30T08:25:16Z</time>
      </trkpt>
      <trkpt lat="43.758500581607223" lon="10.533290868625045">
        <ele>723.529541015625</ele>
        <time>2003-08-30T08:25:21Z</time>
      </trkpt>
      <trkpt lat="43.758585909381509" lon="10.533241415396333">
        <ele>724.49072265625</ele>
        <time>2003-08-30T08:25:26Z</time>
      </trkpt>
      <trkpt lat="43.758684564381838" lon="10.533171594142914">
        <ele>724.49072265625</ele>
        <time>2003-08-30T08:25:31Z</time>
      </trkpt>
      <trkpt lat="43.758765533566475" lon="10.533117447048426">
        <ele>726.413330078125</ele>
        <time>2003-08-30T08:25:35Z</time>
      </trkpt>
      <trkpt lat="43.758853375911713" lon="10.533070927485824">
        <ele>725.9326171875</ele>
        <time>2003-08-30T08:25:39Z</time>
      </trkpt>
      <trkpt lat="43.758961753919721" lon="10.533015271648765">
        <ele>726.413330078125</ele>
        <time>2003-08-30T08:25:44Z</time>
      </trkpt>
      <trkpt lat="43.759048422798514" lon="10.532952910289168">
        <ele>726.413330078125</ele>
        <time>2003-08-30T08:25:49Z</time>
      </trkpt>
      <trkpt lat="43.759120926260948" lon="10.53288409486413">
        <ele>725.9326171875</ele>
        <time>2003-08-30T08:25:54Z</time>
      </trkpt>
      <trkpt lat="43.759204326197505" lon="10.532805053517222">
        <ele>727.374755859375</ele>
        <time>2003-08-30T08:26:00Z</time>
      </trkpt>
      <trkpt lat="43.7592754047364" lon="10.532726095989347">
        <ele>727.855224609375</ele>
        <time>2003-08-30T08:26:05Z</time>
      </trkpt>
      <trkpt lat="43.759352685883641" lon="10.532625764608383">
        <ele>728.816650390625</ele>
        <time>2003-08-30T08:26:10Z</time>
      </trkpt>
      <trkpt lat="43.75942443497479" lon="10.5325195658952">
        <ele>727.855224609375</ele>
        <time>2003-08-30T08:26:15Z</time>
      </trkpt>
      <trkpt lat="43.759487802162766" lon="10.53240867331624">
        <ele>728.816650390625</ele>
        <time>2003-08-30T08:26:20Z</time>
      </trkpt>
      <trkpt lat="43.759551672264934" lon="10.53230163641274">
        <ele>729.77783203125</ele>
        <time>2003-08-30T08:26:25Z</time>
      </trkpt>
      <trkpt lat="43.759609507396817" lon="10.532202059403062">
        <ele>727.855224609375</ele>
        <time>2003-08-30T08:26:29Z</time>
      </trkpt>
      <trkpt lat="43.759669018909335" lon="10.532111451029778">
        <ele>728.3359375</ele>
        <time>2003-08-30T08:26:34Z</time>
      </trkpt>
      <trkpt lat="43.759735068306327" lon="10.531988823786378">
        <ele>728.3359375</ele>
        <time>2003-08-30T08:26:40Z</time>
      </trkpt>
      <trkpt lat="43.759770020842552" lon="10.53187558427453">
        <ele>729.297119140625</ele>
        <time>2003-08-30T08:26:45Z</time>
      </trkpt>
      <trkpt lat="43.759816037490964" lon="10.531749101355672">
        <ele>730.7392578125</ele>
        <time>2003-08-30T08:26:51Z</time>
      </trkpt>
      <trkpt lat="43.759859874844551" lon="10.531628401950002">
        <ele>732.181396484375</ele>
        <time>2003-08-30T08:26:56Z</time>
      </trkpt>
      <trkpt lat="43.759902874007821" lon="10.531491693109274">
        <ele>730.258544921875</ele>
        <time>2003-08-30T08:27:01Z</time>
      </trkpt>
      <trkpt lat="43.759952494874597" lon="10.53136395290494">
        <ele>731.700439453125</ele>
        <time>2003-08-30T08:27:06Z</time>
      </trkpt>
      <trkpt lat="43.759999684989452" lon="10.531261693686247">
        <ele>732.181396484375</ele>
        <time>2003-08-30T08:27:11Z</time>
      </trkpt>
      <trkpt lat="43.760034972801805" lon="10.531144766137004">
        <ele>734.10400390625</ele>
        <time>2003-08-30T08:27:20Z</time>
      </trkpt>
      <trkpt lat="43.7600904610008" lon="10.530945612117648">
        <ele>735.0654296875</ele>
        <time>2003-08-30T08:28:40Z</time>
      </trkpt>
      <trkpt lat="43.760048802942038" lon="10.530834384262562">
        <ele>734.584716796875</ele>
        <time>2003-08-30T08:28:47Z</time>
      </trkpt>
      <trkpt lat="43.760034972801805" lon="10.530714690685272">
        <ele>736.50732421875</ele>
        <time>2003-08-30T08:28:54Z</time>
      </trkpt>
      <trkpt lat="43.760051066055894" lon="10.530584352090955">
        <ele>737.94921875</ele>
        <time>2003-08-30T08:29:02Z</time>
      </trkpt>
      <trkpt lat="43.760067662224174" lon="10.530456863343716">
        <ele>739.39111328125</ele>
        <time>2003-08-30T08:29:09Z</time>
      </trkpt>
      <trkpt lat="43.760088533163071" lon="10.530329709872603">
        <ele>739.871826171875</ele>
        <time>2003-08-30T08:29:16Z</time>
      </trkpt>
      <trkpt lat="43.760122144594789" lon="10.530222253873944">
        <ele>740.8330078125</ele>
        <time>2003-08-30T08:29:23Z</time>
      </trkpt>
      <trkpt lat="43.760135555639863" lon="10.530078839510679">
        <ele>743.236328125</ele>
        <time>2003-08-30T08:29:31Z</time>
      </trkpt>
      <trkpt lat="43.760133795440197" lon="10.529935676604509">
        <ele>745.158935546875</ele>
        <time>2003-08-30T08:29:39Z</time>
      </trkpt>
      <trkpt lat="43.760167071595788" lon="10.529813887551427">
        <ele>746.60107421875</ele>
        <time>2003-08-30T08:29:48Z</time>
      </trkpt>
      <trkpt lat="43.760182494297624" lon="10.52968991920352">
        <ele>750.446533203125</ele>
        <time>2003-08-30T08:29:59Z</time>
      </trkpt>
      <trkpt lat="43.760191882029176" lon="10.529542649164796">
        <ele>751.40771484375</ele>
        <time>2003-08-30T08:30:09Z</time>
      </trkpt>
      <trkpt lat="43.760167490690947" lon="10.529393199831247">
        <ele>751.40771484375</ele>
        <time>2003-08-30T08:30:20Z</time>
      </trkpt>
      <trkpt lat="43.760147457942367" lon="10.529244756326079">
        <ele>752.368896484375</ele>
        <time>2003-08-30T08:30:29Z</time>
      </trkpt>
      <trkpt lat="43.760102363303304" lon="10.529113747179508">
        <ele>753.81103515625</ele>
        <time>2003-08-30T08:30:37Z</time>
      </trkpt>
      <trkpt lat="43.760068165138364" lon="10.528965890407562">
        <ele>754.291748046875</ele>
        <time>2003-08-30T08:30:46Z</time>
      </trkpt>
      <trkpt lat="43.760037906467915" lon="10.528820883482695">
        <ele>756.214111328125</ele>
        <time>2003-08-30T08:30:54Z</time>
      </trkpt>
      <trkpt lat="43.760010162368417" lon="10.52867311052978">
        <ele>758.617431640625</ele>
        <time>2003-08-30T08:31:02Z</time>
      </trkpt>
      <trkpt lat="43.759975209832191" lon="10.528515866026282">
        <ele>757.65625</ele>
        <time>2003-08-30T08:32:11Z</time>
      </trkpt>
      <trkpt lat="43.759988034144044" lon="10.528365327045321">
        <ele>756.69482421875</ele>
        <time>2003-08-30T08:32:22Z</time>
      </trkpt>
      <trkpt lat="43.760039079934359" lon="10.528239095583558">
        <ele>755.2529296875</ele>
        <time>2003-08-30T08:32:32Z</time>
      </trkpt>
      <trkpt lat="43.760070512071252" lon="10.528061483055353">
        <ele>755.2529296875</ele>
        <time>2003-08-30T08:32:39Z</time>
      </trkpt>
      <trkpt lat="43.76005232334137" lon="10.528021082282066">
        <ele>755.2529296875</ele>
        <time>2003-08-30T08:32:41Z</time>
      </trkpt>
      <trkpt lat="43.76008166000247" lon="10.527901137247682">
        <ele>755.2529296875</ele>
        <time>2003-08-30T08:32:46Z</time>
      </trkpt>
      <trkpt lat="43.760131783783436" lon="10.527771469205618">
        <ele>755.733642578125</ele>
        <time>2003-08-30T08:32:51Z</time>
      </trkpt>
      <trkpt lat="43.760177213698626" lon="10.527645321562886">
        <ele>756.214111328125</ele>
        <time>2003-08-30T08:32:56Z</time>
      </trkpt>
      <trkpt lat="43.760220129042864" lon="10.527509618550539">
        <ele>756.69482421875</ele>
        <time>2003-08-30T08:33:01Z</time>
      </trkpt>
      <trkpt lat="43.760264469310641" lon="10.527358157560229">
        <ele>756.69482421875</ele>
        <time>2003-08-30T08:33:06Z</time>
      </trkpt>
      <trkpt lat="43.760294811800122" lon="10.527191860601306">
        <ele>755.733642578125</ele>
        <time>2003-08-30T08:33:11Z</time>
      </trkpt>
      <trkpt lat="43.760311910882592" lon="10.527021707966924">
        <ele>755.2529296875</ele>
        <time>2003-08-30T08:33:16Z</time>
      </trkpt>
      <trkpt lat="43.760317442938685" lon="10.526884831488132">
        <ele>754.772216796875</ele>
        <time>2003-08-30T08:33:20Z</time>
      </trkpt>
      <trkpt lat="43.760322472080588" lon="10.526724318042397">
        <ele>754.291748046875</ele>
        <time>2003-08-30T08:33:25Z</time>
      </trkpt>
      <trkpt lat="43.760313168168068" lon="10.526534551754594">
        <ele>755.2529296875</ele>
        <time>2003-08-30T08:33:38Z</time>
      </trkpt>
      <trkpt lat="43.760318281129003" lon="10.526390131562948">
        <ele>756.214111328125</ele>
        <time>2003-08-30T08:33:46Z</time>
      </trkpt>
      <trkpt lat="43.760427162051201" lon="10.52636431530118">
        <ele>753.81103515625</ele>
        <time>2003-08-30T08:36:25Z</time>
      </trkpt>
      <trkpt lat="43.760427916422486" lon="10.526366326957941">
        <ele>753.330322265625</ele>
        <time>2003-08-30T08:36:26Z</time>
      </trkpt>
      <trkpt lat="43.760424731299281" lon="10.526354676112533">
        <ele>752.849609375</ele>
        <time>2003-08-30T08:36:41Z</time>
      </trkpt>
      <trkpt lat="43.760626567527652" lon="10.52638677880168">
        <ele>752.849609375</ele>
        <time>2003-08-30T08:36:42Z</time>
      </trkpt>
      <trkpt lat="43.760394556447864" lon="10.526364985853434">
        <ele>756.214111328125</ele>
        <time>2003-08-30T08:38:13Z</time>
      </trkpt>
      <trkpt lat="43.760373014956713" lon="10.526342773810029">
        <ele>756.69482421875</ele>
        <time>2003-08-30T08:38:34Z</time>
      </trkpt>
      <trkpt lat="43.760288022458553" lon="10.526157701388001">
        <ele>754.291748046875</ele>
        <time>2003-08-30T08:39:24Z</time>
      </trkpt>
      <trkpt lat="43.760296488180757" lon="10.526031218469143">
        <ele>753.330322265625</ele>
        <time>2003-08-30T08:39:30Z</time>
      </trkpt>
      <trkpt lat="43.760293889790773" lon="10.525904400274158">
        <ele>755.2529296875</ele>
        <time>2003-08-30T08:39:35Z</time>
      </trkpt>
      <trkpt lat="43.760295649990439" lon="10.525766434147954">
        <ele>757.175537109375</ele>
        <time>2003-08-30T08:39:40Z</time>
      </trkpt>
      <trkpt lat="43.760279975831509" lon="10.52561866119504">
        <ele>756.69482421875</ele>
        <time>2003-08-30T08:39:44Z</time>
      </trkpt>
      <trkpt lat="43.760267570614815" lon="10.525485305115581">
        <ele>756.69482421875</ele>
        <time>2003-08-30T08:39:48Z</time>
      </trkpt>
      <trkpt lat="43.760253908112645" lon="10.525362761691213">
        <ele>756.214111328125</ele>
        <time>2003-08-30T08:39:52Z</time>
      </trkpt>
      <trkpt lat="43.760218871757388" lon="10.52523510530591">
        <ele>756.214111328125</ele>
        <time>2003-08-30T08:39:56Z</time>
      </trkpt>
      <trkpt lat="43.760164389386773" lon="10.525107784196734">
        <ele>756.69482421875</ele>
        <time>2003-08-30T08:40:01Z</time>
      </trkpt>
      <trkpt lat="43.760109571740031" lon="10.524991694837809">
        <ele>757.175537109375</ele>
        <time>2003-08-30T08:40:06Z</time>
      </trkpt>
      <trkpt lat="43.760032458230853" lon="10.524898655712605">
        <ele>757.175537109375</ele>
        <time>2003-08-30T08:40:11Z</time>
      </trkpt>
      <trkpt lat="43.759940760210156" lon="10.524803353473544">
        <ele>757.175537109375</ele>
        <time>2003-08-30T08:40:16Z</time>
      </trkpt>
      <trkpt lat="43.759851409122348" lon="10.524698747321963">
        <ele>757.175537109375</ele>
        <time>2003-08-30T08:40:22Z</time>
      </trkpt>
      <trkpt lat="43.759769769385457" lon="10.524622220546007">
        <ele>758.136962890625</ele>
        <time>2003-08-30T08:40:28Z</time>
      </trkpt>
      <trkpt lat="43.759695840999484" lon="10.524530857801437">
        <ele>758.617431640625</ele>
        <time>2003-08-30T08:40:34Z</time>
      </trkpt>
      <trkpt lat="43.759637670591474" lon="10.524422815069556">
        <ele>758.617431640625</ele>
        <time>2003-08-30T08:40:42Z</time>
      </trkpt>
      <trkpt lat="43.759606070816517" lon="10.524294152855873">
        <ele>759.578857421875</ele>
        <time>2003-08-30T08:40:51Z</time>
      </trkpt>
      <trkpt lat="43.759596683084965" lon="10.524154845625162">
        <ele>760.5400390625</ele>
        <time>2003-08-30T08:41:00Z</time>
      </trkpt>
      <trkpt lat="43.759601796045899" lon="10.524013694375753">
        <ele>761.982177734375</ele>
        <time>2003-08-30T08:41:08Z</time>
      </trkpt>
      <trkpt lat="43.759626355022192" lon="10.523885786533356">
        <ele>763.424072265625</ele>
        <time>2003-08-30T08:41:16Z</time>
      </trkpt>
      <trkpt lat="43.759606406092644" lon="10.523736840113997">
        <ele>764.385498046875</ele>
        <time>2003-08-30T08:41:26Z</time>
      </trkpt>
      <trkpt lat="43.759549660608172" lon="10.523604406043887">
        <ele>764.8662109375</ele>
        <time>2003-08-30T08:41:36Z</time>
      </trkpt>
      <trkpt lat="43.759470786899328" lon="10.523494184017181">
        <ele>765.346923828125</ele>
        <time>2003-08-30T08:41:45Z</time>
      </trkpt>
      <trkpt lat="43.759504398331046" lon="10.523439534008503">
        <ele>766.788818359375</ele>
        <time>2003-08-30T08:42:07Z</time>
      </trkpt>
      <trkpt lat="43.759608920663595" lon="10.523499464616179">
        <ele>769.192138671875</ele>
        <time>2003-08-30T08:42:26Z</time>
      </trkpt>
      <trkpt lat="43.759571788832545" lon="10.523352194577456">
        <ele>773.037353515625</ele>
        <time>2003-08-30T08:42:48Z</time>
      </trkpt>
      <trkpt lat="43.759567765519023" lon="10.523231495171785">
        <ele>776.882568359375</ele>
        <time>2003-08-30T08:43:12Z</time>
      </trkpt>
      <trkpt lat="43.759682346135378" lon="10.523240128532052">
        <ele>779.766357421875</ele>
        <time>2003-08-30T08:43:28Z</time>
      </trkpt>
      <trkpt lat="43.759797094389796" lon="10.523316320031881">
        <ele>781.208740234375</ele>
        <time>2003-08-30T08:43:44Z</time>
      </trkpt>
      <trkpt lat="43.759895414113998" lon="10.523407096043229">
        <ele>783.61181640625</ele>
        <time>2003-08-30T08:43:55Z</time>
      </trkpt>
      <trkpt lat="43.759975209832191" lon="10.523490328341722">
        <ele>786.01513671875</ele>
        <time>2003-08-30T08:44:20Z</time>
      </trkpt>
      <trkpt lat="43.759937910363078" lon="10.523348590359092">
        <ele>786.976318359375</ele>
        <time>2003-08-30T08:44:31Z</time>
      </trkpt>
      <trkpt lat="43.759815199300647" lon="10.523175420239568">
        <ele>788.41845703125</ele>
        <time>2003-08-30T08:44:42Z</time>
      </trkpt>
      <trkpt lat="43.759702881798148" lon="10.523046506568789">
        <ele>790.341064453125</ele>
        <time>2003-08-30T08:44:52Z</time>
      </trkpt>
      <trkpt lat="43.759575812146068" lon="10.52294340915978">
        <ele>793.224853515625</ele>
        <time>2003-08-30T08:45:02Z</time>
      </trkpt>
      <trkpt lat="43.75944253988564" lon="10.522849531844258">
        <ele>793.70556640625</ele>
        <time>2003-08-30T08:45:17Z</time>
      </trkpt>
      <trkpt lat="43.759339358657598" lon="10.522760264575481">
        <ele>793.70556640625</ele>
        <time>2003-08-30T08:45:25Z</time>
      </trkpt>
      <trkpt lat="43.759231567382813" lon="10.522708799690008">
        <ele>793.70556640625</ele>
        <time>2003-08-30T08:45:30Z</time>
      </trkpt>
      <trkpt lat="43.759128637611866" lon="10.5226194486022">
        <ele>795.1474609375</ele>
        <time>2003-08-30T08:45:37Z</time>
      </trkpt>
      <trkpt lat="43.759075999259949" lon="10.52242448553443">
        <ele>794.666748046875</ele>
        <time>2003-08-30T08:46:38Z</time>
      </trkpt>
      <trkpt lat="43.759090332314372" lon="10.52224519662559">
        <ele>795.1474609375</ele>
        <time>2003-08-30T08:46:47Z</time>
      </trkpt>
      <trkpt lat="43.759115058928728" lon="10.52205459214747">
        <ele>796.109130859375</ele>
        <time>2003-08-30T08:46:54Z</time>
      </trkpt>
      <trkpt lat="43.759129224345088" lon="10.521873962134123">
        <ele>796.58984375</ele>
        <time>2003-08-30T08:47:00Z</time>
      </trkpt>
      <trkpt lat="43.759139366447926" lon="10.521690482273698">
        <ele>796.58984375</ele>
        <time>2003-08-30T08:47:06Z</time>
      </trkpt>
      <trkpt lat="43.75914640724659" lon="10.521505661308765">
        <ele>795.1474609375</ele>
        <time>2003-08-30T08:47:11Z</time>
      </trkpt>
      <trkpt lat="43.759153867140412" lon="10.521354954689741">
        <ele>793.70556640625</ele>
        <time>2003-08-30T08:47:15Z</time>
      </trkpt>
      <trkpt lat="43.759161327034235" lon="10.521204248070717">
        <ele>791.782958984375</ele>
        <time>2003-08-30T08:47:19Z</time>
      </trkpt>
      <trkpt lat="43.759174654260278" lon="10.52102018147707">
        <ele>790.341064453125</ele>
        <time>2003-08-30T08:47:23Z</time>
      </trkpt>
      <trkpt lat="43.759181359782815" lon="10.520882215350866">
        <ele>790.341064453125</ele>
        <time>2003-08-30T08:47:27Z</time>
      </trkpt>
      <trkpt lat="43.759190579876304" lon="10.520736370235682">
        <ele>789.8603515625</ele>
        <time>2003-08-30T08:47:31Z</time>
      </trkpt>
      <trkpt lat="43.759190915152431" lon="10.520548364147544">
        <ele>789.379638671875</ele>
        <time>2003-08-30T08:47:51Z</time>
      </trkpt>
      <trkpt lat="43.759232070297003" lon="10.519885439425707">
        <ele>785.534423828125</ele>
        <time>2003-08-30T08:49:21Z</time>
      </trkpt>
      <trkpt lat="43.759296946227551" lon="10.519759124144912">
        <ele>788.41845703125</ele>
        <time>2003-08-30T08:49:30Z</time>
      </trkpt>
      <trkpt lat="43.759357379749417" lon="10.519610932096839">
        <ele>788.899169921875</ele>
        <time>2003-08-30T08:49:37Z</time>
      </trkpt>
      <trkpt lat="43.759440947324038" lon="10.519493166357279">
        <ele>788.899169921875</ele>
        <time>2003-08-30T08:49:45Z</time>
      </trkpt>
      <trkpt lat="43.759510181844234" lon="10.51944337785244">
        <ele>789.379638671875</ele>
        <time>2003-08-30T08:50:42Z</time>
      </trkpt>
      <trkpt lat="43.759572878479958" lon="10.519372299313545">
        <ele>789.379638671875</ele>
        <time>2003-08-30T08:51:37Z</time>
      </trkpt>
      <trkpt lat="43.759655272588134" lon="10.519459387287498">
        <ele>786.976318359375</ele>
        <time>2003-08-30T08:51:43Z</time>
      </trkpt>
      <trkpt lat="43.75971813686192" lon="10.519523844122887">
        <ele>783.131103515625</ele>
        <time>2003-08-30T08:51:47Z</time>
      </trkpt>
      <trkpt lat="43.759778402745724" lon="10.51967890933156">
        <ele>782.169921875</ele>
        <time>2003-08-30T08:51:49Z</time>
      </trkpt>
      <trkpt lat="43.759838668629527" lon="10.519834058359265">
        <ele>780.72802734375</ele>
        <time>2003-08-30T08:51:51Z</time>
      </trkpt>
      <trkpt lat="43.759898850694299" lon="10.519989123567939">
        <ele>779.766357421875</ele>
        <time>2003-08-30T08:51:53Z</time>
      </trkpt>
      <trkpt lat="43.759959116578102" lon="10.520144272595644">
        <ele>778.80517578125</ele>
        <time>2003-08-30T08:51:55Z</time>
      </trkpt>
      <trkpt lat="43.760044947266579" lon="10.520307216793299">
        <ele>777.84375</ele>
        <time>2003-08-30T08:51:57Z</time>
      </trkpt>
      <trkpt lat="43.760131699964404" lon="10.520459348335862">
        <ele>775.921142578125</ele>
        <time>2003-08-30T08:51:59Z</time>
      </trkpt>
      <trkpt lat="43.760218368843198" lon="10.520611479878426">
        <ele>775.921142578125</ele>
        <time>2003-08-30T08:52:01Z</time>
      </trkpt>
      <trkpt lat="43.760311659425497" lon="10.520773250609636">
        <ele>774.9599609375</ele>
        <time>2003-08-30T08:52:03Z</time>
      </trkpt>
      <trkpt lat="43.760402435436845" lon="10.520867882296443">
        <ele>773.99853515625</ele>
        <time>2003-08-30T08:52:05Z</time>
      </trkpt>
      <trkpt lat="43.760524140670896" lon="10.520921023562551">
        <ele>773.99853515625</ele>
        <time>2003-08-30T08:52:08Z</time>
      </trkpt>
      <trkpt lat="43.760643415153027" lon="10.52099721506238">
        <ele>773.99853515625</ele>
        <time>2003-08-30T08:52:12Z</time>
      </trkpt>
      <trkpt lat="43.760750535875559" lon="10.521056475117803">
        <ele>774.479248046875</ele>
        <time>2003-08-30T08:52:19Z</time>
      </trkpt>
      <trkpt lat="43.760903840884566" lon="10.521091260015965">
        <ele>773.037353515625</ele>
        <time>2003-08-30T08:52:48Z</time>
      </trkpt>
      <trkpt lat="43.761014314368367" lon="10.521099893376231">
        <ele>775.4404296875</ele>
        <time>2003-08-30T08:59:37Z</time>
      </trkpt>
      <trkpt lat="43.761145574972034" lon="10.521091092377901">
        <ele>769.192138671875</ele>
        <time>2003-08-30T08:59:44Z</time>
      </trkpt>
      <trkpt lat="43.761245487257838" lon="10.521067874506116">
        <ele>768.71142578125</ele>
        <time>2003-08-30T08:59:46Z</time>
      </trkpt>
      <trkpt lat="43.761430643498898" lon="10.521007776260376">
        <ele>767.26953125</ele>
        <time>2003-08-30T08:59:48Z</time>
      </trkpt>
      <trkpt lat="43.761576991528273" lon="10.520957987755537">
        <ele>767.26953125</ele>
        <time>2003-08-30T08:59:50Z</time>
      </trkpt>
      <trkpt lat="43.761713113635778" lon="10.520909624174237">
        <ele>766.788818359375</ele>
        <time>2003-08-30T08:59:52Z</time>
      </trkpt>
      <trkpt lat="43.761851582676172" lon="10.520880874246359">
        <ele>766.30810546875</ele>
        <time>2003-08-30T08:59:54Z</time>
      </trkpt>
      <trkpt lat="43.762017041444778" lon="10.520865116268396">
        <ele>765.82763671875</ele>
        <time>2003-08-30T08:59:56Z</time>
      </trkpt>
      <trkpt lat="43.762189792469144" lon="10.520852711051702">
        <ele>764.385498046875</ele>
        <time>2003-08-30T08:59:58Z</time>
      </trkpt>
      <trkpt lat="43.762330524623394" lon="10.520839467644691">
        <ele>762.943359375</ele>
        <time>2003-08-30T09:00:00Z</time>
      </trkpt>
      <trkpt lat="43.762448122724891" lon="10.520827397704124">
        <ele>761.50146484375</ele>
        <time>2003-08-30T09:00:02Z</time>
      </trkpt>
      <trkpt lat="43.762565637007356" lon="10.520815411582589">
        <ele>759.578857421875</ele>
        <time>2003-08-30T09:00:04Z</time>
      </trkpt>
      <trkpt lat="43.762693963944912" lon="10.520804850384593">
        <ele>759.09814453125</ele>
        <time>2003-08-30T09:00:06Z</time>
      </trkpt>
      <trkpt lat="43.762816423550248" lon="10.520793618634343">
        <ele>757.65625</ele>
        <time>2003-08-30T09:00:08Z</time>
      </trkpt>
      <trkpt lat="43.762936452403665" lon="10.520786913111806">
        <ele>756.69482421875</ele>
        <time>2003-08-30T09:00:10Z</time>
      </trkpt>
      <trkpt lat="43.763053128495812" lon="10.520786494016647">
        <ele>755.733642578125</ele>
        <time>2003-08-30T09:00:12Z</time>
      </trkpt>
      <trkpt lat="43.763210289180279" lon="10.520798899233341">
        <ele>754.291748046875</ele>
        <time>2003-08-30T09:00:15Z</time>
      </trkpt>
      <trkpt lat="43.763331742957234" lon="10.520817590877414">
        <ele>753.81103515625</ele>
        <time>2003-08-30T09:00:18Z</time>
      </trkpt>
      <trkpt lat="43.763446491211653" lon="10.520838126540184">
        <ele>752.368896484375</ele>
        <time>2003-08-30T09:00:21Z</time>
      </trkpt>
      <trkpt lat="43.763556126505136" lon="10.520857237279415">
        <ele>751.40771484375</ele>
        <time>2003-08-30T09:00:24Z</time>
      </trkpt>
      <trkpt lat="43.76366576179862" lon="10.520876264199615">
        <ele>749.9658203125</ele>
        <time>2003-08-30T09:00:27Z</time>
      </trkpt>
      <trkpt lat="43.763775397092104" lon="10.520895374938846">
        <ele>749.9658203125</ele>
        <time>2003-08-30T09:00:30Z</time>
      </trkpt>
      <trkpt lat="43.763888720422983" lon="10.520932506769896">
        <ele>749.00439453125</ele>
        <time>2003-08-30T09:00:33Z</time>
      </trkpt>
      <trkpt lat="43.763997349888086" lon="10.520984139293432">
        <ele>748.043212890625</ele>
        <time>2003-08-30T09:00:36Z</time>
      </trkpt>
      <trkpt lat="43.764121821150184" lon="10.52106561139226">
        <ele>747.08154296875</ele>
        <time>2003-08-30T09:00:39Z</time>
      </trkpt>
      <trkpt lat="43.764245538040996" lon="10.521113472059369">
        <ele>747.08154296875</ele>
        <time>2003-08-30T09:00:42Z</time>
      </trkpt>
      <trkpt lat="43.764370428398252" lon="10.521187400445342">
        <ele>745.6396484375</ele>
        <time>2003-08-30T09:00:45Z</time>
      </trkpt>
      <trkpt lat="43.764494229108095" lon="10.521238278597593">
        <ele>743.717041015625</ele>
        <time>2003-08-30T09:00:48Z</time>
      </trkpt>
      <trkpt lat="43.764615682885051" lon="10.521315559744835">
        <ele>741.79443359375</ele>
        <time>2003-08-30T09:00:51Z</time>
      </trkpt>
      <trkpt lat="43.76474317163229" lon="10.521400803700089">
        <ele>739.39111328125</ele>
        <time>2003-08-30T09:00:54Z</time>
      </trkpt>
      <trkpt lat="43.764871414750814" lon="10.521461656317115">
        <ele>736.98779296875</ele>
        <time>2003-08-30T09:00:57Z</time>
      </trkpt>
      <trkpt lat="43.764957999810576" lon="10.521532231941819">
        <ele>735.5458984375</ele>
        <time>2003-08-30T09:00:59Z</time>
      </trkpt>
      <trkpt lat="43.765052799135447" lon="10.521606327965856">
        <ele>734.584716796875</ele>
        <time>2003-08-30T09:01:01Z</time>
      </trkpt>
      <trkpt lat="43.765146927908063" lon="10.521705569699407">
        <ele>734.10400390625</ele>
        <time>2003-08-30T09:01:03Z</time>
      </trkpt>
      <trkpt lat="43.765226723626256" lon="10.521814282983541">
        <ele>733.142578125</ele>
        <time>2003-08-30T09:01:05Z</time>
      </trkpt>
      <trkpt lat="43.76528162509203" lon="10.521949818357825">
        <ele>730.7392578125</ele>
        <time>2003-08-30T09:01:08Z</time>
      </trkpt>
      <trkpt lat="43.76539503224194" lon="10.522072529420257">
        <ele>729.297119140625</ele>
        <time>2003-08-30T09:01:12Z</time>
      </trkpt>
      <trkpt lat="43.765485053882003" lon="10.522117624059319">
        <ele>728.816650390625</ele>
        <time>2003-08-30T09:01:14Z</time>
      </trkpt>
      <trkpt lat="43.765575159341097" lon="10.522162718698382">
        <ele>727.855224609375</ele>
        <time>2003-08-30T09:01:16Z</time>
      </trkpt>
      <trkpt lat="43.765667695552111" lon="10.5222481302917">
        <ele>727.374755859375</ele>
        <time>2003-08-30T09:01:18Z</time>
      </trkpt>
      <trkpt lat="43.76576442271471" lon="10.522316694259644">
        <ele>726.89404296875</ele>
        <time>2003-08-30T09:01:20Z</time>
      </trkpt>
      <trkpt lat="43.765839189291" lon="10.522426329553127">
        <ele>726.413330078125</ele>
        <time>2003-08-30T09:01:22Z</time>
      </trkpt>
      <trkpt lat="43.765886798501015" lon="10.522576617076993">
        <ele>726.89404296875</ele>
        <time>2003-08-30T09:01:24Z</time>
      </trkpt>
      <trkpt lat="43.765175091102719" lon="10.524034816771746">
        <ele>725.9326171875</ele>
        <time>2003-08-30T09:01:26Z</time>
      </trkpt>
      <trkpt lat="43.765227142721415" lon="10.524151492863894">
        <ele>724.49072265625</ele>
        <time>2003-08-30T09:01:28Z</time>
      </trkpt>
      <trkpt lat="43.765810271725059" lon="10.523733822628856">
        <ele>723.529541015625</ele>
        <time>2003-08-30T09:01:30Z</time>
      </trkpt>
      <trkpt lat="43.765848241746426" lon="10.523763997480273">
        <ele>723.048828125</ele>
        <time>2003-08-30T09:01:32Z</time>
      </trkpt>
      <trkpt lat="43.765944298356771" lon="10.523771289736032">
        <ele>721.606689453125</ele>
        <time>2003-08-30T09:01:34Z</time>
      </trkpt>
      <trkpt lat="43.765858467668295" lon="10.523842535912991">
        <ele>719.684326171875</ele>
        <time>2003-08-30T09:01:37Z</time>
      </trkpt>
      <trkpt lat="43.765817061066628" lon="10.523927779868245">
        <ele>717.281005859375</ele>
        <time>2003-08-30T09:01:48Z</time>
      </trkpt>
      <trkpt lat="43.765825442969799" lon="10.52407119423151">
        <ele>717.761474609375</ele>
        <time>2003-08-30T09:03:40Z</time>
      </trkpt>
      <trkpt lat="43.765851845964789" lon="10.524207483977079">
        <ele>718.2421875</ele>
        <time>2003-08-30T09:03:49Z</time>
      </trkpt>
      <trkpt lat="43.765866681933403" lon="10.524357352405787">
        <ele>718.2421875</ele>
        <time>2003-08-30T09:03:57Z</time>
      </trkpt>
      <trkpt lat="43.765885541215539" lon="10.524497414007783">
        <ele>719.20361328125</ele>
        <time>2003-08-30T09:04:06Z</time>
      </trkpt>
      <trkpt lat="43.765897611156106" lon="10.524643762037158">
        <ele>719.20361328125</ele>
        <time>2003-08-30T09:04:15Z</time>
      </trkpt>
      <trkpt lat="43.765913704410195" lon="10.524784242734313">
        <ele>718.722900390625</ele>
        <time>2003-08-30T09:04:24Z</time>
      </trkpt>
      <trkpt lat="43.765859473496675" lon="10.524769406765699">
        <ele>719.20361328125</ele>
        <time>2003-08-30T09:09:04Z</time>
      </trkpt>
      <trkpt lat="43.765853187069297" lon="10.524621298536658">
        <ele>718.722900390625</ele>
        <time>2003-08-30T09:09:10Z</time>
      </trkpt>
      <trkpt lat="43.765844218432903" lon="10.524496743455529">
        <ele>718.722900390625</ele>
        <time>2003-08-30T09:09:15Z</time>
      </trkpt>
      <trkpt lat="43.765823012217879" lon="10.524356178939342">
        <ele>718.722900390625</ele>
        <time>2003-08-30T09:09:22Z</time>
      </trkpt>
      <trkpt lat="43.765812534838915" lon="10.52424076013267">
        <ele>718.2421875</ele>
        <time>2003-08-30T09:09:27Z</time>
      </trkpt>
      <trkpt lat="43.765806164592505" lon="10.524108242243528">
        <ele>718.2421875</ele>
        <time>2003-08-30T09:09:32Z</time>
      </trkpt>
      <trkpt lat="43.765753274783492" lon="10.523954518139362">
        <ele>717.281005859375</ele>
        <time>2003-08-30T09:10:21Z</time>
      </trkpt>
      <trkpt lat="43.76569552347064" lon="10.524102626368403">
        <ele>718.2421875</ele>
        <time>2003-08-30T09:10:30Z</time>
      </trkpt>
      <trkpt lat="43.765651267021894" lon="10.524224834516644">
        <ele>719.684326171875</ele>
        <time>2003-08-30T09:10:37Z</time>
      </trkpt>
      <trkpt lat="43.765580104663968" lon="10.524322148412466">
        <ele>719.684326171875</ele>
        <time>2003-08-30T09:10:43Z</time>
      </trkpt>
      <trkpt lat="43.765488239005208" lon="10.524383671581745">
        <ele>720.164794921875</ele>
        <time>2003-08-30T09:10:51Z</time>
      </trkpt>
      <trkpt lat="43.765400480479002" lon="10.524463634938002">
        <ele>720.164794921875</ele>
        <time>2003-08-30T09:10:58Z</time>
      </trkpt>
      <trkpt lat="43.765332754701376" lon="10.524561535567045">
        <ele>721.126220703125</ele>
        <time>2003-08-30T09:11:04Z</time>
      </trkpt>
      <trkpt lat="43.765273662284017" lon="10.524678295478225">
        <ele>723.048828125</ele>
        <time>2003-08-30T09:11:10Z</time>
      </trkpt>
      <trkpt lat="43.765271734446287" lon="10.524742333218455">
        <ele>724.010009765625</ele>
        <time>2003-08-30T09:11:15Z</time>
      </trkpt>
      <trkpt lat="43.765240218490362" lon="10.524885831400752">
        <ele>723.529541015625</ele>
        <time>2003-08-30T09:11:21Z</time>
      </trkpt>
      <trkpt lat="43.765218928456306" lon="10.525020277127624">
        <ele>724.49072265625</ele>
        <time>2003-08-30T09:11:27Z</time>
      </trkpt>
      <trkpt lat="43.765211720019579" lon="10.525168804451823">
        <ele>724.49072265625</ele>
        <time>2003-08-30T09:11:34Z</time>
      </trkpt>
      <trkpt lat="43.765201577916741" lon="10.525309788063169">
        <ele>725.451904296875</ele>
        <time>2003-08-30T09:11:41Z</time>
      </trkpt>
      <trkpt lat="43.765197806060314" lon="10.5254583992064">
        <ele>725.9326171875</ele>
        <time>2003-08-30T09:11:48Z</time>
      </trkpt>
      <trkpt lat="43.765200488269329" lon="10.525621175765991">
        <ele>726.413330078125</ele>
        <time>2003-08-30T09:11:55Z</time>
      </trkpt>
      <trkpt lat="43.765214402228594" lon="10.525762662291527">
        <ele>726.89404296875</ele>
        <time>2003-08-30T09:12:01Z</time>
      </trkpt>
      <trkpt lat="43.76521616242826" lon="10.525924684479833">
        <ele>727.855224609375</ele>
        <time>2003-08-30T09:12:08Z</time>
      </trkpt>
      <trkpt lat="43.765198895707726" lon="10.526116378605366">
        <ele>727.855224609375</ele>
        <time>2003-08-30T09:12:15Z</time>
      </trkpt>
      <trkpt lat="43.765190094709396" lon="10.526266917586327">
        <ele>728.3359375</ele>
        <time>2003-08-30T09:12:21Z</time>
      </trkpt>
      <trkpt lat="43.765166290104389" lon="10.526426173746586">
        <ele>729.297119140625</ele>
        <time>2003-08-30T09:12:26Z</time>
      </trkpt>
      <trkpt lat="43.765176348388195" lon="10.52657880820334">
        <ele>729.77783203125</ele>
        <time>2003-08-30T09:12:31Z</time>
      </trkpt>
      <trkpt lat="43.765176683664322" lon="10.526737812906504">
        <ele>730.258544921875</ele>
        <time>2003-08-30T09:12:37Z</time>
      </trkpt>
      <trkpt lat="43.765173247084022" lon="10.526916263625026">
        <ele>730.7392578125</ele>
        <time>2003-08-30T09:12:44Z</time>
      </trkpt>
      <trkpt lat="43.765180287882686" lon="10.527101838961244">
        <ele>731.219970703125</ele>
        <time>2003-08-30T09:12:52Z</time>
      </trkpt>
      <trkpt lat="43.765191603451967" lon="10.527249025180936">
        <ele>731.700439453125</ele>
        <time>2003-08-30T09:12:59Z</time>
      </trkpt>
      <trkpt lat="43.765234434977174" lon="10.527438456192613">
        <ele>732.662109375</ele>
        <time>2003-08-30T09:13:07Z</time>
      </trkpt>
      <trkpt lat="43.765252958983183" lon="10.527611877769232">
        <ele>732.181396484375</ele>
        <time>2003-08-30T09:13:15Z</time>
      </trkpt>
      <trkpt lat="43.76529092900455" lon="10.527771217748523">
        <ele>732.662109375</ele>
        <time>2003-08-30T09:13:22Z</time>
      </trkpt>
      <trkpt lat="43.765318505465984" lon="10.527910524979234">
        <ele>733.142578125</ele>
        <time>2003-08-30T09:13:28Z</time>
      </trkpt>
      <trkpt lat="43.765347925946116" lon="10.528077408671379">
        <ele>733.142578125</ele>
        <time>2003-08-30T09:13:34Z</time>
      </trkpt>
      <trkpt lat="43.765368964523077" lon="10.528235407546163">
        <ele>734.10400390625</ele>
        <time>2003-08-30T09:13:40Z</time>
      </trkpt>
      <trkpt lat="43.765406515449286" lon="10.528402291238308">
        <ele>733.623291015625</ele>
        <time>2003-08-30T09:13:47Z</time>
      </trkpt>
      <trkpt lat="43.765449346974492" lon="10.528573449701071">
        <ele>733.142578125</ele>
        <time>2003-08-30T09:13:53Z</time>
      </trkpt>
      <trkpt lat="43.765481952577829" lon="10.528765814378858">
        <ele>734.10400390625</ele>
        <time>2003-08-30T09:14:01Z</time>
      </trkpt>
      <trkpt lat="43.765523107722402" lon="10.528944684192538">
        <ele>733.623291015625</ele>
        <time>2003-08-30T09:14:11Z</time>
      </trkpt>
      <trkpt lat="43.765588402748108" lon="10.528956335037947">
        <ele>732.181396484375</ele>
        <time>2003-08-30T09:15:16Z</time>
      </trkpt>
      <trkpt lat="43.765629138797522" lon="10.528815435245633">
        <ele>728.3359375</ele>
        <time>2003-08-30T09:15:23Z</time>
      </trkpt>
      <trkpt lat="43.765696194022894" lon="10.528649557381868">
        <ele>724.971435546875</ele>
        <time>2003-08-30T09:15:27Z</time>
      </trkpt>
      <trkpt lat="43.765756208449602" lon="10.528483260422945">
        <ele>723.529541015625</ele>
        <time>2003-08-30T09:15:29Z</time>
      </trkpt>
      <trkpt lat="43.76578152179718" lon="10.528292907401919">
        <ele>723.048828125</ele>
        <time>2003-08-30T09:15:31Z</time>
      </trkpt>
      <trkpt lat="43.765793591737747" lon="10.528160557150841">
        <ele>722.08740234375</ele>
        <time>2003-08-30T09:15:34Z</time>
      </trkpt>
      <trkpt lat="43.765828963369131" lon="10.528022004291415">
        <ele>720.164794921875</ele>
        <time>2003-08-30T09:15:39Z</time>
      </trkpt>
      <trkpt lat="43.765921834856272" lon="10.527916979044676">
        <ele>718.2421875</ele>
        <time>2003-08-30T09:15:42Z</time>
      </trkpt>
      <trkpt lat="43.766007917001843" lon="10.527836848050356">
        <ele>718.2421875</ele>
        <time>2003-08-30T09:15:44Z</time>
      </trkpt>
      <trkpt lat="43.766107661649585" lon="10.527769373729825">
        <ele>718.2421875</ele>
        <time>2003-08-30T09:15:46Z</time>
      </trkpt>
      <trkpt lat="43.766199862584472" lon="10.527721345424652">
        <ele>717.761474609375</ele>
        <time>2003-08-30T09:15:48Z</time>
      </trkpt>
      <trkpt lat="43.766296254470944" lon="10.527673400938511">
        <ele>716.319580078125</ele>
        <time>2003-08-30T09:15:51Z</time>
      </trkpt>
      <trkpt lat="43.766391556710005" lon="10.527585810050368">
        <ele>715.8388671875</ele>
        <time>2003-08-30T09:15:56Z</time>
      </trkpt>
      <trkpt lat="43.766437405720353" lon="10.527438540011644">
        <ele>714.87744140625</ele>
        <time>2003-08-30T09:16:00Z</time>
      </trkpt>
      <trkpt lat="43.766473447903991" lon="10.527308871969581">
        <ele>714.87744140625</ele>
        <time>2003-08-30T09:16:03Z</time>
      </trkpt>
      <trkpt lat="43.766556344926357" lon="10.527260843664408">
        <ele>713.916015625</ele>
        <time>2003-08-30T09:16:06Z</time>
      </trkpt>
      <trkpt lat="43.766645360738039" lon="10.527283642441034">
        <ele>714.396728515625</ele>
        <time>2003-08-30T09:16:09Z</time>
      </trkpt>
      <trkpt lat="43.766765976324677" lon="10.527301412075758">
        <ele>714.396728515625</ele>
        <time>2003-08-30T09:16:13Z</time>
      </trkpt>
      <trkpt lat="43.766880305483937" lon="10.527246594429016">
        <ele>714.87744140625</ele>
        <time>2003-08-30T09:16:17Z</time>
      </trkpt>
      <trkpt lat="43.766932357102633" lon="10.527120111510158">
        <ele>715.8388671875</ele>
        <time>2003-08-30T09:16:21Z</time>
      </trkpt>
      <trkpt lat="43.766952222213149" lon="10.526965884491801">
        <ele>715.358154296875</ele>
        <time>2003-08-30T09:16:25Z</time>
      </trkpt>
      <trkpt lat="43.766971249133348" lon="10.52681090310216">
        <ele>715.8388671875</ele>
        <time>2003-08-30T09:16:29Z</time>
      </trkpt>
      <trkpt lat="43.766972841694951" lon="10.526692299172282">
        <ele>716.319580078125</ele>
        <time>2003-08-30T09:16:33Z</time>
      </trkpt>
      <trkpt lat="43.766956748440862" lon="10.526547795161605">
        <ele>716.319580078125</ele>
        <time>2003-08-30T09:16:39Z</time>
      </trkpt>
      <trkpt lat="43.766942163929343" lon="10.526407901197672">
        <ele>716.319580078125</ele>
        <time>2003-08-30T09:16:44Z</time>
      </trkpt>
      <trkpt lat="43.766899835318327" lon="10.526266917586327">
        <ele>717.761474609375</ele>
        <time>2003-08-30T09:16:49Z</time>
      </trkpt>
      <trkpt lat="43.766845017671585" lon="10.526156108826399">
        <ele>717.761474609375</ele>
        <time>2003-08-30T09:16:54Z</time>
      </trkpt>
      <trkpt lat="43.766777291893959" lon="10.526043204590678">
        <ele>718.2421875</ele>
        <time>2003-08-30T09:17:00Z</time>
      </trkpt>
      <trkpt lat="43.766718870028853" lon="10.525937508791685">
        <ele>719.20361328125</ele>
        <time>2003-08-30T09:17:07Z</time>
      </trkpt>
      <trkpt lat="43.766662962734699" lon="10.525838518515229">
        <ele>719.20361328125</ele>
        <time>2003-08-30T09:17:13Z</time>
      </trkpt>
      <trkpt lat="43.766599595546722" lon="10.525730643421412">
        <ele>719.684326171875</ele>
        <time>2003-08-30T09:17:19Z</time>
      </trkpt>
      <trkpt lat="43.766549387946725" lon="10.525617320090532">
        <ele>719.20361328125</ele>
        <time>2003-08-30T09:17:24Z</time>
      </trkpt>
      <trkpt lat="43.76651493832469" lon="10.525478599593043">
        <ele>719.20361328125</ele>
        <time>2003-08-30T09:17:29Z</time>
      </trkpt>
      <trkpt lat="43.766478644683957" lon="10.525284390896559">
        <ele>718.722900390625</ele>
        <time>2003-08-30T09:17:33Z</time>
      </trkpt>
      <trkpt lat="43.766450565308332" lon="10.525155644863844">
        <ele>718.722900390625</ele>
        <time>2003-08-30T09:17:35Z</time>
      </trkpt>
      <trkpt lat="43.766421983018517" lon="10.525029581040144">
        <ele>718.722900390625</ele>
        <time>2003-08-30T09:17:37Z</time>
      </trkpt>
      <trkpt lat="43.766385773196816" lon="10.524854734539986">
        <ele>718.722900390625</ele>
        <time>2003-08-30T09:17:40Z</time>
      </trkpt>
      <trkpt lat="43.766349395737052" lon="10.524697657674551">
        <ele>718.722900390625</ele>
        <time>2003-08-30T09:17:43Z</time>
      </trkpt>
      <trkpt lat="43.766321651637554" lon="10.524562876671553">
        <ele>718.722900390625</ele>
        <time>2003-08-30T09:17:46Z</time>
      </trkpt>
      <trkpt lat="43.76629407517612" lon="10.524436645209789">
        <ele>718.722900390625</ele>
        <time>2003-08-30T09:17:49Z</time>
      </trkpt>
      <trkpt lat="43.766267588362098" lon="10.524313766509295">
        <ele>719.20361328125</ele>
        <time>2003-08-30T09:17:52Z</time>
      </trkpt>
      <trkpt lat="43.766240095719695" lon="10.524169262498617">
        <ele>718.2421875</ele>
        <time>2003-08-30T09:17:56Z</time>
      </trkpt>
      <trkpt lat="43.766206987202168" lon="10.524038085713983">
        <ele>717.761474609375</ele>
        <time>2003-08-30T09:18:00Z</time>
      </trkpt>
      <trkpt lat="43.766161557286978" lon="10.523944795131683">
        <ele>716.80029296875</ele>
        <time>2003-08-30T09:18:05Z</time>
      </trkpt>
      <trkpt lat="43.766103638336062" lon="10.523846726864576">
        <ele>716.319580078125</ele>
        <time>2003-08-30T09:18:13Z</time>
      </trkpt>
      <trkpt lat="43.766041109338403" lon="10.523749748244882">
        <ele>715.358154296875</ele>
        <time>2003-08-30T09:18:19Z</time>
      </trkpt>
      <trkpt lat="43.76597254537046" lon="10.523645477369428">
        <ele>714.396728515625</ele>
        <time>2003-08-30T09:18:25Z</time>
      </trkpt>
      <trkpt lat="43.766033565625548" lon="10.523554617539048">
        <ele>713.435546875</ele>
        <time>2003-08-30T09:18:31Z</time>
      </trkpt>
      <trkpt lat="43.766130795702338" lon="10.523545481264591">
        <ele>712.954833984375</ele>
        <time>2003-08-30T09:18:37Z</time>
      </trkpt>
      <trkpt lat="43.766231294721365" lon="10.523534249514341">
        <ele>712.47412109375</ele>
        <time>2003-08-30T09:18:44Z</time>
      </trkpt>
      <trkpt lat="43.766284100711346" lon="10.523610357195139">
        <ele>712.47412109375</ele>
        <time>2003-08-30T09:19:03Z</time>
      </trkpt>
      <trkpt lat="43.766392059624195" lon="10.523645812645555">
        <ele>715.8388671875</ele>
        <time>2003-08-30T09:23:00Z</time>
      </trkpt>
      <trkpt lat="43.766493313014507" lon="10.523766512051225">
        <ele>716.319580078125</ele>
        <time>2003-08-30T09:23:08Z</time>
      </trkpt>
      <trkpt lat="43.766599930822849" lon="10.523888384923339">
        <ele>715.358154296875</ele>
        <time>2003-08-30T09:23:14Z</time>
      </trkpt>
      <trkpt lat="43.766638319939375" lon="10.524038420990109">
        <ele>715.8388671875</ele>
        <time>2003-08-30T09:23:20Z</time>
      </trkpt>
      <trkpt lat="43.766665477305651" lon="10.524193318560719">
        <ele>715.358154296875</ele>
        <time>2003-08-30T09:23:25Z</time>
      </trkpt>
      <trkpt lat="43.766677714884281" lon="10.524377385154366">
        <ele>714.87744140625</ele>
        <time>2003-08-30T09:23:30Z</time>
      </trkpt>
      <trkpt lat="43.76672213897109" lon="10.524546280503273">
        <ele>714.396728515625</ele>
        <time>2003-08-30T09:23:35Z</time>
      </trkpt>
      <trkpt lat="43.766791541129351" lon="10.524682151153684">
        <ele>715.358154296875</ele>
        <time>2003-08-30T09:23:39Z</time>
      </trkpt>
      <trkpt lat="43.76686530187726" lon="10.52482170984149">
        <ele>715.8388671875</ele>
        <time>2003-08-30T09:23:43Z</time>
      </trkpt>
      <trkpt lat="43.76692833378911" lon="10.52494877949357">
        <ele>715.8388671875</ele>
        <time>2003-08-30T09:23:47Z</time>
      </trkpt>
      <trkpt lat="43.766985749825835" lon="10.525068808346987">
        <ele>715.358154296875</ele>
        <time>2003-08-30T09:23:51Z</time>
      </trkpt>
      <trkpt lat="43.767051631584764" lon="10.525187496095896">
        <ele>713.916015625</ele>
        <time>2003-08-30T09:23:55Z</time>
      </trkpt>
      <trkpt lat="43.767114412039518" lon="10.525331245735288">
        <ele>713.916015625</ele>
        <time>2003-08-30T09:23:59Z</time>
      </trkpt>
      <trkpt lat="43.767171744257212" lon="10.525448340922594">
        <ele>713.435546875</ele>
        <time>2003-08-30T09:24:03Z</time>
      </trkpt>
      <trkpt lat="43.767229160293937" lon="10.525565352290869">
        <ele>713.435546875</ele>
        <time>2003-08-30T09:24:07Z</time>
      </trkpt>
      <trkpt lat="43.767286576330662" lon="10.525682447478175">
        <ele>712.954833984375</ele>
        <time>2003-08-30T09:24:11Z</time>
      </trkpt>
      <trkpt lat="43.767343992367387" lon="10.52579945884645">
        <ele>711.0322265625</ele>
        <time>2003-08-30T09:24:15Z</time>
      </trkpt>
      <trkpt lat="43.767401408404112" lon="10.525916470214725">
        <ele>709.59033203125</ele>
        <time>2003-08-30T09:24:19Z</time>
      </trkpt>
      <trkpt lat="43.767498387023807" lon="10.526060974225402">
        <ele>708.62890625</ele>
        <time>2003-08-30T09:24:23Z</time>
      </trkpt>
      <trkpt lat="43.767617996782064" lon="10.526208328083158">
        <ele>707.18701171875</ele>
        <time>2003-08-30T09:24:27Z</time>
      </trkpt>
      <trkpt lat="43.767739869654179" lon="10.52635014988482">
        <ele>706.706298828125</ele>
        <time>2003-08-30T09:24:30Z</time>
      </trkpt>
      <trkpt lat="43.76784011721611" lon="10.526473615318537">
        <ele>705.264404296875</ele>
        <time>2003-08-30T09:24:33Z</time>
      </trkpt>
      <trkpt lat="43.767990320920944" lon="10.52662868052721">
        <ele>704.78369140625</ele>
        <time>2003-08-30T09:24:36Z</time>
      </trkpt>
      <trkpt lat="43.768133735284209" lon="10.526776285842061">
        <ele>704.30322265625</ele>
        <time>2003-08-30T09:24:39Z</time>
      </trkpt>
      <trkpt lat="43.768252423033118" lon="10.526926573365927">
        <ele>703.341796875</ele>
        <time>2003-08-30T09:24:42Z</time>
      </trkpt>
      <trkpt lat="43.768389131873846" lon="10.527071245014668">
        <ele>702.861083984375</ele>
        <time>2003-08-30T09:24:45Z</time>
      </trkpt>
      <trkpt lat="43.768491307273507" lon="10.527171995490789">
        <ele>701.89990234375</ele>
        <time>2003-08-30T09:24:47Z</time>
      </trkpt>
      <trkpt lat="43.768588453531265" lon="10.5272854026407">
        <ele>700.9384765625</ele>
        <time>2003-08-30T09:24:49Z</time>
      </trkpt>
      <trkpt lat="43.768662549555302" lon="10.527378441765904">
        <ele>699.97705078125</ele>
        <time>2003-08-30T09:24:51Z</time>
      </trkpt>
      <trkpt lat="43.76873672939837" lon="10.52747156471014">
        <ele>699.496337890625</ele>
        <time>2003-08-30T09:24:53Z</time>
      </trkpt>
      <trkpt lat="43.768823146820068" lon="10.527578014880419">
        <ele>698.534912109375</ele>
        <time>2003-08-30T09:24:55Z</time>
      </trkpt>
      <trkpt lat="43.768909061327577" lon="10.52765822969377">
        <ele>698.534912109375</ele>
        <time>2003-08-30T09:24:58Z</time>
      </trkpt>
      <trkpt lat="43.769046440720558" lon="10.527621181681752">
        <ele>698.054443359375</ele>
        <time>2003-08-30T09:26:15Z</time>
      </trkpt>
      <trkpt lat="43.769030682742596" lon="10.527483718469739">
        <ele>697.093017578125</ele>
        <time>2003-08-30T09:26:20Z</time>
      </trkpt>
      <trkpt lat="43.769008805975318" lon="10.527373999357224">
        <ele>697.093017578125</ele>
        <time>2003-08-30T09:26:24Z</time>
      </trkpt>
      <trkpt lat="43.768983660265803" lon="10.527228070423007">
        <ele>696.1318359375</ele>
        <time>2003-08-30T09:26:28Z</time>
      </trkpt>
      <trkpt lat="43.768961615860462" lon="10.527110053226352">
        <ele>695.651123046875</ele>
        <time>2003-08-30T09:26:31Z</time>
      </trkpt>
      <trkpt lat="43.768932614475489" lon="10.526991114020348">
        <ele>694.209228515625</ele>
        <time>2003-08-30T09:26:34Z</time>
      </trkpt>
      <trkpt lat="43.768889531493187" lon="10.526850214228034">
        <ele>693.247802734375</ele>
        <time>2003-08-30T09:26:37Z</time>
      </trkpt>
      <trkpt lat="43.768852399662137" lon="10.526709146797657">
        <ele>692.28662109375</ele>
        <time>2003-08-30T09:26:40Z</time>
      </trkpt>
      <trkpt lat="43.768809316679835" lon="10.526560535654426">
        <ele>692.28662109375</ele>
        <time>2003-08-30T09:26:43Z</time>
      </trkpt>
      <trkpt lat="43.768754918128252" lon="10.526405638083816">
        <ele>691.3251953125</ele>
        <time>2003-08-30T09:26:46Z</time>
      </trkpt>
      <trkpt lat="43.768695658072829" lon="10.526248058304191">
        <ele>690.844482421875</ele>
        <time>2003-08-30T09:26:49Z</time>
      </trkpt>
      <trkpt lat="43.768629189580679" lon="10.526085952296853">
        <ele>689.88330078125</ele>
        <time>2003-08-30T09:26:52Z</time>
      </trkpt>
      <trkpt lat="43.768571522086859" lon="10.52592309191823">
        <ele>688.922119140625</ele>
        <time>2003-08-30T09:26:55Z</time>
      </trkpt>
      <trkpt lat="43.768533132970333" lon="10.525814546272159">
        <ele>688.922119140625</ele>
        <time>2003-08-30T09:26:57Z</time>
      </trkpt>
      <trkpt lat="43.768491055816412" lon="10.525695355609059">
        <ele>687.960693359375</ele>
        <time>2003-08-30T09:26:59Z</time>
      </trkpt>
      <trkpt lat="43.768446380272508" lon="10.525565603747964">
        <ele>687.47998046875</ele>
        <time>2003-08-30T09:27:01Z</time>
      </trkpt>
      <trkpt lat="43.768391394987702" lon="10.52542713470757">
        <ele>687.47998046875</ele>
        <time>2003-08-30T09:27:03Z</time>
      </trkpt>
      <trkpt lat="43.768335320055485" lon="10.525280199944973">
        <ele>686.518798828125</ele>
        <time>2003-08-30T09:27:05Z</time>
      </trkpt>
      <trkpt lat="43.768271030858159" lon="10.52511784248054">
        <ele>686.0380859375</ele>
        <time>2003-08-30T09:27:07Z</time>
      </trkpt>
      <trkpt lat="43.768204310908914" lon="10.524968644604087">
        <ele>684.59619140625</ele>
        <time>2003-08-30T09:27:09Z</time>
      </trkpt>
      <trkpt lat="43.768130885437131" lon="10.524809304624796">
        <ele>684.115478515625</ele>
        <time>2003-08-30T09:27:11Z</time>
      </trkpt>
      <trkpt lat="43.768052514642477" lon="10.524634877219796">
        <ele>683.634521484375</ele>
        <time>2003-08-30T09:27:13Z</time>
      </trkpt>
      <trkpt lat="43.767975568771362" lon="10.524466233327985">
        <ele>682.67333984375</ele>
        <time>2003-08-30T09:27:15Z</time>
      </trkpt>
      <trkpt lat="43.767895270138979" lon="10.52427688613534">
        <ele>683.15380859375</ele>
        <time>2003-08-30T09:27:17Z</time>
      </trkpt>
      <trkpt lat="43.767818408086896" lon="10.524082677438855">
        <ele>681.7119140625</ele>
        <time>2003-08-30T09:27:19Z</time>
      </trkpt>
      <trkpt lat="43.767749676480889" lon="10.523892492055893">
        <ele>681.2314453125</ele>
        <time>2003-08-30T09:27:21Z</time>
      </trkpt>
      <trkpt lat="43.767688320949674" lon="10.523710185661912">
        <ele>680.750732421875</ele>
        <time>2003-08-30T09:27:23Z</time>
      </trkpt>
      <trkpt lat="43.767636520788074" lon="10.523526538163424">
        <ele>679.30859375</ele>
        <time>2003-08-30T09:27:25Z</time>
      </trkpt>
      <trkpt lat="43.767593940719962" lon="10.523344650864601">
        <ele>678.828125</ele>
        <time>2003-08-30T09:27:27Z</time>
      </trkpt>
      <trkpt lat="43.767555970698595" lon="10.523165445774794">
        <ele>676.905517578125</ele>
        <time>2003-08-30T09:27:29Z</time>
      </trkpt>
      <trkpt lat="43.767523365095258" lon="10.522989174351096">
        <ele>675.46337890625</ele>
        <time>2003-08-30T09:27:31Z</time>
      </trkpt>
      <trkpt lat="43.767503835260868" lon="10.522816255688667">
        <ele>674.021484375</ele>
        <time>2003-08-30T09:27:33Z</time>
      </trkpt>
      <trkpt lat="43.767491513863206" lon="10.522655658423901">
        <ele>672.57958984375</ele>
        <time>2003-08-30T09:27:35Z</time>
      </trkpt>
      <trkpt lat="43.76748388633132" lon="10.52249045111239">
        <ele>673.060302734375</ele>
        <time>2003-08-30T09:27:37Z</time>
      </trkpt>
      <trkpt lat="43.767472989857197" lon="10.522331027314067">
        <ele>672.57958984375</ele>
        <time>2003-08-30T09:27:39Z</time>
      </trkpt>
      <trkpt lat="43.767460836097598" lon="10.522166071459651">
        <ele>669.215087890625</ele>
        <time>2003-08-30T09:27:41Z</time>
      </trkpt>
      <trkpt lat="43.767447927966714" lon="10.522000947967172">
        <ele>667.292236328125</ele>
        <time>2003-08-30T09:27:43Z</time>
      </trkpt>
      <trkpt lat="43.767431499436498" lon="10.521836495026946">
        <ele>666.8115234375</ele>
        <time>2003-08-30T09:27:45Z</time>
      </trkpt>
      <trkpt lat="43.767411718145013" lon="10.521667767316103">
        <ele>665.850341796875</ele>
        <time>2003-08-30T09:27:47Z</time>
      </trkpt>
      <trkpt lat="43.767384309321642" lon="10.521513121202588">
        <ele>664.408203125</ele>
        <time>2003-08-30T09:27:49Z</time>
      </trkpt>
      <trkpt lat="43.767358157783747" lon="10.521362414583564">
        <ele>662.485595703125</ele>
        <time>2003-08-30T09:27:51Z</time>
      </trkpt>
      <trkpt lat="43.767332257702947" lon="10.521211288869381">
        <ele>661.5244140625</ele>
        <time>2003-08-30T09:27:53Z</time>
      </trkpt>
      <trkpt lat="43.767425548285246" lon="10.521188573911786">
        <ele>659.601806640625</ele>
        <time>2003-08-30T09:27:57Z</time>
      </trkpt>
      <trkpt lat="43.76752445474267" lon="10.521168289706111">
        <ele>657.67919921875</ele>
        <time>2003-08-30T09:28:01Z</time>
      </trkpt>
      <trkpt lat="43.767623277381063" lon="10.521148005500436">
        <ele>656.7177734375</ele>
        <time>2003-08-30T09:28:05Z</time>
      </trkpt>
      <trkpt lat="43.767722183838487" lon="10.521127637475729">
        <ele>656.237060546875</ele>
        <time>2003-08-30T09:28:09Z</time>
      </trkpt>
      <trkpt lat="43.767833998426795" lon="10.521126044914126">
        <ele>653.833984375</ele>
        <time>2003-08-30T09:28:13Z</time>
      </trkpt>
      <trkpt lat="43.767941538244486" lon="10.521214390173554">
        <ele>652.87255859375</ele>
        <time>2003-08-30T09:28:15Z</time>
      </trkpt>
      <trkpt lat="43.768049078062177" lon="10.521310111507773">
        <ele>651.9111328125</ele>
        <time>2003-08-30T09:28:17Z</time>
      </trkpt>
      <trkpt lat="43.768161227926612" lon="10.521436594426632">
        <ele>650.94970703125</ele>
        <time>2003-08-30T09:28:19Z</time>
      </trkpt>
      <trkpt lat="43.768277736380696" lon="10.521584954112768">
        <ele>649.027099609375</ele>
        <time>2003-08-30T09:28:21Z</time>
      </trkpt>
      <trkpt lat="43.768393909558654" lon="10.521738929674029">
        <ele>647.585205078125</ele>
        <time>2003-08-30T09:28:23Z</time>
      </trkpt>
      <trkpt lat="43.768509328365326" lon="10.521889887750149">
        <ele>646.6240234375</ele>
        <time>2003-08-30T09:28:25Z</time>
      </trkpt>
      <trkpt lat="43.768612677231431" lon="10.522034475579858">
        <ele>645.181884765625</ele>
        <time>2003-08-30T09:28:27Z</time>
      </trkpt>
      <trkpt lat="43.768713427707553" lon="10.522163473069668">
        <ele>643.739990234375</ele>
        <time>2003-08-30T09:28:29Z</time>
      </trkpt>
      <trkpt lat="43.768822057172656" lon="10.522289872169495">
        <ele>641.8173828125</ele>
        <time>2003-08-30T09:28:31Z</time>
      </trkpt>
      <trkpt lat="43.768925322219729" lon="10.52242205478251">
        <ele>640.85595703125</ele>
        <time>2003-08-30T09:28:33Z</time>
      </trkpt>
      <trkpt lat="43.769026156514883" lon="10.522559685632586">
        <ele>640.37548828125</ele>
        <time>2003-08-30T09:28:35Z</time>
      </trkpt>
      <trkpt lat="43.769136043265462" lon="10.522691113874316">
        <ele>638.93359375</ele>
        <time>2003-08-30T09:28:37Z</time>
      </trkpt>
      <trkpt lat="43.769244840368629" lon="10.522826984524727">
        <ele>637.491455078125</ele>
        <time>2003-08-30T09:28:39Z</time>
      </trkpt>
      <trkpt lat="43.769359672442079" lon="10.522959250956774">
        <ele>636.049560546875</ele>
        <time>2003-08-30T09:28:41Z</time>
      </trkpt>
      <trkpt lat="43.769472157582641" lon="10.523108784109354">
        <ele>634.607421875</ele>
        <time>2003-08-30T09:28:43Z</time>
      </trkpt>
      <trkpt lat="43.769581541419029" lon="10.523246247321367">
        <ele>633.165283203125</ele>
        <time>2003-08-30T09:28:45Z</time>
      </trkpt>
      <trkpt lat="43.769688745960593" lon="10.52336904220283">
        <ele>632.2041015625</ele>
        <time>2003-08-30T09:28:47Z</time>
      </trkpt>
      <trkpt lat="43.769795950502157" lon="10.523491920903325">
        <ele>630.281494140625</ele>
        <time>2003-08-30T09:28:49Z</time>
      </trkpt>
      <trkpt lat="43.769903155043721" lon="10.523614715784788">
        <ele>628.35888671875</ele>
        <time>2003-08-30T09:28:51Z</time>
      </trkpt>
      <trkpt lat="43.770010359585285" lon="10.523737594485283">
        <ele>627.397705078125</ele>
        <time>2003-08-30T09:28:53Z</time>
      </trkpt>
      <trkpt lat="43.770103398710489" lon="10.523901376873255">
        <ele>625.474853515625</ele>
        <time>2003-08-30T09:28:55Z</time>
      </trkpt>
      <trkpt lat="43.770182942971587" lon="10.524067003279924">
        <ele>624.994384765625</ele>
        <time>2003-08-30T09:28:57Z</time>
      </trkpt>
      <trkpt lat="43.770260894671082" lon="10.52421779371798">
        <ele>623.07177734375</ele>
        <time>2003-08-30T09:28:59Z</time>
      </trkpt>
      <trkpt lat="43.770346222445369" lon="10.52435265854001">
        <ele>622.1103515625</ele>
        <time>2003-08-30T09:29:01Z</time>
      </trkpt>
      <trkpt lat="43.770431550219655" lon="10.524487439543009">
        <ele>620.187744140625</ele>
        <time>2003-08-30T09:29:03Z</time>
      </trkpt>
      <trkpt lat="43.770516877993941" lon="10.524622304365039">
        <ele>618.74560546875</ele>
        <time>2003-08-30T09:29:05Z</time>
      </trkpt>
      <trkpt lat="43.77058669924736" lon="10.524767227470875">
        <ele>617.7841796875</ele>
        <time>2003-08-30T09:29:07Z</time>
      </trkpt>
      <trkpt lat="43.770191576331854" lon="10.525044668465853">
        <ele>616.822998046875</ele>
        <time>2003-08-30T09:29:11Z</time>
      </trkpt>
      <trkpt lat="43.770150253549218" lon="10.524927908554673">
        <ele>616.34228515625</ele>
        <time>2003-08-30T09:29:17Z</time>
      </trkpt>
      <trkpt lat="43.770036343485117" lon="10.524764880537987">
        <ele>615.381103515625</ele>
        <time>2003-08-30T09:29:22Z</time>
      </trkpt>
      <trkpt lat="43.76999837346375" lon="10.52464778535068">
        <ele>613.93896484375</ele>
        <time>2003-08-30T09:29:25Z</time>
      </trkpt>
      <trkpt lat="43.769967947155237" lon="10.524491965770721">
        <ele>612.977783203125</ele>
        <time>2003-08-30T09:29:28Z</time>
      </trkpt>
      <trkpt lat="43.769934000447392" lon="10.524353664368391">
        <ele>611.05517578125</ele>
        <time>2003-08-30T09:29:31Z</time>
      </trkpt>
      <trkpt lat="43.769922852516174" lon="10.524150403216481">
        <ele>608.65185546875</ele>
        <time>2003-08-30T09:29:34Z</time>
      </trkpt>
      <trkpt lat="43.769940454512835" lon="10.523975724354386">
        <ele>606.24853515625</ele>
        <time>2003-08-30T09:29:36Z</time>
      </trkpt>
      <trkpt lat="43.769958056509495" lon="10.52380096167326">
        <ele>605.287353515625</ele>
        <time>2003-08-30T09:29:38Z</time>
      </trkpt>
      <trkpt lat="43.769975658506155" lon="10.523626282811165">
        <ele>603.364501953125</ele>
        <time>2003-08-30T09:29:40Z</time>
      </trkpt>
      <trkpt lat="43.769993260502815" lon="10.523451520130038">
        <ele>602.403076171875</ele>
        <time>2003-08-30T09:29:42Z</time>
      </trkpt>
      <trkpt lat="43.770008431747556" lon="10.523218335583806">
        <ele>601.44189453125</ele>
        <time>2003-08-30T09:29:44Z</time>
      </trkpt>
      <trkpt lat="43.769985884428024" lon="10.523043069988489">
        <ele>600</ele>
        <time>2003-08-30T09:29:46Z</time>
      </trkpt>
      <trkpt lat="43.769966941326857" lon="10.522840647026896">
        <ele>598.557861328125</ele>
        <time>2003-08-30T09:29:48Z</time>
      </trkpt>
      <trkpt lat="43.769929055124521" lon="10.522653646767139">
        <ele>596.635498046875</ele>
        <time>2003-08-30T09:29:50Z</time>
      </trkpt>
      <trkpt lat="43.769890666007996" lon="10.522471508011222">
        <ele>595.674072265625</ele>
        <time>2003-08-30T09:29:52Z</time>
      </trkpt>
      <trkpt lat="43.76985227689147" lon="10.522289453074336">
        <ele>595.674072265625</ele>
        <time>2003-08-30T09:29:54Z</time>
      </trkpt>
      <trkpt lat="43.769813887774944" lon="10.52210739813745">
        <ele>594.712646484375</ele>
        <time>2003-08-30T09:29:56Z</time>
      </trkpt>
      <trkpt lat="43.769775498658419" lon="10.521925343200564">
        <ele>592.790283203125</ele>
        <time>2003-08-30T09:29:58Z</time>
      </trkpt>
      <trkpt lat="43.769733672961593" lon="10.521727530285716">
        <ele>590.386962890625</ele>
        <time>2003-08-30T09:30:00Z</time>
      </trkpt>
      <trkpt lat="43.769696541130543" lon="10.521549331024289">
        <ele>588.945068359375</ele>
        <time>2003-08-30T09:30:02Z</time>
      </trkpt>
      <trkpt lat="43.769659409299493" lon="10.521371131762862">
        <ele>587.9833984375</ele>
        <time>2003-08-30T09:30:04Z</time>
      </trkpt>
      <trkpt lat="43.769624037668109" lon="10.521172313019633">
        <ele>586.54150390625</ele>
        <time>2003-08-30T09:30:06Z</time>
      </trkpt>
      <trkpt lat="43.769586151465774" lon="10.520986821502447">
        <ele>585.099609375</ele>
        <time>2003-08-30T09:30:08Z</time>
      </trkpt>
      <trkpt lat="43.76954834908247" lon="10.520801246166229">
        <ele>584.13818359375</ele>
        <time>2003-08-30T09:30:10Z</time>
      </trkpt>
      <trkpt lat="43.769510462880135" lon="10.520615754649043">
        <ele>583.1767578125</ele>
        <time>2003-08-30T09:30:12Z</time>
      </trkpt>
      <trkpt lat="43.769472660496831" lon="10.520430263131857">
        <ele>581.73486328125</ele>
        <time>2003-08-30T09:30:14Z</time>
      </trkpt>
      <trkpt lat="43.769434858113527" lon="10.520244687795639">
        <ele>580.773681640625</ele>
        <time>2003-08-30T09:30:16Z</time>
      </trkpt>
      <trkpt lat="43.769396971911192" lon="10.520059196278453">
        <ele>579.33154296875</ele>
        <time>2003-08-30T09:30:18Z</time>
      </trkpt>
      <trkpt lat="43.769359169527888" lon="10.519873620942235">
        <ele>578.370361328125</ele>
        <time>2003-08-30T09:30:20Z</time>
      </trkpt>
      <trkpt lat="43.769321367144585" lon="10.519688129425049">
        <ele>577.4091796875</ele>
        <time>2003-08-30T09:30:22Z</time>
      </trkpt>
      <trkpt lat="43.769297730177641" lon="10.519496770575643">
        <ele>575.967041015625</ele>
        <time>2003-08-30T09:30:24Z</time>
      </trkpt>
      <trkpt lat="43.769289683550596" lon="10.519317649304867">
        <ele>575.005859375</ele>
        <time>2003-08-30T09:30:26Z</time>
      </trkpt>
      <trkpt lat="43.769283145666122" lon="10.519127883017063">
        <ele>574.04443359375</ele>
        <time>2003-08-30T09:30:28Z</time>
      </trkpt>
      <trkpt lat="43.769268142059445" lon="10.518945995718241">
        <ele>573.083251953125</ele>
        <time>2003-08-30T09:30:30Z</time>
      </trkpt>
      <trkpt lat="43.7692756857723" lon="10.518771652132273">
        <ele>572.121826171875</ele>
        <time>2003-08-30T09:30:32Z</time>
      </trkpt>
      <trkpt lat="43.769274763762951" lon="10.518583143129945">
        <ele>571.160400390625</ele>
        <time>2003-08-30T09:30:34Z</time>
      </trkpt>
      <trkpt lat="43.76926545985043" lon="10.518400417640805">
        <ele>570.198974609375</ele>
        <time>2003-08-30T09:30:36Z</time>
      </trkpt>
      <trkpt lat="43.769251629710197" lon="10.518220290541649">
        <ele>568.757080078125</ele>
        <time>2003-08-30T09:30:38Z</time>
      </trkpt>
      <trkpt lat="43.769241571426392" lon="10.518039157614112">
        <ele>567.795654296875</ele>
        <time>2003-08-30T09:30:40Z</time>
      </trkpt>
      <trkpt lat="43.769227322191" lon="10.517855677753687">
        <ele>566.83447265625</ele>
        <time>2003-08-30T09:30:42Z</time>
      </trkpt>
      <trkpt lat="43.769217263907194" lon="10.517662223428488">
        <ele>565.392578125</ele>
        <time>2003-08-30T09:30:44Z</time>
      </trkpt>
      <trkpt lat="43.769212150946259" lon="10.517466673627496">
        <ele>563.950439453125</ele>
        <time>2003-08-30T09:30:46Z</time>
      </trkpt>
      <trkpt lat="43.769200500100851" lon="10.517274476587772">
        <ele>563.469970703125</ele>
        <time>2003-08-30T09:30:48Z</time>
      </trkpt>
      <trkpt lat="43.769194297492504" lon="10.517090409994125">
        <ele>562.028076171875</ele>
        <time>2003-08-30T09:30:50Z</time>
      </trkpt>
      <trkpt lat="43.769182059913874" lon="10.516909025609493">
        <ele>560.5859375</ele>
        <time>2003-08-30T09:30:52Z</time>
      </trkpt>
      <trkpt lat="43.769184239208698" lon="10.516730323433876">
        <ele>559.14404296875</ele>
        <time>2003-08-30T09:30:54Z</time>
      </trkpt>
      <trkpt lat="43.76918138936162" lon="10.516553884372115">
        <ele>558.182861328125</ele>
        <time>2003-08-30T09:30:56Z</time>
      </trkpt>
      <trkpt lat="43.769164374098182" lon="10.516386413946748">
        <ele>556.74072265625</ele>
        <time>2003-08-30T09:30:58Z</time>
      </trkpt>
      <trkpt lat="43.769131600856781" lon="10.516233611851931">
        <ele>555.298583984375</ele>
        <time>2003-08-30T09:31:00Z</time>
      </trkpt>
      <trkpt lat="43.769096229225397" lon="10.516105704009533">
        <ele>553.856689453125</ele>
        <time>2003-08-30T09:31:02Z</time>
      </trkpt>
      <trkpt lat="43.769104862585664" lon="10.515971090644598">
        <ele>551.93408203125</ele>
        <time>2003-08-30T09:31:05Z</time>
      </trkpt>
      <trkpt lat="43.76912615261972" lon="10.515842093154788">
        <ele>550.4921875</ele>
        <time>2003-08-30T09:31:08Z</time>
      </trkpt>
      <trkpt lat="43.769156830385327" lon="10.515738911926746">
        <ele>549.050048828125</ele>
        <time>2003-08-30T09:31:12Z</time>
      </trkpt>
      <trkpt lat="43.769124392420053" lon="10.515845194458961">
        <ele>550.97265625</ele>
        <time>2003-08-30T09:31:56Z</time>
      </trkpt>
      <trkpt lat="43.769047698006034" lon="10.515806721523404">
        <ele>550.97265625</ele>
        <time>2003-08-30T09:32:01Z</time>
      </trkpt>
      <trkpt lat="43.768967399373651" lon="10.515791550278664">
        <ele>549.53076171875</ele>
        <time>2003-08-30T09:32:29Z</time>
      </trkpt>
      <trkpt lat="43.768864469602704" lon="10.515773193910718">
        <ele>549.53076171875</ele>
        <time>2003-08-30T09:32:33Z</time>
      </trkpt>
      <trkpt lat="43.768759360536933" lon="10.515741677954793">
        <ele>549.53076171875</ele>
        <time>2003-08-30T09:32:37Z</time>
      </trkpt>
      <trkpt lat="43.768654586747289" lon="10.515689710155129">
        <ele>549.050048828125</ele>
        <time>2003-08-30T09:32:41Z</time>
      </trkpt>
      <trkpt lat="43.768552327528596" lon="10.515624582767487">
        <ele>548.5693359375</ele>
        <time>2003-08-30T09:32:44Z</time>
      </trkpt>
      <trkpt lat="43.768462305888534" lon="10.515586361289024">
        <ele>548.0888671875</ele>
        <time>2003-08-30T09:32:46Z</time>
      </trkpt>
      <trkpt lat="43.768358957022429" lon="10.515589797869325">
        <ele>547.12744140625</ele>
        <time>2003-08-30T09:32:48Z</time>
      </trkpt>
      <trkpt lat="43.76825787127018" lon="10.515606142580509">
        <ele>545.685546875</ele>
        <time>2003-08-30T09:32:50Z</time>
      </trkpt>
      <trkpt lat="43.768162569031119" lon="10.515635563060641">
        <ele>544.24365234375</ele>
        <time>2003-08-30T09:32:52Z</time>
      </trkpt>
      <trkpt lat="43.768074726685882" lon="10.515684094280005">
        <ele>542.801513671875</ele>
        <time>2003-08-30T09:32:54Z</time>
      </trkpt>
      <trkpt lat="43.767993506044149" lon="10.515723656862974">
        <ele>541.8402099609375</ele>
        <time>2003-08-30T09:32:56Z</time>
      </trkpt>
      <trkpt lat="43.767963498830795" lon="10.51565014757216">
        <ele>540.87890625</ele>
        <time>2003-08-30T09:32:59Z</time>
      </trkpt>
      <trkpt lat="43.76798034645617" lon="10.515530621632934">
        <ele>540.87890625</ele>
        <time>2003-08-30T09:33:01Z</time>
      </trkpt>
      <trkpt lat="43.767983363941312" lon="10.515387039631605">
        <ele>540.87890625</ele>
        <time>2003-08-30T09:33:03Z</time>
      </trkpt>
      <trkpt lat="43.767981771379709" lon="10.515240859240294">
        <ele>540.87890625</ele>
        <time>2003-08-30T09:33:05Z</time>
      </trkpt>
      <trkpt lat="43.767976993694901" lon="10.515083782374859">
        <ele>539.9176025390625</ele>
        <time>2003-08-30T09:33:07Z</time>
      </trkpt>
      <trkpt lat="43.767954027280211" lon="10.514908852055669">
        <ele>539.9176025390625</ele>
        <time>2003-08-30T09:33:09Z</time>
      </trkpt>
      <trkpt lat="43.767865179106593" lon="10.514723611995578">
        <ele>538.956298828125</ele>
        <time>2003-08-30T09:33:11Z</time>
      </trkpt>
      <trkpt lat="43.767779348418117" lon="10.514541808515787">
        <ele>538.4757080078125</ele>
        <time>2003-08-30T09:33:13Z</time>
      </trkpt>
      <trkpt lat="43.767701648175716" lon="10.514342067763209">
        <ele>536.5531005859375</ele>
        <time>2003-08-30T09:33:15Z</time>
      </trkpt>
      <trkpt lat="43.767637610435486" lon="10.51414618268609">
        <ele>535.1109619140625</ele>
        <time>2003-08-30T09:33:17Z</time>
      </trkpt>
      <trkpt lat="43.767578098922968" lon="10.513957422226667">
        <ele>535.1109619140625</ele>
        <time>2003-08-30T09:33:19Z</time>
      </trkpt>
      <trkpt lat="43.767521940171719" lon="10.513802943751216">
        <ele>534.63037109375</ele>
        <time>2003-08-30T09:33:21Z</time>
      </trkpt>
      <trkpt lat="43.767465613782406" lon="10.513667156919837">
        <ele>534.63037109375</ele>
        <time>2003-08-30T09:33:23Z</time>
      </trkpt>
      <trkpt lat="43.767411215230823" lon="10.513541931286454">
        <ele>534.63037109375</ele>
        <time>2003-08-30T09:33:25Z</time>
      </trkpt>
      <trkpt lat="43.767338879406452" lon="10.513459118083119">
        <ele>534.149658203125</ele>
        <time>2003-08-30T09:33:28Z</time>
      </trkpt>
      <trkpt lat="43.767256150022149" lon="10.513385692611337">
        <ele>533.1883544921875</ele>
        <time>2003-08-30T09:33:31Z</time>
      </trkpt>
      <trkpt lat="43.767173252999783" lon="10.513316206634045">
        <ele>532.707763671875</ele>
        <time>2003-08-30T09:33:33Z</time>
      </trkpt>
      <trkpt lat="43.767079375684261" lon="10.513283098116517">
        <ele>531.2657470703125</ele>
        <time>2003-08-30T09:33:35Z</time>
      </trkpt>
      <trkpt lat="43.766983570531011" lon="10.513259544968605">
        <ele>529.3431396484375</ele>
        <time>2003-08-30T09:33:37Z</time>
      </trkpt>
      <trkpt lat="43.766879215836525" lon="10.513285361230373">
        <ele>527.9010009765625</ele>
        <time>2003-08-30T09:33:39Z</time>
      </trkpt>
      <trkpt lat="43.766776202246547" lon="10.513325845822692">
        <ele>526.4591064453125</ele>
        <time>2003-08-30T09:33:41Z</time>
      </trkpt>
      <trkpt lat="43.766673943027854" lon="10.513373706489801">
        <ele>524.5364990234375</ele>
        <time>2003-08-30T09:33:43Z</time>
      </trkpt>
      <trkpt lat="43.766586100682616" lon="10.513425674289465">
        <ele>522.6138916015625</ele>
        <time>2003-08-30T09:33:45Z</time>
      </trkpt>
      <trkpt lat="43.766503371298313" lon="10.513494908809662">
        <ele>519.7298583984375</ele>
        <time>2003-08-30T09:33:47Z</time>
      </trkpt>
      <trkpt lat="43.766417121514678" lon="10.51356908865273">
        <ele>518.7685546875</ele>
        <time>2003-08-30T09:33:49Z</time>
      </trkpt>
      <trkpt lat="43.766332129016519" lon="10.513641256839037">
        <ele>517.32666015625</ele>
        <time>2003-08-30T09:33:51Z</time>
      </trkpt>
      <trkpt lat="43.766246801242232" lon="10.51370638422668">
        <ele>515.8846435546875</ele>
        <time>2003-08-30T09:33:53Z</time>
      </trkpt>
      <trkpt lat="43.766168262809515" lon="10.513762626796961">
        <ele>515.404052734375</ele>
        <time>2003-08-30T09:33:55Z</time>
      </trkpt>
      <trkpt lat="43.766188798472285" lon="10.513601694256067">
        <ele>514.442626953125</ele>
        <time>2003-08-30T09:33:57Z</time>
      </trkpt>
      <trkpt lat="43.766154935583472" lon="10.513400109484792">
        <ele>513.4814453125</ele>
        <time>2003-08-30T09:33:59Z</time>
      </trkpt>
      <trkpt lat="43.766140015795827" lon="10.513178491964936">
        <ele>512.52001953125</ele>
        <time>2003-08-30T09:34:01Z</time>
      </trkpt>
      <trkpt lat="43.766126940026879" lon="10.512948324903846">
        <ele>510.5972900390625</ele>
        <time>2003-08-30T09:34:03Z</time>
      </trkpt>
      <trkpt lat="43.766131047159433" lon="10.512761157006025">
        <ele>509.6361083984375</ele>
        <time>2003-08-30T09:34:05Z</time>
      </trkpt>
      <trkpt lat="43.766131047159433" lon="10.512597374618053">
        <ele>509.1553955078125</ele>
        <time>2003-08-30T09:34:07Z</time>
      </trkpt>
      <trkpt lat="43.766074301674962" lon="10.512502826750278">
        <ele>507.7135009765625</ele>
        <time>2003-08-30T09:34:11Z</time>
      </trkpt>
      <trkpt lat="43.765991991385818" lon="10.5124447401613">
        <ele>507.7135009765625</ele>
        <time>2003-08-30T09:34:17Z</time>
      </trkpt>
      <trkpt lat="43.765909345820546" lon="10.51242470741272">
        <ele>507.7135009765625</ele>
        <time>2003-08-30T09:34:24Z</time>
      </trkpt>
      <trkpt lat="43.765879422426224" lon="10.512317754328251">
        <ele>507.2327880859375</ele>
        <time>2003-08-30T09:34:59Z</time>
      </trkpt>
      <trkpt lat="43.765773810446262" lon="10.512255812063813">
        <ele>507.2327880859375</ele>
        <time>2003-08-30T09:35:06Z</time>
      </trkpt>
      <trkpt lat="43.765678843483329" lon="10.51216721534729">
        <ele>507.7135009765625</ele>
        <time>2003-08-30T09:35:11Z</time>
      </trkpt>
      <trkpt lat="43.765651267021894" lon="10.512150283902884">
        <ele>508.6746826171875</ele>
        <time>2003-08-30T09:35:13Z</time>
      </trkpt>
      <trkpt lat="43.766070026904345" lon="10.513227609917521">
        <ele>507.7135009765625</ele>
        <time>2003-08-30T09:35:14Z</time>
      </trkpt>
      <trkpt lat="43.766011521220207" lon="10.513095427304506">
        <ele>507.7135009765625</ele>
        <time>2003-08-30T09:35:18Z</time>
      </trkpt>
      <trkpt lat="43.765504499897361" lon="10.51162188872695">
        <ele>507.2327880859375</ele>
        <time>2003-08-30T09:35:22Z</time>
      </trkpt>
      <trkpt lat="43.765330743044615" lon="10.511498004198074">
        <ele>505.7908935546875</ele>
        <time>2003-08-30T09:35:26Z</time>
      </trkpt>
      <trkpt lat="43.7652796972543" lon="10.511386021971703">
        <ele>503.8681640625</ele>
        <time>2003-08-30T09:35:29Z</time>
      </trkpt>
      <trkpt lat="43.765064533799887" lon="10.511302705854177">
        <ele>502.90673828125</ele>
        <time>2003-08-30T09:35:32Z</time>
      </trkpt>
      <trkpt lat="43.76495766453445" lon="10.511141186580062">
        <ele>501.46484375</ele>
        <time>2003-08-30T09:35:34Z</time>
      </trkpt>
      <trkpt lat="43.764801425859332" lon="10.511057451367378">
        <ele>499.542236328125</ele>
        <time>2003-08-30T09:35:36Z</time>
      </trkpt>
      <trkpt lat="43.764661196619272" lon="10.510981176048517">
        <ele>498.100341796875</ele>
        <time>2003-08-30T09:35:38Z</time>
      </trkpt>
      <trkpt lat="43.7645198777318" lon="10.510925855487585">
        <ele>496.177734375</ele>
        <time>2003-08-30T09:35:40Z</time>
      </trkpt>
      <trkpt lat="43.764387527480721" lon="10.51085913553834">
        <ele>495.6968994140625</ele>
        <time>2003-08-30T09:35:42Z</time>
      </trkpt>
      <trkpt lat="43.764255093410611" lon="10.510797277092934">
        <ele>494.735595703125</ele>
        <time>2003-08-30T09:35:44Z</time>
      </trkpt>
      <trkpt lat="43.764129364863038" lon="10.510718235746026">
        <ele>492.81298828125</ele>
        <time>2003-08-30T09:35:46Z</time>
      </trkpt>
      <trkpt lat="43.764042109251022" lon="10.510618155822158">
        <ele>490.890380859375</ele>
        <time>2003-08-30T09:35:48Z</time>
      </trkpt>
      <trkpt lat="43.764060046523809" lon="10.510492846369743">
        <ele>490.4097900390625</ele>
        <time>2003-08-30T09:35:50Z</time>
      </trkpt>
      <trkpt lat="43.764103464782238" lon="10.510358233004808">
        <ele>489.4483642578125</ele>
        <time>2003-08-30T09:35:52Z</time>
      </trkpt>
      <trkpt lat="43.764103967696428" lon="10.510182129219174">
        <ele>488.9677734375</ele>
        <time>2003-08-30T09:35:55Z</time>
      </trkpt>
      <trkpt lat="43.76405862160027" lon="10.510044917464256">
        <ele>488.4871826171875</ele>
        <time>2003-08-30T09:35:57Z</time>
      </trkpt>
      <trkpt lat="43.763984777033329" lon="10.509911896660924">
        <ele>487.525634765625</ele>
        <time>2003-08-30T09:35:59Z</time>
      </trkpt>
      <trkpt lat="43.76389542594552" lon="10.509794885292649">
        <ele>486.564453125</ele>
        <time>2003-08-30T09:36:01Z</time>
      </trkpt>
      <trkpt lat="43.76380892470479" lon="10.509682316333055">
        <ele>485.1224365234375</ele>
        <time>2003-08-30T09:36:03Z</time>
      </trkpt>
      <trkpt lat="43.763724602758884" lon="10.509558767080307">
        <ele>483.680419921875</ele>
        <time>2003-08-30T09:36:05Z</time>
      </trkpt>
      <trkpt lat="43.763642879202962" lon="10.50942943431437">
        <ele>483.1998291015625</ele>
        <time>2003-08-30T09:36:07Z</time>
      </trkpt>
      <trkpt lat="43.763565430417657" lon="10.509296748787165">
        <ele>482.71923828125</ele>
        <time>2003-08-30T09:36:09Z</time>
      </trkpt>
      <trkpt lat="43.76349133439362" lon="10.509175546467304">
        <ele>483.1998291015625</ele>
        <time>2003-08-30T09:36:11Z</time>
      </trkpt>
      <trkpt lat="43.763417406007648" lon="10.509091978892684">
        <ele>483.1998291015625</ele>
        <time>2003-08-30T09:36:13Z</time>
      </trkpt>
      <trkpt lat="43.763315482065082" lon="10.509082674980164">
        <ele>484.641845703125</ele>
        <time>2003-08-30T09:36:18Z</time>
      </trkpt>
      <trkpt lat="43.763192854821682" lon="10.509024923667312">
        <ele>486.083740234375</ele>
        <time>2003-08-30T09:36:40Z</time>
      </trkpt>
      <trkpt lat="43.763108449056745" lon="10.508931213989854">
        <ele>488.0064697265625</ele>
        <time>2003-08-30T09:36:56Z</time>
      </trkpt>
      <trkpt lat="43.763022534549236" lon="10.508860051631927">
        <ele>489.4483642578125</ele>
        <time>2003-08-30T09:37:02Z</time>
      </trkpt>
      <trkpt lat="43.762915246188641" lon="10.508793415501714">
        <ele>489.9290771484375</ele>
        <time>2003-08-30T09:37:08Z</time>
      </trkpt>
      <trkpt lat="43.762822039425373" lon="10.508740693330765">
        <ele>490.890380859375</ele>
        <time>2003-08-30T09:37:13Z</time>
      </trkpt>
      <trkpt lat="43.762717181816697" lon="10.508695933967829">
        <ele>492.3323974609375</ele>
        <time>2003-08-30T09:37:19Z</time>
      </trkpt>
      <trkpt lat="43.762620370835066" lon="10.50864958204329">
        <ele>492.81298828125</ele>
        <time>2003-08-30T09:37:24Z</time>
      </trkpt>
      <trkpt lat="43.762513836845756" lon="10.508604487404227">
        <ele>493.7742919921875</ele>
        <time>2003-08-30T09:37:30Z</time>
      </trkpt>
      <trkpt lat="43.762407805770636" lon="10.508556710556149">
        <ele>494.2550048828125</ele>
        <time>2003-08-30T09:37:35Z</time>
      </trkpt>
      <trkpt lat="43.76231275498867" lon="10.508462581783533">
        <ele>494.2550048828125</ele>
        <time>2003-08-30T09:37:40Z</time>
      </trkpt>
      <trkpt lat="43.762227846309543" lon="10.508338026702404">
        <ele>494.735595703125</ele>
        <time>2003-08-30T09:37:45Z</time>
      </trkpt>
      <trkpt lat="43.762159198522568" lon="10.508234091103077">
        <ele>494.2550048828125</ele>
        <time>2003-08-30T09:37:49Z</time>
      </trkpt>
      <trkpt lat="43.762077474966645" lon="10.50813551992178">
        <ele>495.2161865234375</ele>
        <time>2003-08-30T09:37:53Z</time>
      </trkpt>
      <trkpt lat="43.761983765289187" lon="10.508026722818613">
        <ele>496.177734375</ele>
        <time>2003-08-30T09:37:57Z</time>
      </trkpt>
      <trkpt lat="43.761901957914233" lon="10.507932091131806">
        <ele>496.177734375</ele>
        <time>2003-08-30T09:38:01Z</time>
      </trkpt>
      <trkpt lat="43.7618138641119" lon="10.507873753085732">
        <ele>496.6583251953125</ele>
        <time>2003-08-30T09:38:05Z</time>
      </trkpt>
      <trkpt lat="43.761712778359652" lon="10.507828406989574">
        <ele>496.6583251953125</ele>
        <time>2003-08-30T09:38:09Z</time>
      </trkpt>
      <trkpt lat="43.761628707870841" lon="10.507793202996254">
        <ele>497.61962890625</ele>
        <time>2003-08-30T09:38:13Z</time>
      </trkpt>
      <trkpt lat="43.761526281014085" lon="10.507724387571216">
        <ele>498.5809326171875</ele>
        <time>2003-08-30T09:38:18Z</time>
      </trkpt>
      <trkpt lat="43.761415975168347" lon="10.507650291547179">
        <ele>500.02294921875</ele>
        <time>2003-08-30T09:38:23Z</time>
      </trkpt>
      <trkpt lat="43.761332156136632" lon="10.507564125582576">
        <ele>500.5035400390625</ele>
        <time>2003-08-30T09:38:27Z</time>
      </trkpt>
      <trkpt lat="43.761260407045484" lon="10.507474187761545">
        <ele>501.46484375</ele>
        <time>2003-08-30T09:38:31Z</time>
      </trkpt>
      <trkpt lat="43.761191256344318" lon="10.507364803925157">
        <ele>502.90673828125</ele>
        <time>2003-08-30T09:38:35Z</time>
      </trkpt>
      <trkpt lat="43.761124117299914" lon="10.50724720582366">
        <ele>502.90673828125</ele>
        <time>2003-08-30T09:38:39Z</time>
      </trkpt>
      <trkpt lat="43.761056056246161" lon="10.507135558873415">
        <ele>502.4261474609375</ele>
        <time>2003-08-30T09:38:43Z</time>
      </trkpt>
      <trkpt lat="43.760979110375047" lon="10.507021648809314">
        <ele>502.90673828125</ele>
        <time>2003-08-30T09:38:47Z</time>
      </trkpt>
      <trkpt lat="43.760922029614449" lon="10.506885694339871">
        <ele>502.90673828125</ele>
        <time>2003-08-30T09:38:51Z</time>
      </trkpt>
      <trkpt lat="43.760956982150674" lon="10.506754852831364">
        <ele>502.90673828125</ele>
        <time>2003-08-30T09:38:55Z</time>
      </trkpt>
      <trkpt lat="43.761021438986063" lon="10.506654353812337">
        <ele>503.387451171875</ele>
        <time>2003-08-30T09:38:59Z</time>
      </trkpt>
      <trkpt lat="43.761100731790066" lon="10.506689641624689">
        <ele>502.90673828125</ele>
        <time>2003-08-30T09:39:04Z</time>
      </trkpt>
      <trkpt lat="43.761205086484551" lon="10.506676817312837">
        <ele>503.8681640625</ele>
        <time>2003-08-30T09:39:09Z</time>
      </trkpt>
      <trkpt lat="43.761309692636132" lon="10.506640439853072">
        <ele>504.8294677734375</ele>
        <time>2003-08-30T09:39:14Z</time>
      </trkpt>
      <trkpt lat="43.761437349021435" lon="10.506594758480787">
        <ele>504.8294677734375</ele>
        <time>2003-08-30T09:39:19Z</time>
      </trkpt>
      <trkpt lat="43.761551761999726" lon="10.506555195897818">
        <ele>505.3101806640625</ele>
        <time>2003-08-30T09:39:24Z</time>
      </trkpt>
      <trkpt lat="43.761681681498885" lon="10.506536001339555">
        <ele>505.3101806640625</ele>
        <time>2003-08-30T09:39:29Z</time>
      </trkpt>
      <trkpt lat="43.761784778907895" lon="10.50651865079999">
        <ele>505.7908935546875</ele>
        <time>2003-08-30T09:39:33Z</time>
      </trkpt>
      <trkpt lat="43.76188712194562" lon="10.506513202562928">
        <ele>506.271484375</ele>
        <time>2003-08-30T09:39:37Z</time>
      </trkpt>
      <trkpt lat="43.76199658960104" lon="10.506527284160256">
        <ele>506.7520751953125</ele>
        <time>2003-08-30T09:39:42Z</time>
      </trkpt>
      <trkpt lat="43.762113349512219" lon="10.50655142404139">
        <ele>506.7520751953125</ele>
        <time>2003-08-30T09:39:48Z</time>
      </trkpt>
      <trkpt lat="43.762227678671479" lon="10.506527032703161">
        <ele>508.194091796875</ele>
        <time>2003-08-30T09:39:54Z</time>
      </trkpt>
      <trkpt lat="43.762335469946265" lon="10.506473639979959">
        <ele>510.11669921875</ele>
        <time>2003-08-30T09:39:59Z</time>
      </trkpt>
      <trkpt lat="43.762451559305191" lon="10.506404237821698">
        <ele>511.0780029296875</ele>
        <time>2003-08-30T09:40:04Z</time>
      </trkpt>
      <trkpt lat="43.762567648664117" lon="10.506333075463772">
        <ele>511.5587158203125</ele>
        <time>2003-08-30T09:40:09Z</time>
      </trkpt>
      <trkpt lat="43.762657167389989" lon="10.506260488182306">
        <ele>511.5587158203125</ele>
        <time>2003-08-30T09:40:13Z</time>
      </trkpt>
      <trkpt lat="43.762746518477798" lon="10.506171807646751">
        <ele>512.52001953125</ele>
        <time>2003-08-30T09:40:17Z</time>
      </trkpt>
      <trkpt lat="43.762836456298828" lon="10.506057310849428">
        <ele>512.0394287109375</ele>
        <time>2003-08-30T09:40:21Z</time>
      </trkpt>
      <trkpt lat="43.762926226481795" lon="10.506004504859447">
        <ele>513.4814453125</ele>
        <time>2003-08-30T09:40:25Z</time>
      </trkpt>
      <trkpt lat="43.763024630025029" lon="10.506081031635404">
        <ele>514.442626953125</ele>
        <time>2003-08-30T09:40:29Z</time>
      </trkpt>
      <trkpt lat="43.763093864545226" lon="10.506208688020706">
        <ele>514.92333984375</ele>
        <time>2003-08-30T09:40:34Z</time>
      </trkpt>
      <trkpt lat="43.763175001367927" lon="10.506316227838397">
        <ele>516.365234375</ele>
        <time>2003-08-30T09:40:39Z</time>
      </trkpt>
      <trkpt lat="43.763246331363916" lon="10.506415050476789">
        <ele>516.365234375</ele>
        <time>2003-08-30T09:40:44Z</time>
      </trkpt>
      <trkpt lat="43.763321852311492" lon="10.506502222269773">
        <ele>516.845947265625</ele>
        <time>2003-08-30T09:40:49Z</time>
      </trkpt>
      <trkpt lat="43.763419417664409" lon="10.506589645519853">
        <ele>517.32666015625</ele>
        <time>2003-08-30T09:40:55Z</time>
      </trkpt>
      <trkpt lat="43.763516144827008" lon="10.506642032414675">
        <ele>518.287841796875</ele>
        <time>2003-08-30T09:41:01Z</time>
      </trkpt>
      <trkpt lat="43.763614883646369" lon="10.506683606654406">
        <ele>518.287841796875</ele>
        <time>2003-08-30T09:41:07Z</time>
      </trkpt>
      <trkpt lat="43.763721501454711" lon="10.50671654753387">
        <ele>519.7298583984375</ele>
        <time>2003-08-30T09:41:13Z</time>
      </trkpt>
      <trkpt lat="43.76382015645504" lon="10.50677664577961">
        <ele>521.1719970703125</ele>
        <time>2003-08-30T09:41:19Z</time>
      </trkpt>
      <trkpt lat="43.763913279399276" lon="10.506831798702478">
        <ele>521.1719970703125</ele>
        <time>2003-08-30T09:41:24Z</time>
      </trkpt>
      <trkpt lat="43.764017801731825" lon="10.506885107606649">
        <ele>521.652587890625</ele>
        <time>2003-08-30T09:41:29Z</time>
      </trkpt>
      <trkpt lat="43.764124503359199" lon="10.506922909989953">
        <ele>522.1331787109375</ele>
        <time>2003-08-30T09:41:34Z</time>
      </trkpt>
      <trkpt lat="43.764231791719794" lon="10.50696968100965">
        <ele>523.5751953125</ele>
        <time>2003-08-30T09:41:40Z</time>
      </trkpt>
      <trkpt lat="43.764349892735481" lon="10.507005639374256">
        <ele>525.497802734375</ele>
        <time>2003-08-30T09:41:46Z</time>
      </trkpt>
      <trkpt lat="43.764446452260017" lon="10.507034892216325">
        <ele>525.497802734375</ele>
        <time>2003-08-30T09:41:51Z</time>
      </trkpt>
      <trkpt lat="43.764540748670697" lon="10.507045285776258">
        <ele>526.4591064453125</ele>
        <time>2003-08-30T09:41:56Z</time>
      </trkpt>
      <trkpt lat="43.764648539945483" lon="10.507006896659732">
        <ele>527.42041015625</ele>
        <time>2003-08-30T09:42:02Z</time>
      </trkpt>
      <trkpt lat="43.764742920175195" lon="10.506918216124177">
        <ele>527.9010009765625</ele>
        <time>2003-08-30T09:42:08Z</time>
      </trkpt>
      <trkpt lat="43.76485163345933" lon="10.506856692954898">
        <ele>529.3431396484375</ele>
        <time>2003-08-30T09:42:15Z</time>
      </trkpt>
      <trkpt lat="43.764964789152145" lon="10.506864907220006">
        <ele>529.82373046875</ele>
        <time>2003-08-30T09:42:21Z</time>
      </trkpt>
      <trkpt lat="43.76507006585598" lon="10.506876558065414">
        <ele>530.304443359375</ele>
        <time>2003-08-30T09:42:26Z</time>
      </trkpt>
      <trkpt lat="43.765194537118077" lon="10.506882760673761">
        <ele>532.22705078125</ele>
        <time>2003-08-30T09:42:32Z</time>
      </trkpt>
      <trkpt lat="43.765315404161811" lon="10.50687538459897">
        <ele>533.6689453125</ele>
        <time>2003-08-30T09:42:38Z</time>
      </trkpt>
      <trkpt lat="43.765413975343108" lon="10.506863230839372">
        <ele>535.1109619140625</ele>
        <time>2003-08-30T09:42:43Z</time>
      </trkpt>
      <trkpt lat="43.765522185713053" lon="10.506841437891126">
        <ele>536.5531005859375</ele>
        <time>2003-08-30T09:42:48Z</time>
      </trkpt>
      <trkpt lat="43.76562955789268" lon="10.506803216412663">
        <ele>536.0723876953125</ele>
        <time>2003-08-30T09:42:53Z</time>
      </trkpt>
      <trkpt lat="43.765728548169136" lon="10.506738005205989">
        <ele>537.03369140625</ele>
        <time>2003-08-30T09:42:58Z</time>
      </trkpt>
      <trkpt lat="43.765815636143088" lon="10.506650749593973">
        <ele>537.9949951171875</ele>
        <time>2003-08-30T09:43:03Z</time>
      </trkpt>
      <trkpt lat="43.765845810994506" lon="10.50651278346777">
        <ele>537.9949951171875</ele>
        <time>2003-08-30T09:43:09Z</time>
      </trkpt>
      <trkpt lat="43.765808511525393" lon="10.506387557834387">
        <ele>538.4757080078125</ele>
        <time>2003-08-30T09:43:14Z</time>
      </trkpt>
      <trkpt lat="43.765759896486998" lon="10.506269205361605">
        <ele>538.956298828125</ele>
        <time>2003-08-30T09:43:19Z</time>
      </trkpt>
      <trkpt lat="43.765709269791842" lon="10.506146578118205">
        <ele>538.956298828125</ele>
        <time>2003-08-30T09:43:24Z</time>
      </trkpt>
      <trkpt lat="43.765665264800191" lon="10.506024705246091">
        <ele>538.956298828125</ele>
        <time>2003-08-30T09:43:29Z</time>
      </trkpt>
      <trkpt lat="43.765630144625902" lon="10.505905179306865">
        <ele>539.9176025390625</ele>
        <time>2003-08-30T09:43:34Z</time>
      </trkpt>
      <trkpt lat="43.765608603134751" lon="10.505784982815385">
        <ele>540.87890625</ele>
        <time>2003-08-30T09:43:39Z</time>
      </trkpt>
      <trkpt lat="43.765596952289343" lon="10.505646178498864">
        <ele>541.3594970703125</ele>
        <time>2003-08-30T09:43:44Z</time>
      </trkpt>
      <trkpt lat="43.765619080513716" lon="10.505511565133929">
        <ele>542.3209228515625</ele>
        <time>2003-08-30T09:43:49Z</time>
      </trkpt>
      <trkpt lat="43.765654284507036" lon="10.505373263731599">
        <ele>541.8402099609375</ele>
        <time>2003-08-30T09:43:54Z</time>
      </trkpt>
      <trkpt lat="43.765676245093346" lon="10.505237644538283">
        <ele>541.3594970703125</ele>
        <time>2003-08-30T09:43:58Z</time>
      </trkpt>
      <trkpt lat="43.76570382155478" lon="10.505084926262498">
        <ele>541.8402099609375</ele>
        <time>2003-08-30T09:44:03Z</time>
      </trkpt>
      <trkpt lat="43.765718825161457" lon="10.504951318725944">
        <ele>541.8402099609375</ele>
        <time>2003-08-30T09:44:08Z</time>
      </trkpt>
      <trkpt lat="43.765725782141089" lon="10.504814693704247">
        <ele>541.8402099609375</ele>
        <time>2003-08-30T09:44:13Z</time>
      </trkpt>
      <trkpt lat="43.765715891495347" lon="10.504671363160014">
        <ele>541.3594970703125</ele>
        <time>2003-08-30T09:44:18Z</time>
      </trkpt>
      <trkpt lat="43.76571262255311" lon="10.504533313214779">
        <ele>541.8402099609375</ele>
        <time>2003-08-30T09:44:23Z</time>
      </trkpt>
      <trkpt lat="43.765691081061959" lon="10.50437749363482">
        <ele>541.8402099609375</ele>
        <time>2003-08-30T09:44:28Z</time>
      </trkpt>
      <trkpt lat="43.765652859583497" lon="10.504221590235829">
        <ele>541.8402099609375</ele>
        <time>2003-08-30T09:44:33Z</time>
      </trkpt>
      <trkpt lat="43.765615476295352" lon="10.504081947728992">
        <ele>541.8402099609375</ele>
        <time>2003-08-30T09:44:37Z</time>
      </trkpt>
      <trkpt lat="43.765609106048942" lon="10.503919506445527">
        <ele>541.8402099609375</ele>
        <time>2003-08-30T09:44:41Z</time>
      </trkpt>
      <trkpt lat="43.76564615406096" lon="10.503787407651544">
        <ele>542.3209228515625</ele>
        <time>2003-08-30T09:44:45Z</time>
      </trkpt>
      <trkpt lat="43.765688063576818" lon="10.503674084320664">
        <ele>542.3209228515625</ele>
        <time>2003-08-30T09:44:49Z</time>
      </trkpt>
      <trkpt lat="43.76574338413775" lon="10.503529077395797">
        <ele>541.8402099609375</ele>
        <time>2003-08-30T09:44:53Z</time>
      </trkpt>
      <trkpt lat="43.765784287825227" lon="10.503416927531362">
        <ele>541.3594970703125</ele>
        <time>2003-08-30T09:44:56Z</time>
      </trkpt>
      <trkpt lat="43.765859808772802" lon="10.50327954813838">
        <ele>541.3594970703125</ele>
        <time>2003-08-30T09:45:00Z</time>
      </trkpt>
      <trkpt lat="43.765920745208859" lon="10.5031524784863">
        <ele>541.8402099609375</ele>
        <time>2003-08-30T09:45:05Z</time>
      </trkpt>
      <trkpt lat="43.765999702736735" lon="10.503036053851247">
        <ele>542.801513671875</ele>
        <time>2003-08-30T09:45:10Z</time>
      </trkpt>
      <trkpt lat="43.766108918935061" lon="10.502954246476293">
        <ele>545.685546875</ele>
        <time>2003-08-30T09:45:18Z</time>
      </trkpt>
      <trkpt lat="43.766225008293986" lon="10.502897333353758">
        <ele>546.6468505859375</ele>
        <time>2003-08-30T09:45:29Z</time>
      </trkpt>
      <trkpt lat="43.766179997473955" lon="10.502908397465944">
        <ele>545.685546875</ele>
        <time>2003-08-30T09:50:14Z</time>
      </trkpt>
      <trkpt lat="43.766080588102341" lon="10.502875037491322">
        <ele>549.53076171875</ele>
        <time>2003-08-30T09:50:26Z</time>
      </trkpt>
      <trkpt lat="43.76598184928298" lon="10.502878557890654">
        <ele>549.53076171875</ele>
        <time>2003-08-30T09:50:37Z</time>
      </trkpt>
      <trkpt lat="43.765888977795839" lon="10.502928933128715">
        <ele>550.97265625</ele>
        <time>2003-08-30T09:50:47Z</time>
      </trkpt>
      <trkpt lat="43.765826867893338" lon="10.503037311136723">
        <ele>552.41455078125</ele>
        <time>2003-08-30T09:50:55Z</time>
      </trkpt>
      <trkpt lat="43.765755202621222" lon="10.503133703023195">
        <ele>553.856689453125</ele>
        <time>2003-08-30T09:51:05Z</time>
      </trkpt>
      <trkpt lat="43.765668198466301" lon="10.503223976120353">
        <ele>554.81787109375</ele>
        <time>2003-08-30T09:51:16Z</time>
      </trkpt>
      <trkpt lat="43.765587648376822" lon="10.503306370228529">
        <ele>556.260009765625</ele>
        <time>2003-08-30T09:51:25Z</time>
      </trkpt>
      <trkpt lat="43.76546342857182" lon="10.503374598920345">
        <ele>558.663330078125</ele>
        <time>2003-08-30T09:51:42Z</time>
      </trkpt>
      <trkpt lat="43.765357984229922" lon="10.503427404910326">
        <ele>559.624755859375</ele>
        <time>2003-08-30T09:51:49Z</time>
      </trkpt>
      <trkpt lat="43.765242984518409" lon="10.503500662744045">
        <ele>561.066650390625</ele>
        <time>2003-08-30T09:51:55Z</time>
      </trkpt>
      <trkpt lat="43.765134941786528" lon="10.503542069345713">
        <ele>562.9892578125</ele>
        <time>2003-08-30T09:52:02Z</time>
      </trkpt>
      <trkpt lat="43.765032682567835" lon="10.50356050953269">
        <ele>564.911865234375</ele>
        <time>2003-08-30T09:52:09Z</time>
      </trkpt>
      <trkpt lat="43.764925226569176" lon="10.503588505089283">
        <ele>565.873291015625</ele>
        <time>2003-08-30T09:52:17Z</time>
      </trkpt>
      <trkpt lat="43.764833109453321" lon="10.50360937602818">
        <ele>566.83447265625</ele>
        <time>2003-08-30T09:52:25Z</time>
      </trkpt>
      <trkpt lat="43.764735208824277" lon="10.503622116521001">
        <ele>568.2763671875</ele>
        <time>2003-08-30T09:52:33Z</time>
      </trkpt>
      <trkpt lat="43.764725318178535" lon="10.503623457625508">
        <ele>568.757080078125</ele>
        <time>2003-08-30T09:53:34Z</time>
      </trkpt>
      <trkpt lat="43.764767562970519" lon="10.503556989133358">
        <ele>567.795654296875</ele>
        <time>2003-08-30T09:54:03Z</time>
      </trkpt>
      <trkpt lat="43.76473680138588" lon="10.50347400829196">
        <ele>567.795654296875</ele>
        <time>2003-08-30T09:55:00Z</time>
      </trkpt>
      <trkpt lat="43.764794049784541" lon="10.503361523151398">
        <ele>568.757080078125</ele>
        <time>2003-08-30T09:55:07Z</time>
      </trkpt>
      <trkpt lat="43.764857416972518" lon="10.503280218690634">
        <ele>569.23779296875</ele>
        <time>2003-08-30T09:55:13Z</time>
      </trkpt>
      <trkpt lat="43.764946097508073" lon="10.50318474881351">
        <ele>570.198974609375</ele>
        <time>2003-08-30T09:55:20Z</time>
      </trkpt>
      <trkpt lat="43.765034023672342" lon="10.503102019429207">
        <ele>570.6796875</ele>
        <time>2003-08-30T09:55:27Z</time>
      </trkpt>
      <trkpt lat="43.765115914866328" lon="10.503031359985471">
        <ele>571.160400390625</ele>
        <time>2003-08-30T09:55:34Z</time>
      </trkpt>
      <trkpt lat="43.76521272584796" lon="10.50295751541853">
        <ele>573.083251953125</ele>
        <time>2003-08-30T09:55:41Z</time>
      </trkpt>
      <trkpt lat="43.765297131612897" lon="10.502888699993491">
        <ele>573.56396484375</ele>
        <time>2003-08-30T09:55:47Z</time>
      </trkpt>
      <trkpt lat="43.765373406931758" lon="10.502796750515699">
        <ele>573.56396484375</ele>
        <time>2003-08-30T09:55:52Z</time>
      </trkpt>
      <trkpt lat="43.765431996434927" lon="10.502683259546757">
        <ele>574.04443359375</ele>
        <time>2003-08-30T09:55:57Z</time>
      </trkpt>
      <trkpt lat="43.765467284247279" lon="10.502544119954109">
        <ele>574.04443359375</ele>
        <time>2003-08-30T09:56:03Z</time>
      </trkpt>
      <trkpt lat="43.765515061095357" lon="10.502414871007204">
        <ele>574.525146484375</ele>
        <time>2003-08-30T09:56:10Z</time>
      </trkpt>
      <trkpt lat="43.765555797144771" lon="10.502277659252286">
        <ele>575.486328125</ele>
        <time>2003-08-30T09:56:18Z</time>
      </trkpt>
      <trkpt lat="43.765618158504367" lon="10.502174897119403">
        <ele>576.928466796875</ele>
        <time>2003-08-30T09:56:25Z</time>
      </trkpt>
      <trkpt lat="43.765682196244597" lon="10.502068782225251">
        <ele>578.370361328125</ele>
        <time>2003-08-30T09:56:32Z</time>
      </trkpt>
      <trkpt lat="43.765756208449602" lon="10.501960068941116">
        <ele>579.33154296875</ele>
        <time>2003-08-30T09:56:39Z</time>
      </trkpt>
      <trkpt lat="43.765827035531402" lon="10.501856803894043">
        <ele>581.25439453125</ele>
        <time>2003-08-30T09:56:46Z</time>
      </trkpt>
      <trkpt lat="43.765910938382149" lon="10.501766782253981">
        <ele>582.215576171875</ele>
        <time>2003-08-30T09:56:53Z</time>
      </trkpt>
      <trkpt lat="43.765990482643247" lon="10.501665025949478">
        <ele>582.6962890625</ele>
        <time>2003-08-30T09:57:00Z</time>
      </trkpt>
      <trkpt lat="43.766062902286649" lon="10.501560922712088">
        <ele>583.657470703125</ele>
        <time>2003-08-30T09:57:07Z</time>
      </trkpt>
      <trkpt lat="43.766131466254592" lon="10.501471487805247">
        <ele>584.13818359375</ele>
        <time>2003-08-30T09:57:13Z</time>
      </trkpt>
      <trkpt lat="43.766193995252252" lon="10.501358667388558">
        <ele>585.099609375</ele>
        <time>2003-08-30T09:57:19Z</time>
      </trkpt>
      <trkpt lat="43.766243951395154" lon="10.501246266067028">
        <ele>585.580078125</ele>
        <time>2003-08-30T09:57:25Z</time>
      </trkpt>
      <trkpt lat="43.766250992193818" lon="10.501137468963861">
        <ele>586.54150390625</ele>
        <time>2003-08-30T09:57:31Z</time>
      </trkpt>
      <trkpt lat="43.766298349946737" lon="10.50101425498724">
        <ele>586.54150390625</ele>
        <time>2003-08-30T09:57:38Z</time>
      </trkpt>
      <trkpt lat="43.76633414067328" lon="10.500886850059032">
        <ele>586.54150390625</ele>
        <time>2003-08-30T09:57:45Z</time>
      </trkpt>
      <trkpt lat="43.76640597358346" lon="10.50079682841897">
        <ele>586.060791015625</ele>
        <time>2003-08-30T09:57:51Z</time>
      </trkpt>
      <trkpt lat="43.766497001051903" lon="10.50071083009243">
        <ele>587.02197265625</ele>
        <time>2003-08-30T09:57:57Z</time>
      </trkpt>
      <trkpt lat="43.76657897606492" lon="10.500619551166892">
        <ele>588.46435546875</ele>
        <time>2003-08-30T09:58:03Z</time>
      </trkpt>
      <trkpt lat="43.766657095402479" lon="10.500547466799617">
        <ele>588.46435546875</ele>
        <time>2003-08-30T09:58:08Z</time>
      </trkpt>
      <trkpt lat="43.766746027395129" lon="10.500501031056046">
        <ele>588.945068359375</ele>
        <time>2003-08-30T09:58:13Z</time>
      </trkpt>
      <trkpt lat="43.766855075955391" lon="10.50045040436089">
        <ele>589.425537109375</ele>
        <time>2003-08-30T09:58:19Z</time>
      </trkpt>
      <trkpt lat="43.766962280496955" lon="10.500411009415984">
        <ele>590.386962890625</ele>
        <time>2003-08-30T09:58:25Z</time>
      </trkpt>
      <trkpt lat="43.767059929668903" lon="10.500402459874749">
        <ele>590.867431640625</ele>
        <time>2003-08-30T09:58:30Z</time>
      </trkpt>
      <trkpt lat="43.767157746478915" lon="10.500390976667404">
        <ele>590.867431640625</ele>
        <time>2003-08-30T09:58:35Z</time>
      </trkpt>
      <trkpt lat="43.767273500561714" lon="10.500370357185602">
        <ele>590.867431640625</ele>
        <time>2003-08-30T09:58:41Z</time>
      </trkpt>
      <trkpt lat="43.767384812235832" lon="10.500318389385939">
        <ele>591.34814453125</ele>
        <time>2003-08-30T09:58:49Z</time>
      </trkpt>
      <trkpt lat="43.767486149445176" lon="10.500257285311818">
        <ele>591.34814453125</ele>
        <time>2003-08-30T09:58:55Z</time>
      </trkpt>
      <trkpt lat="43.767587402835488" lon="10.500163743272424">
        <ele>592.3095703125</ele>
        <time>2003-08-30T09:59:00Z</time>
      </trkpt>
      <trkpt lat="43.767680441960692" lon="10.500090150162578">
        <ele>592.790283203125</ele>
        <time>2003-08-30T09:59:05Z</time>
      </trkpt>
      <trkpt lat="43.767787059769034" lon="10.500019825994968">
        <ele>594.232177734375</ele>
        <time>2003-08-30T09:59:10Z</time>
      </trkpt>
      <trkpt lat="43.767884708940983" lon="10.499966936185956">
        <ele>595.674072265625</ele>
        <time>2003-08-30T09:59:15Z</time>
      </trkpt>
      <trkpt lat="43.767973892390728" lon="10.499925361946225">
        <ele>595.674072265625</ele>
        <time>2003-08-30T09:59:20Z</time>
      </trkpt>
      <trkpt lat="43.768077827990055" lon="10.499909268692136">
        <ele>597.115966796875</ele>
        <time>2003-08-30T09:59:26Z</time>
      </trkpt>
      <trkpt lat="43.768177991732955" lon="10.499889235943556">
        <ele>598.557861328125</ele>
        <time>2003-08-30T09:59:32Z</time>
      </trkpt>
      <trkpt lat="43.768273713067174" lon="10.499899964779615">
        <ele>599.519287109375</ele>
        <time>2003-08-30T09:59:37Z</time>
      </trkpt>
      <trkpt lat="43.768376978114247" lon="10.499913040548563">
        <ele>600.961181640625</ele>
        <time>2003-08-30T09:59:42Z</time>
      </trkpt>
      <trkpt lat="43.768489044159651" lon="10.499938521534204">
        <ele>600.961181640625</ele>
        <time>2003-08-30T09:59:47Z</time>
      </trkpt>
      <trkpt lat="43.768590213730931" lon="10.499948747456074">
        <ele>601.44189453125</ele>
        <time>2003-08-30T09:59:52Z</time>
      </trkpt>
      <trkpt lat="43.768692305311561" lon="10.499981855973601">
        <ele>601.44189453125</ele>
        <time>2003-08-30T09:59:58Z</time>
      </trkpt>
      <trkpt lat="43.768788948655128" lon="10.500043714419007">
        <ele>601.44189453125</ele>
        <time>2003-08-30T10:00:04Z</time>
      </trkpt>
      <trkpt lat="43.768884921446443" lon="10.500113368034363">
        <ele>601.44189453125</ele>
        <time>2003-08-30T10:00:09Z</time>
      </trkpt>
      <trkpt lat="43.768985252827406" lon="10.500164665281773">
        <ele>601.44189453125</ele>
        <time>2003-08-30T10:00:13Z</time>
      </trkpt>
      <trkpt lat="43.769079884514213" lon="10.500223422423005">
        <ele>601.44189453125</ele>
        <time>2003-08-30T10:00:17Z</time>
      </trkpt>
      <trkpt lat="43.769175773486495" lon="10.500301793217659">
        <ele>601.44189453125</ele>
        <time>2003-08-30T10:00:22Z</time>
      </trkpt>
      <trkpt lat="43.769260933622718" lon="10.500367842614651">
        <ele>601.922607421875</ele>
        <time>2003-08-30T10:00:26Z</time>
      </trkpt>
      <trkpt lat="43.769353469833732" lon="10.500443615019321">
        <ele>602.8837890625</ele>
        <time>2003-08-30T10:00:31Z</time>
      </trkpt>
      <trkpt lat="43.769439803436399" lon="10.500513603910804">
        <ele>602.8837890625</ele>
        <time>2003-08-30T10:00:36Z</time>
      </trkpt>
      <trkpt lat="43.769517168402672" lon="10.500593734905124">
        <ele>603.84521484375</ele>
        <time>2003-08-30T10:00:43Z</time>
      </trkpt>
      <trkpt lat="43.769537536427379" lon="10.50057303160429">
        <ele>603.364501953125</ele>
        <time>2003-08-30T10:01:46Z</time>
      </trkpt>
      <trkpt lat="43.769497219473124" lon="10.500544030219316">
        <ele>606.24853515625</ele>
        <time>2003-08-30T10:05:30Z</time>
      </trkpt>
      <trkpt lat="43.769582463428378" lon="10.500359041616321">
        <ele>605.287353515625</ele>
        <time>2003-08-30T10:05:49Z</time>
      </trkpt>
      <trkpt lat="43.769629569724202" lon="10.500193918123841">
        <ele>605.287353515625</ele>
        <time>2003-08-30T10:05:53Z</time>
      </trkpt>
      <trkpt lat="43.76967147924006" lon="10.50005067139864">
        <ele>605.287353515625</ele>
        <time>2003-08-30T10:05:57Z</time>
      </trkpt>
      <trkpt lat="43.769717663526535" lon="10.499915303662419">
        <ele>604.806640625</ele>
        <time>2003-08-30T10:06:01Z</time>
      </trkpt>
      <trkpt lat="43.769789161160588" lon="10.499765686690807">
        <ele>604.806640625</ele>
        <time>2003-08-30T10:06:05Z</time>
      </trkpt>
      <trkpt lat="43.769851438701153" lon="10.49964121542871">
        <ele>602.8837890625</ele>
        <time>2003-08-30T10:06:08Z</time>
      </trkpt>
      <trkpt lat="43.769914051517844" lon="10.49950291402638">
        <ele>602.8837890625</ele>
        <time>2003-08-30T10:06:11Z</time>
      </trkpt>
      <trkpt lat="43.769973395392299" lon="10.499361930415034">
        <ele>601.44189453125</ele>
        <time>2003-08-30T10:06:14Z</time>
      </trkpt>
      <trkpt lat="43.770028715953231" lon="10.49921759404242">
        <ele>600</ele>
        <time>2003-08-30T10:06:17Z</time>
      </trkpt>
      <trkpt lat="43.770088898018003" lon="10.499089853838086">
        <ele>597.5966796875</ele>
        <time>2003-08-30T10:06:20Z</time>
      </trkpt>
      <trkpt lat="43.770167352631688" lon="10.49898792989552">
        <ele>595.674072265625</ele>
        <time>2003-08-30T10:06:23Z</time>
      </trkpt>
      <trkpt lat="43.770251926034689" lon="10.498896734789014">
        <ele>594.232177734375</ele>
        <time>2003-08-30T10:06:26Z</time>
      </trkpt>
      <trkpt lat="43.770353766158223" lon="10.498806880787015">
        <ele>591.828857421875</ele>
        <time>2003-08-30T10:06:29Z</time>
      </trkpt>
      <trkpt lat="43.770444123074412" lon="10.498718954622746">
        <ele>588.945068359375</ele>
        <time>2003-08-30T10:06:32Z</time>
      </trkpt>
      <trkpt lat="43.77055836841464" lon="10.498630777001381">
        <ele>586.54150390625</ele>
        <time>2003-08-30T10:06:35Z</time>
      </trkpt>
      <trkpt lat="43.770646881312132" lon="10.498551651835442">
        <ele>585.580078125</ele>
        <time>2003-08-30T10:06:37Z</time>
      </trkpt>
      <trkpt lat="43.770685940980911" lon="10.49842064268887">
        <ele>584.13818359375</ele>
        <time>2003-08-30T10:06:39Z</time>
      </trkpt>
      <trkpt lat="43.770669680088758" lon="10.498202964663506">
        <ele>582.6962890625</ele>
        <time>2003-08-30T10:06:41Z</time>
      </trkpt>
      <trkpt lat="43.770699687302113" lon="10.498004062101245">
        <ele>581.25439453125</ele>
        <time>2003-08-30T10:06:43Z</time>
      </trkpt>
      <trkpt lat="43.770750649273396" lon="10.497842878103256">
        <ele>580.29296875</ele>
        <time>2003-08-30T10:06:45Z</time>
      </trkpt>
      <trkpt lat="43.770789625123143" lon="10.497676832601428">
        <ele>578.370361328125</ele>
        <time>2003-08-30T10:06:47Z</time>
      </trkpt>
      <trkpt lat="43.770822985097766" lon="10.497511709108949">
        <ele>575.486328125</ele>
        <time>2003-08-30T10:06:49Z</time>
      </trkpt>
      <trkpt lat="43.770858524367213" lon="10.497360415756702">
        <ele>573.083251953125</ele>
        <time>2003-08-30T10:06:51Z</time>
      </trkpt>
      <trkpt lat="43.770908983424306" lon="10.497210966423154">
        <ele>572.121826171875</ele>
        <time>2003-08-30T10:06:53Z</time>
      </trkpt>
      <trkpt lat="43.770940667018294" lon="10.497048525139689">
        <ele>569.23779296875</ele>
        <time>2003-08-30T10:06:55Z</time>
      </trkpt>
      <trkpt lat="43.770863972604275" lon="10.496867895126343">
        <ele>566.83447265625</ele>
        <time>2003-08-30T10:06:57Z</time>
      </trkpt>
      <trkpt lat="43.770737238228321" lon="10.496722301468253">
        <ele>565.392578125</ele>
        <time>2003-08-30T10:06:59Z</time>
      </trkpt>
      <trkpt lat="43.770631961524487" lon="10.496581066399813">
        <ele>564.43115234375</ele>
        <time>2003-08-30T10:07:01Z</time>
      </trkpt>
      <trkpt lat="43.770573791116476" lon="10.496398843824863">
        <ele>564.43115234375</ele>
        <time>2003-08-30T10:07:03Z</time>
      </trkpt>
      <trkpt lat="43.77055199816823" lon="10.496219052001834">
        <ele>564.43115234375</ele>
        <time>2003-08-30T10:07:05Z</time>
      </trkpt>
      <trkpt lat="43.770545208826661" lon="10.496073709800839">
        <ele>564.43115234375</ele>
        <time>2003-08-30T10:07:08Z</time>
      </trkpt>
      <trkpt lat="43.770529618486762" lon="10.495954938232899">
        <ele>564.911865234375</ele>
        <time>2003-08-30T10:07:11Z</time>
      </trkpt>
      <trkpt lat="43.7705138605088" lon="10.495833987370133">
        <ele>565.392578125</ele>
        <time>2003-08-30T10:07:14Z</time>
      </trkpt>
      <trkpt lat="43.770489636808634" lon="10.495710270479321">
        <ele>565.392578125</ele>
        <time>2003-08-30T10:07:17Z</time>
      </trkpt>
      <trkpt lat="43.770450744777918" lon="10.495589571073651">
        <ele>565.392578125</ele>
        <time>2003-08-30T10:07:20Z</time>
      </trkpt>
      <trkpt lat="43.770408080890775" lon="10.49547272734344">
        <ele>565.392578125</ele>
        <time>2003-08-30T10:07:23Z</time>
      </trkpt>
      <trkpt lat="43.770364997908473" lon="10.495356973260641">
        <ele>566.353759765625</ele>
        <time>2003-08-30T10:07:26Z</time>
      </trkpt>
      <trkpt lat="43.770329207181931" lon="10.495246751233935">
        <ele>566.353759765625</ele>
        <time>2003-08-30T10:07:29Z</time>
      </trkpt>
      <trkpt lat="43.770292997360229" lon="10.495118927210569">
        <ele>567.795654296875</ele>
        <time>2003-08-30T10:07:33Z</time>
      </trkpt>
      <trkpt lat="43.77024756744504" lon="10.495002921670675">
        <ele>569.718505859375</ele>
        <time>2003-08-30T10:07:37Z</time>
      </trkpt>
      <trkpt lat="43.770199874415994" lon="10.494881551712751">
        <ele>570.198974609375</ele>
        <time>2003-08-30T10:07:41Z</time>
      </trkpt>
      <trkpt lat="43.77015913836658" lon="10.494763283059001">
        <ele>570.198974609375</ele>
        <time>2003-08-30T10:07:45Z</time>
      </trkpt>
      <trkpt lat="43.770123347640038" lon="10.494606038555503">
        <ele>569.718505859375</ele>
        <time>2003-08-30T10:07:49Z</time>
      </trkpt>
      <trkpt lat="43.770122593268752" lon="10.494446698576212">
        <ele>568.757080078125</ele>
        <time>2003-08-30T10:07:52Z</time>
      </trkpt>
      <trkpt lat="43.77012443728745" lon="10.49429758451879">
        <ele>569.23779296875</ele>
        <time>2003-08-30T10:07:55Z</time>
      </trkpt>
      <trkpt lat="43.770120497792959" lon="10.494150146842003">
        <ele>570.6796875</ele>
        <time>2003-08-30T10:07:58Z</time>
      </trkpt>
      <trkpt lat="43.7701097689569" lon="10.494002206251025">
        <ele>571.160400390625</ele>
        <time>2003-08-30T10:08:01Z</time>
      </trkpt>
      <trkpt lat="43.770090658217669" lon="10.493815708905458">
        <ele>570.6796875</ele>
        <time>2003-08-30T10:08:04Z</time>
      </trkpt>
      <trkpt lat="43.770067524164915" lon="10.49367162398994">
        <ele>570.6796875</ele>
        <time>2003-08-30T10:08:06Z</time>
      </trkpt>
      <trkpt lat="43.770041037350893" lon="10.493529299274087">
        <ele>569.718505859375</ele>
        <time>2003-08-30T10:08:08Z</time>
      </trkpt>
      <trkpt lat="43.770018490031362" lon="10.493380771949887">
        <ele>570.198974609375</ele>
        <time>2003-08-30T10:08:10Z</time>
      </trkpt>
      <trkpt lat="43.769983034580946" lon="10.493204249069095">
        <ele>569.718505859375</ele>
        <time>2003-08-30T10:08:12Z</time>
      </trkpt>
      <trkpt lat="43.769954787567258" lon="10.493030324578285">
        <ele>568.2763671875</ele>
        <time>2003-08-30T10:08:14Z</time>
      </trkpt>
      <trkpt lat="43.769928133115172" lon="10.492868553847075">
        <ele>567.795654296875</ele>
        <time>2003-08-30T10:08:16Z</time>
      </trkpt>
      <trkpt lat="43.769901478663087" lon="10.492706699296832">
        <ele>567.315185546875</ele>
        <time>2003-08-30T10:08:18Z</time>
      </trkpt>
      <trkpt lat="43.769874824211001" lon="10.49254484474659">
        <ele>566.83447265625</ele>
        <time>2003-08-30T10:08:20Z</time>
      </trkpt>
      <trkpt lat="43.769848169758916" lon="10.492382990196347">
        <ele>565.392578125</ele>
        <time>2003-08-30T10:08:22Z</time>
      </trkpt>
      <trkpt lat="43.76982151530683" lon="10.492221135646105">
        <ele>564.43115234375</ele>
        <time>2003-08-30T10:08:24Z</time>
      </trkpt>
      <trkpt lat="43.769794860854745" lon="10.492059281095862">
        <ele>563.469970703125</ele>
        <time>2003-08-30T10:08:26Z</time>
      </trkpt>
      <trkpt lat="43.769783126190305" lon="10.491899354383349">
        <ele>562.508544921875</ele>
        <time>2003-08-30T10:08:28Z</time>
      </trkpt>
      <trkpt lat="43.769772564992309" lon="10.491726603358984">
        <ele>562.028076171875</ele>
        <time>2003-08-30T10:08:30Z</time>
      </trkpt>
      <trkpt lat="43.76975261606276" lon="10.491562066599727">
        <ele>560.5859375</ele>
        <time>2003-08-30T10:08:32Z</time>
      </trkpt>
      <trkpt lat="43.769757645204663" lon="10.491394596174359">
        <ele>558.663330078125</ele>
        <time>2003-08-30T10:08:34Z</time>
      </trkpt>
      <trkpt lat="43.769769966602325" lon="10.491225533187389">
        <ele>557.7021484375</ele>
        <time>2003-08-30T10:08:36Z</time>
      </trkpt>
      <trkpt lat="43.769746916368604" lon="10.491058984771371">
        <ele>555.779296875</ele>
        <time>2003-08-30T10:08:38Z</time>
      </trkpt>
      <trkpt lat="43.769745575264096" lon="10.49091481603682">
        <ele>554.81787109375</ele>
        <time>2003-08-30T10:08:40Z</time>
      </trkpt>
      <trkpt lat="43.769730571657419" lon="10.490765199065208">
        <ele>553.856689453125</ele>
        <time>2003-08-30T10:08:42Z</time>
      </trkpt>
      <trkpt lat="43.769715903326869" lon="10.490624969825149">
        <ele>552.41455078125</ele>
        <time>2003-08-30T10:08:44Z</time>
      </trkpt>
      <trkpt lat="43.76968807540834" lon="10.49050628207624">
        <ele>549.53076171875</ele>
        <time>2003-08-30T10:08:47Z</time>
      </trkpt>
      <trkpt lat="43.769961157813668" lon="10.490807527676225">
        <ele>549.53076171875</ele>
        <time>2003-08-30T10:08:53Z</time>
      </trkpt>
      <trkpt lat="43.769851103425026" lon="10.490812556818128">
        <ele>549.050048828125</ele>
        <time>2003-08-30T10:08:59Z</time>
      </trkpt>
      <trkpt lat="43.769752867519855" lon="10.490814065560699">
        <ele>549.53076171875</ele>
        <time>2003-08-30T10:09:05Z</time>
      </trkpt>
      <trkpt lat="43.76964851282537" lon="10.490797804668546">
        <ele>551.93408203125</ele>
        <time>2003-08-30T10:09:11Z</time>
      </trkpt>
      <trkpt lat="43.769201841205359" lon="10.490551879629493">
        <ele>551.453369140625</ele>
        <time>2003-08-30T10:09:12Z</time>
      </trkpt>
      <trkpt lat="43.769159847870469" lon="10.490563362836838">
        <ele>552.41455078125</ele>
        <time>2003-08-30T10:09:17Z</time>
      </trkpt>
      <trkpt lat="43.769094804301858" lon="10.490564703941345">
        <ele>553.856689453125</ele>
        <time>2003-08-30T10:09:22Z</time>
      </trkpt>
      <trkpt lat="43.769387919455767" lon="10.490861842408776">
        <ele>554.33740234375</ele>
        <time>2003-08-30T10:09:27Z</time>
      </trkpt>
      <trkpt lat="43.76933972351253" lon="10.490811299532652">
        <ele>554.33740234375</ele>
        <time>2003-08-30T10:09:32Z</time>
      </trkpt>
      <trkpt lat="43.769296305254102" lon="10.490814736112952">
        <ele>554.81787109375</ele>
        <time>2003-08-30T10:09:37Z</time>
      </trkpt>
      <trkpt lat="43.769202260300517" lon="10.490893945097923">
        <ele>556.260009765625</ele>
        <time>2003-08-30T10:09:42Z</time>
      </trkpt>
      <trkpt lat="43.76911299303174" lon="10.491004586219788">
        <ele>557.7021484375</ele>
        <time>2003-08-30T10:09:47Z</time>
      </trkpt>
      <trkpt lat="43.769038142636418" lon="10.491102570667863">
        <ele>556.74072265625</ele>
        <time>2003-08-30T10:09:52Z</time>
      </trkpt>
      <trkpt lat="43.76895859837532" lon="10.491199800744653">
        <ele>557.7021484375</ele>
        <time>2003-08-30T10:09:58Z</time>
      </trkpt>
      <trkpt lat="43.76888869330287" lon="10.491294600069523">
        <ele>558.663330078125</ele>
        <time>2003-08-30T10:10:03Z</time>
      </trkpt>
      <trkpt lat="43.768792469054461" lon="10.491406749933958">
        <ele>560.5859375</ele>
        <time>2003-08-30T10:10:09Z</time>
      </trkpt>
      <trkpt lat="43.768678223714232" lon="10.491489730775356">
        <ele>562.508544921875</ele>
        <time>2003-08-30T10:10:15Z</time>
      </trkpt>
      <trkpt lat="43.768575126305223" lon="10.491542872041464">
        <ele>562.028076171875</ele>
        <time>2003-08-30T10:10:20Z</time>
      </trkpt>
      <trkpt lat="43.768465323373675" lon="10.491607999429107">
        <ele>562.9892578125</ele>
        <time>2003-08-30T10:10:27Z</time>
      </trkpt>
      <trkpt lat="43.768348814919591" lon="10.491745546460152">
        <ele>563.950439453125</ele>
        <time>2003-08-30T10:13:19Z</time>
      </trkpt>
      <trkpt lat="43.768228953704238" lon="10.491676898673177">
        <ele>563.950439453125</ele>
        <time>2003-08-30T10:13:45Z</time>
      </trkpt>
      <trkpt lat="43.768126275390387" lon="10.491649825125933">
        <ele>564.911865234375</ele>
        <time>2003-08-30T10:13:50Z</time>
      </trkpt>
      <trkpt lat="43.768032062798738" lon="10.491643454879522">
        <ele>564.43115234375</ele>
        <time>2003-08-30T10:13:54Z</time>
      </trkpt>
      <trkpt lat="43.767929803580046" lon="10.491628451272845">
        <ele>563.950439453125</ele>
        <time>2003-08-30T10:13:58Z</time>
      </trkpt>
      <trkpt lat="43.767828634008765" lon="10.491600958630443">
        <ele>563.469970703125</ele>
        <time>2003-08-30T10:14:02Z</time>
      </trkpt>
      <trkpt lat="43.767728805541992" lon="10.491560390219092">
        <ele>563.950439453125</ele>
        <time>2003-08-30T10:14:07Z</time>
      </trkpt>
      <trkpt lat="43.76762269064784" lon="10.491542452946305">
        <ele>563.469970703125</ele>
        <time>2003-08-30T10:14:12Z</time>
      </trkpt>
      <trkpt lat="43.767521353438497" lon="10.491519821807742">
        <ele>562.508544921875</ele>
        <time>2003-08-30T10:14:16Z</time>
      </trkpt>
      <trkpt lat="43.767405934631824" lon="10.491497274488211">
        <ele>562.028076171875</ele>
        <time>2003-08-30T10:14:21Z</time>
      </trkpt>
      <trkpt lat="43.767315577715635" lon="10.491469446569681">
        <ele>560.5859375</ele>
        <time>2003-08-30T10:14:25Z</time>
      </trkpt>
      <trkpt lat="43.767195632681251" lon="10.491412868723273">
        <ele>559.14404296875</ele>
        <time>2003-08-30T10:14:29Z</time>
      </trkpt>
      <trkpt lat="43.767068227753043" lon="10.491312453523278">
        <ele>559.624755859375</ele>
        <time>2003-08-30T10:14:33Z</time>
      </trkpt>
      <trkpt lat="43.766981307417154" lon="10.491244560107589">
        <ele>560.105224609375</ele>
        <time>2003-08-30T10:14:36Z</time>
      </trkpt>
      <trkpt lat="43.766883490607142" lon="10.491165518760681">
        <ele>560.5859375</ele>
        <time>2003-08-30T10:14:39Z</time>
      </trkpt>
      <trkpt lat="43.7667734362185" lon="10.491071809083223">
        <ele>558.663330078125</ele>
        <time>2003-08-30T10:14:42Z</time>
      </trkpt>
      <trkpt lat="43.766649635508657" lon="10.490976255387068">
        <ele>557.7021484375</ele>
        <time>2003-08-30T10:14:45Z</time>
      </trkpt>
      <trkpt lat="43.766562128439546" lon="10.490920264273882">
        <ele>557.221435546875</ele>
        <time>2003-08-30T10:14:47Z</time>
      </trkpt>
      <trkpt lat="43.766397088766098" lon="10.490838959813118">
        <ele>557.221435546875</ele>
        <time>2003-08-30T10:14:50Z</time>
      </trkpt>
      <trkpt lat="43.766274210065603" lon="10.490803839638829">
        <ele>557.221435546875</ele>
        <time>2003-08-30T10:14:52Z</time>
      </trkpt>
      <trkpt lat="43.766157366335392" lon="10.490769641473889">
        <ele>556.74072265625</ele>
        <time>2003-08-30T10:14:54Z</time>
      </trkpt>
      <trkpt lat="43.766031386330724" lon="10.490720355883241">
        <ele>556.74072265625</ele>
        <time>2003-08-30T10:14:56Z</time>
      </trkpt>
      <trkpt lat="43.765914961695671" lon="10.490657826885581">
        <ele>556.74072265625</ele>
        <time>2003-08-30T10:14:58Z</time>
      </trkpt>
      <trkpt lat="43.765812199562788" lon="10.490586245432496">
        <ele>556.260009765625</ele>
        <time>2003-08-30T10:15:00Z</time>
      </trkpt>
      <trkpt lat="43.765705078840256" lon="10.490499073639512">
        <ele>556.260009765625</ele>
        <time>2003-08-30T10:15:02Z</time>
      </trkpt>
      <trkpt lat="43.765605418011546" lon="10.490434281527996">
        <ele>555.298583984375</ele>
        <time>2003-08-30T10:15:04Z</time>
      </trkpt>
      <trkpt lat="43.765507182106376" lon="10.490370327606797">
        <ele>554.81787109375</ele>
        <time>2003-08-30T10:15:06Z</time>
      </trkpt>
      <trkpt lat="43.7654091976583" lon="10.490301009267569">
        <ele>554.33740234375</ele>
        <time>2003-08-30T10:15:08Z</time>
      </trkpt>
      <trkpt lat="43.76531632617116" lon="10.490231523290277">
        <ele>553.856689453125</ele>
        <time>2003-08-30T10:15:10Z</time>
      </trkpt>
      <trkpt lat="43.765222113579512" lon="10.490157511085272">
        <ele>553.856689453125</ele>
        <time>2003-08-30T10:15:12Z</time>
      </trkpt>
      <trkpt lat="43.765128990635276" lon="10.490062711760402">
        <ele>553.856689453125</ele>
        <time>2003-08-30T10:15:14Z</time>
      </trkpt>
      <trkpt lat="43.765039052814245" lon="10.489970678463578">
        <ele>553.856689453125</ele>
        <time>2003-08-30T10:15:16Z</time>
      </trkpt>
      <trkpt lat="43.764956323429942" lon="10.489889290183783">
        <ele>553.856689453125</ele>
        <time>2003-08-30T10:15:18Z</time>
      </trkpt>
      <trkpt lat="43.764839814975858" lon="10.489882081747055">
        <ele>554.33740234375</ele>
        <time>2003-08-30T10:15:21Z</time>
      </trkpt>
      <trkpt lat="43.76474560238421" lon="10.489899767562747">
        <ele>554.33740234375</ele>
        <time>2003-08-30T10:15:24Z</time>
      </trkpt>
      <trkpt lat="43.764658598229289" lon="10.489860288798809">
        <ele>554.81787109375</ele>
        <time>2003-08-30T10:15:29Z</time>
      </trkpt>
      <trkpt lat="43.764552567154169" lon="10.489817792549729">
        <ele>554.33740234375</ele>
        <time>2003-08-30T10:15:33Z</time>
      </trkpt>
      <trkpt lat="43.764446200802922" lon="10.489776972681284">
        <ele>552.41455078125</ele>
        <time>2003-08-30T10:15:36Z</time>
      </trkpt>
      <trkpt lat="43.76429658383131" lon="10.489749312400818">
        <ele>550.4921875</ele>
        <time>2003-08-30T10:15:39Z</time>
      </trkpt>
      <trkpt lat="43.764166077598929" lon="10.489721484482288">
        <ele>549.050048828125</ele>
        <time>2003-08-30T10:15:41Z</time>
      </trkpt>
      <trkpt lat="43.76405174843967" lon="10.489674964919686">
        <ele>548.0888671875</ele>
        <time>2003-08-30T10:15:43Z</time>
      </trkpt>
      <trkpt lat="43.763942616060376" lon="10.489618889987469">
        <ele>546.6468505859375</ele>
        <time>2003-08-30T10:15:45Z</time>
      </trkpt>
      <trkpt lat="43.763841362670064" lon="10.489568347111344">
        <ele>546.6468505859375</ele>
        <time>2003-08-30T10:15:47Z</time>
      </trkpt>
      <trkpt lat="43.763746898621321" lon="10.489538842812181">
        <ele>545.204833984375</ele>
        <time>2003-08-30T10:15:49Z</time>
      </trkpt>
      <trkpt lat="43.763630222529173" lon="10.489476313814521">
        <ele>545.685546875</ele>
        <time>2003-08-30T10:15:52Z</time>
      </trkpt>
      <trkpt lat="43.763567106798291" lon="10.489352596923709">
        <ele>545.685546875</ele>
        <time>2003-08-30T10:15:55Z</time>
      </trkpt>
      <trkpt lat="43.763487981632352" lon="10.489258132874966">
        <ele>545.685546875</ele>
        <time>2003-08-30T10:15:58Z</time>
      </trkpt>
      <trkpt lat="43.763398211449385" lon="10.489163585007191">
        <ele>544.7242431640625</ele>
        <time>2003-08-30T10:16:01Z</time>
      </trkpt>
      <trkpt lat="43.763323863968253" lon="10.489093512296677">
        <ele>542.801513671875</ele>
        <time>2003-08-30T10:16:03Z</time>
      </trkpt>
      <trkpt lat="43.763247923925519" lon="10.48899544402957">
        <ele>542.3209228515625</ele>
        <time>2003-08-30T10:16:05Z</time>
      </trkpt>
      <trkpt lat="43.763148514553905" lon="10.488903829827905">
        <ele>540.3983154296875</ele>
        <time>2003-08-30T10:16:07Z</time>
      </trkpt>
      <trkpt lat="43.763063857331872" lon="10.488809449598193">
        <ele>540.87890625</ele>
        <time>2003-08-30T10:16:09Z</time>
      </trkpt>
      <trkpt lat="43.762979116290808" lon="10.488729402422905">
        <ele>539.9176025390625</ele>
        <time>2003-08-30T10:16:11Z</time>
      </trkpt>
      <trkpt lat="43.762859087437391" lon="10.488647678866982">
        <ele>540.3983154296875</ele>
        <time>2003-08-30T10:16:14Z</time>
      </trkpt>
      <trkpt lat="43.762768562883139" lon="10.488600404933095">
        <ele>540.87890625</ele>
        <time>2003-08-30T10:16:19Z</time>
      </trkpt>
      <trkpt lat="43.762609725818038" lon="10.488547012209892">
        <ele>541.3594970703125</ele>
        <time>2003-08-30T10:16:39Z</time>
      </trkpt>
      <trkpt lat="43.762486847117543" lon="10.488463863730431">
        <ele>540.87890625</ele>
        <time>2003-08-30T10:16:43Z</time>
      </trkpt>
      <trkpt lat="43.762361872941256" lon="10.488398401066661">
        <ele>540.87890625</ele>
        <time>2003-08-30T10:16:46Z</time>
      </trkpt>
      <trkpt lat="43.762267325073481" lon="10.488351881504059">
        <ele>540.3983154296875</ele>
        <time>2003-08-30T10:16:48Z</time>
      </trkpt>
      <trkpt lat="43.7621695920825" lon="10.488296058028936">
        <ele>539.4368896484375</ele>
        <time>2003-08-30T10:16:50Z</time>
      </trkpt>
      <trkpt lat="43.762072110548615" lon="10.48824543133378">
        <ele>539.9176025390625</ele>
        <time>2003-08-30T10:16:52Z</time>
      </trkpt>
      <trkpt lat="43.761994913220406" lon="10.488180806860328">
        <ele>540.3983154296875</ele>
        <time>2003-08-30T10:16:54Z</time>
      </trkpt>
      <trkpt lat="43.76190765760839" lon="10.488079134374857">
        <ele>539.9176025390625</ele>
        <time>2003-08-30T10:16:57Z</time>
      </trkpt>
      <trkpt lat="43.761826101690531" lon="10.487987184897065">
        <ele>539.9176025390625</ele>
        <time>2003-08-30T10:17:00Z</time>
      </trkpt>
      <trkpt lat="43.761739432811737" lon="10.487894648686051">
        <ele>539.4368896484375</ele>
        <time>2003-08-30T10:17:03Z</time>
      </trkpt>
      <trkpt lat="43.761649997904897" lon="10.487796580418944">
        <ele>539.4368896484375</ele>
        <time>2003-08-30T10:17:06Z</time>
      </trkpt>
      <trkpt lat="43.761550672352314" lon="10.487708318978548">
        <ele>538.4757080078125</ele>
        <time>2003-08-30T10:17:09Z</time>
      </trkpt>
      <trkpt lat="43.761434080079198" lon="10.487660625949502">
        <ele>537.9949951171875</ele>
        <time>2003-08-30T10:17:12Z</time>
      </trkpt>
      <trkpt lat="43.761332994326949" lon="10.487678982317448">
        <ele>538.4757080078125</ele>
        <time>2003-08-30T10:17:15Z</time>
      </trkpt>
      <trkpt lat="43.761254707351327" lon="10.487765902653337">
        <ele>539.4368896484375</ele>
        <time>2003-08-30T10:17:21Z</time>
      </trkpt>
      <trkpt lat="43.761160494759679" lon="10.487747211009264">
        <ele>538.956298828125</ele>
        <time>2003-08-30T10:17:25Z</time>
      </trkpt>
      <trkpt lat="43.761120764538646" lon="10.48762776888907">
        <ele>539.9176025390625</ele>
        <time>2003-08-30T10:17:29Z</time>
      </trkpt>
      <trkpt lat="43.761079022660851" lon="10.487513523548841">
        <ele>539.4368896484375</ele>
        <time>2003-08-30T10:17:33Z</time>
      </trkpt>
      <trkpt lat="43.761005681008101" lon="10.487410090863705">
        <ele>539.4368896484375</ele>
        <time>2003-08-30T10:17:38Z</time>
      </trkpt>
      <trkpt lat="43.760953797027469" lon="10.487306825816631">
        <ele>538.956298828125</ele>
        <time>2003-08-30T10:17:42Z</time>
      </trkpt>
      <trkpt lat="43.760971901938319" lon="10.487191490828991">
        <ele>539.9176025390625</ele>
        <time>2003-08-30T10:17:46Z</time>
      </trkpt>
      <trkpt lat="43.760986486449838" lon="10.487059140577912">
        <ele>540.87890625</ele>
        <time>2003-08-30T10:17:51Z</time>
      </trkpt>
      <trkpt lat="43.760981289669871" lon="10.486919078975916">
        <ele>542.801513671875</ele>
        <time>2003-08-30T10:17:56Z</time>
      </trkpt>
      <trkpt lat="43.760966788977385" lon="10.486787734553218">
        <ele>543.2821044921875</ele>
        <time>2003-08-30T10:18:00Z</time>
      </trkpt>
      <trkpt lat="43.760934602469206" lon="10.48665446229279">
        <ele>543.2821044921875</ele>
        <time>2003-08-30T10:18:04Z</time>
      </trkpt>
      <trkpt lat="43.760877689346671" lon="10.486515993252397">
        <ele>543.7628173828125</ele>
        <time>2003-08-30T10:18:08Z</time>
      </trkpt>
      <trkpt lat="43.760839384049177" lon="10.486378613859415">
        <ele>544.7242431640625</ele>
        <time>2003-08-30T10:18:12Z</time>
      </trkpt>
      <trkpt lat="43.760805102065206" lon="10.486230505630374">
        <ele>545.685546875</ele>
        <time>2003-08-30T10:18:17Z</time>
      </trkpt>
      <trkpt lat="43.760795630514622" lon="10.486093796789646">
        <ele>547.12744140625</ele>
        <time>2003-08-30T10:18:22Z</time>
      </trkpt>
      <trkpt lat="43.760799067094922" lon="10.485944598913193">
        <ele>548.5693359375</ele>
        <time>2003-08-30T10:18:27Z</time>
      </trkpt>
      <trkpt lat="43.760787583887577" lon="10.485807890072465">
        <ele>549.53076171875</ele>
        <time>2003-08-30T10:18:32Z</time>
      </trkpt>
      <trkpt lat="43.760738549754024" lon="10.485671432688832">
        <ele>550.011474609375</ele>
        <time>2003-08-30T10:18:37Z</time>
      </trkpt>
      <trkpt lat="43.760668477043509" lon="10.485566072165966">
        <ele>550.011474609375</ele>
        <time>2003-08-30T10:18:41Z</time>
      </trkpt>
      <trkpt lat="43.760583065450191" lon="10.485471608117223">
        <ele>550.011474609375</ele>
        <time>2003-08-30T10:18:44Z</time>
      </trkpt>
      <trkpt lat="43.760504443198442" lon="10.485373036935925">
        <ele>549.050048828125</ele>
        <time>2003-08-30T10:18:47Z</time>
      </trkpt>
      <trkpt lat="43.760469658300281" lon="10.485253175720572">
        <ele>549.53076171875</ele>
        <time>2003-08-30T10:18:50Z</time>
      </trkpt>
      <trkpt lat="43.760452223941684" lon="10.485112275928259">
        <ele>550.011474609375</ele>
        <time>2003-08-30T10:18:54Z</time>
      </trkpt>
      <trkpt lat="43.760439399629831" lon="10.484963916242123">
        <ele>550.4921875</ele>
        <time>2003-08-30T10:18:59Z</time>
      </trkpt>
      <trkpt lat="43.760408302769065" lon="10.484826453030109">
        <ele>551.453369140625</ele>
        <time>2003-08-30T10:19:04Z</time>
      </trkpt>
      <trkpt lat="43.760376535356045" lon="10.484682032838464">
        <ele>552.41455078125</ele>
        <time>2003-08-30T10:19:09Z</time>
      </trkpt>
      <trkpt lat="43.760346695780754" lon="10.484536271542311">
        <ele>553.3759765625</ele>
        <time>2003-08-30T10:19:14Z</time>
      </trkpt>
      <trkpt lat="43.760308222845197" lon="10.484402747824788">
        <ele>553.856689453125</ele>
        <time>2003-08-30T10:19:19Z</time>
      </trkpt>
      <trkpt lat="43.760253908112645" lon="10.48432370647788">
        <ele>553.856689453125</ele>
        <time>2003-08-30T10:19:27Z</time>
      </trkpt>
      <trkpt lat="43.760169837623835" lon="10.484628807753325">
        <ele>563.950439453125</ele>
        <time>2003-08-30T10:22:24Z</time>
      </trkpt>
      <trkpt lat="43.760215016081929" lon="10.48477808944881">
        <ele>565.873291015625</ele>
        <time>2003-08-30T10:22:36Z</time>
      </trkpt>
      <trkpt lat="43.760212501510978" lon="10.484961485490203">
        <ele>567.795654296875</ele>
        <time>2003-08-30T10:22:47Z</time>
      </trkpt>
      <trkpt lat="43.760060453787446" lon="10.485167764127254">
        <ele>566.353759765625</ele>
        <time>2003-08-30T10:23:36Z</time>
      </trkpt>
      <trkpt lat="43.759967833757401" lon="10.485217049717903">
        <ele>565.873291015625</ele>
        <time>2003-08-30T10:24:11Z</time>
      </trkpt>
      <trkpt lat="43.759864736348391" lon="10.485251164063811">
        <ele>564.43115234375</ele>
        <time>2003-08-30T10:24:17Z</time>
      </trkpt>
      <trkpt lat="43.759782006964087" lon="10.485320817679167">
        <ele>563.950439453125</ele>
        <time>2003-08-30T10:24:22Z</time>
      </trkpt>
      <trkpt lat="43.759702127426863" lon="10.485398434102535">
        <ele>564.43115234375</ele>
        <time>2003-08-30T10:24:27Z</time>
      </trkpt>
      <trkpt lat="43.759616296738386" lon="10.485502285882831">
        <ele>564.43115234375</ele>
        <time>2003-08-30T10:24:33Z</time>
      </trkpt>
      <trkpt lat="43.759540524333715" lon="10.485605970025063">
        <ele>564.911865234375</ele>
        <time>2003-08-30T10:24:38Z</time>
      </trkpt>
      <trkpt lat="43.759435247629881" lon="10.485707223415375">
        <ele>564.43115234375</ele>
        <time>2003-08-30T10:24:43Z</time>
      </trkpt>
      <trkpt lat="43.759349919855595" lon="10.485768243670464">
        <ele>564.911865234375</ele>
        <time>2003-08-30T10:24:47Z</time>
      </trkpt>
      <trkpt lat="43.759267693385482" lon="10.485843177884817">
        <ele>565.392578125</ele>
        <time>2003-08-30T10:24:51Z</time>
      </trkpt>
      <trkpt lat="43.759167948737741" lon="10.485916184261441">
        <ele>564.911865234375</ele>
        <time>2003-08-30T10:24:56Z</time>
      </trkpt>
      <trkpt lat="43.759079435840249" lon="10.486004864796996">
        <ele>565.873291015625</ele>
        <time>2003-08-30T10:25:01Z</time>
      </trkpt>
      <trkpt lat="43.758986983448267" lon="10.48607686534524">
        <ele>565.873291015625</ele>
        <time>2003-08-30T10:25:07Z</time>
      </trkpt>
      <trkpt lat="43.758908780291677" lon="10.48614869825542">
        <ele>564.911865234375</ele>
        <time>2003-08-30T10:25:12Z</time>
      </trkpt>
      <trkpt lat="43.758826553821564" lon="10.486216340214014">
        <ele>564.911865234375</ele>
        <time>2003-08-30T10:25:17Z</time>
      </trkpt>
      <trkpt lat="43.758744327351451" lon="10.48628406599164">
        <ele>564.911865234375</ele>
        <time>2003-08-30T10:25:22Z</time>
      </trkpt>
      <trkpt lat="43.758662017062306" lon="10.486351791769266">
        <ele>563.950439453125</ele>
        <time>2003-08-30T10:25:27Z</time>
      </trkpt>
      <trkpt lat="43.758580964058638" lon="10.486469892784953">
        <ele>564.43115234375</ele>
        <time>2003-08-30T10:25:33Z</time>
      </trkpt>
      <trkpt lat="43.758523631840944" lon="10.486596627160907">
        <ele>563.950439453125</ele>
        <time>2003-08-30T10:25:41Z</time>
      </trkpt>
      <trkpt lat="43.758440231904387" lon="10.486728139221668">
        <ele>565.392578125</ele>
        <time>2003-08-30T10:25:50Z</time>
      </trkpt>
      <trkpt lat="43.75834216363728" lon="10.486779687926173">
        <ele>565.392578125</ele>
        <time>2003-08-30T10:25:55Z</time>
      </trkpt>
      <trkpt lat="43.758232276886702" lon="10.48684892244637">
        <ele>565.873291015625</ele>
        <time>2003-08-30T10:25:59Z</time>
      </trkpt>
      <trkpt lat="43.758111158385873" lon="10.486899549141526">
        <ele>565.392578125</ele>
        <time>2003-08-30T10:26:04Z</time>
      </trkpt>
      <trkpt lat="43.757991045713425" lon="10.486939279362559">
        <ele>565.873291015625</ele>
        <time>2003-08-30T10:26:11Z</time>
      </trkpt>
      <trkpt lat="43.75788627192378" lon="10.486955875530839">
        <ele>566.353759765625</ele>
        <time>2003-08-30T10:26:16Z</time>
      </trkpt>
      <trkpt lat="43.757764399051666" lon="10.486989989876747">
        <ele>566.83447265625</ele>
        <time>2003-08-30T10:26:21Z</time>
      </trkpt>
      <trkpt lat="43.757668593898416" lon="10.48702284693718">
        <ele>569.23779296875</ele>
        <time>2003-08-30T10:26:25Z</time>
      </trkpt>
      <trkpt lat="43.757560718804598" lon="10.487066013738513">
        <ele>569.718505859375</ele>
        <time>2003-08-30T10:26:29Z</time>
      </trkpt>
      <trkpt lat="43.75745577737689" lon="10.487107839435339">
        <ele>571.160400390625</ele>
        <time>2003-08-30T10:26:33Z</time>
      </trkpt>
      <trkpt lat="43.757334994152188" lon="10.487165171653032">
        <ele>572.121826171875</ele>
        <time>2003-08-30T10:26:38Z</time>
      </trkpt>
      <trkpt lat="43.757236506789923" lon="10.487218648195267">
        <ele>573.56396484375</ele>
        <time>2003-08-30T10:26:43Z</time>
      </trkpt>
      <trkpt lat="43.757147826254368" lon="10.487272292375565">
        <ele>573.56396484375</ele>
        <time>2003-08-30T10:26:48Z</time>
      </trkpt>
      <trkpt lat="43.757044058293104" lon="10.487352339550853">
        <ele>573.56396484375</ele>
        <time>2003-08-30T10:26:53Z</time>
      </trkpt>
      <trkpt lat="43.756946073845029" lon="10.487462058663368">
        <ele>573.083251953125</ele>
        <time>2003-08-30T10:26:58Z</time>
      </trkpt>
      <trkpt lat="43.756859404966235" lon="10.487557863816619">
        <ele>572.6025390625</ele>
        <time>2003-08-30T10:27:03Z</time>
      </trkpt>
      <trkpt lat="43.756777849048376" lon="10.487645454704762">
        <ele>572.6025390625</ele>
        <time>2003-08-30T10:27:08Z</time>
      </trkpt>
      <trkpt lat="43.756699226796627" lon="10.487735727801919">
        <ele>572.6025390625</ele>
        <time>2003-08-30T10:27:13Z</time>
      </trkpt>
      <trkpt lat="43.756635775789618" lon="10.487881824374199">
        <ele>571.160400390625</ele>
        <time>2003-08-30T10:27:35Z</time>
      </trkpt>
      <trkpt lat="43.756555393338203" lon="10.487984418869019">
        <ele>570.198974609375</ele>
        <time>2003-08-30T10:27:47Z</time>
      </trkpt>
      <trkpt lat="43.756467634811997" lon="10.488100340589881">
        <ele>567.315185546875</ele>
        <time>2003-08-30T10:27:52Z</time>
      </trkpt>
      <trkpt lat="43.756386497989297" lon="10.488199582323432">
        <ele>566.353759765625</ele>
        <time>2003-08-30T10:27:56Z</time>
      </trkpt>
      <trkpt lat="43.75631676055491" lon="10.488286921754479">
        <ele>565.392578125</ele>
        <time>2003-08-30T10:28:00Z</time>
      </trkpt>
      <trkpt lat="43.756254818290472" lon="10.488394042477012">
        <ele>564.911865234375</ele>
        <time>2003-08-30T10:28:22Z</time>
      </trkpt>
      <trkpt lat="43.756191534921527" lon="10.488532679155469">
        <ele>562.9892578125</ele>
        <time>2003-08-30T10:28:33Z</time>
      </trkpt>
      <trkpt lat="43.75589506700635" lon="10.489244051277637">
        <ele>561.066650390625</ele>
        <time>2003-08-30T10:28:43Z</time>
      </trkpt>
      <trkpt lat="43.75584427267313" lon="10.489371623843908">
        <ele>559.624755859375</ele>
        <time>2003-08-30T10:28:52Z</time>
      </trkpt>
      <trkpt lat="43.755748216062784" lon="10.489563820883632">
        <ele>558.182861328125</ele>
        <time>2003-08-30T10:29:02Z</time>
      </trkpt>
      <trkpt lat="43.755685519427061" lon="10.489585781469941">
        <ele>555.298583984375</ele>
        <time>2003-08-30T10:29:17Z</time>
      </trkpt>
      <trkpt lat="43.75557747669518" lon="10.489574382081628">
        <ele>554.33740234375</ele>
        <time>2003-08-30T10:29:24Z</time>
      </trkpt>
      <trkpt lat="43.755473373457789" lon="10.489544793963432">
        <ele>553.3759765625</ele>
        <time>2003-08-30T10:29:31Z</time>
      </trkpt>
      <trkpt lat="43.755371449515224" lon="10.489516546949744">
        <ele>551.93408203125</ele>
        <time>2003-08-30T10:29:39Z</time>
      </trkpt>
      <trkpt lat="43.755271872505546" lon="10.489463657140732">
        <ele>549.53076171875</ele>
        <time>2003-08-30T10:29:46Z</time>
      </trkpt>
      <trkpt lat="43.755179503932595" lon="10.489443289116025">
        <ele>547.12744140625</ele>
        <time>2003-08-30T10:29:58Z</time>
      </trkpt>
      <trkpt lat="43.755068192258477" lon="10.489518642425537">
        <ele>545.204833984375</ele>
        <time>2003-08-30T10:30:18Z</time>
      </trkpt>
      <trkpt lat="43.754917401820421" lon="10.489606568589807">
        <ele>541.8402099609375</ele>
        <time>2003-08-30T10:30:40Z</time>
      </trkpt>
      <trkpt lat="43.754809442907572" lon="10.489696087315679">
        <ele>540.3983154296875</ele>
        <time>2003-08-30T10:30:50Z</time>
      </trkpt>
      <trkpt lat="43.754681954160333" lon="10.489815613254905">
        <ele>536.0723876953125</ele>
        <time>2003-08-30T10:31:14Z</time>
      </trkpt>
      <trkpt lat="43.75459679402411" lon="10.489929858595133">
        <ele>533.1883544921875</ele>
        <time>2003-08-30T10:31:24Z</time>
      </trkpt>
      <trkpt lat="43.754483805969357" lon="10.490031028166413">
        <ele>531.2657470703125</ele>
        <time>2003-08-30T10:31:32Z</time>
      </trkpt>
      <trkpt lat="43.754378193989396" lon="10.490184752270579">
        <ele>529.82373046875</ele>
        <time>2003-08-30T10:31:53Z</time>
      </trkpt>
      <trkpt lat="43.754274006932974" lon="10.490215262398124">
        <ele>527.9010009765625</ele>
        <time>2003-08-30T10:31:58Z</time>
      </trkpt>
      <trkpt lat="43.754143081605434" lon="10.490207802504301">
        <ele>527.42041015625</ele>
        <time>2003-08-30T10:32:04Z</time>
      </trkpt>
      <trkpt lat="43.754015928134322" lon="10.490253735333681">
        <ele>525.497802734375</ele>
        <time>2003-08-30T10:32:14Z</time>
      </trkpt>
      <trkpt lat="43.75390637665987" lon="10.490340823307633">
        <ele>524.5364990234375</ele>
        <time>2003-08-30T10:32:25Z</time>
      </trkpt>
      <trkpt lat="43.753805961459875" lon="10.49043201841414">
        <ele>524.5364990234375</ele>
        <time>2003-08-30T10:32:39Z</time>
      </trkpt>
      <trkpt lat="43.753665313124657" lon="10.490427492186427">
        <ele>523.5751953125</ele>
        <time>2003-08-30T10:32:49Z</time>
      </trkpt>
      <trkpt lat="43.75356774777174" lon="10.490412572398782">
        <ele>522.1331787109375</ele>
        <time>2003-08-30T10:32:54Z</time>
      </trkpt>
      <trkpt lat="43.753488957881927" lon="10.490454565733671">
        <ele>520.2105712890625</ele>
        <time>2003-08-30T10:33:02Z</time>
      </trkpt>
      <trkpt lat="43.753351997584105" lon="10.490502594038844">
        <ele>519.249267578125</ele>
        <time>2003-08-30T10:33:08Z</time>
      </trkpt>
      <trkpt lat="43.753270022571087" lon="10.490610804408789">
        <ele>515.404052734375</ele>
        <time>2003-08-30T10:33:29Z</time>
      </trkpt>
      <trkpt lat="43.753177151083946" lon="10.490680625662208">
        <ele>511.5587158203125</ele>
        <time>2003-08-30T10:33:45Z</time>
      </trkpt>
      <trkpt lat="43.753089811652899" lon="10.490748435258865">
        <ele>506.7520751953125</ele>
        <time>2003-08-30T10:34:04Z</time>
      </trkpt>
      <trkpt lat="43.753021163865924" lon="10.490784645080566">
        <ele>504.8294677734375</ele>
        <time>2003-08-30T10:34:22Z</time>
      </trkpt>
      <trkpt lat="43.752782950177789" lon="10.491873621940613">
        <ele>503.8681640625</ele>
        <time>2003-08-30T10:34:27Z</time>
      </trkpt>
      <trkpt lat="43.752409033477306" lon="10.492789344862103">
        <ele>499.0615234375</ele>
        <time>2003-08-30T10:35:26Z</time>
      </trkpt>
      <trkpt lat="43.752298643812537" lon="10.492703765630722">
        <ele>499.542236328125</ele>
        <time>2003-08-30T10:35:30Z</time>
      </trkpt>
      <trkpt lat="43.75220250338316" lon="10.492627574130893">
        <ele>500.02294921875</ele>
        <time>2003-08-30T10:35:33Z</time>
      </trkpt>
      <trkpt lat="43.752104602754116" lon="10.49257175065577">
        <ele>501.46484375</ele>
        <time>2003-08-30T10:35:37Z</time>
      </trkpt>
      <trkpt lat="43.752013323828578" lon="10.49251701682806">
        <ele>501.46484375</ele>
        <time>2003-08-30T10:35:43Z</time>
      </trkpt>
      <trkpt lat="43.751910896971822" lon="10.49263377673924">
        <ele>490.4097900390625</ele>
        <time>2003-08-30T10:37:00Z</time>
      </trkpt>
      <trkpt lat="43.75067800283432" lon="10.495817810297012">
        <ele>484.1611328125</ele>
        <time>2003-08-30T10:37:30Z</time>
      </trkpt>
      <trkpt lat="43.750808089971542" lon="10.495781768113375">
        <ele>485.60302734375</ele>
        <time>2003-08-30T10:38:56Z</time>
      </trkpt>
      <trkpt lat="43.750477340072393" lon="10.496346037834883">
        <ele>487.0450439453125</ele>
        <time>2003-08-30T10:39:48Z</time>
      </trkpt>
      <trkpt lat="43.750368375331163" lon="10.496430275961757">
        <ele>488.0064697265625</ele>
        <time>2003-08-30T10:39:55Z</time>
      </trkpt>
      <trkpt lat="43.750234264880419" lon="10.496461540460587">
        <ele>488.9677734375</ele>
        <time>2003-08-30T10:40:01Z</time>
      </trkpt>
      <trkpt lat="43.750124210491776" lon="10.496471263468266">
        <ele>488.9677734375</ele>
        <time>2003-08-30T10:40:06Z</time>
      </trkpt>
      <trkpt lat="43.750016335397959" lon="10.496501941233873">
        <ele>489.9290771484375</ele>
        <time>2003-08-30T10:40:11Z</time>
      </trkpt>
      <trkpt lat="43.749898569658399" lon="10.496532116085291">
        <ele>491.3709716796875</ele>
        <time>2003-08-30T10:40:17Z</time>
      </trkpt>
      <trkpt lat="43.749776864424348" lon="10.4965540766716">
        <ele>493.7742919921875</ele>
        <time>2003-08-30T10:40:23Z</time>
      </trkpt>
      <trkpt lat="43.749665133655071" lon="10.496587101370096">
        <ele>492.81298828125</ele>
        <time>2003-08-30T10:40:29Z</time>
      </trkpt>
      <trkpt lat="43.749549463391304" lon="10.496628591790795">
        <ele>493.2935791015625</ele>
        <time>2003-08-30T10:40:35Z</time>
      </trkpt>
      <trkpt lat="43.749442845582962" lon="10.49667720682919">
        <ele>493.7742919921875</ele>
        <time>2003-08-30T10:40:41Z</time>
      </trkpt>
      <trkpt lat="43.749340167269111" lon="10.496715344488621">
        <ele>495.2161865234375</ele>
        <time>2003-08-30T10:40:47Z</time>
      </trkpt>
      <trkpt lat="43.749244026839733" lon="10.496731605380774">
        <ele>494.735595703125</ele>
        <time>2003-08-30T10:40:53Z</time>
      </trkpt>
      <trkpt lat="43.749149478971958" lon="10.496756667271256">
        <ele>496.6583251953125</ele>
        <time>2003-08-30T10:40:59Z</time>
      </trkpt>
      <trkpt lat="43.749054176732898" lon="10.496763121336699">
        <ele>498.5809326171875</ele>
        <time>2003-08-30T10:41:05Z</time>
      </trkpt>
      <trkpt lat="43.748961975798011" lon="10.496772509068251">
        <ele>500.5035400390625</ele>
        <time>2003-08-30T10:41:11Z</time>
      </trkpt>
      <trkpt lat="43.748858878389001" lon="10.496803354471922">
        <ele>500.984130859375</ele>
        <time>2003-08-30T10:41:17Z</time>
      </trkpt>
      <trkpt lat="43.748769359663129" lon="10.49680913798511">
        <ele>499.542236328125</ele>
        <time>2003-08-30T10:41:24Z</time>
      </trkpt>
      <trkpt lat="43.74869903549552" lon="10.496853310614824">
        <ele>499.542236328125</ele>
        <time>2003-08-30T10:41:29Z</time>
      </trkpt>
      <trkpt lat="43.748914618045092" lon="10.496999155730009">
        <ele>500.02294921875</ele>
        <time>2003-08-30T10:41:30Z</time>
      </trkpt>
      <trkpt lat="43.748792493715882" lon="10.497021870687604">
        <ele>500.984130859375</ele>
        <time>2003-08-30T10:41:36Z</time>
      </trkpt>
      <trkpt lat="43.7486707046628" lon="10.497027989476919">
        <ele>501.46484375</ele>
        <time>2003-08-30T10:41:44Z</time>
      </trkpt>
      <trkpt lat="43.748557548969984" lon="10.49707786180079">
        <ele>502.4261474609375</ele>
        <time>2003-08-30T10:41:52Z</time>
      </trkpt>
      <trkpt lat="43.748454451560974" lon="10.497150113806129">
        <ele>502.90673828125</ele>
        <time>2003-08-30T10:41:59Z</time>
      </trkpt>
      <trkpt lat="43.748350767418742" lon="10.497237872332335">
        <ele>503.8681640625</ele>
        <time>2003-08-30T10:42:06Z</time>
      </trkpt>
      <trkpt lat="43.748249430209398" lon="10.497331330552697">
        <ele>503.8681640625</ele>
        <time>2003-08-30T10:42:13Z</time>
      </trkpt>
      <trkpt lat="43.74814591370523" lon="10.497422106564045">
        <ele>506.271484375</ele>
        <time>2003-08-30T10:42:20Z</time>
      </trkpt>
      <trkpt lat="43.748037535697222" lon="10.49753425642848">
        <ele>507.7135009765625</ele>
        <time>2003-08-30T10:42:28Z</time>
      </trkpt>
      <trkpt lat="43.747953465208411" lon="10.497639700770378">
        <ele>509.1553955078125</ele>
        <time>2003-08-30T10:42:35Z</time>
      </trkpt>
      <trkpt lat="43.747861683368683" lon="10.497753359377384">
        <ele>509.6361083984375</ele>
        <time>2003-08-30T10:42:42Z</time>
      </trkpt>
      <trkpt lat="43.747794963419437" lon="10.497840950265527">
        <ele>510.5972900390625</ele>
        <time>2003-08-30T10:42:48Z</time>
      </trkpt>
      <trkpt lat="43.747734194621444" lon="10.497941365465522">
        <ele>512.0394287109375</ele>
        <time>2003-08-30T10:42:54Z</time>
      </trkpt>
      <trkpt lat="43.747669737786055" lon="10.49805804155767">
        <ele>512.52001953125</ele>
        <time>2003-08-30T10:43:00Z</time>
      </trkpt>
      <trkpt lat="43.747613243758678" lon="10.498162563890219">
        <ele>513.4814453125</ele>
        <time>2003-08-30T10:43:06Z</time>
      </trkpt>
      <trkpt lat="43.747555743902922" lon="10.498284604400396">
        <ele>514.442626953125</ele>
        <time>2003-08-30T10:43:13Z</time>
      </trkpt>
      <trkpt lat="43.747477121651173" lon="10.498418463394046">
        <ele>515.8846435546875</ele>
        <time>2003-08-30T10:43:20Z</time>
      </trkpt>
      <trkpt lat="43.747409144416451" lon="10.49854083918035">
        <ele>517.32666015625</ele>
        <time>2003-08-30T10:43:27Z</time>
      </trkpt>
      <trkpt lat="43.74737536534667" lon="10.498633291572332">
        <ele>518.7685546875</ele>
        <time>2003-08-30T10:43:34Z</time>
      </trkpt>
      <trkpt lat="43.747335216030478" lon="10.498738568276167">
        <ele>519.7298583984375</ele>
        <time>2003-08-30T10:43:41Z</time>
      </trkpt>
      <trkpt lat="43.747301604598761" lon="10.498871840536594">
        <ele>521.1719970703125</ele>
        <time>2003-08-30T10:43:47Z</time>
      </trkpt>
      <trkpt lat="43.747317446395755" lon="10.498985080048442">
        <ele>523.5751953125</ele>
        <time>2003-08-30T10:43:54Z</time>
      </trkpt>
      <trkpt lat="43.747238321229815" lon="10.499173756688833">
        <ele>523.0946044921875</ele>
        <time>2003-08-30T10:43:59Z</time>
      </trkpt>
      <trkpt lat="43.747198674827814" lon="10.499281296506524">
        <ele>523.0946044921875</ele>
        <time>2003-08-30T10:44:02Z</time>
      </trkpt>
      <trkpt lat="43.747165566310287" lon="10.499403337016702">
        <ele>523.5751953125</ele>
        <time>2003-08-30T10:44:06Z</time>
      </trkpt>
      <trkpt lat="43.747135810554028" lon="10.499550271779299">
        <ele>524.0557861328125</ele>
        <time>2003-08-30T10:44:11Z</time>
      </trkpt>
      <trkpt lat="43.747123153880239" lon="10.499673737213016">
        <ele>525.0172119140625</ele>
        <time>2003-08-30T10:44:16Z</time>
      </trkpt>
      <trkpt lat="43.747131787240505" lon="10.49980684183538">
        <ele>525.9783935546875</ele>
        <time>2003-08-30T10:44:23Z</time>
      </trkpt>
      <trkpt lat="43.747149221599102" lon="10.499942880123854">
        <ele>527.9010009765625</ele>
        <time>2003-08-30T10:44:30Z</time>
      </trkpt>
      <trkpt lat="43.747154753655195" lon="10.500060226768255">
        <ele>528.3818359375</ele>
        <time>2003-08-30T10:44:36Z</time>
      </trkpt>
      <trkpt lat="43.747145868837833" lon="10.500208754092455">
        <ele>529.82373046875</ele>
        <time>2003-08-30T10:44:42Z</time>
      </trkpt>
      <trkpt lat="43.74714327044785" lon="10.500347642228007">
        <ele>532.22705078125</ele>
        <time>2003-08-30T10:44:48Z</time>
      </trkpt>
      <trkpt lat="43.747147042304277" lon="10.500471191480756">
        <ele>532.707763671875</ele>
        <time>2003-08-30T10:44:54Z</time>
      </trkpt>
      <trkpt lat="43.747134050354362" lon="10.500615276396275">
        <ele>533.6689453125</ele>
        <time>2003-08-30T10:45:00Z</time>
      </trkpt>
      <trkpt lat="43.747130194678903" lon="10.500758020207286">
        <ele>534.63037109375</ele>
        <time>2003-08-30T10:45:06Z</time>
      </trkpt>
      <trkpt lat="43.747121561318636" lon="10.500912666320801">
        <ele>536.0723876953125</ele>
        <time>2003-08-30T10:45:12Z</time>
      </trkpt>
      <trkpt lat="43.747115777805448" lon="10.501047363504767">
        <ele>537.5142822265625</ele>
        <time>2003-08-30T10:45:17Z</time>
      </trkpt>
      <trkpt lat="43.747105719521642" lon="10.50118139013648">
        <ele>537.9949951171875</ele>
        <time>2003-08-30T10:45:22Z</time>
      </trkpt>
      <trkpt lat="43.747100941836834" lon="10.501325307413936">
        <ele>539.4368896484375</ele>
        <time>2003-08-30T10:45:28Z</time>
      </trkpt>
      <trkpt lat="43.747098008170724" lon="10.501459669321775">
        <ele>540.3983154296875</ele>
        <time>2003-08-30T10:45:34Z</time>
      </trkpt>
      <trkpt lat="43.747115023434162" lon="10.50159721635282">
        <ele>540.87890625</ele>
        <time>2003-08-30T10:45:40Z</time>
      </trkpt>
      <trkpt lat="43.747132457792759" lon="10.501735936850309">
        <ele>541.8402099609375</ele>
        <time>2003-08-30T10:45:46Z</time>
      </trkpt>
      <trkpt lat="43.747154669836164" lon="10.501862838864326">
        <ele>543.2821044921875</ele>
        <time>2003-08-30T10:45:52Z</time>
      </trkpt>
      <trkpt lat="43.747182246297598" lon="10.502011701464653">
        <ele>543.2821044921875</ele>
        <time>2003-08-30T10:46:14Z</time>
      </trkpt>
      <trkpt lat="43.747216360643506" lon="10.502147404477">
        <ele>546.166259765625</ele>
        <time>2003-08-30T10:46:19Z</time>
      </trkpt>
      <trkpt lat="43.747264053672552" lon="10.502270786091685">
        <ele>547.12744140625</ele>
        <time>2003-08-30T10:46:24Z</time>
      </trkpt>
      <trkpt lat="43.747317111119628" lon="10.502392156049609">
        <ele>547.608154296875</ele>
        <time>2003-08-30T10:46:29Z</time>
      </trkpt>
      <trkpt lat="43.747363211587071" lon="10.502511681988835">
        <ele>547.608154296875</ele>
        <time>2003-08-30T10:46:34Z</time>
      </trkpt>
      <trkpt lat="43.747413586825132" lon="10.50263112410903">
        <ele>549.53076171875</ele>
        <time>2003-08-30T10:46:39Z</time>
      </trkpt>
      <trkpt lat="43.747467398643494" lon="10.502750063315034">
        <ele>550.011474609375</ele>
        <time>2003-08-30T10:46:44Z</time>
      </trkpt>
      <trkpt lat="43.747525569051504" lon="10.502857938408852">
        <ele>550.97265625</ele>
        <time>2003-08-30T10:46:49Z</time>
      </trkpt>
      <trkpt lat="43.747592037543654" lon="10.502946451306343">
        <ele>552.41455078125</ele>
        <time>2003-08-30T10:46:54Z</time>
      </trkpt>
      <trkpt lat="43.747679209336638" lon="10.503038316965103">
        <ele>553.3759765625</ele>
        <time>2003-08-30T10:47:00Z</time>
      </trkpt>
      <trkpt lat="43.747770572081208" lon="10.503122638911009">
        <ele>553.856689453125</ele>
        <time>2003-08-30T10:47:06Z</time>
      </trkpt>
      <trkpt lat="43.747852547094226" lon="10.503188939765096">
        <ele>554.81787109375</ele>
        <time>2003-08-30T10:47:11Z</time>
      </trkpt>
      <trkpt lat="43.747947262600064" lon="10.503261191770434">
        <ele>554.81787109375</ele>
        <time>2003-08-30T10:47:17Z</time>
      </trkpt>
      <trkpt lat="43.748025884851813" lon="10.503318943083286">
        <ele>556.260009765625</ele>
        <time>2003-08-30T10:47:22Z</time>
      </trkpt>
      <trkpt lat="43.748102160170674" lon="10.503379963338375">
        <ele>557.221435546875</ele>
        <time>2003-08-30T10:47:27Z</time>
      </trkpt>
      <trkpt lat="43.748184889554977" lon="10.503429248929024">
        <ele>557.221435546875</ele>
        <time>2003-08-30T10:47:32Z</time>
      </trkpt>
      <trkpt lat="43.748264266178012" lon="10.503480210900307">
        <ele>558.182861328125</ele>
        <time>2003-08-30T10:47:37Z</time>
      </trkpt>
      <trkpt lat="43.748371973633766" lon="10.503500495105982">
        <ele>559.14404296875</ele>
        <time>2003-08-30T10:47:42Z</time>
      </trkpt>
      <trkpt lat="43.748479429632425" lon="10.503540895879269">
        <ele>559.14404296875</ele>
        <time>2003-08-30T10:47:48Z</time>
      </trkpt>
      <trkpt lat="43.748567774891853" lon="10.503609962761402">
        <ele>560.105224609375</ele>
        <time>2003-08-30T10:47:55Z</time>
      </trkpt>
      <trkpt lat="43.748633237555623" lon="10.503687830641866">
        <ele>560.105224609375</ele>
        <time>2003-08-30T10:48:02Z</time>
      </trkpt>
      <trkpt lat="43.74871177598834" lon="10.503774080425501">
        <ele>562.028076171875</ele>
        <time>2003-08-30T10:48:10Z</time>
      </trkpt>
      <trkpt lat="43.748795427381992" lon="10.503853037953377">
        <ele>561.54736328125</ele>
        <time>2003-08-30T10:48:18Z</time>
      </trkpt>
      <trkpt lat="43.748896680772305" lon="10.503903497010469">
        <ele>563.469970703125</ele>
        <time>2003-08-30T10:48:25Z</time>
      </trkpt>
      <trkpt lat="43.748997179791331" lon="10.503961499780416">
        <ele>565.873291015625</ele>
        <time>2003-08-30T10:48:33Z</time>
      </trkpt>
      <trkpt lat="43.749090554192662" lon="10.504038278013468">
        <ele>564.43115234375</ele>
        <time>2003-08-30T10:48:41Z</time>
      </trkpt>
      <trkpt lat="43.749170182272792" lon="10.50413953140378">
        <ele>565.873291015625</ele>
        <time>2003-08-30T10:48:49Z</time>
      </trkpt>
      <trkpt lat="43.749262299388647" lon="10.504224775359035">
        <ele>566.83447265625</ele>
        <time>2003-08-30T10:48:56Z</time>
      </trkpt>
      <trkpt lat="43.749345699325204" lon="10.504302643239498">
        <ele>567.315185546875</ele>
        <time>2003-08-30T10:49:02Z</time>
      </trkpt>
      <trkpt lat="43.74943446367979" lon="10.504375398159027">
        <ele>568.757080078125</ele>
        <time>2003-08-30T10:49:08Z</time>
      </trkpt>
      <trkpt lat="43.749526077881455" lon="10.504439854994416">
        <ele>567.795654296875</ele>
        <time>2003-08-30T10:49:14Z</time>
      </trkpt>
      <trkpt lat="43.74962892383337" lon="10.504493163898587">
        <ele>568.757080078125</ele>
        <time>2003-08-30T10:49:20Z</time>
      </trkpt>
      <trkpt lat="43.749727578833699" lon="10.504548233002424">
        <ele>571.160400390625</ele>
        <time>2003-08-30T10:49:27Z</time>
      </trkpt>
      <trkpt lat="43.749820031225681" lon="10.504611767828465">
        <ele>575.005859375</ele>
        <time>2003-08-30T10:49:35Z</time>
      </trkpt>
      <trkpt lat="43.749909047037363" lon="10.504673542454839">
        <ele>572.121826171875</ele>
        <time>2003-08-30T10:49:43Z</time>
      </trkpt>
      <trkpt lat="43.750005271285772" lon="10.504721067845821">
        <ele>571.640869140625</ele>
        <time>2003-08-30T10:49:52Z</time>
      </trkpt>
      <trkpt lat="43.750111637637019" lon="10.504753421992064">
        <ele>575.967041015625</ele>
        <time>2003-08-30T10:50:01Z</time>
      </trkpt>
      <trkpt lat="43.750233259052038" lon="10.504772700369358">
        <ele>578.370361328125</ele>
        <time>2003-08-30T10:50:10Z</time>
      </trkpt>
      <trkpt lat="43.750361334532499" lon="10.50484512001276">
        <ele>577.8896484375</ele>
        <time>2003-08-30T10:50:26Z</time>
      </trkpt>
      <trkpt lat="43.750511286780238" lon="10.504916533827782">
        <ele>580.773681640625</ele>
        <time>2003-08-30T10:50:42Z</time>
      </trkpt>
      <trkpt lat="43.75071027316153" lon="10.504931537434459">
        <ele>583.1767578125</ele>
        <time>2003-08-30T10:50:55Z</time>
      </trkpt>
      <trkpt lat="43.75088662840426" lon="10.504928017035127">
        <ele>585.099609375</ele>
        <time>2003-08-30T10:51:05Z</time>
      </trkpt>
      <trkpt lat="43.751102294772863" lon="10.504930280148983">
        <ele>588.46435546875</ele>
        <time>2003-08-30T10:51:18Z</time>
      </trkpt>
      <trkpt lat="43.751409575343132" lon="10.504960371181369">
        <ele>587.9833984375</ele>
        <time>2003-08-30T10:51:55Z</time>
      </trkpt>
      <trkpt lat="43.751580566167831" lon="10.504965065047145">
        <ele>590.867431640625</ele>
        <time>2003-08-30T10:52:04Z</time>
      </trkpt>
      <trkpt lat="43.751741582527757" lon="10.504969004541636">
        <ele>592.790283203125</ele>
        <time>2003-08-30T10:52:12Z</time>
      </trkpt>
      <trkpt lat="43.75188541598618" lon="10.504966992884874">
        <ele>593.270751953125</ele>
        <time>2003-08-30T10:52:20Z</time>
      </trkpt>
      <trkpt lat="43.75204760581255" lon="10.504949474707246">
        <ele>593.75146484375</ele>
        <time>2003-08-30T10:52:27Z</time>
      </trkpt>
      <trkpt lat="43.75221130438149" lon="10.504929944872856">
        <ele>590.386962890625</ele>
        <time>2003-08-30T10:52:34Z</time>
      </trkpt>
      <trkpt lat="43.75250156968832" lon="10.504874121397734">
        <ele>591.828857421875</ele>
        <time>2003-08-30T10:53:09Z</time>
      </trkpt>
      <trkpt lat="43.752604918554425" lon="10.504836402833462">
        <ele>592.3095703125</ele>
        <time>2003-08-30T10:54:14Z</time>
      </trkpt>
      <trkpt lat="43.752591088414192" lon="10.504771275445819">
        <ele>593.270751953125</ele>
        <time>2003-08-30T10:55:33Z</time>
      </trkpt>
      <trkpt lat="43.752624783664942" lon="10.504712266847491">
        <ele>588.46435546875</ele>
        <time>2003-08-30T10:55:47Z</time>
      </trkpt>
      <trkpt lat="43.752663172781467" lon="10.504733808338642">
        <ele>585.099609375</ele>
        <time>2003-08-30T10:56:15Z</time>
      </trkpt>
      <trkpt lat="43.752751434221864" lon="10.504779741168022">
        <ele>587.02197265625</ele>
        <time>2003-08-30T10:56:26Z</time>
      </trkpt>
      <trkpt lat="43.752808347344398" lon="10.504912594333291">
        <ele>591.34814453125</ele>
        <time>2003-08-30T10:57:08Z</time>
      </trkpt>
      <trkpt lat="43.752921503037214" lon="10.504989959299564">
        <ele>594.232177734375</ele>
        <time>2003-08-30T10:57:18Z</time>
      </trkpt>
      <trkpt lat="43.75304245389998" lon="10.505050392821431">
        <ele>595.674072265625</ele>
        <time>2003-08-30T10:57:26Z</time>
      </trkpt>
      <trkpt lat="43.753151837736368" lon="10.505130859091878">
        <ele>597.5966796875</ele>
        <time>2003-08-30T10:57:35Z</time>
      </trkpt>
      <trkpt lat="43.75326968729496" lon="10.505213504657149">
        <ele>600.961181640625</ele>
        <time>2003-08-30T10:57:44Z</time>
      </trkpt>
      <trkpt lat="43.753403378650546" lon="10.50529757514596">
        <ele>600</ele>
        <time>2003-08-30T10:57:52Z</time>
      </trkpt>
      <trkpt lat="43.753495747223496" lon="10.505375945940614">
        <ele>599.03857421875</ele>
        <time>2003-08-30T10:58:00Z</time>
      </trkpt>
      <trkpt lat="43.753606975078583" lon="10.505452305078506">
        <ele>601.922607421875</ele>
        <time>2003-08-30T10:58:07Z</time>
      </trkpt>
      <trkpt lat="43.753720801323652" lon="10.505535118281841">
        <ele>601.922607421875</ele>
        <time>2003-08-30T10:58:13Z</time>
      </trkpt>
      <trkpt lat="43.753875279799104" lon="10.505620362237096">
        <ele>602.403076171875</ele>
        <time>2003-08-30T10:58:19Z</time>
      </trkpt>
      <trkpt lat="43.753976868465543" lon="10.505679035559297">
        <ele>602.403076171875</ele>
        <time>2003-08-30T10:58:24Z</time>
      </trkpt>
      <trkpt lat="43.754096394404769" lon="10.505735613405704">
        <ele>603.364501953125</ele>
        <time>2003-08-30T10:58:29Z</time>
      </trkpt>
      <trkpt lat="43.754251375794411" lon="10.50579889677465">
        <ele>605.287353515625</ele>
        <time>2003-08-30T10:58:35Z</time>
      </trkpt>
      <trkpt lat="43.754366459324956" lon="10.505854468792677">
        <ele>606.729248046875</ele>
        <time>2003-08-30T10:58:40Z</time>
      </trkpt>
      <trkpt lat="43.754490511491895" lon="10.50591959618032">
        <ele>606.729248046875</ele>
        <time>2003-08-30T10:58:45Z</time>
      </trkpt>
      <trkpt lat="43.754602409899235" lon="10.505986316129565">
        <ele>605.76806640625</ele>
        <time>2003-08-30T10:58:50Z</time>
      </trkpt>
      <trkpt lat="43.754721768200397" lon="10.506040211766958">
        <ele>606.24853515625</ele>
        <time>2003-08-30T10:58:54Z</time>
      </trkpt>
      <trkpt lat="43.754821596667171" lon="10.506093772128224">
        <ele>605.76806640625</ele>
        <time>2003-08-30T10:58:58Z</time>
      </trkpt>
      <trkpt lat="43.754958221688867" lon="10.506171053275466">
        <ele>605.76806640625</ele>
        <time>2003-08-30T10:59:03Z</time>
      </trkpt>
      <trkpt lat="43.755084285512567" lon="10.506253615021706">
        <ele>605.76806640625</ele>
        <time>2003-08-30T10:59:08Z</time>
      </trkpt>
      <trkpt lat="43.7552085891366" lon="10.506336763501167">
        <ele>606.729248046875</ele>
        <time>2003-08-30T10:59:13Z</time>
      </trkpt>
      <trkpt lat="43.755324762314558" lon="10.506423600018024">
        <ele>608.65185546875</ele>
        <time>2003-08-30T10:59:18Z</time>
      </trkpt>
      <trkpt lat="43.755459962412715" lon="10.506472885608673">
        <ele>609.132568359375</ele>
        <time>2003-08-30T10:59:23Z</time>
      </trkpt>
      <trkpt lat="43.755592983216047" lon="10.506528792902827">
        <ele>617.7841796875</ele>
        <time>2003-08-30T10:59:29Z</time>
      </trkpt>
      <trkpt lat="43.755924068391323" lon="10.506746973842382">
        <ele>609.132568359375</ele>
        <time>2003-08-30T11:02:52Z</time>
      </trkpt>
      <trkpt lat="43.755996152758598" lon="10.506849568337202">
        <ele>610.574462890625</ele>
        <time>2003-08-30T11:02:58Z</time>
      </trkpt>
      <trkpt lat="43.756087012588978" lon="10.506934141740203">
        <ele>614.419677734375</ele>
        <time>2003-08-30T11:03:04Z</time>
      </trkpt>
      <trkpt lat="43.756169658154249" lon="10.507005974650383">
        <ele>612.0166015625</ele>
        <time>2003-08-30T11:03:09Z</time>
      </trkpt>
      <trkpt lat="43.756237467750907" lon="10.507105467841029">
        <ele>612.977783203125</ele>
        <time>2003-08-30T11:03:15Z</time>
      </trkpt>
      <trkpt lat="43.756205197423697" lon="10.507205883041024">
        <ele>613.45849609375</ele>
        <time>2003-08-30T11:03:53Z</time>
      </trkpt>
      <trkpt lat="43.756088521331549" lon="10.507181072607636">
        <ele>614.900390625</ele>
        <time>2003-08-30T11:04:00Z</time>
      </trkpt>
      <trkpt lat="43.755991542711854" lon="10.507220216095448">
        <ele>614.900390625</ele>
        <time>2003-08-30T11:04:07Z</time>
      </trkpt>
      <trkpt lat="43.755930690094829" lon="10.507313841953874">
        <ele>614.900390625</ele>
        <time>2003-08-30T11:04:11Z</time>
      </trkpt>
      <trkpt lat="43.75585257075727" lon="10.507432278245687">
        <ele>613.45849609375</ele>
        <time>2003-08-30T11:04:16Z</time>
      </trkpt>
      <trkpt lat="43.755777468904853" lon="10.507547277957201">
        <ele>612.4970703125</ele>
        <time>2003-08-30T11:04:21Z</time>
      </trkpt>
      <trkpt lat="43.755712676793337" lon="10.507644005119801">
        <ele>612.4970703125</ele>
        <time>2003-08-30T11:04:25Z</time>
      </trkpt>
      <trkpt lat="43.755643609911203" lon="10.50775439478457">
        <ele>611.535888671875</ele>
        <time>2003-08-30T11:04:29Z</time>
      </trkpt>
      <trkpt lat="43.75556624494493" lon="10.507882805541158">
        <ele>607.690673828125</ele>
        <time>2003-08-30T11:04:33Z</time>
      </trkpt>
      <trkpt lat="43.755494579672813" lon="10.508029824122787">
        <ele>605.76806640625</ele>
        <time>2003-08-30T11:04:37Z</time>
      </trkpt>
      <trkpt lat="43.755106581375003" lon="10.508959461003542">
        <ele>604.806640625</ele>
        <time>2003-08-30T11:04:38Z</time>
      </trkpt>
      <trkpt lat="43.755068024620414" lon="10.509040765464306">
        <ele>603.364501953125</ele>
        <time>2003-08-30T11:04:44Z</time>
      </trkpt>
      <trkpt lat="43.755055451765656" lon="10.509086530655622">
        <ele>604.326171875</ele>
        <time>2003-08-30T11:04:53Z</time>
      </trkpt>
      <trkpt lat="43.755046734586358" lon="10.509179905056953">
        <ele>602.8837890625</ele>
        <time>2003-08-30T11:05:03Z</time>
      </trkpt>
      <trkpt lat="43.755020163953304" lon="10.509280990809202">
        <ele>605.287353515625</ele>
        <time>2003-08-30T11:05:10Z</time>
      </trkpt>
      <trkpt lat="43.75496911816299" lon="10.509405042976141">
        <ele>605.287353515625</ele>
        <time>2003-08-30T11:05:15Z</time>
      </trkpt>
      <trkpt lat="43.754924023523927" lon="10.509513588622212">
        <ele>603.364501953125</ele>
        <time>2003-08-30T11:05:19Z</time>
      </trkpt>
      <trkpt lat="43.754880018532276" lon="10.509625822305679">
        <ele>603.364501953125</ele>
        <time>2003-08-30T11:05:23Z</time>
      </trkpt>
      <trkpt lat="43.754833331331611" lon="10.509739732369781">
        <ele>604.806640625</ele>
        <time>2003-08-30T11:05:27Z</time>
      </trkpt>
      <trkpt lat="43.754795612767339" lon="10.509876357391477">
        <ele>606.729248046875</ele>
        <time>2003-08-30T11:05:32Z</time>
      </trkpt>
      <trkpt lat="43.754755714908242" lon="10.510021196678281">
        <ele>606.729248046875</ele>
        <time>2003-08-30T11:05:37Z</time>
      </trkpt>
      <trkpt lat="43.754719756543636" lon="10.510165197774768">
        <ele>607.2099609375</ele>
        <time>2003-08-30T11:05:42Z</time>
      </trkpt>
      <trkpt lat="43.754678266122937" lon="10.510303750634193">
        <ele>607.2099609375</ele>
        <time>2003-08-30T11:05:46Z</time>
      </trkpt>
      <trkpt lat="43.754640044644475" lon="10.510437693446875">
        <ele>607.2099609375</ele>
        <time>2003-08-30T11:05:50Z</time>
      </trkpt>
      <trkpt lat="43.754600984975696" lon="10.5105693731457">
        <ele>608.17138671875</ele>
        <time>2003-08-30T11:05:54Z</time>
      </trkpt>
      <trkpt lat="43.754548598080873" lon="10.510768610984087">
        <ele>609.132568359375</ele>
        <time>2003-08-30T11:05:58Z</time>
      </trkpt>
      <trkpt lat="43.754506688565016" lon="10.510950833559036">
        <ele>609.132568359375</ele>
        <time>2003-08-30T11:06:01Z</time>
      </trkpt>
      <trkpt lat="43.754475591704249" lon="10.511127943173051">
        <ele>608.65185546875</ele>
        <time>2003-08-30T11:06:04Z</time>
      </trkpt>
      <trkpt lat="43.754451368004084" lon="10.511286864057183">
        <ele>609.132568359375</ele>
        <time>2003-08-30T11:06:07Z</time>
      </trkpt>
      <trkpt lat="43.754434520378709" lon="10.511430613696575">
        <ele>609.132568359375</ele>
        <time>2003-08-30T11:06:10Z</time>
      </trkpt>
      <trkpt lat="43.75441406853497" lon="10.511584253981709">
        <ele>609.132568359375</ele>
        <time>2003-08-30T11:06:13Z</time>
      </trkpt>
      <trkpt lat="43.754385150969028" lon="10.511768823489547">
        <ele>609.61328125</ele>
        <time>2003-08-30T11:06:17Z</time>
      </trkpt>
      <trkpt lat="43.754371488466859" lon="10.511944089084864">
        <ele>610.09375</ele>
        <time>2003-08-30T11:06:21Z</time>
      </trkpt>
      <trkpt lat="43.754374673590064" lon="10.512099321931601">
        <ele>610.574462890625</ele>
        <time>2003-08-30T11:06:25Z</time>
      </trkpt>
      <trkpt lat="43.754389677196741" lon="10.512240221723914">
        <ele>610.09375</ele>
        <time>2003-08-30T11:06:29Z</time>
      </trkpt>
      <trkpt lat="43.754408955574036" lon="10.512404171749949">
        <ele>609.132568359375</ele>
        <time>2003-08-30T11:06:34Z</time>
      </trkpt>
      <trkpt lat="43.754402669146657" lon="10.512547586113214">
        <ele>609.61328125</ele>
        <time>2003-08-30T11:06:38Z</time>
      </trkpt>
      <trkpt lat="43.754402752965689" lon="10.512696448713541">
        <ele>609.61328125</ele>
        <time>2003-08-30T11:06:42Z</time>
      </trkpt>
      <trkpt lat="43.75443309545517" lon="10.512827793136239">
        <ele>610.574462890625</ele>
        <time>2003-08-30T11:06:46Z</time>
      </trkpt>
      <trkpt lat="43.754474921151996" lon="10.51295779645443">
        <ele>611.05517578125</ele>
        <time>2003-08-30T11:06:50Z</time>
      </trkpt>
      <trkpt lat="43.75451322644949" lon="10.5130819324404">
        <ele>611.05517578125</ele>
        <time>2003-08-30T11:06:54Z</time>
      </trkpt>
      <trkpt lat="43.754546418786049" lon="10.513244457542896">
        <ele>611.05517578125</ele>
        <time>2003-08-30T11:06:59Z</time>
      </trkpt>
      <trkpt lat="43.754579443484545" lon="10.513382339850068">
        <ele>610.574462890625</ele>
        <time>2003-08-30T11:07:03Z</time>
      </trkpt>
      <trkpt lat="43.754606181755662" lon="10.51353732123971">
        <ele>609.132568359375</ele>
        <time>2003-08-30T11:07:07Z</time>
      </trkpt>
      <trkpt lat="43.754612132906914" lon="10.513718705624342">
        <ele>609.61328125</ele>
        <time>2003-08-30T11:07:11Z</time>
      </trkpt>
      <trkpt lat="43.754625879228115" lon="10.513867316767573">
        <ele>609.61328125</ele>
        <time>2003-08-30T11:07:14Z</time>
      </trkpt>
      <trkpt lat="43.754654796794057" lon="10.514011150225997">
        <ele>609.61328125</ele>
        <time>2003-08-30T11:07:17Z</time>
      </trkpt>
      <trkpt lat="43.754685306921601" lon="10.514149619266391">
        <ele>609.61328125</ele>
        <time>2003-08-30T11:07:20Z</time>
      </trkpt>
      <trkpt lat="43.754710201174021" lon="10.514273419976234">
        <ele>611.05517578125</ele>
        <time>2003-08-30T11:07:23Z</time>
      </trkpt>
      <trkpt lat="43.754747081547976" lon="10.514398058876395">
        <ele>611.05517578125</ele>
        <time>2003-08-30T11:07:26Z</time>
      </trkpt>
      <trkpt lat="43.75478639267385" lon="10.514533342793584">
        <ele>612.4970703125</ele>
        <time>2003-08-30T11:07:30Z</time>
      </trkpt>
      <trkpt lat="43.754834169521928" lon="10.514653287827969">
        <ele>612.977783203125</ele>
        <time>2003-08-30T11:07:34Z</time>
      </trkpt>
      <trkpt lat="43.754877587780356" lon="10.514775915071368">
        <ele>613.93896484375</ele>
        <time>2003-08-30T11:07:38Z</time>
      </trkpt>
      <trkpt lat="43.754934165626764" lon="10.514889489859343">
        <ele>614.900390625</ele>
        <time>2003-08-30T11:07:42Z</time>
      </trkpt>
      <trkpt lat="43.755003567785025" lon="10.514988312497735">
        <ele>615.86181640625</ele>
        <time>2003-08-30T11:07:46Z</time>
      </trkpt>
      <trkpt lat="43.755114795640111" lon="10.515071209520102">
        <ele>616.822998046875</ele>
        <time>2003-08-30T11:07:51Z</time>
      </trkpt>
      <trkpt lat="43.75521982088685" lon="10.515140779316425">
        <ele>617.3037109375</ele>
        <time>2003-08-30T11:07:56Z</time>
      </trkpt>
      <trkpt lat="43.755308585241437" lon="10.515203811228275">
        <ele>617.3037109375</ele>
        <time>2003-08-30T11:08:00Z</time>
      </trkpt>
      <trkpt lat="43.75540304929018" lon="10.515277739614248">
        <ele>617.3037109375</ele>
        <time>2003-08-30T11:08:04Z</time>
      </trkpt>
      <trkpt lat="43.755480665713549" lon="10.51536432467401">
        <ele>617.7841796875</ele>
        <time>2003-08-30T11:08:08Z</time>
      </trkpt>
      <trkpt lat="43.755555935204029" lon="10.515452083200216">
        <ele>617.3037109375</ele>
        <time>2003-08-30T11:08:12Z</time>
      </trkpt>
      <trkpt lat="43.755620056763291" lon="10.51554361358285">
        <ele>617.3037109375</ele>
        <time>2003-08-30T11:08:16Z</time>
      </trkpt>
      <trkpt lat="43.755683423951268" lon="10.515649141743779">
        <ele>616.822998046875</ele>
        <time>2003-08-30T11:08:20Z</time>
      </trkpt>
      <trkpt lat="43.755741091445088" lon="10.515762800350785">
        <ele>616.34228515625</ele>
        <time>2003-08-30T11:08:24Z</time>
      </trkpt>
      <trkpt lat="43.755782330408692" lon="10.515883415937424">
        <ele>614.900390625</ele>
        <time>2003-08-30T11:08:28Z</time>
      </trkpt>
      <trkpt lat="43.755821557715535" lon="10.51600931212306">
        <ele>614.900390625</ele>
        <time>2003-08-30T11:08:32Z</time>
      </trkpt>
      <trkpt lat="43.755854582414031" lon="10.516144009307027">
        <ele>614.900390625</ele>
        <time>2003-08-30T11:08:36Z</time>
      </trkpt>
      <trkpt lat="43.75589900650084" lon="10.516286669299006">
        <ele>614.419677734375</ele>
        <time>2003-08-30T11:08:40Z</time>
      </trkpt>
      <trkpt lat="43.755927504971623" lon="10.516421115025878">
        <ele>614.419677734375</ele>
        <time>2003-08-30T11:08:44Z</time>
      </trkpt>
      <trkpt lat="43.755966648459435" lon="10.516547430306673">
        <ele>614.419677734375</ele>
        <time>2003-08-30T11:08:48Z</time>
      </trkpt>
      <trkpt lat="43.75600503757596" lon="10.516675589606166">
        <ele>613.93896484375</ele>
        <time>2003-08-30T11:08:52Z</time>
      </trkpt>
      <trkpt lat="43.756036469712853" lon="10.516802743077278">
        <ele>614.419677734375</ele>
        <time>2003-08-30T11:08:56Z</time>
      </trkpt>
      <trkpt lat="43.756087264046073" lon="10.51693576388061">
        <ele>614.900390625</ele>
        <time>2003-08-30T11:09:00Z</time>
      </trkpt>
      <trkpt lat="43.756129927933216" lon="10.517059061676264">
        <ele>614.900390625</ele>
        <time>2003-08-30T11:09:04Z</time>
      </trkpt>
      <trkpt lat="43.756172675639391" lon="10.517182275652885">
        <ele>615.381103515625</ele>
        <time>2003-08-30T11:09:08Z</time>
      </trkpt>
      <trkpt lat="43.756215423345566" lon="10.517305573448539">
        <ele>614.900390625</ele>
        <time>2003-08-30T11:09:12Z</time>
      </trkpt>
      <trkpt lat="43.756252052262425" lon="10.517439935356379">
        <ele>614.900390625</ele>
        <time>2003-08-30T11:09:16Z</time>
      </trkpt>
      <trkpt lat="43.75628893263638" lon="10.51756071858108">
        <ele>614.900390625</ele>
        <time>2003-08-30T11:09:20Z</time>
      </trkpt>
      <trkpt lat="43.756325729191303" lon="10.517681501805782">
        <ele>614.900390625</ele>
        <time>2003-08-30T11:09:24Z</time>
      </trkpt>
      <trkpt lat="43.756347773596644" lon="10.517804548144341">
        <ele>613.93896484375</ele>
        <time>2003-08-30T11:09:28Z</time>
      </trkpt>
      <trkpt lat="43.756230929866433" lon="10.517906555905938">
        <ele>613.93896484375</ele>
        <time>2003-08-30T11:09:31Z</time>
      </trkpt>
      <trkpt lat="43.756124479696155" lon="10.518034715205431">
        <ele>613.45849609375</ele>
        <time>2003-08-30T11:09:34Z</time>
      </trkpt>
      <trkpt lat="43.75607343390584" lon="10.518147367984056">
        <ele>612.4970703125</ele>
        <time>2003-08-30T11:09:37Z</time>
      </trkpt>
      <trkpt lat="43.756017694249749" lon="10.518275108188391">
        <ele>612.0166015625</ele>
        <time>2003-08-30T11:09:40Z</time>
      </trkpt>
      <trkpt lat="43.755977461114526" lon="10.518435202538967">
        <ele>612.977783203125</ele>
        <time>2003-08-30T11:09:45Z</time>
      </trkpt>
      <trkpt lat="43.755934126675129" lon="10.518577275797725">
        <ele>613.93896484375</ele>
        <time>2003-08-30T11:09:51Z</time>
      </trkpt>
      <trkpt lat="43.755916524678469" lon="10.518722701817751">
        <ele>616.34228515625</ele>
        <time>2003-08-30T11:09:59Z</time>
      </trkpt>
      <trkpt lat="43.755905376747251" lon="10.518874917179346">
        <ele>617.7841796875</ele>
        <time>2003-08-30T11:10:07Z</time>
      </trkpt>
      <trkpt lat="43.755901185795665" lon="10.519025791436434">
        <ele>619.70703125</ele>
        <time>2003-08-30T11:10:15Z</time>
      </trkpt>
      <trkpt lat="43.755936222150922" lon="10.519167864695191">
        <ele>621.629638671875</ele>
        <time>2003-08-30T11:10:23Z</time>
      </trkpt>
      <trkpt lat="43.755988525226712" lon="10.51929778419435">
        <ele>622.591064453125</ele>
        <time>2003-08-30T11:10:30Z</time>
      </trkpt>
      <trkpt lat="43.756052479147911" lon="10.519394259899855">
        <ele>622.591064453125</ele>
        <time>2003-08-30T11:10:36Z</time>
      </trkpt>
      <trkpt lat="43.756116013973951" lon="10.519508756697178">
        <ele>621.629638671875</ele>
        <time>2003-08-30T11:10:42Z</time>
      </trkpt>
      <trkpt lat="43.756185499951243" lon="10.519636664539576">
        <ele>622.591064453125</ele>
        <time>2003-08-30T11:10:48Z</time>
      </trkpt>
      <trkpt lat="43.75621902756393" lon="10.519766584038734">
        <ele>620.66845703125</ele>
        <time>2003-08-30T11:10:53Z</time>
      </trkpt>
      <trkpt lat="43.756234031170607" lon="10.519927265122533">
        <ele>620.66845703125</ele>
        <time>2003-08-30T11:10:57Z</time>
      </trkpt>
      <trkpt lat="43.756242915987968" lon="10.520089454948902">
        <ele>620.66845703125</ele>
        <time>2003-08-30T11:11:01Z</time>
      </trkpt>
      <trkpt lat="43.75625716522336" lon="10.52026329562068">
        <ele>620.66845703125</ele>
        <time>2003-08-30T11:11:05Z</time>
      </trkpt>
      <trkpt lat="43.75627770088613" lon="10.52043923176825">
        <ele>622.1103515625</ele>
        <time>2003-08-30T11:11:09Z</time>
      </trkpt>
      <trkpt lat="43.756306869909167" lon="10.520591363310814">
        <ele>623.07177734375</ele>
        <time>2003-08-30T11:11:13Z</time>
      </trkpt>
      <trkpt lat="43.756316257640719" lon="10.520752128213644">
        <ele>623.07177734375</ele>
        <time>2003-08-30T11:11:17Z</time>
      </trkpt>
      <trkpt lat="43.756311228498816" lon="10.520902331918478">
        <ele>622.591064453125</ele>
        <time>2003-08-30T11:11:21Z</time>
      </trkpt>
      <trkpt lat="43.756289519369602" lon="10.521058151498437">
        <ele>621.149169921875</ele>
        <time>2003-08-30T11:11:25Z</time>
      </trkpt>
      <trkpt lat="43.756267726421356" lon="10.521213971078396">
        <ele>620.66845703125</ele>
        <time>2003-08-30T11:11:29Z</time>
      </trkpt>
      <trkpt lat="43.756230259314179" lon="10.521363504230976">
        <ele>620.66845703125</ele>
        <time>2003-08-30T11:11:32Z</time>
      </trkpt>
      <trkpt lat="43.756183907389641" lon="10.521515300497413">
        <ele>620.187744140625</ele>
        <time>2003-08-30T11:11:35Z</time>
      </trkpt>
      <trkpt lat="43.756122216582298" lon="10.521681932732463">
        <ele>619.70703125</ele>
        <time>2003-08-30T11:11:38Z</time>
      </trkpt>
      <trkpt lat="43.756041834130883" lon="10.52185527049005">
        <ele>619.226318359375</ele>
        <time>2003-08-30T11:11:41Z</time>
      </trkpt>
      <trkpt lat="43.755948795005679" lon="10.52201896905899">
        <ele>617.7841796875</ele>
        <time>2003-08-30T11:11:44Z</time>
      </trkpt>
      <trkpt lat="43.755777049809694" lon="10.522195240482688">
        <ele>616.822998046875</ele>
        <time>2003-08-30T11:11:56Z</time>
      </trkpt>
      <trkpt lat="43.755642604082823" lon="10.522315185517073">
        <ele>612.4970703125</ele>
        <time>2003-08-30T11:12:02Z</time>
      </trkpt>
      <trkpt lat="43.755511678755283" lon="10.522411158308387">
        <ele>610.09375</ele>
        <time>2003-08-30T11:12:07Z</time>
      </trkpt>
      <trkpt lat="43.75540841370821" lon="10.522492378950119">
        <ele>607.690673828125</ele>
        <time>2003-08-30T11:12:11Z</time>
      </trkpt>
      <trkpt lat="43.755275728181005" lon="10.522628165781498">
        <ele>606.729248046875</ele>
        <time>2003-08-30T11:12:15Z</time>
      </trkpt>
      <trkpt lat="43.755192495882511" lon="10.522716427221894">
        <ele>606.24853515625</ele>
        <time>2003-08-30T11:12:18Z</time>
      </trkpt>
      <trkpt lat="43.75504732131958" lon="10.522855566814542">
        <ele>606.729248046875</ele>
        <time>2003-08-30T11:12:22Z</time>
      </trkpt>
      <trkpt lat="43.754926202818751" lon="10.522938799113035">
        <ele>607.2099609375</ele>
        <time>2003-08-30T11:12:25Z</time>
      </trkpt>
      <trkpt lat="43.75483232550323" lon="10.523003004491329">
        <ele>608.17138671875</ele>
        <time>2003-08-30T11:12:28Z</time>
      </trkpt>
      <trkpt lat="43.75465982593596" lon="10.523259826004505">
        <ele>609.132568359375</ele>
        <time>2003-08-30T11:14:43Z</time>
      </trkpt>
      <trkpt lat="43.754742722958326" lon="10.523270051926374">
        <ele>611.535888671875</ele>
        <time>2003-08-30T11:14:57Z</time>
      </trkpt>
      <trkpt lat="43.754850430414081" lon="10.523295532912016">
        <ele>611.535888671875</ele>
        <time>2003-08-30T11:15:13Z</time>
      </trkpt>
      <trkpt lat="43.754942547529936" lon="10.523348255082965">
        <ele>612.977783203125</ele>
        <time>2003-08-30T11:15:26Z</time>
      </trkpt>
      <trkpt lat="43.755026366561651" lon="10.523406425490975">
        <ele>614.419677734375</ele>
        <time>2003-08-30T11:15:33Z</time>
      </trkpt>
      <trkpt lat="43.755115047097206" lon="10.523473983630538">
        <ele>612.4970703125</ele>
        <time>2003-08-30T11:15:39Z</time>
      </trkpt>
      <trkpt lat="43.755215378478169" lon="10.523556629195809">
        <ele>613.45849609375</ele>
        <time>2003-08-30T11:15:46Z</time>
      </trkpt>
      <trkpt lat="43.755308585241437" lon="10.52362997084856">
        <ele>614.900390625</ele>
        <time>2003-08-30T11:15:52Z</time>
      </trkpt>
      <trkpt lat="43.755413275212049" lon="10.523700127378106">
        <ele>614.900390625</ele>
        <time>2003-08-30T11:15:58Z</time>
      </trkpt>
      <trkpt lat="43.755505979061127" lon="10.52375846542418">
        <ele>614.419677734375</ele>
        <time>2003-08-30T11:16:03Z</time>
      </trkpt>
      <trkpt lat="43.755607148632407" lon="10.523825269192457">
        <ele>613.93896484375</ele>
        <time>2003-08-30T11:16:08Z</time>
      </trkpt>
      <trkpt lat="43.755716867744923" lon="10.523889977484941">
        <ele>614.419677734375</ele>
        <time>2003-08-30T11:16:13Z</time>
      </trkpt>
      <trkpt lat="43.755808901041746" lon="10.52394513040781">
        <ele>614.419677734375</ele>
        <time>2003-08-30T11:16:17Z</time>
      </trkpt>
      <trkpt lat="43.755911998450756" lon="10.523988464847207">
        <ele>615.381103515625</ele>
        <time>2003-08-30T11:16:21Z</time>
      </trkpt>
      <trkpt lat="43.756007552146912" lon="10.52403599023819">
        <ele>615.381103515625</ele>
        <time>2003-08-30T11:16:25Z</time>
      </trkpt>
      <trkpt lat="43.756111655384302" lon="10.524092903360724">
        <ele>615.86181640625</ele>
        <time>2003-08-30T11:16:30Z</time>
      </trkpt>
      <trkpt lat="43.756214417517185" lon="10.524142356589437">
        <ele>617.3037109375</ele>
        <time>2003-08-30T11:16:35Z</time>
      </trkpt>
      <trkpt lat="43.75632019713521" lon="10.524194911122322">
        <ele>617.7841796875</ele>
        <time>2003-08-30T11:16:40Z</time>
      </trkpt>
      <trkpt lat="43.75643402338028" lon="10.524250818416476">
        <ele>617.3037109375</ele>
        <time>2003-08-30T11:16:45Z</time>
      </trkpt>
      <trkpt lat="43.756535444408655" lon="10.524314101785421">
        <ele>617.3037109375</ele>
        <time>2003-08-30T11:16:50Z</time>
      </trkpt>
      <trkpt lat="43.756653210148215" lon="10.524377217516303">
        <ele>617.3037109375</ele>
        <time>2003-08-30T11:16:55Z</time>
      </trkpt>
      <trkpt lat="43.756759827956557" lon="10.524430191144347">
        <ele>617.7841796875</ele>
        <time>2003-08-30T11:17:00Z</time>
      </trkpt>
      <trkpt lat="43.756858985871077" lon="10.524459946900606">
        <ele>618.74560546875</ele>
        <time>2003-08-30T11:17:06Z</time>
      </trkpt>
      <trkpt lat="43.756960825994611" lon="10.524485846981406">
        <ele>619.226318359375</ele>
        <time>2003-08-30T11:17:12Z</time>
      </trkpt>
      <trkpt lat="43.75706191174686" lon="10.524515686556697">
        <ele>620.187744140625</ele>
        <time>2003-08-30T11:17:18Z</time>
      </trkpt>
      <trkpt lat="43.757171127945185" lon="10.524536222219467">
        <ele>619.70703125</ele>
        <time>2003-08-30T11:17:24Z</time>
      </trkpt>
      <trkpt lat="43.75726961530745" lon="10.524548124521971">
        <ele>619.70703125</ele>
        <time>2003-08-30T11:17:29Z</time>
      </trkpt>
      <trkpt lat="43.757369024679065" lon="10.524565223604441">
        <ele>620.187744140625</ele>
        <time>2003-08-30T11:17:34Z</time>
      </trkpt>
      <trkpt lat="43.757455861195922" lon="10.524598332121968">
        <ele>621.149169921875</ele>
        <time>2003-08-30T11:17:39Z</time>
      </trkpt>
      <trkpt lat="43.757559293881059" lon="10.524657340720296">
        <ele>621.149169921875</ele>
        <time>2003-08-30T11:17:45Z</time>
      </trkpt>
      <trkpt lat="43.757653422653675" lon="10.524706039577723">
        <ele>621.149169921875</ele>
        <time>2003-08-30T11:17:50Z</time>
      </trkpt>
      <trkpt lat="43.757746797055006" lon="10.524765718728304">
        <ele>622.1103515625</ele>
        <time>2003-08-30T11:17:55Z</time>
      </trkpt>
      <trkpt lat="43.757842518389225" lon="10.524863284081221">
        <ele>622.591064453125</ele>
        <time>2003-08-30T11:18:00Z</time>
      </trkpt>
      <trkpt lat="43.757936479523778" lon="10.524935452267528">
        <ele>622.591064453125</ele>
        <time>2003-08-30T11:18:04Z</time>
      </trkpt>
      <trkpt lat="43.758007222786546" lon="10.525033017620444">
        <ele>623.07177734375</ele>
        <time>2003-08-30T11:18:08Z</time>
      </trkpt>
      <trkpt lat="43.758058352395892" lon="10.525180036202073">
        <ele>623.552490234375</ele>
        <time>2003-08-30T11:18:13Z</time>
      </trkpt>
      <trkpt lat="43.758117444813251" lon="10.525326803326607">
        <ele>624.513671875</ele>
        <time>2003-08-30T11:18:18Z</time>
      </trkpt>
      <trkpt lat="43.758181650191545" lon="10.525467451661825">
        <ele>624.513671875</ele>
        <time>2003-08-30T11:18:23Z</time>
      </trkpt>
      <trkpt lat="43.758239820599556" lon="10.525594353675842">
        <ele>626.436279296875</ele>
        <time>2003-08-30T11:18:28Z</time>
      </trkpt>
      <trkpt lat="43.75830352306366" lon="10.525724440813065">
        <ele>627.397705078125</ele>
        <time>2003-08-30T11:18:33Z</time>
      </trkpt>
      <trkpt lat="43.758370243012905" lon="10.52584832534194">
        <ele>627.878173828125</ele>
        <time>2003-08-30T11:18:38Z</time>
      </trkpt>
      <trkpt lat="43.758457163348794" lon="10.52593139000237">
        <ele>628.839599609375</ele>
        <time>2003-08-30T11:18:43Z</time>
      </trkpt>
      <trkpt lat="43.758542323485017" lon="10.526003977283835">
        <ele>628.839599609375</ele>
        <time>2003-08-30T11:18:48Z</time>
      </trkpt>
      <trkpt lat="43.758619856089354" lon="10.526117384433746">
        <ele>629.320068359375</ele>
        <time>2003-08-30T11:18:54Z</time>
      </trkpt>
      <trkpt lat="43.758631255477667" lon="10.526236407458782">
        <ele>628.839599609375</ele>
        <time>2003-08-30T11:18:59Z</time>
      </trkpt>
      <trkpt lat="43.75859864987433" lon="10.526400860399008">
        <ele>627.397705078125</ele>
        <time>2003-08-30T11:19:04Z</time>
      </trkpt>
      <trkpt lat="43.758568307384849" lon="10.526548130437732">
        <ele>626.436279296875</ele>
        <time>2003-08-30T11:19:08Z</time>
      </trkpt>
      <trkpt lat="43.758507873862982" lon="10.52672297693789">
        <ele>624.513671875</ele>
        <time>2003-08-30T11:19:12Z</time>
      </trkpt>
      <trkpt lat="43.758412906900048" lon="10.526886256411672">
        <ele>623.552490234375</ele>
        <time>2003-08-30T11:19:15Z</time>
      </trkpt>
      <trkpt lat="43.758313665166497" lon="10.527040986344218">
        <ele>623.07177734375</ele>
        <time>2003-08-30T11:19:17Z</time>
      </trkpt>
      <trkpt lat="43.758229091763496" lon="10.527196973562241">
        <ele>623.07177734375</ele>
        <time>2003-08-30T11:19:19Z</time>
      </trkpt>
      <trkpt lat="43.758159857243299" lon="10.527342231944203">
        <ele>622.591064453125</ele>
        <time>2003-08-30T11:19:21Z</time>
      </trkpt>
      <trkpt lat="43.758077882230282" lon="10.527540296316147">
        <ele>622.1103515625</ele>
        <time>2003-08-30T11:19:24Z</time>
      </trkpt>
      <trkpt lat="43.758013341575861" lon="10.527692679315805">
        <ele>622.591064453125</ele>
        <time>2003-08-30T11:19:27Z</time>
      </trkpt>
      <trkpt lat="43.757962044328451" lon="10.527837350964546">
        <ele>623.552490234375</ele>
        <time>2003-08-30T11:19:31Z</time>
      </trkpt>
      <trkpt lat="43.757916111499071" lon="10.528004821389914">
        <ele>623.552490234375</ele>
        <time>2003-08-30T11:19:37Z</time>
      </trkpt>
      <trkpt lat="43.757889457046986" lon="10.528167262673378">
        <ele>622.1103515625</ele>
        <time>2003-08-30T11:19:43Z</time>
      </trkpt>
      <trkpt lat="43.757915105670691" lon="10.528311934322119">
        <ele>621.629638671875</ele>
        <time>2003-08-30T11:19:49Z</time>
      </trkpt>
      <trkpt lat="43.757957937195897" lon="10.528455097228289">
        <ele>622.591064453125</ele>
        <time>2003-08-30T11:19:56Z</time>
      </trkpt>
      <trkpt lat="43.757999259978533" lon="10.528595494106412">
        <ele>624.994384765625</ele>
        <time>2003-08-30T11:20:03Z</time>
      </trkpt>
      <trkpt lat="43.758050976321101" lon="10.528716780245304">
        <ele>625.95556640625</ele>
        <time>2003-08-30T11:20:09Z</time>
      </trkpt>
      <trkpt lat="43.758104033768177" lon="10.528850806877017">
        <ele>626.9169921875</ele>
        <time>2003-08-30T11:20:16Z</time>
      </trkpt>
      <trkpt lat="43.758167568594217" lon="10.528969578444958">
        <ele>628.35888671875</ele>
        <time>2003-08-30T11:20:22Z</time>
      </trkpt>
      <trkpt lat="43.758224984630942" lon="10.529086254537106">
        <ele>628.839599609375</ele>
        <time>2003-08-30T11:20:28Z</time>
      </trkpt>
      <trkpt lat="43.758271252736449" lon="10.529221538454294">
        <ele>630.281494140625</ele>
        <time>2003-08-30T11:20:35Z</time>
      </trkpt>
      <trkpt lat="43.758291369304061" lon="10.529368557035923">
        <ele>629.80078125</ele>
        <time>2003-08-30T11:20:41Z</time>
      </trkpt>
      <trkpt lat="43.75831768848002" lon="10.529490681365132">
        <ele>630.76220703125</ele>
        <time>2003-08-30T11:20:46Z</time>
      </trkpt>
      <trkpt lat="43.758357334882021" lon="10.529609201475978">
        <ele>631.242919921875</ele>
        <time>2003-08-30T11:20:51Z</time>
      </trkpt>
      <trkpt lat="43.758387677371502" lon="10.529744317755103">
        <ele>632.2041015625</ele>
        <time>2003-08-30T11:20:56Z</time>
      </trkpt>
      <trkpt lat="43.758434029296041" lon="10.529864178970456">
        <ele>632.2041015625</ele>
        <time>2003-08-30T11:21:01Z</time>
      </trkpt>
      <trkpt lat="43.758454481139779" lon="10.529996696859598">
        <ele>632.2041015625</ele>
        <time>2003-08-30T11:21:07Z</time>
      </trkpt>
      <trkpt lat="43.758438806980848" lon="10.530141117051244">
        <ele>632.684814453125</ele>
        <time>2003-08-30T11:21:15Z</time>
      </trkpt>
      <trkpt lat="43.75842958688736" lon="10.530293751507998">
        <ele>634.607421875</ele>
        <time>2003-08-30T11:21:23Z</time>
      </trkpt>
      <trkpt lat="43.758430005982518" lon="10.530428783968091">
        <ele>636.049560546875</ele>
        <time>2003-08-30T11:21:30Z</time>
      </trkpt>
      <trkpt lat="43.758434783667326" lon="10.53057873621583">
        <ele>638.452880859375</ele>
        <time>2003-08-30T11:21:37Z</time>
      </trkpt>
      <trkpt lat="43.758428664878011" lon="10.530727095901966">
        <ele>638.93359375</ele>
        <time>2003-08-30T11:21:44Z</time>
      </trkpt>
      <trkpt lat="43.758411146700382" lon="10.530866486951709">
        <ele>640.37548828125</ele>
        <time>2003-08-30T11:21:51Z</time>
      </trkpt>
      <trkpt lat="43.758367728441954" lon="10.53102289326489">
        <ele>641.336669921875</ele>
        <time>2003-08-30T11:21:59Z</time>
      </trkpt>
      <trkpt lat="43.75832992605865" lon="10.531161446124315">
        <ele>641.336669921875</ele>
        <time>2003-08-30T11:22:07Z</time>
      </trkpt>
      <trkpt lat="43.75827225856483" lon="10.531299663707614">
        <ele>640.85595703125</ele>
        <time>2003-08-30T11:22:15Z</time>
      </trkpt>
      <trkpt lat="43.758192043751478" lon="10.531452465802431">
        <ele>641.8173828125</ele>
        <time>2003-08-30T11:22:24Z</time>
      </trkpt>
      <trkpt lat="43.758110571652651" lon="10.531583307310939">
        <ele>641.8173828125</ele>
        <time>2003-08-30T11:22:32Z</time>
      </trkpt>
      <trkpt lat="43.758013006299734" lon="10.531689841300249">
        <ele>643.739990234375</ele>
        <time>2003-08-30T11:22:40Z</time>
      </trkpt>
      <trkpt lat="43.757904376834631" lon="10.531773995608091">
        <ele>645.181884765625</ele>
        <time>2003-08-30T11:22:48Z</time>
      </trkpt>
      <trkpt lat="43.757791891694069" lon="10.531858904287219">
        <ele>646.143310546875</ele>
        <time>2003-08-30T11:22:56Z</time>
      </trkpt>
      <trkpt lat="43.757692566141486" lon="10.531957140192389">
        <ele>647.1044921875</ele>
        <time>2003-08-30T11:23:06Z</time>
      </trkpt>
      <trkpt lat="43.757605059072375" lon="10.532110445201397">
        <ele>649.027099609375</ele>
        <time>2003-08-30T11:23:17Z</time>
      </trkpt>
      <trkpt lat="43.757529286667705" lon="10.532241454347968">
        <ele>649.988525390625</ele>
        <time>2003-08-30T11:23:25Z</time>
      </trkpt>
      <trkpt lat="43.757462650537491" lon="10.532395849004388">
        <ele>650.94970703125</ele>
        <time>2003-08-30T11:23:33Z</time>
      </trkpt>
      <trkpt lat="43.757390649989247" lon="10.532543705776334">
        <ele>651.9111328125</ele>
        <time>2003-08-30T11:23:41Z</time>
      </trkpt>
      <trkpt lat="43.757326444610953" lon="10.5326939933002">
        <ele>653.353271484375</ele>
        <time>2003-08-30T11:23:50Z</time>
      </trkpt>
      <trkpt lat="43.757232064381242" lon="10.532819135114551">
        <ele>656.237060546875</ele>
        <time>2003-08-30T11:23:59Z</time>
      </trkpt>
      <trkpt lat="43.757164757698774" lon="10.532954838126898">
        <ele>657.198486328125</ele>
        <time>2003-08-30T11:24:07Z</time>
      </trkpt>
      <trkpt lat="43.757126787677407" lon="10.533112669363618">
        <ele>659.12109375</ele>
        <time>2003-08-30T11:24:15Z</time>
      </trkpt>
      <trkpt lat="43.757097953930497" lon="10.533255999907851">
        <ele>659.601806640625</ele>
        <time>2003-08-30T11:24:23Z</time>
      </trkpt>
      <trkpt lat="43.757061995565891" lon="10.533399665728211">
        <ele>660.082275390625</ele>
        <time>2003-08-30T11:24:31Z</time>
      </trkpt>
      <trkpt lat="43.75701748766005" lon="10.533530842512846">
        <ele>661.043701171875</ele>
        <time>2003-08-30T11:24:38Z</time>
      </trkpt>
      <trkpt lat="43.756987061351538" lon="10.533663276582956">
        <ele>661.043701171875</ele>
        <time>2003-08-30T11:24:45Z</time>
      </trkpt>
      <trkpt lat="43.756969878450036" lon="10.533797387033701">
        <ele>662.485595703125</ele>
        <time>2003-08-30T11:24:52Z</time>
      </trkpt>
      <trkpt lat="43.756959233433008" lon="10.533934850245714">
        <ele>663.447021484375</ele>
        <time>2003-08-30T11:25:00Z</time>
      </trkpt>
      <trkpt lat="43.756944062188268" lon="10.534080192446709">
        <ele>666.8115234375</ele>
        <time>2003-08-30T11:25:09Z</time>
      </trkpt>
      <trkpt lat="43.756888406351209" lon="10.534206759184599">
        <ele>667.772705078125</ele>
        <time>2003-08-30T11:25:19Z</time>
      </trkpt>
      <trkpt lat="43.756727306172252" lon="10.534363836050034">
        <ele>668.734375</ele>
        <time>2003-08-30T11:26:19Z</time>
      </trkpt>
      <trkpt lat="43.756664609536529" lon="10.534509345889091">
        <ele>669.69580078125</ele>
        <time>2003-08-30T11:26:31Z</time>
      </trkpt>
      <trkpt lat="43.756608115509152" lon="10.534634739160538">
        <ele>670.656982421875</ele>
        <time>2003-08-30T11:26:40Z</time>
      </trkpt>
      <trkpt lat="43.756533516570926" lon="10.534750409424305">
        <ele>674.021484375</ele>
        <time>2003-08-30T11:26:56Z</time>
      </trkpt>
      <trkpt lat="43.756457911804318" lon="10.534895332530141">
        <ele>676.4248046875</ele>
        <time>2003-08-30T11:27:09Z</time>
      </trkpt>
      <trkpt lat="43.75630502589047" lon="10.53501502610743">
        <ele>679.30859375</ele>
        <time>2003-08-30T11:27:37Z</time>
      </trkpt>
      <trkpt lat="43.756193295121193" lon="10.535116363316774">
        <ele>681.2314453125</ele>
        <time>2003-08-30T11:27:54Z</time>
      </trkpt>
      <trkpt lat="43.756091790273786" lon="10.535186268389225">
        <ele>683.15380859375</ele>
        <time>2003-08-30T11:28:07Z</time>
      </trkpt>
      <trkpt lat="43.755997242406011" lon="10.535263800993562">
        <ele>684.115478515625</ele>
        <time>2003-08-30T11:28:18Z</time>
      </trkpt>
      <trkpt lat="43.755901521071792" lon="10.535335801541805">
        <ele>684.59619140625</ele>
        <time>2003-08-30T11:28:30Z</time>
      </trkpt>
      <trkpt lat="43.755851732566953" lon="10.53546940907836">
        <ele>687.47998046875</ele>
        <time>2003-08-30T11:28:44Z</time>
      </trkpt>
      <trkpt lat="43.755805967375636" lon="10.535611230880022">
        <ele>688.44140625</ele>
        <time>2003-08-30T11:28:57Z</time>
      </trkpt>
      <trkpt lat="43.755778390914202" lon="10.535730924457312">
        <ele>689.88330078125</ele>
        <time>2003-08-30T11:29:10Z</time>
      </trkpt>
      <trkpt lat="43.755759112536907" lon="10.535870566964149">
        <ele>691.805908203125</ele>
        <time>2003-08-30T11:29:23Z</time>
      </trkpt>
      <trkpt lat="43.755710748955607" lon="10.53600593470037">
        <ele>693.728515625</ele>
        <time>2003-08-30T11:29:36Z</time>
      </trkpt>
      <trkpt lat="43.755792891606688" lon="10.536114815622568">
        <ele>694.209228515625</ele>
        <time>2003-08-30T11:31:09Z</time>
      </trkpt>
      <trkpt lat="43.755884421989322" lon="10.53612319752574">
        <ele>696.1318359375</ele>
        <time>2003-08-30T11:31:20Z</time>
      </trkpt>
      <trkpt lat="43.755972264334559" lon="10.536116994917393">
        <ele>697.57373046875</ele>
        <time>2003-08-30T11:31:33Z</time>
      </trkpt>
      <trkpt lat="43.756074188277125" lon="10.536151947453618">
        <ele>698.534912109375</ele>
        <time>2003-08-30T11:31:44Z</time>
      </trkpt>
      <trkpt lat="43.756150379776955" lon="10.53620969876647">
        <ele>699.496337890625</ele>
        <time>2003-08-30T11:31:55Z</time>
      </trkpt>
      <trkpt lat="43.756247358396649" lon="10.536251440644264">
        <ele>702.861083984375</ele>
        <time>2003-08-30T11:32:07Z</time>
      </trkpt>
      <trkpt lat="43.756337128579617" lon="10.536277424544096">
        <ele>705.264404296875</ele>
        <time>2003-08-30T11:32:18Z</time>
      </trkpt>
      <trkpt lat="43.7564398907125" lon="10.536296283826232">
        <ele>706.706298828125</ele>
        <time>2003-08-30T11:32:28Z</time>
      </trkpt>
      <trkpt lat="43.756550028920174" lon="10.53630793467164">
        <ele>706.2255859375</ele>
        <time>2003-08-30T11:32:37Z</time>
      </trkpt>
      <trkpt lat="43.756640804931521" lon="10.536285052075982">
        <ele>708.62890625</ele>
        <time>2003-08-30T11:32:47Z</time>
      </trkpt>
      <trkpt lat="43.756742980331182" lon="10.536203496158123">
        <ele>709.59033203125</ele>
        <time>2003-08-30T11:33:17Z</time>
      </trkpt>
      <trkpt lat="43.75685278326273" lon="10.536147672683001">
        <ele>711.0322265625</ele>
        <time>2003-08-30T11:33:28Z</time>
      </trkpt>
      <trkpt lat="43.756952444091439" lon="10.536102494224906">
        <ele>711.99365234375</ele>
        <time>2003-08-30T11:33:38Z</time>
      </trkpt>
      <trkpt lat="43.757038190960884" lon="10.536035774275661">
        <ele>711.512939453125</ele>
        <time>2003-08-30T11:34:01Z</time>
      </trkpt>
      <trkpt lat="43.757145060226321" lon="10.53602403961122">
        <ele>712.954833984375</ele>
        <time>2003-08-30T11:34:14Z</time>
      </trkpt>
      <trkpt lat="43.757247570902109" lon="10.536019848659635">
        <ele>713.916015625</ele>
        <time>2003-08-30T11:34:21Z</time>
      </trkpt>
      <trkpt lat="43.757344800978899" lon="10.535983722656965">
        <ele>713.916015625</ele>
        <time>2003-08-30T11:34:28Z</time>
      </trkpt>
      <trkpt lat="43.757445635274053" lon="10.535903759300709">
        <ele>714.396728515625</ele>
        <time>2003-08-30T11:34:34Z</time>
      </trkpt>
      <trkpt lat="43.75753247179091" lon="10.535795800387859">
        <ele>715.358154296875</ele>
        <time>2003-08-30T11:34:40Z</time>
      </trkpt>
      <trkpt lat="43.757600197568536" lon="10.535651883110404">
        <ele>714.396728515625</ele>
        <time>2003-08-30T11:34:46Z</time>
      </trkpt>
      <trkpt lat="43.75763850286603" lon="10.535499500110745">
        <ele>714.87744140625</ele>
        <time>2003-08-30T11:34:51Z</time>
      </trkpt>
      <trkpt lat="43.757697176188231" lon="10.535357091575861">
        <ele>715.8388671875</ele>
        <time>2003-08-30T11:34:56Z</time>
      </trkpt>
      <trkpt lat="43.757743863388896" lon="10.535230692476034">
        <ele>716.319580078125</ele>
        <time>2003-08-30T11:35:01Z</time>
      </trkpt>
      <trkpt lat="43.757808236405253" lon="10.535096079111099">
        <ele>718.2421875</ele>
        <time>2003-08-30T11:35:07Z</time>
      </trkpt>
      <trkpt lat="43.757882080972195" lon="10.534983091056347">
        <ele>716.80029296875</ele>
        <time>2003-08-30T11:35:13Z</time>
      </trkpt>
      <trkpt lat="43.75797176733613" lon="10.534875048324466">
        <ele>717.281005859375</ele>
        <time>2003-08-30T11:35:20Z</time>
      </trkpt>
      <trkpt lat="43.758052149787545" lon="10.534798856824636">
        <ele>717.761474609375</ele>
        <time>2003-08-30T11:35:27Z</time>
      </trkpt>
      <trkpt lat="43.758047120645642" lon="10.534859374165535">
        <ele>717.761474609375</ele>
        <time>2003-08-30T11:36:20Z</time>
      </trkpt>
      <trkpt lat="43.757983166724443" lon="10.534965572878718">
        <ele>718.722900390625</ele>
        <time>2003-08-30T11:36:28Z</time>
      </trkpt>
      <trkpt lat="43.757920805364847" lon="10.535072861239314">
        <ele>720.164794921875</ele>
        <time>2003-08-30T11:36:35Z</time>
      </trkpt>
      <trkpt lat="43.757854755967855" lon="10.535180401057005">
        <ele>722.568115234375</ele>
        <time>2003-08-30T11:36:43Z</time>
      </trkpt>
      <trkpt lat="43.757817456498742" lon="10.535307470709085">
        <ele>722.568115234375</ele>
        <time>2003-08-30T11:36:49Z</time>
      </trkpt>
      <trkpt lat="43.757795160636306" lon="10.535450968891382">
        <ele>722.568115234375</ele>
        <time>2003-08-30T11:36:55Z</time>
      </trkpt>
      <trkpt lat="43.757789880037308" lon="10.535606201738119">
        <ele>723.529541015625</ele>
        <time>2003-08-30T11:37:01Z</time>
      </trkpt>
      <trkpt lat="43.757802955806255" lon="10.535743497312069">
        <ele>723.529541015625</ele>
        <time>2003-08-30T11:37:06Z</time>
      </trkpt>
      <trkpt lat="43.757798094302416" lon="10.535881295800209">
        <ele>724.010009765625</ele>
        <time>2003-08-30T11:37:11Z</time>
      </trkpt>
      <trkpt lat="43.757785772904754" lon="10.53602890111506">
        <ele>724.971435546875</ele>
        <time>2003-08-30T11:37:17Z</time>
      </trkpt>
      <trkpt lat="43.757757022976875" lon="10.536194862797856">
        <ele>727.855224609375</ele>
        <time>2003-08-30T11:37:24Z</time>
      </trkpt>
      <trkpt lat="43.757680160924792" lon="10.536381527781487">
        <ele>730.258544921875</ele>
        <time>2003-08-30T11:37:58Z</time>
      </trkpt>
      <trkpt lat="43.757591899484396" lon="10.536538437008858">
        <ele>732.181396484375</ele>
        <time>2003-08-30T11:38:07Z</time>
      </trkpt>
      <trkpt lat="43.7575105112046" lon="10.536699453368783">
        <ele>732.181396484375</ele>
        <time>2003-08-30T11:38:15Z</time>
      </trkpt>
      <trkpt lat="43.757445551455021" lon="10.536832977086306">
        <ele>732.662109375</ele>
        <time>2003-08-30T11:38:22Z</time>
      </trkpt>
      <trkpt lat="43.757374137639999" lon="10.536956107243896">
        <ele>736.98779296875</ele>
        <time>2003-08-30T11:38:30Z</time>
      </trkpt>
      <trkpt lat="43.757270285859704" lon="10.537106227129698">
        <ele>736.98779296875</ele>
        <time>2003-08-30T11:38:40Z</time>
      </trkpt>
      <trkpt lat="43.757161488756537" lon="10.537270847707987">
        <ele>737.468505859375</ele>
        <time>2003-08-30T11:38:50Z</time>
      </trkpt>
      <trkpt lat="43.757075658068061" lon="10.537396157160401">
        <ele>738.91064453125</ele>
        <time>2003-08-30T11:38:58Z</time>
      </trkpt>
      <trkpt lat="43.756987061351538" lon="10.53750017657876">
        <ele>741.313720703125</ele>
        <time>2003-08-30T11:39:04Z</time>
      </trkpt>
      <trkpt lat="43.756874911487103" lon="10.537619199603796">
        <ele>740.8330078125</ele>
        <time>2003-08-30T11:39:11Z</time>
      </trkpt>
      <trkpt lat="43.756774831563234" lon="10.537705449387431">
        <ele>741.313720703125</ele>
        <time>2003-08-30T11:39:17Z</time>
      </trkpt>
      <trkpt lat="43.756652791053057" lon="10.537800332531333">
        <ele>742.275146484375</ele>
        <time>2003-08-30T11:39:24Z</time>
      </trkpt>
      <trkpt lat="43.756540808826685" lon="10.537831764668226">
        <ele>744.67822265625</ele>
        <time>2003-08-30T11:39:31Z</time>
      </trkpt>
      <trkpt lat="43.756435699760914" lon="10.537874847650528">
        <ele>744.67822265625</ele>
        <time>2003-08-30T11:39:38Z</time>
      </trkpt>
      <trkpt lat="43.756326902657747" lon="10.537928994745016">
        <ele>746.60107421875</ele>
        <time>2003-08-30T11:39:44Z</time>
      </trkpt>
      <trkpt lat="43.75622196123004" lon="10.537986662238836">
        <ele>747.562255859375</ele>
        <time>2003-08-30T11:39:50Z</time>
      </trkpt>
      <trkpt lat="43.756122719496489" lon="10.538049358874559">
        <ele>748.043212890625</ele>
        <time>2003-08-30T11:39:56Z</time>
      </trkpt>
      <trkpt lat="43.756031440570951" lon="10.53812563419342">
        <ele>749.00439453125</ele>
        <time>2003-08-30T11:40:02Z</time>
      </trkpt>
      <trkpt lat="43.755950890481472" lon="10.538237364962697">
        <ele>749.9658203125</ele>
        <time>2003-08-30T11:40:08Z</time>
      </trkpt>
      <trkpt lat="43.755868915468454" lon="10.538343898952007">
        <ele>750.446533203125</ele>
        <time>2003-08-30T11:40:14Z</time>
      </trkpt>
      <trkpt lat="43.755788784474134" lon="10.538455294445157">
        <ele>750.927001953125</ele>
        <time>2003-08-30T11:40:20Z</time>
      </trkpt>
      <trkpt lat="43.755704294890165" lon="10.538566019386053">
        <ele>752.368896484375</ele>
        <time>2003-08-30T11:40:27Z</time>
      </trkpt>
      <trkpt lat="43.755613602697849" lon="10.538669703528285">
        <ele>753.330322265625</ele>
        <time>2003-08-30T11:40:33Z</time>
      </trkpt>
      <trkpt lat="43.755510086193681" lon="10.538762910291553">
        <ele>754.772216796875</ele>
        <time>2003-08-30T11:40:39Z</time>
      </trkpt>
      <trkpt lat="43.755412437021732" lon="10.538859302178025">
        <ele>755.733642578125</ele>
        <time>2003-08-30T11:40:44Z</time>
      </trkpt>
      <trkpt lat="43.755332138389349" lon="10.538936499506235">
        <ele>756.69482421875</ele>
        <time>2003-08-30T11:40:49Z</time>
      </trkpt>
      <trkpt lat="43.755235578864813" lon="10.5390281137079">
        <ele>756.69482421875</ele>
        <time>2003-08-30T11:40:55Z</time>
      </trkpt>
      <trkpt lat="43.75513331964612" lon="10.539105981588364">
        <ele>757.65625</ele>
        <time>2003-08-30T11:41:01Z</time>
      </trkpt>
      <trkpt lat="43.755029467865825" lon="10.539163062348962">
        <ele>758.617431640625</ele>
        <time>2003-08-30T11:41:06Z</time>
      </trkpt>
      <trkpt lat="43.754925196990371" lon="10.53921720944345">
        <ele>760.059326171875</ele>
        <time>2003-08-30T11:41:11Z</time>
      </trkpt>
      <trkpt lat="43.754822770133615" lon="10.539270518347621">
        <ele>761.020751953125</ele>
        <time>2003-08-30T11:41:16Z</time>
      </trkpt>
      <trkpt lat="43.754710201174021" lon="10.539304213598371">
        <ele>761.50146484375</ele>
        <time>2003-08-30T11:41:21Z</time>
      </trkpt>
      <trkpt lat="43.754599560052156" lon="10.539319552481174">
        <ele>761.982177734375</ele>
        <time>2003-08-30T11:41:26Z</time>
      </trkpt>
      <trkpt lat="43.754492271691561" lon="10.539354924112558">
        <ele>762.943359375</ele>
        <time>2003-08-30T11:41:31Z</time>
      </trkpt>
      <trkpt lat="43.754395293071866" lon="10.539404125884175">
        <ele>764.385498046875</ele>
        <time>2003-08-30T11:41:36Z</time>
      </trkpt>
      <trkpt lat="43.754304433241487" lon="10.539474114775658">
        <ele>765.82763671875</ele>
        <time>2003-08-30T11:41:41Z</time>
      </trkpt>
      <trkpt lat="43.754217764362693" lon="10.539587438106537">
        <ele>766.30810546875</ele>
        <time>2003-08-30T11:41:47Z</time>
      </trkpt>
      <trkpt lat="43.754142913967371" lon="10.539709562435746">
        <ele>767.26953125</ele>
        <time>2003-08-30T11:41:52Z</time>
      </trkpt>
      <trkpt lat="43.754080468788743" lon="10.539803439751267">
        <ele>767.26953125</ele>
        <time>2003-08-30T11:41:56Z</time>
      </trkpt>
      <trkpt lat="43.754008049145341" lon="10.539915170520544">
        <ele>766.788818359375</ele>
        <time>2003-08-30T11:42:00Z</time>
      </trkpt>
      <trkpt lat="43.753942167386413" lon="10.540018938481808">
        <ele>764.385498046875</ele>
        <time>2003-08-30T11:42:04Z</time>
      </trkpt>
      <trkpt lat="43.753879135474563" lon="10.540142990648746">
        <ele>764.8662109375</ele>
        <time>2003-08-30T11:42:08Z</time>
      </trkpt>
      <trkpt lat="43.753810068592429" lon="10.540256733074784">
        <ele>764.385498046875</ele>
        <time>2003-08-30T11:42:12Z</time>
      </trkpt>
      <trkpt lat="43.75374611467123" lon="10.540371732786298">
        <ele>764.385498046875</ele>
        <time>2003-08-30T11:42:16Z</time>
      </trkpt>
      <trkpt lat="43.753683334216475" lon="10.540470136329532">
        <ele>764.385498046875</ele>
        <time>2003-08-30T11:42:20Z</time>
      </trkpt>
      <trkpt lat="43.753644609823823" lon="10.540587147697806">
        <ele>764.8662109375</ele>
        <time>2003-08-30T11:42:24Z</time>
      </trkpt>
      <trkpt lat="43.753624157980084" lon="10.540712457150221">
        <ele>764.385498046875</ele>
        <time>2003-08-30T11:42:28Z</time>
      </trkpt>
      <trkpt lat="43.75360244885087" lon="10.540844723582268">
        <ele>764.385498046875</ele>
        <time>2003-08-30T11:42:32Z</time>
      </trkpt>
      <trkpt lat="43.753563975915313" lon="10.540995765477419">
        <ele>764.385498046875</ele>
        <time>2003-08-30T11:42:36Z</time>
      </trkpt>
      <trkpt lat="43.753527011722326" lon="10.541111771017313">
        <ele>764.8662109375</ele>
        <time>2003-08-30T11:42:39Z</time>
      </trkpt>
      <trkpt lat="43.753479151055217" lon="10.541256107389927">
        <ele>765.346923828125</ele>
        <time>2003-08-30T11:42:43Z</time>
      </trkpt>
      <trkpt lat="43.753421735018492" lon="10.541405221447349">
        <ele>766.30810546875</ele>
        <time>2003-08-30T11:42:47Z</time>
      </trkpt>
      <trkpt lat="43.753357948735356" lon="10.5415372364223">
        <ele>766.788818359375</ele>
        <time>2003-08-30T11:42:51Z</time>
      </trkpt>
      <trkpt lat="43.753290390595794" lon="10.541662126779556">
        <ele>766.30810546875</ele>
        <time>2003-08-30T11:42:55Z</time>
      </trkpt>
      <trkpt lat="43.753220904618502" lon="10.541784167289734">
        <ele>767.26953125</ele>
        <time>2003-08-30T11:42:59Z</time>
      </trkpt>
      <trkpt lat="43.753165751695633" lon="10.541903441771865">
        <ele>767.75</ele>
        <time>2003-08-30T11:43:03Z</time>
      </trkpt>
      <trkpt lat="43.753133649006486" lon="10.542044760659337">
        <ele>767.26953125</ele>
        <time>2003-08-30T11:43:07Z</time>
      </trkpt>
      <trkpt lat="43.753118310123682" lon="10.542207872495055">
        <ele>767.26953125</ele>
        <time>2003-08-30T11:43:31Z</time>
      </trkpt>
      <trkpt lat="43.753116466104984" lon="10.542374504730105">
        <ele>767.75</ele>
        <time>2003-08-30T11:43:36Z</time>
      </trkpt>
      <trkpt lat="43.753139851614833" lon="10.542504172772169">
        <ele>768.230712890625</ele>
        <time>2003-08-30T11:43:39Z</time>
      </trkpt>
      <trkpt lat="43.753186874091625" lon="10.542633756995201">
        <ele>768.71142578125</ele>
        <time>2003-08-30T11:43:42Z</time>
      </trkpt>
      <trkpt lat="43.753248481079936" lon="10.542755294591188">
        <ele>768.71142578125</ele>
        <time>2003-08-30T11:43:45Z</time>
      </trkpt>
      <trkpt lat="43.753315787762403" lon="10.54286970756948">
        <ele>768.230712890625</ele>
        <time>2003-08-30T11:43:48Z</time>
      </trkpt>
      <trkpt lat="43.753383178263903" lon="10.542976493015885">
        <ele>768.230712890625</ele>
        <time>2003-08-30T11:43:51Z</time>
      </trkpt>
      <trkpt lat="43.753453167155385" lon="10.543076070025563">
        <ele>768.230712890625</ele>
        <time>2003-08-30T11:43:54Z</time>
      </trkpt>
      <trkpt lat="43.753512259572744" lon="10.543183358386159">
        <ele>768.230712890625</ele>
        <time>2003-08-30T11:43:57Z</time>
      </trkpt>
      <trkpt lat="43.75357068143785" lon="10.543280001729727">
        <ele>768.230712890625</ele>
        <time>2003-08-30T11:44:00Z</time>
      </trkpt>
      <trkpt lat="43.753631114959717" lon="10.543416710570455">
        <ele>768.230712890625</ele>
        <time>2003-08-30T11:44:04Z</time>
      </trkpt>
      <trkpt lat="43.753669671714306" lon="10.543540762737393">
        <ele>768.71142578125</ele>
        <time>2003-08-30T11:44:07Z</time>
      </trkpt>
      <trkpt lat="43.753710072487593" lon="10.543680991977453">
        <ele>768.71142578125</ele>
        <time>2003-08-30T11:44:10Z</time>
      </trkpt>
      <trkpt lat="43.753749635070562" lon="10.543824322521687">
        <ele>769.192138671875</ele>
        <time>2003-08-30T11:44:13Z</time>
      </trkpt>
      <trkpt lat="43.753789616748691" lon="10.54396765306592">
        <ele>769.6728515625</ele>
        <time>2003-08-30T11:44:16Z</time>
      </trkpt>
      <trkpt lat="43.753810822963715" lon="10.544114504009485">
        <ele>770.1533203125</ele>
        <time>2003-08-30T11:44:19Z</time>
      </trkpt>
      <trkpt lat="43.753830520436168" lon="10.544255571439862">
        <ele>769.6728515625</ele>
        <time>2003-08-30T11:44:22Z</time>
      </trkpt>
      <trkpt lat="43.753849882632494" lon="10.544396890327334">
        <ele>770.634033203125</ele>
        <time>2003-08-30T11:44:26Z</time>
      </trkpt>
      <trkpt lat="43.753865975886583" lon="10.544546758756042">
        <ele>771.11474609375</ele>
        <time>2003-08-30T11:44:31Z</time>
      </trkpt>
      <trkpt lat="43.753890870139003" lon="10.544690005481243">
        <ele>771.59521484375</ele>
        <time>2003-08-30T11:44:35Z</time>
      </trkpt>
      <trkpt lat="43.753918530419469" lon="10.544837443158031">
        <ele>773.99853515625</ele>
        <time>2003-08-30T11:44:39Z</time>
      </trkpt>
      <trkpt lat="43.753957841545343" lon="10.544984713196754">
        <ele>775.921142578125</ele>
        <time>2003-08-30T11:44:43Z</time>
      </trkpt>
      <trkpt lat="43.753990111872554" lon="10.545140029862523">
        <ele>776.882568359375</ele>
        <time>2003-08-30T11:44:47Z</time>
      </trkpt>
      <trkpt lat="43.754004025831819" lon="10.54530750028789">
        <ele>778.324462890625</ele>
        <time>2003-08-30T11:44:51Z</time>
      </trkpt>
      <trkpt lat="43.75399581156671" lon="10.545481843873858">
        <ele>778.324462890625</ele>
        <time>2003-08-30T11:44:55Z</time>
      </trkpt>
      <trkpt lat="43.753991788253188" lon="10.54564218968153">
        <ele>778.324462890625</ele>
        <time>2003-08-30T11:44:59Z</time>
      </trkpt>
      <trkpt lat="43.753982903435826" lon="10.545815192162991">
        <ele>779.766357421875</ele>
        <time>2003-08-30T11:45:03Z</time>
      </trkpt>
      <trkpt lat="43.753967564553022" lon="10.545966988429427">
        <ele>779.766357421875</ele>
        <time>2003-08-30T11:45:06Z</time>
      </trkpt>
      <trkpt lat="43.753952728584409" lon="10.54614594206214">
        <ele>779.766357421875</ele>
        <time>2003-08-30T11:45:10Z</time>
      </trkpt>
      <trkpt lat="43.753946609795094" lon="10.546332355588675">
        <ele>782.650634765625</ele>
        <time>2003-08-30T11:45:14Z</time>
      </trkpt>
      <trkpt lat="43.753944430500269" lon="10.546464957296848">
        <ele>782.650634765625</ele>
        <time>2003-08-30T11:45:17Z</time>
      </trkpt>
      <trkpt lat="43.753948453813791" lon="10.54659160785377">
        <ele>784.092529296875</ele>
        <time>2003-08-30T11:45:20Z</time>
      </trkpt>
      <trkpt lat="43.753957925364375" lon="10.54671473801136">
        <ele>785.534423828125</ele>
        <time>2003-08-30T11:45:23Z</time>
      </trkpt>
      <trkpt lat="43.753973012790084" lon="10.546863181516528">
        <ele>787.45703125</ele>
        <time>2003-08-30T11:45:27Z</time>
      </trkpt>
      <trkpt lat="43.753987345844507" lon="10.547019084915519">
        <ele>787.937744140625</ele>
        <time>2003-08-30T11:45:31Z</time>
      </trkpt>
      <trkpt lat="43.754006456583738" lon="10.547163253650069">
        <ele>787.45703125</ele>
        <time>2003-08-30T11:45:35Z</time>
      </trkpt>
      <trkpt lat="43.754033194854856" lon="10.547300549224019">
        <ele>787.937744140625</ele>
        <time>2003-08-30T11:45:39Z</time>
      </trkpt>
      <trkpt lat="43.754072925075889" lon="10.547436671331525">
        <ele>788.41845703125</ele>
        <time>2003-08-30T11:45:43Z</time>
      </trkpt>
      <trkpt lat="43.754114666953683" lon="10.547570530325174">
        <ele>787.937744140625</ele>
        <time>2003-08-30T11:45:47Z</time>
      </trkpt>
      <trkpt lat="43.754162946715951" lon="10.547701036557555">
        <ele>787.45703125</ele>
        <time>2003-08-30T11:45:51Z</time>
      </trkpt>
      <trkpt lat="43.754216758534312" lon="10.547833638265729">
        <ele>788.899169921875</ele>
        <time>2003-08-30T11:45:55Z</time>
      </trkpt>
      <trkpt lat="43.754264116287231" lon="10.547972861677408">
        <ele>788.899169921875</ele>
        <time>2003-08-30T11:45:59Z</time>
      </trkpt>
      <trkpt lat="43.75430803745985" lon="10.548107977956533">
        <ele>788.899169921875</ele>
        <time>2003-08-30T11:46:03Z</time>
      </trkpt>
      <trkpt lat="43.754346342757344" lon="10.548242926597595">
        <ele>788.899169921875</ele>
        <time>2003-08-30T11:46:07Z</time>
      </trkpt>
      <trkpt lat="43.754357658326626" lon="10.548370080068707">
        <ele>788.899169921875</ele>
        <time>2003-08-30T11:46:12Z</time>
      </trkpt>
      <trkpt lat="43.754155905917287" lon="10.548452725633979">
        <ele>791.30224609375</ele>
        <time>2003-08-30T11:47:50Z</time>
      </trkpt>
      <trkpt lat="43.754051551222801" lon="10.548427747562528">
        <ele>790.341064453125</ele>
        <time>2003-08-30T11:47:54Z</time>
      </trkpt>
      <trkpt lat="43.753933114930987" lon="10.548383155837655">
        <ele>790.821533203125</ele>
        <time>2003-08-30T11:47:57Z</time>
      </trkpt>
      <trkpt lat="43.753847870975733" lon="10.548349879682064">
        <ele>790.821533203125</ele>
        <time>2003-08-30T11:47:59Z</time>
      </trkpt>
      <trkpt lat="43.753761202096939" lon="10.548319453373551">
        <ele>791.30224609375</ele>
        <time>2003-08-30T11:48:01Z</time>
      </trkpt>
      <trkpt lat="43.753623738884926" lon="10.548297828063369">
        <ele>790.341064453125</ele>
        <time>2003-08-30T11:48:04Z</time>
      </trkpt>
      <trkpt lat="43.753531202673912" lon="10.548292798921466">
        <ele>788.41845703125</ele>
        <time>2003-08-30T11:48:06Z</time>
      </trkpt>
      <trkpt lat="43.753435397520661" lon="10.548287853598595">
        <ele>787.937744140625</ele>
        <time>2003-08-30T11:48:08Z</time>
      </trkpt>
      <trkpt lat="43.753342358395457" lon="10.548301348462701">
        <ele>787.45703125</ele>
        <time>2003-08-30T11:48:10Z</time>
      </trkpt>
      <trkpt lat="43.753242110833526" lon="10.54832280613482">
        <ele>786.976318359375</ele>
        <time>2003-08-30T11:48:12Z</time>
      </trkpt>
      <trkpt lat="43.753142366185784" lon="10.548348287120461">
        <ele>786.495849609375</ele>
        <time>2003-08-30T11:48:14Z</time>
      </trkpt>
      <trkpt lat="43.753043627366424" lon="10.548388436436653">
        <ele>786.01513671875</ele>
        <time>2003-08-30T11:48:16Z</time>
      </trkpt>
      <trkpt lat="43.752944804728031" lon="10.548436883836985">
        <ele>785.534423828125</ele>
        <time>2003-08-30T11:48:18Z</time>
      </trkpt>
      <trkpt lat="43.752847155556083" lon="10.548492204397917">
        <ele>785.053955078125</ele>
        <time>2003-08-30T11:48:20Z</time>
      </trkpt>
      <trkpt lat="43.752751937136054" lon="10.548560516908765">
        <ele>784.092529296875</ele>
        <time>2003-08-30T11:48:22Z</time>
      </trkpt>
      <trkpt lat="43.752657976001501" lon="10.548625560477376">
        <ele>783.131103515625</ele>
        <time>2003-08-30T11:48:24Z</time>
      </trkpt>
      <trkpt lat="43.752566613256931" lon="10.548685826361179">
        <ele>782.169921875</ele>
        <time>2003-08-30T11:48:26Z</time>
      </trkpt>
      <trkpt lat="43.75248396769166" lon="10.548765119165182">
        <ele>782.169921875</ele>
        <time>2003-08-30T11:48:28Z</time>
      </trkpt>
      <trkpt lat="43.752402914687991" lon="10.548852123320103">
        <ele>780.247314453125</ele>
        <time>2003-08-30T11:48:30Z</time>
      </trkpt>
      <trkpt lat="43.752324711531401" lon="10.548945916816592">
        <ele>779.28564453125</ele>
        <time>2003-08-30T11:48:32Z</time>
      </trkpt>
      <trkpt lat="43.752249693498015" lon="10.549039375036955">
        <ele>778.324462890625</ele>
        <time>2003-08-30T11:48:34Z</time>
      </trkpt>
      <trkpt lat="43.752176016569138" lon="10.549134593456984">
        <ele>778.324462890625</ele>
        <time>2003-08-30T11:48:36Z</time>
      </trkpt>
      <trkpt lat="43.752107117325068" lon="10.54923945106566">
        <ele>777.84375</ele>
        <time>2003-08-30T11:48:38Z</time>
      </trkpt>
      <trkpt lat="43.752038050442934" lon="10.549349505454302">
        <ele>778.324462890625</ele>
        <time>2003-08-30T11:48:40Z</time>
      </trkpt>
      <trkpt lat="43.751957835629582" lon="10.549458637833595">
        <ele>778.80517578125</ele>
        <time>2003-08-30T11:48:42Z</time>
      </trkpt>
      <trkpt lat="43.751873094588518" lon="10.549561316147447">
        <ele>778.324462890625</ele>
        <time>2003-08-30T11:48:44Z</time>
      </trkpt>
      <trkpt lat="43.751791287213564" lon="10.549662904813886">
        <ele>778.324462890625</ele>
        <time>2003-08-30T11:48:46Z</time>
      </trkpt>
      <trkpt lat="43.75170755200088" lon="10.549760470166802">
        <ele>777.36328125</ele>
        <time>2003-08-30T11:48:48Z</time>
      </trkpt>
      <trkpt lat="43.751625157892704" lon="10.549856945872307">
        <ele>777.84375</ele>
        <time>2003-08-30T11:48:50Z</time>
      </trkpt>
      <trkpt lat="43.751541255041957" lon="10.549961216747761">
        <ele>777.84375</ele>
        <time>2003-08-30T11:48:52Z</time>
      </trkpt>
      <trkpt lat="43.751463554799557" lon="10.550060961395502">
        <ele>777.84375</ele>
        <time>2003-08-30T11:48:54Z</time>
      </trkpt>
      <trkpt lat="43.751381244510412" lon="10.550173195078969">
        <ele>776.40185546875</ele>
        <time>2003-08-30T11:48:56Z</time>
      </trkpt>
      <trkpt lat="43.751294072717428" lon="10.550281908363104">
        <ele>775.4404296875</ele>
        <time>2003-08-30T11:48:58Z</time>
      </trkpt>
      <trkpt lat="43.75121159479022" lon="10.550372516736388">
        <ele>775.4404296875</ele>
        <time>2003-08-30T11:49:00Z</time>
      </trkpt>
      <trkpt lat="43.751115454360843" lon="10.550466813147068">
        <ele>774.9599609375</ele>
        <time>2003-08-30T11:49:03Z</time>
      </trkpt>
      <trkpt lat="43.751030545681715" lon="10.55052749812603">
        <ele>772.075927734375</ele>
        <time>2003-08-30T11:49:08Z</time>
      </trkpt>
      <trkpt lat="43.750962233170867" lon="10.550592122599483">
        <ele>772.556640625</ele>
        <time>2003-08-30T11:49:13Z</time>
      </trkpt>
      <trkpt lat="43.750858884304762" lon="10.550654903054237">
        <ele>773.037353515625</ele>
        <time>2003-08-30T11:49:18Z</time>
      </trkpt>
      <trkpt lat="43.750771880149841" lon="10.550704523921013">
        <ele>772.556640625</ele>
        <time>2003-08-30T11:49:22Z</time>
      </trkpt>
      <trkpt lat="43.750676158815622" lon="10.550756910815835">
        <ele>773.51806640625</ele>
        <time>2003-08-30T11:49:26Z</time>
      </trkpt>
      <trkpt lat="43.750594183802605" lon="10.550804268568754">
        <ele>773.51806640625</ele>
        <time>2003-08-30T11:49:29Z</time>
      </trkpt>
      <trkpt lat="43.750488739460707" lon="10.550855649635196">
        <ele>774.479248046875</ele>
        <time>2003-08-30T11:49:33Z</time>
      </trkpt>
      <trkpt lat="43.750387066975236" lon="10.550898481160402">
        <ele>775.4404296875</ele>
        <time>2003-08-30T11:49:37Z</time>
      </trkpt>
      <trkpt lat="43.750280784443021" lon="10.550916334614158">
        <ele>774.9599609375</ele>
        <time>2003-08-30T11:49:41Z</time>
      </trkpt>
      <trkpt lat="43.750174418091774" lon="10.550934104248881">
        <ele>775.4404296875</ele>
        <time>2003-08-30T11:49:45Z</time>
      </trkpt>
      <trkpt lat="43.75006184913218" lon="10.550928823649883">
        <ele>774.9599609375</ele>
        <time>2003-08-30T11:49:49Z</time>
      </trkpt>
      <trkpt lat="43.749954393133521" lon="10.550892949104309">
        <ele>774.9599609375</ele>
        <time>2003-08-30T11:49:52Z</time>
      </trkpt>
      <trkpt lat="43.749836962670088" lon="10.550830420106649">
        <ele>773.99853515625</ele>
        <time>2003-08-30T11:49:55Z</time>
      </trkpt>
      <trkpt lat="43.749744175001979" lon="10.550752552226186">
        <ele>773.99853515625</ele>
        <time>2003-08-30T11:49:57Z</time>
      </trkpt>
      <trkpt lat="43.74962205067277" lon="10.550648281350732">
        <ele>773.037353515625</ele>
        <time>2003-08-30T11:50:00Z</time>
      </trkpt>
      <trkpt lat="43.749488862231374" lon="10.550524145364761">
        <ele>773.037353515625</ele>
        <time>2003-08-30T11:50:03Z</time>
      </trkpt>
      <trkpt lat="43.749359278008342" lon="10.550390034914017">
        <ele>772.556640625</ele>
        <time>2003-08-30T11:50:06Z</time>
      </trkpt>
      <trkpt lat="43.749275542795658" lon="10.550311245024204">
        <ele>772.556640625</ele>
        <time>2003-08-30T11:50:08Z</time>
      </trkpt>
      <trkpt lat="43.749149478971958" lon="10.550216529518366">
        <ele>770.634033203125</ele>
        <time>2003-08-30T11:50:11Z</time>
      </trkpt>
      <trkpt lat="43.749064905568957" lon="10.550157437101007">
        <ele>768.71142578125</ele>
        <time>2003-08-30T11:50:13Z</time>
      </trkpt>
      <trkpt lat="43.748958203941584" lon="10.550088286399841">
        <ele>767.26953125</ele>
        <time>2003-08-30T11:50:15Z</time>
      </trkpt>
      <trkpt lat="43.748854603618383" lon="10.550033217296004">
        <ele>766.30810546875</ele>
        <time>2003-08-30T11:50:17Z</time>
      </trkpt>
      <trkpt lat="43.748731222003698" lon="10.549969263374805">
        <ele>764.8662109375</ele>
        <time>2003-08-30T11:50:19Z</time>
      </trkpt>
      <trkpt lat="43.748594094067812" lon="10.549893071874976">
        <ele>763.904541015625</ele>
        <time>2003-08-30T11:50:21Z</time>
      </trkpt>
      <trkpt lat="43.748472975566983" lon="10.549827693030238">
        <ele>761.982177734375</ele>
        <time>2003-08-30T11:50:23Z</time>
      </trkpt>
      <trkpt lat="43.748297961428761" lon="10.549804642796516">
        <ele>760.5400390625</ele>
        <time>2003-08-30T11:50:25Z</time>
      </trkpt>
      <trkpt lat="43.748104674741626" lon="10.549846887588501">
        <ele>758.617431640625</ele>
        <time>2003-08-30T11:50:27Z</time>
      </trkpt>
      <trkpt lat="43.747929073870182" lon="10.549889467656612">
        <ele>758.136962890625</ele>
        <time>2003-08-30T11:50:29Z</time>
      </trkpt>
      <trkpt lat="43.747755736112595" lon="10.549919726327062">
        <ele>756.69482421875</ele>
        <time>2003-08-30T11:50:31Z</time>
      </trkpt>
      <trkpt lat="43.747597821056843" lon="10.549962557852268">
        <ele>755.2529296875</ele>
        <time>2003-08-30T11:50:33Z</time>
      </trkpt>
      <trkpt lat="43.747455580160022" lon="10.550007317215204">
        <ele>754.291748046875</ele>
        <time>2003-08-30T11:50:35Z</time>
      </trkpt>
      <trkpt lat="43.747317027300596" lon="10.550114018842578">
        <ele>753.81103515625</ele>
        <time>2003-08-30T11:50:37Z</time>
      </trkpt>
      <trkpt lat="43.747196327894926" lon="10.550259109586477">
        <ele>753.330322265625</ele>
        <time>2003-08-30T11:50:39Z</time>
      </trkpt>
      <trkpt lat="43.747130362316966" lon="10.55034326389432">
        <ele>753.330322265625</ele>
        <time>2003-08-30T11:50:40Z</time>
      </trkpt>
      <trkpt lat="43.747013350948691" lon="10.550551973283291">
        <ele>751.40771484375</ele>
        <time>2003-08-30T11:50:42Z</time>
      </trkpt>
      <trkpt lat="43.746950821951032" lon="10.550654400140047">
        <ele>751.40771484375</ele>
        <time>2003-08-30T11:50:43Z</time>
      </trkpt>
      <trkpt lat="43.746889550238848" lon="10.550764454528689">
        <ele>750.446533203125</ele>
        <time>2003-08-30T11:50:44Z</time>
      </trkpt>
      <trkpt lat="43.746770191937685" lon="10.55098288692534">
        <ele>749.00439453125</ele>
        <time>2003-08-30T11:50:46Z</time>
      </trkpt>
      <trkpt lat="43.746704645454884" lon="10.551088750362396">
        <ele>748.043212890625</ele>
        <time>2003-08-30T11:50:47Z</time>
      </trkpt>
      <trkpt lat="43.746637338772416" lon="10.551191261038184">
        <ele>748.043212890625</ele>
        <time>2003-08-30T11:50:48Z</time>
      </trkpt>
      <trkpt lat="43.746568607166409" lon="10.551288658753037">
        <ele>747.562255859375</ele>
        <time>2003-08-30T11:50:49Z</time>
      </trkpt>
      <trkpt lat="43.746417984366417" lon="10.551443891599774">
        <ele>746.60107421875</ele>
        <time>2003-08-30T11:50:51Z</time>
      </trkpt>
      <trkpt lat="43.746224446222186" lon="10.5515047442168">
        <ele>743.717041015625</ele>
        <time>2003-08-30T11:50:53Z</time>
      </trkpt>
      <trkpt lat="43.746127635240555" lon="10.551535086706281">
        <ele>743.236328125</ele>
        <time>2003-08-30T11:50:54Z</time>
      </trkpt>
      <trkpt lat="43.746030908077955" lon="10.551565513014793">
        <ele>742.275146484375</ele>
        <time>2003-08-30T11:50:55Z</time>
      </trkpt>
      <trkpt lat="43.745934097096324" lon="10.551595855504274">
        <ele>741.313720703125</ele>
        <time>2003-08-30T11:50:56Z</time>
      </trkpt>
      <trkpt lat="43.745837286114693" lon="10.551626281812787">
        <ele>740.3525390625</ele>
        <time>2003-08-30T11:50:57Z</time>
      </trkpt>
      <trkpt lat="43.745643747970462" lon="10.551687050610781">
        <ele>738.91064453125</ele>
        <time>2003-08-30T11:50:59Z</time>
      </trkpt>
      <trkpt lat="43.745546936988831" lon="10.551717476919293">
        <ele>737.94921875</ele>
        <time>2003-08-30T11:51:00Z</time>
      </trkpt>
      <trkpt lat="43.745450209826231" lon="10.551747903227806">
        <ele>736.50732421875</ele>
        <time>2003-08-30T11:51:01Z</time>
      </trkpt>
      <trkpt lat="43.7453533988446" lon="10.551778245717287">
        <ele>736.026611328125</ele>
        <time>2003-08-30T11:51:02Z</time>
      </trkpt>
      <trkpt lat="43.745256671682" lon="10.5518086720258">
        <ele>734.10400390625</ele>
        <time>2003-08-30T11:51:03Z</time>
      </trkpt>
      <trkpt lat="43.745159860700369" lon="10.551839014515281">
        <ele>732.662109375</ele>
        <time>2003-08-30T11:51:04Z</time>
      </trkpt>
      <trkpt lat="43.745063049718738" lon="10.551869440823793">
        <ele>731.219970703125</ele>
        <time>2003-08-30T11:51:05Z</time>
      </trkpt>
      <trkpt lat="43.744966322556138" lon="10.551899867132306">
        <ele>730.258544921875</ele>
        <time>2003-08-30T11:51:06Z</time>
      </trkpt>
      <trkpt lat="43.744869511574507" lon="10.551930209621787">
        <ele>729.77783203125</ele>
        <time>2003-08-30T11:51:07Z</time>
      </trkpt>
      <trkpt lat="43.744772700592875" lon="10.5519606359303">
        <ele>728.3359375</ele>
        <time>2003-08-30T11:51:08Z</time>
      </trkpt>
      <trkpt lat="43.744675973430276" lon="10.551990978419781">
        <ele>727.855224609375</ele>
        <time>2003-08-30T11:51:09Z</time>
      </trkpt>
      <trkpt lat="43.744579162448645" lon="10.552021404728293">
        <ele>725.9326171875</ele>
        <time>2003-08-30T11:51:10Z</time>
      </trkpt>
      <trkpt lat="43.744482435286045" lon="10.552051831036806">
        <ele>724.971435546875</ele>
        <time>2003-08-30T11:51:11Z</time>
      </trkpt>
      <trkpt lat="43.744385624304414" lon="10.552082173526287">
        <ele>723.529541015625</ele>
        <time>2003-08-30T11:51:12Z</time>
      </trkpt>
      <trkpt lat="43.744288813322783" lon="10.5521125998348">
        <ele>722.568115234375</ele>
        <time>2003-08-30T11:51:13Z</time>
      </trkpt>
      <trkpt lat="43.744192086160183" lon="10.552142942324281">
        <ele>721.606689453125</ele>
        <time>2003-08-30T11:51:14Z</time>
      </trkpt>
      <trkpt lat="43.744095275178552" lon="10.552173368632793">
        <ele>720.6455078125</ele>
        <time>2003-08-30T11:51:15Z</time>
      </trkpt>
      <trkpt lat="43.743977677077055" lon="10.55216196924448">
        <ele>719.20361328125</ele>
        <time>2003-08-30T11:51:16Z</time>
      </trkpt>
      <trkpt lat="43.743852032348514" lon="10.552068762481213">
        <ele>718.2421875</ele>
        <time>2003-08-30T11:51:17Z</time>
      </trkpt>
      <trkpt lat="43.7437076959759" lon="10.551934316754341">
        <ele>716.80029296875</ele>
        <time>2003-08-30T11:51:18Z</time>
      </trkpt>
      <trkpt lat="43.743599485605955" lon="10.551859550178051">
        <ele>715.358154296875</ele>
        <time>2003-08-30T11:51:19Z</time>
      </trkpt>
      <trkpt lat="43.74273975379765" lon="10.550324320793152">
        <ele>714.396728515625</ele>
        <time>2003-08-30T11:51:20Z</time>
      </trkpt>
      <trkpt lat="43.74276272021234" lon="10.550375785678625">
        <ele>712.954833984375</ele>
        <time>2003-08-30T11:51:21Z</time>
      </trkpt>
      <trkpt lat="43.742650737985969" lon="10.550281908363104">
        <ele>711.512939453125</ele>
        <time>2003-08-30T11:51:22Z</time>
      </trkpt>
      <trkpt lat="43.742538671940565" lon="10.550188031047583">
        <ele>709.59033203125</ele>
        <time>2003-08-30T11:51:23Z</time>
      </trkpt>
      <trkpt lat="43.742426605895162" lon="10.550094153732061">
        <ele>708.1484375</ele>
        <time>2003-08-30T11:51:24Z</time>
      </trkpt>
      <trkpt lat="43.74231462366879" lon="10.55000027641654">
        <ele>706.706298828125</ele>
        <time>2003-08-30T11:51:25Z</time>
      </trkpt>
      <trkpt lat="43.742298865690827" lon="10.549637340009212">
        <ele>705.264404296875</ele>
        <time>2003-08-30T11:51:26Z</time>
      </trkpt>
      <trkpt lat="43.742175735533237" lon="10.549518316984177">
        <ele>705.264404296875</ele>
        <time>2003-08-30T11:51:27Z</time>
      </trkpt>
      <trkpt lat="43.742066519334912" lon="10.549402898177505">
        <ele>703.822509765625</ele>
        <time>2003-08-30T11:51:28Z</time>
      </trkpt>
      <trkpt lat="43.741957806050777" lon="10.549285970628262">
        <ele>702.861083984375</ele>
        <time>2003-08-30T11:51:29Z</time>
      </trkpt>
      <trkpt lat="43.741851774975657" lon="10.549177844077349">
        <ele>701.419189453125</ele>
        <time>2003-08-30T11:51:30Z</time>
      </trkpt>
      <trkpt lat="43.741745743900537" lon="10.549069633707404">
        <ele>699.496337890625</ele>
        <time>2003-08-30T11:51:31Z</time>
      </trkpt>
      <trkpt lat="43.741639712825418" lon="10.54896142333746">
        <ele>697.57373046875</ele>
        <time>2003-08-30T11:51:32Z</time>
      </trkpt>
      <trkpt lat="43.741533681750298" lon="10.548853296786547">
        <ele>696.1318359375</ele>
        <time>2003-08-30T11:51:33Z</time>
      </trkpt>
      <trkpt lat="43.741427650675178" lon="10.548745086416602">
        <ele>695.17041015625</ele>
        <time>2003-08-30T11:51:34Z</time>
      </trkpt>
      <trkpt lat="43.741321619600058" lon="10.548636959865689">
        <ele>694.689697265625</ele>
        <time>2003-08-30T11:51:35Z</time>
      </trkpt>
      <trkpt lat="43.741215588524938" lon="10.548528749495745">
        <ele>693.728515625</ele>
        <time>2003-08-30T11:51:36Z</time>
      </trkpt>
      <trkpt lat="43.741109557449818" lon="10.5484205391258">
        <ele>692.767333984375</ele>
        <time>2003-08-30T11:51:37Z</time>
      </trkpt>
      <trkpt lat="43.741003442555666" lon="10.548312412574887">
        <ele>692.28662109375</ele>
        <time>2003-08-30T11:51:38Z</time>
      </trkpt>
      <trkpt lat="43.740897411480546" lon="10.548204202204943">
        <ele>691.3251953125</ele>
        <time>2003-08-30T11:51:39Z</time>
      </trkpt>
      <trkpt lat="43.740791380405426" lon="10.54809607565403">
        <ele>689.88330078125</ele>
        <time>2003-08-30T11:51:40Z</time>
      </trkpt>
      <trkpt lat="43.741033030673862" lon="10.547968419268727">
        <ele>689.402587890625</ele>
        <time>2003-08-30T11:51:41Z</time>
      </trkpt>
      <trkpt lat="43.741169320419431" lon="10.547861382365227">
        <ele>687.960693359375</ele>
        <time>2003-08-30T11:51:42Z</time>
      </trkpt>
      <trkpt lat="43.741238219663501" lon="10.547689301893115">
        <ele>687.47998046875</ele>
        <time>2003-08-30T11:51:44Z</time>
      </trkpt>
      <trkpt lat="43.741227490827441" lon="10.547578744590282">
        <ele>684.115478515625</ele>
        <time>2003-08-30T11:51:46Z</time>
      </trkpt>
      <trkpt lat="43.741190694272518" lon="10.547488303855062">
        <ele>683.15380859375</ele>
        <time>2003-08-30T11:51:48Z</time>
      </trkpt>
      <trkpt lat="43.741131601855159" lon="10.54738218896091">
        <ele>680.750732421875</ele>
        <time>2003-08-30T11:51:52Z</time>
      </trkpt>
      <trkpt lat="43.74109405092895" lon="10.547343464568257">
        <ele>680.27001953125</ele>
        <time>2003-08-30T11:52:21Z</time>
      </trkpt>
      <trkpt lat="43.741012746468186" lon="10.547337597236037">
        <ele>679.30859375</ele>
        <time>2003-08-30T11:52:42Z</time>
      </trkpt>
      <trkpt lat="43.740897746756673" lon="10.547374729067087">
        <ele>677.86669921875</ele>
        <time>2003-08-30T11:52:45Z</time>
      </trkpt>
      <trkpt lat="43.740779310464859" lon="10.547460475936532">
        <ele>675.944091796875</ele>
        <time>2003-08-30T11:52:49Z</time>
      </trkpt>
      <trkpt lat="43.740657269954681" lon="10.547581007704139">
        <ele>673.060302734375</ele>
        <time>2003-08-30T11:52:52Z</time>
      </trkpt>
      <trkpt lat="43.740570181980729" lon="10.547681087628007">
        <ele>671.6181640625</ele>
        <time>2003-08-30T11:52:54Z</time>
      </trkpt>
      <trkpt lat="43.740483177825809" lon="10.547781167551875">
        <ele>671.1376953125</ele>
        <time>2003-08-30T11:52:56Z</time>
      </trkpt>
      <trkpt lat="43.740396089851856" lon="10.547881247475743">
        <ele>670.656982421875</ele>
        <time>2003-08-30T11:52:58Z</time>
      </trkpt>
      <trkpt lat="43.740309085696936" lon="10.547981327399611">
        <ele>668.253662109375</ele>
        <time>2003-08-30T11:53:00Z</time>
      </trkpt>
      <trkpt lat="43.740221997722983" lon="10.54808140732348">
        <ele>665.36962890625</ele>
        <time>2003-08-30T11:53:02Z</time>
      </trkpt>
      <trkpt lat="43.740117643028498" lon="10.548205627128482">
        <ele>664.408203125</ele>
        <time>2003-08-30T11:53:04Z</time>
      </trkpt>
      <trkpt lat="43.739928044378757" lon="10.548375193029642">
        <ele>662.485595703125</ele>
        <time>2003-08-30T11:53:06Z</time>
      </trkpt>
      <trkpt lat="43.739820923656225" lon="10.548457251861691">
        <ele>661.043701171875</ele>
        <time>2003-08-30T11:53:07Z</time>
      </trkpt>
      <trkpt lat="43.739714808762074" lon="10.548482397571206">
        <ele>661.043701171875</ele>
        <time>2003-08-30T11:53:08Z</time>
      </trkpt>
      <trkpt lat="43.739592349156737" lon="10.548528581857681">
        <ele>659.601806640625</ele>
        <time>2003-08-30T11:53:09Z</time>
      </trkpt>
      <trkpt lat="43.739488748833537" lon="10.548539226874709">
        <ele>659.12109375</ele>
        <time>2003-08-30T11:53:10Z</time>
      </trkpt>
      <trkpt lat="43.739385232329369" lon="10.548549955710769">
        <ele>658.640380859375</ele>
        <time>2003-08-30T11:53:11Z</time>
      </trkpt>
      <trkpt lat="43.739268472418189" lon="10.548571078106761">
        <ele>658.640380859375</ele>
        <time>2003-08-30T11:53:12Z</time>
      </trkpt>
      <trkpt lat="43.739168476313353" lon="10.548556074500084">
        <ele>658.640380859375</ele>
        <time>2003-08-30T11:53:13Z</time>
      </trkpt>
      <trkpt lat="43.739052638411522" lon="10.548551212996244">
        <ele>658.640380859375</ele>
        <time>2003-08-30T11:53:14Z</time>
      </trkpt>
      <trkpt lat="43.738916935399175" lon="10.54853729903698">
        <ele>658.640380859375</ele>
        <time>2003-08-30T11:53:15Z</time>
      </trkpt>
      <trkpt lat="43.738778131082654" lon="10.548522295430303">
        <ele>659.12109375</ele>
        <time>2003-08-30T11:53:16Z</time>
      </trkpt>
      <trkpt lat="43.738639242947102" lon="10.54850553162396">
        <ele>659.12109375</ele>
        <time>2003-08-30T11:53:17Z</time>
      </trkpt>
      <trkpt lat="43.738495744764805" lon="10.54848700761795">
        <ele>659.12109375</ele>
        <time>2003-08-30T11:53:18Z</time>
      </trkpt>
      <trkpt lat="43.738355934619904" lon="10.548461526632309">
        <ele>658.640380859375</ele>
        <time>2003-08-30T11:53:19Z</time>
      </trkpt>
      <trkpt lat="43.738226685672998" lon="10.548431687057018">
        <ele>657.198486328125</ele>
        <time>2003-08-30T11:53:20Z</time>
      </trkpt>
      <trkpt lat="43.738096179440618" lon="10.548399416729808">
        <ele>656.7177734375</ele>
        <time>2003-08-30T11:53:21Z</time>
      </trkpt>
      <trkpt lat="43.738002637401223" lon="10.548359183594584">
        <ele>656.237060546875</ele>
        <time>2003-08-30T11:53:22Z</time>
      </trkpt>
      <trkpt lat="43.737911358475685" lon="10.548312328755856">
        <ele>654.795166015625</ele>
        <time>2003-08-30T11:53:23Z</time>
      </trkpt>
      <trkpt lat="43.737742211669683" lon="10.548263629898429">
        <ele>654.314697265625</ele>
        <time>2003-08-30T11:53:25Z</time>
      </trkpt>
      <trkpt lat="43.737570885568857" lon="10.548240076750517">
        <ele>650.94970703125</ele>
        <time>2003-08-30T11:53:27Z</time>
      </trkpt>
      <trkpt lat="43.7374029122293" lon="10.548263797536492">
        <ele>648.54638671875</ele>
        <time>2003-08-30T11:53:29Z</time>
      </trkpt>
      <trkpt lat="43.737225467339158" lon="10.548325404524803">
        <ele>645.181884765625</ele>
        <time>2003-08-30T11:53:31Z</time>
      </trkpt>
      <trkpt lat="43.73705942183733" lon="10.548420120030642">
        <ele>643.25927734375</ele>
        <time>2003-08-30T11:53:33Z</time>
      </trkpt>
      <trkpt lat="43.736925143748522" lon="10.548528330400586">
        <ele>642.77880859375</ele>
        <time>2003-08-30T11:53:35Z</time>
      </trkpt>
      <trkpt lat="43.736796397715807" lon="10.548622123897076">
        <ele>641.336669921875</ele>
        <time>2003-08-30T11:53:37Z</time>
      </trkpt>
      <trkpt lat="43.73671886511147" lon="10.548778027296066">
        <ele>639.4140625</ele>
        <time>2003-08-30T11:53:41Z</time>
      </trkpt>
      <trkpt lat="43.736620126292109" lon="10.549114309251308">
        <ele>638.93359375</ele>
        <time>2003-08-30T11:54:19Z</time>
      </trkpt>
      <trkpt lat="43.736728671938181" lon="10.549262333661318">
        <ele>637.0107421875</ele>
        <time>2003-08-30T11:54:45Z</time>
      </trkpt>
      <trkpt lat="43.736813412979245" lon="10.549365766346455">
        <ele>637.491455078125</ele>
        <time>2003-08-30T11:54:50Z</time>
      </trkpt>
      <trkpt lat="43.736873175948858" lon="10.54950482212007">
        <ele>637.491455078125</ele>
        <time>2003-08-30T11:54:55Z</time>
      </trkpt>
      <trkpt lat="43.736933274194598" lon="10.549625437706709">
        <ele>637.0107421875</ele>
        <time>2003-08-30T11:54:59Z</time>
      </trkpt>
      <trkpt lat="43.736994378268719" lon="10.549752255901694">
        <ele>636.5302734375</ele>
        <time>2003-08-30T11:55:03Z</time>
      </trkpt>
      <trkpt lat="43.73706579208374" lon="10.549893910065293">
        <ele>636.5302734375</ele>
        <time>2003-08-30T11:55:07Z</time>
      </trkpt>
      <trkpt lat="43.737133266404271" lon="10.550018716603518">
        <ele>636.5302734375</ele>
        <time>2003-08-30T11:55:10Z</time>
      </trkpt>
      <trkpt lat="43.737194370478392" lon="10.550135895609856">
        <ele>635.568603515625</ele>
        <time>2003-08-30T11:55:13Z</time>
      </trkpt>
      <trkpt lat="43.737264946103096" lon="10.550268664956093">
        <ele>635.568603515625</ele>
        <time>2003-08-30T11:55:16Z</time>
      </trkpt>
      <trkpt lat="43.737333342432976" lon="10.550407972186804">
        <ele>634.607421875</ele>
        <time>2003-08-30T11:55:19Z</time>
      </trkpt>
      <trkpt lat="43.737405762076378" lon="10.550587847828865">
        <ele>634.126708984375</ele>
        <time>2003-08-30T11:55:22Z</time>
      </trkpt>
      <trkpt lat="43.737462088465691" lon="10.550761101767421">
        <ele>632.2041015625</ele>
        <time>2003-08-30T11:55:25Z</time>
      </trkpt>
      <trkpt lat="43.7375133857131" lon="10.550977773964405">
        <ele>631.723388671875</ele>
        <time>2003-08-30T11:55:28Z</time>
      </trkpt>
      <trkpt lat="43.737541465088725" lon="10.551118925213814">
        <ele>631.723388671875</ele>
        <time>2003-08-30T11:55:30Z</time>
      </trkpt>
      <trkpt lat="43.737558061257005" lon="10.551282707601786">
        <ele>631.242919921875</ele>
        <time>2003-08-30T11:55:32Z</time>
      </trkpt>
      <trkpt lat="43.737568790093064" lon="10.551452357321978">
        <ele>630.76220703125</ele>
        <time>2003-08-30T11:55:34Z</time>
      </trkpt>
      <trkpt lat="43.737582955509424" lon="10.55162007920444">
        <ele>630.281494140625</ele>
        <time>2003-08-30T11:55:36Z</time>
      </trkpt>
      <trkpt lat="43.737591924145818" lon="10.551773803308606">
        <ele>629.320068359375</ele>
        <time>2003-08-30T11:55:38Z</time>
      </trkpt>
      <trkpt lat="43.737592762336135" lon="10.551943201571703">
        <ele>629.80078125</ele>
        <time>2003-08-30T11:55:40Z</time>
      </trkpt>
      <trkpt lat="43.737600976601243" lon="10.55210673250258">
        <ele>629.320068359375</ele>
        <time>2003-08-30T11:55:42Z</time>
      </trkpt>
      <trkpt lat="43.737611034885049" lon="10.552284261211753">
        <ele>628.839599609375</ele>
        <time>2003-08-30T11:55:44Z</time>
      </trkpt>
      <trkpt lat="43.737622601911426" lon="10.552464136853814">
        <ele>628.35888671875</ele>
        <time>2003-08-30T11:55:46Z</time>
      </trkpt>
      <trkpt lat="43.737631486728787" lon="10.552643006667495">
        <ele>627.878173828125</ele>
        <time>2003-08-30T11:55:48Z</time>
      </trkpt>
      <trkpt lat="43.73764380812645" lon="10.552832689136267">
        <ele>627.397705078125</ele>
        <time>2003-08-30T11:55:50Z</time>
      </trkpt>
      <trkpt lat="43.737663421779871" lon="10.553030669689178">
        <ele>626.9169921875</ele>
        <time>2003-08-30T11:55:52Z</time>
      </trkpt>
      <trkpt lat="43.737685130909085" lon="10.553234852850437">
        <ele>625.95556640625</ele>
        <time>2003-08-30T11:55:54Z</time>
      </trkpt>
      <trkpt lat="43.737720334902406" lon="10.553424619138241">
        <ele>624.994384765625</ele>
        <time>2003-08-30T11:55:56Z</time>
      </trkpt>
      <trkpt lat="43.73777431435883" lon="10.553615391254425">
        <ele>624.994384765625</ele>
        <time>2003-08-30T11:55:58Z</time>
      </trkpt>
      <trkpt lat="43.737833239138126" lon="10.55377347394824">
        <ele>623.07177734375</ele>
        <time>2003-08-30T11:56:00Z</time>
      </trkpt>
      <trkpt lat="43.73790180310607" lon="10.553933400660753">
        <ele>624.994384765625</ele>
        <time>2003-08-30T11:56:02Z</time>
      </trkpt>
      <trkpt lat="43.737968858331442" lon="10.554082514718175">
        <ele>624.032958984375</ele>
        <time>2003-08-30T11:56:04Z</time>
      </trkpt>
      <trkpt lat="43.738064831122756" lon="10.554227521643043">
        <ele>623.07177734375</ele>
        <time>2003-08-30T11:56:06Z</time>
      </trkpt>
      <trkpt lat="43.738185111433268" lon="10.554344533011317">
        <ele>622.591064453125</ele>
        <time>2003-08-30T11:56:08Z</time>
      </trkpt>
      <trkpt lat="43.738298518583179" lon="10.554482499137521">
        <ele>622.591064453125</ele>
        <time>2003-08-30T11:56:10Z</time>
      </trkpt>
      <trkpt lat="43.738346714526415" lon="10.554681150242686">
        <ele>622.591064453125</ele>
        <time>2003-08-30T11:56:12Z</time>
      </trkpt>
      <trkpt lat="43.738383008167148" lon="10.554876867681742">
        <ele>621.149169921875</ele>
        <time>2003-08-30T11:56:14Z</time>
      </trkpt>
      <trkpt lat="43.738399436697364" lon="10.555064538493752">
        <ele>619.70703125</ele>
        <time>2003-08-30T11:56:16Z</time>
      </trkpt>
      <trkpt lat="43.738400526344776" lon="10.555242151021957">
        <ele>619.226318359375</ele>
        <time>2003-08-30T11:56:18Z</time>
      </trkpt>
      <trkpt lat="43.738382002338767" lon="10.555427726358175">
        <ele>617.7841796875</ele>
        <time>2003-08-30T11:56:20Z</time>
      </trkpt>
      <trkpt lat="43.73836356215179" lon="10.555603746324778">
        <ele>617.3037109375</ele>
        <time>2003-08-30T11:56:22Z</time>
      </trkpt>
      <trkpt lat="43.738340260460973" lon="10.555776664987206">
        <ele>616.822998046875</ele>
        <time>2003-08-30T11:56:24Z</time>
      </trkpt>
      <trkpt lat="43.738315617665648" lon="10.555943297222257">
        <ele>615.86181640625</ele>
        <time>2003-08-30T11:56:26Z</time>
      </trkpt>
      <trkpt lat="43.738280329853296" lon="10.556102050468326">
        <ele>615.381103515625</ele>
        <time>2003-08-30T11:56:28Z</time>
      </trkpt>
      <trkpt lat="43.738240599632263" lon="10.556259881705046">
        <ele>613.93896484375</ele>
        <time>2003-08-30T11:56:30Z</time>
      </trkpt>
      <trkpt lat="43.738196678459644" lon="10.556418634951115">
        <ele>612.977783203125</ele>
        <time>2003-08-30T11:56:32Z</time>
      </trkpt>
      <trkpt lat="43.738147895783186" lon="10.556577891111374">
        <ele>611.535888671875</ele>
        <time>2003-08-30T11:56:34Z</time>
      </trkpt>
      <trkpt lat="43.738099783658981" lon="10.556744690984488">
        <ele>611.05517578125</ele>
        <time>2003-08-30T11:56:36Z</time>
      </trkpt>
      <trkpt lat="43.73804546892643" lon="10.556922219693661">
        <ele>610.09375</ele>
        <time>2003-08-30T11:56:38Z</time>
      </trkpt>
      <trkpt lat="43.737986963242292" lon="10.557102179154754">
        <ele>609.132568359375</ele>
        <time>2003-08-30T11:56:40Z</time>
      </trkpt>
      <trkpt lat="43.737922171130776" lon="10.557294795289636">
        <ele>608.65185546875</ele>
        <time>2003-08-30T11:56:42Z</time>
      </trkpt>
      <trkpt lat="43.737863162532449" lon="10.557470563799143">
        <ele>607.2099609375</ele>
        <time>2003-08-30T11:56:44Z</time>
      </trkpt>
      <trkpt lat="43.737808093428612" lon="10.557664772495627">
        <ele>606.729248046875</ele>
        <time>2003-08-30T11:56:46Z</time>
      </trkpt>
      <trkpt lat="43.737749420106411" lon="10.557871386408806">
        <ele>605.76806640625</ele>
        <time>2003-08-30T11:56:48Z</time>
      </trkpt>
      <trkpt lat="43.737677000463009" lon="10.558084538206458">
        <ele>605.287353515625</ele>
        <time>2003-08-30T11:56:50Z</time>
      </trkpt>
      <trkpt lat="43.737596618011594" lon="10.558289978653193">
        <ele>605.76806640625</ele>
        <time>2003-08-30T11:56:52Z</time>
      </trkpt>
      <trkpt lat="43.737552613019943" lon="10.558386454358697">
        <ele>605.287353515625</ele>
        <time>2003-08-30T11:56:53Z</time>
      </trkpt>
      <trkpt lat="43.737461920827627" lon="10.558596504852176">
        <ele>605.287353515625</ele>
        <time>2003-08-30T11:56:55Z</time>
      </trkpt>
      <trkpt lat="43.737414479255676" lon="10.558711085468531">
        <ele>604.326171875</ele>
        <time>2003-08-30T11:56:56Z</time>
      </trkpt>
      <trkpt lat="43.737367205321789" lon="10.558820469304919">
        <ele>604.326171875</ele>
        <time>2003-08-30T11:56:57Z</time>
      </trkpt>
      <trkpt lat="43.737319344654679" lon="10.558935552835464">
        <ele>604.326171875</ele>
        <time>2003-08-30T11:56:58Z</time>
      </trkpt>
      <trkpt lat="43.737271735444665" lon="10.559053234755993">
        <ele>603.364501953125</ele>
        <time>2003-08-30T11:56:59Z</time>
      </trkpt>
      <trkpt lat="43.737222785130143" lon="10.55917133577168">
        <ele>602.8837890625</ele>
        <time>2003-08-30T11:57:00Z</time>
      </trkpt>
      <trkpt lat="43.737172493711114" lon="10.559285497292876">
        <ele>602.403076171875</ele>
        <time>2003-08-30T11:57:01Z</time>
      </trkpt>
      <trkpt lat="43.737120190635324" lon="10.559398485347629">
        <ele>602.403076171875</ele>
        <time>2003-08-30T11:57:02Z</time>
      </trkpt>
      <trkpt lat="43.737067300826311" lon="10.559511976316571">
        <ele>601.44189453125</ele>
        <time>2003-08-30T11:57:03Z</time>
      </trkpt>
      <trkpt lat="43.737017009407282" lon="10.559626305475831">
        <ele>601.44189453125</ele>
        <time>2003-08-30T11:57:04Z</time>
      </trkpt>
      <trkpt lat="43.736967137083411" lon="10.559740969911218">
        <ele>600</ele>
        <time>2003-08-30T11:57:05Z</time>
      </trkpt>
      <trkpt lat="43.736920198425651" lon="10.559856304898858">
        <ele>600</ele>
        <time>2003-08-30T11:57:06Z</time>
      </trkpt>
      <trkpt lat="43.736871583387256" lon="10.559974992647767">
        <ele>599.519287109375</ele>
        <time>2003-08-30T11:57:07Z</time>
      </trkpt>
      <trkpt lat="43.736824980005622" lon="10.560102900490165">
        <ele>599.03857421875</ele>
        <time>2003-08-30T11:57:08Z</time>
      </trkpt>
      <trkpt lat="43.736783070489764" lon="10.56023164652288">
        <ele>599.03857421875</ele>
        <time>2003-08-30T11:57:09Z</time>
      </trkpt>
      <trkpt lat="43.73674476519227" lon="10.560363829135895">
        <ele>598.557861328125</ele>
        <time>2003-08-30T11:57:10Z</time>
      </trkpt>
      <trkpt lat="43.736706459894776" lon="10.560497269034386">
        <ele>598.077392578125</ele>
        <time>2003-08-30T11:57:11Z</time>
      </trkpt>
      <trkpt lat="43.736673854291439" lon="10.560631882399321">
        <ele>598.077392578125</ele>
        <time>2003-08-30T11:57:12Z</time>
      </trkpt>
      <trkpt lat="43.736644685268402" lon="10.56076867505908">
        <ele>598.557861328125</ele>
        <time>2003-08-30T11:57:13Z</time>
      </trkpt>
      <trkpt lat="43.736614678055048" lon="10.560905802994967">
        <ele>598.077392578125</ele>
        <time>2003-08-30T11:57:14Z</time>
      </trkpt>
      <trkpt lat="43.736586598679423" lon="10.561042595654726">
        <ele>597.5966796875</ele>
        <time>2003-08-30T11:57:15Z</time>
      </trkpt>
      <trkpt lat="43.736567990854383" lon="10.561190703883767">
        <ele>597.115966796875</ele>
        <time>2003-08-30T11:57:16Z</time>
      </trkpt>
      <trkpt lat="43.736555501818657" lon="10.561340237036347">
        <ele>597.115966796875</ele>
        <time>2003-08-30T11:57:17Z</time>
      </trkpt>
      <trkpt lat="43.736570589244366" lon="10.561490776017308">
        <ele>596.635498046875</ele>
        <time>2003-08-30T11:57:18Z</time>
      </trkpt>
      <trkpt lat="43.73659573495388" lon="10.561648355796933">
        <ele>596.635498046875</ele>
        <time>2003-08-30T11:57:19Z</time>
      </trkpt>
      <trkpt lat="43.736623814329505" lon="10.561797134578228">
        <ele>596.15478515625</ele>
        <time>2003-08-30T11:57:20Z</time>
      </trkpt>
      <trkpt lat="43.736661616712809" lon="10.561942812055349">
        <ele>593.75146484375</ele>
        <time>2003-08-30T11:57:21Z</time>
      </trkpt>
      <trkpt lat="43.736691204831004" lon="10.562082873657346">
        <ele>596.15478515625</ele>
        <time>2003-08-30T11:57:22Z</time>
      </trkpt>
      <trkpt lat="43.736718613654375" lon="10.562228048220277">
        <ele>594.712646484375</ele>
        <time>2003-08-30T11:57:23Z</time>
      </trkpt>
      <trkpt lat="43.736760187894106" lon="10.562514709308743">
        <ele>593.75146484375</ele>
        <time>2003-08-30T11:57:25Z</time>
      </trkpt>
      <trkpt lat="43.736790781840682" lon="10.56264890357852">
        <ele>592.790283203125</ele>
        <time>2003-08-30T11:57:26Z</time>
      </trkpt>
      <trkpt lat="43.736807210370898" lon="10.56278670206666">
        <ele>592.790283203125</ele>
        <time>2003-08-30T11:57:27Z</time>
      </trkpt>
      <trkpt lat="43.736824812367558" lon="10.562931457534432">
        <ele>591.828857421875</ele>
        <time>2003-08-30T11:57:28Z</time>
      </trkpt>
      <trkpt lat="43.736858172342181" lon="10.563061963766813">
        <ele>591.828857421875</ele>
        <time>2003-08-30T11:57:29Z</time>
      </trkpt>
      <trkpt lat="43.736876863986254" lon="10.563196325674653">
        <ele>590.386962890625</ele>
        <time>2003-08-30T11:57:30Z</time>
      </trkpt>
      <trkpt lat="43.736895555630326" lon="10.563330603763461">
        <ele>590.386962890625</ele>
        <time>2003-08-30T11:57:31Z</time>
      </trkpt>
      <trkpt lat="43.736914247274399" lon="10.563464881852269">
        <ele>589.90625</ele>
        <time>2003-08-30T11:57:32Z</time>
      </trkpt>
      <trkpt lat="43.736932938918471" lon="10.563599243760109">
        <ele>589.425537109375</ele>
        <time>2003-08-30T11:57:33Z</time>
      </trkpt>
      <trkpt lat="43.736951630562544" lon="10.563733521848917">
        <ele>588.46435546875</ele>
        <time>2003-08-30T11:57:34Z</time>
      </trkpt>
      <trkpt lat="43.736994629725814" lon="10.563857657834888">
        <ele>587.9833984375</ele>
        <time>2003-08-30T11:57:35Z</time>
      </trkpt>
      <trkpt lat="43.737019691616297" lon="10.563986906781793">
        <ele>587.502685546875</ele>
        <time>2003-08-30T11:57:36Z</time>
      </trkpt>
      <trkpt lat="43.737044669687748" lon="10.564116155728698">
        <ele>587.02197265625</ele>
        <time>2003-08-30T11:57:37Z</time>
      </trkpt>
      <trkpt lat="43.737069647759199" lon="10.564245404675603">
        <ele>586.54150390625</ele>
        <time>2003-08-30T11:57:38Z</time>
      </trkpt>
      <trkpt lat="43.737119436264038" lon="10.564362583681941">
        <ele>586.060791015625</ele>
        <time>2003-08-30T11:57:39Z</time>
      </trkpt>
      <trkpt lat="43.737259162589908" lon="10.564385633915663">
        <ele>585.580078125</ele>
        <time>2003-08-30T11:57:40Z</time>
      </trkpt>
      <trkpt lat="43.737429734319448" lon="10.564395608380437">
        <ele>586.060791015625</ele>
        <time>2003-08-30T11:57:41Z</time>
      </trkpt>
      <trkpt lat="43.737521013244987" lon="10.564442882314324">
        <ele>585.099609375</ele>
        <time>2003-08-30T11:57:42Z</time>
      </trkpt>
      <trkpt lat="43.737612292170525" lon="10.564490156248212">
        <ele>584.618896484375</ele>
        <time>2003-08-30T11:57:43Z</time>
      </trkpt>
      <trkpt lat="43.737725280225277" lon="10.564525779336691">
        <ele>584.618896484375</ele>
        <time>2003-08-30T11:57:44Z</time>
      </trkpt>
      <trkpt lat="43.737895851954818" lon="10.564604317769408">
        <ele>584.13818359375</ele>
        <time>2003-08-30T11:57:46Z</time>
      </trkpt>
      <trkpt lat="43.73800003901124" lon="10.564691070467234">
        <ele>584.13818359375</ele>
        <time>2003-08-30T11:57:48Z</time>
      </trkpt>
      <trkpt lat="43.738121408969164" lon="10.564764495939016">
        <ele>583.657470703125</ele>
        <time>2003-08-30T11:57:50Z</time>
      </trkpt>
      <trkpt lat="43.738225176930428" lon="10.564804561436176">
        <ele>582.6962890625</ele>
        <time>2003-08-30T11:57:52Z</time>
      </trkpt>
      <trkpt lat="43.738351576030254" lon="10.564872957766056">
        <ele>582.215576171875</ele>
        <time>2003-08-30T11:57:55Z</time>
      </trkpt>
      <trkpt lat="43.738477975130081" lon="10.564941354095936">
        <ele>580.773681640625</ele>
        <time>2003-08-30T11:57:58Z</time>
      </trkpt>
      <trkpt lat="43.738562213256955" lon="10.564987035468221">
        <ele>580.773681640625</ele>
        <time>2003-08-30T11:58:00Z</time>
      </trkpt>
      <trkpt lat="43.738646535202861" lon="10.565032633021474">
        <ele>579.812255859375</ele>
        <time>2003-08-30T11:58:02Z</time>
      </trkpt>
      <trkpt lat="43.738772934302688" lon="10.565101029351354">
        <ele>580.29296875</ele>
        <time>2003-08-30T11:58:05Z</time>
      </trkpt>
      <trkpt lat="43.738899333402514" lon="10.565169425681233">
        <ele>580.773681640625</ele>
        <time>2003-08-30T11:58:08Z</time>
      </trkpt>
      <trkpt lat="43.739025732502341" lon="10.565237905830145">
        <ele>580.773681640625</ele>
        <time>2003-08-30T11:58:11Z</time>
      </trkpt>
      <trkpt lat="43.739111227914691" lon="10.565234133973718">
        <ele>580.773681640625</ele>
        <time>2003-08-30T11:58:14Z</time>
      </trkpt>
      <trkpt lat="43.738702861592174" lon="10.564481858164072">
        <ele>581.73486328125</ele>
        <time>2003-08-30T12:00:07Z</time>
      </trkpt>
      <trkpt lat="43.738824818283319" lon="10.564401391893625">
        <ele>583.1767578125</ele>
        <time>2003-08-30T12:00:17Z</time>
      </trkpt>
      <trkpt lat="43.738982230424881" lon="10.564308101311326">
        <ele>584.618896484375</ele>
        <time>2003-08-30T12:00:24Z</time>
      </trkpt>
      <trkpt lat="43.739123214036226" lon="10.564222270622849">
        <ele>583.657470703125</ele>
        <time>2003-08-30T12:00:29Z</time>
      </trkpt>
      <trkpt lat="43.739220360293984" lon="10.564156053587794">
        <ele>583.657470703125</ele>
        <time>2003-08-30T12:00:32Z</time>
      </trkpt>
      <trkpt lat="43.739320943132043" lon="10.564086986705661">
        <ele>584.13818359375</ele>
        <time>2003-08-30T12:00:35Z</time>
      </trkpt>
      <trkpt lat="43.739424627274275" lon="10.564004760235548">
        <ele>583.657470703125</ele>
        <time>2003-08-30T12:00:38Z</time>
      </trkpt>
      <trkpt lat="43.739521438255906" lon="10.563914068043232">
        <ele>583.657470703125</ele>
        <time>2003-08-30T12:00:41Z</time>
      </trkpt>
      <trkpt lat="43.739616153761744" lon="10.56382748298347">
        <ele>583.657470703125</ele>
        <time>2003-08-30T12:00:44Z</time>
      </trkpt>
      <trkpt lat="43.739727381616831" lon="10.563725642859936">
        <ele>583.657470703125</ele>
        <time>2003-08-30T12:00:48Z</time>
      </trkpt>
      <trkpt lat="43.739836681634188" lon="10.563653893768787">
        <ele>585.099609375</ele>
        <time>2003-08-30T12:00:52Z</time>
      </trkpt>
      <trkpt lat="43.739959141239524" lon="10.563629502430558">
        <ele>587.02197265625</ele>
        <time>2003-08-30T12:00:57Z</time>
      </trkpt>
      <trkpt lat="43.740080595016479" lon="10.563605781644583">
        <ele>587.9833984375</ele>
        <time>2003-08-30T12:01:02Z</time>
      </trkpt>
      <trkpt lat="43.740194085985422" lon="10.563580803573132">
        <ele>588.945068359375</ele>
        <time>2003-08-30T12:01:07Z</time>
      </trkpt>
      <trkpt lat="43.740297937765718" lon="10.563553813844919">
        <ele>590.386962890625</ele>
        <time>2003-08-30T12:01:12Z</time>
      </trkpt>
      <trkpt lat="43.740405477583408" lon="10.563518023118377">
        <ele>591.828857421875</ele>
        <time>2003-08-30T12:01:18Z</time>
      </trkpt>
      <trkpt lat="43.740511843934655" lon="10.563430264592171">
        <ele>592.3095703125</ele>
        <time>2003-08-30T12:01:24Z</time>
      </trkpt>
      <trkpt lat="43.74059516005218" lon="10.563332028687">
        <ele>592.790283203125</ele>
        <time>2003-08-30T12:01:31Z</time>
      </trkpt>
      <trkpt lat="43.740667579695582" lon="10.563232200220227">
        <ele>593.75146484375</ele>
        <time>2003-08-30T12:01:38Z</time>
      </trkpt>
      <trkpt lat="43.740763971582055" lon="10.563135053962469">
        <ele>596.15478515625</ele>
        <time>2003-08-30T12:01:45Z</time>
      </trkpt>
      <trkpt lat="43.74087855219841" lon="10.563076715916395">
        <ele>597.115966796875</ele>
        <time>2003-08-30T12:01:52Z</time>
      </trkpt>
      <trkpt lat="43.740997323766351" lon="10.563092306256294">
        <ele>597.115966796875</ele>
        <time>2003-08-30T12:01:59Z</time>
      </trkpt>
      <trkpt lat="43.741043927147985" lon="10.563208479434252">
        <ele>597.5966796875</ele>
        <time>2003-08-30T12:02:05Z</time>
      </trkpt>
      <trkpt lat="43.741041915491223" lon="10.56334518827498">
        <ele>598.077392578125</ele>
        <time>2003-08-30T12:02:11Z</time>
      </trkpt>
      <trkpt lat="43.741041077300906" lon="10.563472509384155">
        <ele>598.077392578125</ele>
        <time>2003-08-30T12:02:17Z</time>
      </trkpt>
      <trkpt lat="43.741053817793727" lon="10.563603350892663">
        <ele>598.077392578125</ele>
        <time>2003-08-30T12:02:23Z</time>
      </trkpt>
      <trkpt lat="43.74108768068254" lon="10.563736455515027">
        <ele>598.077392578125</ele>
        <time>2003-08-30T12:02:29Z</time>
      </trkpt>
      <trkpt lat="43.741119531914592" lon="10.563862267881632">
        <ele>599.03857421875</ele>
        <time>2003-08-30T12:02:35Z</time>
      </trkpt>
      <trkpt lat="43.741157418116927" lon="10.564003419131041">
        <ele>600.480712890625</ele>
        <time>2003-08-30T12:02:41Z</time>
      </trkpt>
      <trkpt lat="43.741189353168011" lon="10.564143396914005">
        <ele>601.44189453125</ele>
        <time>2003-08-30T12:02:47Z</time>
      </trkpt>
      <trkpt lat="43.741229837760329" lon="10.564284631982446">
        <ele>601.922607421875</ele>
        <time>2003-08-30T12:02:53Z</time>
      </trkpt>
      <trkpt lat="43.741261605173349" lon="10.564416311681271">
        <ele>601.922607421875</ele>
        <time>2003-08-30T12:02:59Z</time>
      </trkpt>
      <trkpt lat="43.741298485547304" lon="10.56455310434103">
        <ele>602.403076171875</ele>
        <time>2003-08-30T12:03:05Z</time>
      </trkpt>
      <trkpt lat="43.741347435861826" lon="10.564676569774747">
        <ele>601.44189453125</ele>
        <time>2003-08-30T12:03:09Z</time>
      </trkpt>
      <trkpt lat="43.741422034800053" lon="10.564777906984091">
        <ele>601.44189453125</ele>
        <time>2003-08-30T12:03:13Z</time>
      </trkpt>
      <trkpt lat="43.741492694243789" lon="10.564886452630162">
        <ele>600.961181640625</ele>
        <time>2003-08-30T12:03:17Z</time>
      </trkpt>
      <trkpt lat="43.741552541032434" lon="10.564989717677236">
        <ele>600.961181640625</ele>
        <time>2003-08-30T12:03:21Z</time>
      </trkpt>
      <trkpt lat="43.741601994261146" lon="10.565125839784741">
        <ele>602.403076171875</ele>
        <time>2003-08-30T12:03:51Z</time>
      </trkpt>
      <trkpt lat="43.741626217961311" lon="10.565300183370709">
        <ele>599.519287109375</ele>
        <time>2003-08-30T12:03:58Z</time>
      </trkpt>
      <trkpt lat="43.741550864651799" lon="10.565401101484895">
        <ele>598.557861328125</ele>
        <time>2003-08-30T12:04:02Z</time>
      </trkpt>
      <trkpt lat="43.741465201601386" lon="10.565466480329633">
        <ele>595.193359375</ele>
        <time>2003-08-30T12:04:06Z</time>
      </trkpt>
      <trkpt lat="43.741376185789704" lon="10.56553278118372">
        <ele>592.790283203125</ele>
        <time>2003-08-30T12:04:10Z</time>
      </trkpt>
      <trkpt lat="43.741228580474854" lon="10.565525069832802">
        <ele>591.34814453125</ele>
        <time>2003-08-30T12:04:13Z</time>
      </trkpt>
      <trkpt lat="43.741119112819433" lon="10.56555038318038">
        <ele>590.386962890625</ele>
        <time>2003-08-30T12:04:15Z</time>
      </trkpt>
      <trkpt lat="43.741001514717937" lon="10.565565302968025">
        <ele>590.867431640625</ele>
        <time>2003-08-30T12:04:17Z</time>
      </trkpt>
      <trkpt lat="43.74090638011694" lon="10.565568739548326">
        <ele>589.425537109375</ele>
        <time>2003-08-30T12:04:19Z</time>
      </trkpt>
      <trkpt lat="43.740800265222788" lon="10.565576534718275">
        <ele>588.46435546875</ele>
        <time>2003-08-30T12:04:22Z</time>
      </trkpt>
      <trkpt lat="43.740688785910606" lon="10.565548203885555">
        <ele>587.502685546875</ele>
        <time>2003-08-30T12:04:26Z</time>
      </trkpt>
      <trkpt lat="43.740582168102264" lon="10.565520459786057">
        <ele>586.54150390625</ele>
        <time>2003-08-30T12:04:31Z</time>
      </trkpt>
      <trkpt lat="43.740527685731649" lon="10.565542252734303">
        <ele>581.73486328125</ele>
        <time>2003-08-30T12:05:51Z</time>
      </trkpt>
      <trkpt lat="43.740527685731649" lon="10.565542252734303">
        <ele>581.73486328125</ele>
        <time>2003-08-30T12:36:40Z</time>
      </trkpt>
      <trkpt lat="43.740527685731649" lon="10.565542252734303">
        <ele>583.657470703125</ele>
        <time>2003-08-30T12:36:49Z</time>
      </trkpt>
      <trkpt lat="43.740527685731649" lon="10.565542252734303">
        <ele>585.099609375</ele>
        <time>2003-08-30T12:46:49Z</time>
      </trkpt>
    </trkseg>
  </trk>

</gpx>
